<?xml version="1.0" encoding="UTF-8"?>
<gpx version="1.1" creator="https://www.youtrack.es" xsi:schemaLocation="http://www.topografix.com/GPX/1/1 http://www.topografix.com/GPX/1/1/gpx.xsd http://www.garmin.com/xmlschemas/GpxExtensions/v3 http://www.garmin.com/xmlschemas/GpxExtensionsv3.xsd http://www.garmin.com/xmlschemas/TrackPointExtension/v1 http://www.garmin.com/xmlschemas/TrackPointExtensionv1.xsd" xmlns:gpxtpx="http://www.garmin.com/xmlschemas/TrackPointExtension/v1" xmlns:gpxx="http://www.garmin.com/xmlschemas/GpxExtensions/v3" xmlns:xsi="http://www.w3.org/2001/XMLSchema-instance">
  <metadata>
    <link href="https://www.youtrack.es">
      <text>YouTrack.es</text>
    </link>
    <time>2026-05-09T01:51:28Z</time>
  </metadata>
  <trk>
    <src>https://www.youtrack.es</src>
    <link href="https://www.youtrack.es/ruta/17323-morning-hike">
      <text>YouTrack.es</text>
    </link>
    <trkseg>
      <trkpt lat="39.9009930" lon="-0.3415510">
        <ele>512.3</ele>
        <time>2020-11-11T09:32:00Z</time>
      </trkpt>
      <trkpt lat="39.9009930" lon="-0.3415510">
        <ele>512.3</ele>
        <time>2020-11-11T09:32:19Z</time>
      </trkpt>
      <trkpt lat="39.9009670" lon="-0.3415340">
        <ele>512.6</ele>
        <time>2020-11-11T09:32:21Z</time>
      </trkpt>
      <trkpt lat="39.9008470" lon="-0.3414830">
        <ele>513.4</ele>
        <time>2020-11-11T09:32:29Z</time>
      </trkpt>
      <trkpt lat="39.9008340" lon="-0.3414790">
        <ele>513.5</ele>
        <time>2020-11-11T09:32:30Z</time>
      </trkpt>
      <trkpt lat="39.9008070" lon="-0.3414690">
        <ele>513.6</ele>
        <time>2020-11-11T09:32:32Z</time>
      </trkpt>
      <trkpt lat="39.9007930" lon="-0.3414660">
        <ele>513.7</ele>
        <time>2020-11-11T09:32:33Z</time>
      </trkpt>
      <trkpt lat="39.9007790" lon="-0.3414640">
        <ele>513.7</ele>
        <time>2020-11-11T09:32:34Z</time>
      </trkpt>
      <trkpt lat="39.9007650" lon="-0.3414630">
        <ele>513.7</ele>
        <time>2020-11-11T09:32:35Z</time>
      </trkpt>
      <trkpt lat="39.9007520" lon="-0.3414630">
        <ele>513.8</ele>
        <time>2020-11-11T09:32:36Z</time>
      </trkpt>
      <trkpt lat="39.9007250" lon="-0.3414620">
        <ele>513.8</ele>
        <time>2020-11-11T09:32:38Z</time>
      </trkpt>
      <trkpt lat="39.9007120" lon="-0.3414630">
        <ele>513.8</ele>
        <time>2020-11-11T09:32:39Z</time>
      </trkpt>
      <trkpt lat="39.9006890" lon="-0.3414760">
        <ele>513.8</ele>
        <time>2020-11-11T09:32:41Z</time>
      </trkpt>
      <trkpt lat="39.9006500" lon="-0.3415040">
        <ele>513.9</ele>
        <time>2020-11-11T09:32:44Z</time>
      </trkpt>
      <trkpt lat="39.9005010" lon="-0.3415530">
        <ele>513.8</ele>
        <time>2020-11-11T09:32:54Z</time>
      </trkpt>
      <trkpt lat="39.9004800" lon="-0.3415520">
        <ele>513.7</ele>
        <time>2020-11-11T09:32:55Z</time>
      </trkpt>
      <trkpt lat="39.9003370" lon="-0.3416090">
        <ele>513.4</ele>
        <time>2020-11-11T09:33:04Z</time>
      </trkpt>
      <trkpt lat="39.9001490" lon="-0.3416680">
        <ele>513.0</ele>
        <time>2020-11-11T09:33:15Z</time>
      </trkpt>
      <trkpt lat="39.8999970" lon="-0.3417900">
        <ele>513.0</ele>
        <time>2020-11-11T09:33:27Z</time>
      </trkpt>
      <trkpt lat="39.8998470" lon="-0.3419290">
        <ele>512.9</ele>
        <time>2020-11-11T09:33:39Z</time>
      </trkpt>
      <trkpt lat="39.8997780" lon="-0.3420570">
        <ele>512.8</ele>
        <time>2020-11-11T09:33:51Z</time>
      </trkpt>
      <trkpt lat="39.8997930" lon="-0.3421050">
        <ele>512.7</ele>
        <time>2020-11-11T09:34:03Z</time>
      </trkpt>
      <trkpt lat="39.8998010" lon="-0.3421150">
        <ele>512.7</ele>
        <time>2020-11-11T09:34:05Z</time>
      </trkpt>
      <trkpt lat="39.8997970" lon="-0.3421180">
        <ele>512.7</ele>
        <time>2020-11-11T09:34:09Z</time>
      </trkpt>
      <trkpt lat="39.8998010" lon="-0.3421020">
        <ele>512.6</ele>
        <time>2020-11-11T09:34:20Z</time>
      </trkpt>
      <trkpt lat="39.8997990" lon="-0.3420620">
        <ele>512.6</ele>
        <time>2020-11-11T09:34:29Z</time>
      </trkpt>
      <trkpt lat="39.8998480" lon="-0.3420500">
        <ele>512.5</ele>
        <time>2020-11-11T09:34:52Z</time>
      </trkpt>
      <trkpt lat="39.8998590" lon="-0.3420720">
        <ele>512.4</ele>
        <time>2020-11-11T09:35:04Z</time>
      </trkpt>
      <trkpt lat="39.8997290" lon="-0.3422050">
        <ele>512.1</ele>
        <time>2020-11-11T09:35:27Z</time>
      </trkpt>
      <trkpt lat="39.8995910" lon="-0.3422950">
        <ele>511.7</ele>
        <time>2020-11-11T09:35:37Z</time>
      </trkpt>
      <trkpt lat="39.8994900" lon="-0.3424870">
        <ele>511.0</ele>
        <time>2020-11-11T09:35:49Z</time>
      </trkpt>
      <trkpt lat="39.8993940" lon="-0.3427030">
        <ele>510.1</ele>
        <time>2020-11-11T09:36:04Z</time>
      </trkpt>
      <trkpt lat="39.8992810" lon="-0.3428100">
        <ele>508.9</ele>
        <time>2020-11-11T09:36:15Z</time>
      </trkpt>
      <trkpt lat="39.8991190" lon="-0.3427600">
        <ele>506.7</ele>
        <time>2020-11-11T09:36:27Z</time>
      </trkpt>
      <trkpt lat="39.8991100" lon="-0.3427400">
        <ele>506.4</ele>
        <time>2020-11-11T09:36:28Z</time>
      </trkpt>
      <trkpt lat="39.8991030" lon="-0.3427180">
        <ele>506.1</ele>
        <time>2020-11-11T09:36:29Z</time>
      </trkpt>
      <trkpt lat="39.8990930" lon="-0.3426940">
        <ele>505.8</ele>
        <time>2020-11-11T09:36:30Z</time>
      </trkpt>
      <trkpt lat="39.8990670" lon="-0.3426100">
        <ele>504.7</ele>
        <time>2020-11-11T09:36:33Z</time>
      </trkpt>
      <trkpt lat="39.8990620" lon="-0.3425820">
        <ele>504.3</ele>
        <time>2020-11-11T09:36:34Z</time>
      </trkpt>
      <trkpt lat="39.8990560" lon="-0.3425550">
        <ele>503.9</ele>
        <time>2020-11-11T09:36:35Z</time>
      </trkpt>
      <trkpt lat="39.8990390" lon="-0.3424910">
        <ele>503.0</ele>
        <time>2020-11-11T09:36:38Z</time>
      </trkpt>
      <trkpt lat="39.8990350" lon="-0.3424720">
        <ele>502.8</ele>
        <time>2020-11-11T09:36:39Z</time>
      </trkpt>
      <trkpt lat="39.8990370" lon="-0.3423870">
        <ele>501.6</ele>
        <time>2020-11-11T09:36:43Z</time>
      </trkpt>
      <trkpt lat="39.8990350" lon="-0.3423430">
        <ele>501.0</ele>
        <time>2020-11-11T09:36:45Z</time>
      </trkpt>
      <trkpt lat="39.8990350" lon="-0.3422550">
        <ele>499.9</ele>
        <time>2020-11-11T09:36:49Z</time>
      </trkpt>
      <trkpt lat="39.8990280" lon="-0.3422390">
        <ele>499.6</ele>
        <time>2020-11-11T09:36:50Z</time>
      </trkpt>
      <trkpt lat="39.8990190" lon="-0.3422240">
        <ele>499.6</ele>
        <time>2020-11-11T09:36:51Z</time>
      </trkpt>
      <trkpt lat="39.8990060" lon="-0.3422100">
        <ele>499.5</ele>
        <time>2020-11-11T09:36:52Z</time>
      </trkpt>
      <trkpt lat="39.8989580" lon="-0.3421660">
        <ele>499.2</ele>
        <time>2020-11-11T09:36:56Z</time>
      </trkpt>
      <trkpt lat="39.8989490" lon="-0.3421580">
        <ele>499.2</ele>
        <time>2020-11-11T09:36:57Z</time>
      </trkpt>
      <trkpt lat="39.8988880" lon="-0.3421130">
        <ele>498.8</ele>
        <time>2020-11-11T09:37:02Z</time>
      </trkpt>
      <trkpt lat="39.8988730" lon="-0.3421020">
        <ele>498.6</ele>
        <time>2020-11-11T09:37:03Z</time>
      </trkpt>
      <trkpt lat="39.8988090" lon="-0.3420780">
        <ele>498.3</ele>
        <time>2020-11-11T09:37:08Z</time>
      </trkpt>
      <trkpt lat="39.8987940" lon="-0.3420820">
        <ele>498.2</ele>
        <time>2020-11-11T09:37:09Z</time>
      </trkpt>
      <trkpt lat="39.8987770" lon="-0.3420850">
        <ele>498.1</ele>
        <time>2020-11-11T09:37:10Z</time>
      </trkpt>
      <trkpt lat="39.8987570" lon="-0.3420870">
        <ele>497.9</ele>
        <time>2020-11-11T09:37:11Z</time>
      </trkpt>
      <trkpt lat="39.8987420" lon="-0.3420890">
        <ele>497.9</ele>
        <time>2020-11-11T09:37:12Z</time>
      </trkpt>
      <trkpt lat="39.8987280" lon="-0.3420920">
        <ele>497.8</ele>
        <time>2020-11-11T09:37:13Z</time>
      </trkpt>
      <trkpt lat="39.8985410" lon="-0.3421890">
        <ele>496.8</ele>
        <time>2020-11-11T09:37:26Z</time>
      </trkpt>
      <trkpt lat="39.8983450" lon="-0.3422210">
        <ele>496.2</ele>
        <time>2020-11-11T09:37:36Z</time>
      </trkpt>
      <trkpt lat="39.8982640" lon="-0.3422340">
        <ele>496.1</ele>
        <time>2020-11-11T09:37:41Z</time>
      </trkpt>
      <trkpt lat="39.8982150" lon="-0.3422440">
        <ele>496.1</ele>
        <time>2020-11-11T09:37:44Z</time>
      </trkpt>
      <trkpt lat="39.8980450" lon="-0.3422780">
        <ele>496.0</ele>
        <time>2020-11-11T09:37:54Z</time>
      </trkpt>
      <trkpt lat="39.8978570" lon="-0.3423100">
        <ele>495.9</ele>
        <time>2020-11-11T09:38:06Z</time>
      </trkpt>
      <trkpt lat="39.8976690" lon="-0.3422870">
        <ele>495.8</ele>
        <time>2020-11-11T09:38:18Z</time>
      </trkpt>
      <trkpt lat="39.8974830" lon="-0.3422600">
        <ele>495.7</ele>
        <time>2020-11-11T09:38:30Z</time>
      </trkpt>
      <trkpt lat="39.8973250" lon="-0.3423800">
        <ele>495.4</ele>
        <time>2020-11-11T09:38:44Z</time>
      </trkpt>
      <trkpt lat="39.8971510" lon="-0.3424930">
        <ele>495.4</ele>
        <time>2020-11-11T09:38:58Z</time>
      </trkpt>
      <trkpt lat="39.8969810" lon="-0.3425980">
        <ele>496.0</ele>
        <time>2020-11-11T09:39:13Z</time>
      </trkpt>
      <trkpt lat="39.8969060" lon="-0.3426670">
        <ele>496.3</ele>
        <time>2020-11-11T09:39:23Z</time>
      </trkpt>
      <trkpt lat="39.8968900" lon="-0.3426690">
        <ele>496.3</ele>
        <time>2020-11-11T09:39:27Z</time>
      </trkpt>
      <trkpt lat="39.8968830" lon="-0.3426830">
        <ele>496.4</ele>
        <time>2020-11-11T09:39:31Z</time>
      </trkpt>
      <trkpt lat="39.8968810" lon="-0.3426850">
        <ele>496.4</ele>
        <time>2020-11-11T09:39:32Z</time>
      </trkpt>
      <trkpt lat="39.8968590" lon="-0.3427250">
        <ele>496.5</ele>
        <time>2020-11-11T09:39:39Z</time>
      </trkpt>
      <trkpt lat="39.8968170" lon="-0.3427430">
        <ele>496.7</ele>
        <time>2020-11-11T09:39:44Z</time>
      </trkpt>
      <trkpt lat="39.8966330" lon="-0.3427210">
        <ele>497.7</ele>
        <time>2020-11-11T09:39:59Z</time>
      </trkpt>
      <trkpt lat="39.8964610" lon="-0.3427990">
        <ele>498.5</ele>
        <time>2020-11-11T09:40:13Z</time>
      </trkpt>
      <trkpt lat="39.8963370" lon="-0.3428160">
        <ele>499.2</ele>
        <time>2020-11-11T09:40:23Z</time>
      </trkpt>
      <trkpt lat="39.8961480" lon="-0.3428610">
        <ele>500.7</ele>
        <time>2020-11-11T09:40:40Z</time>
      </trkpt>
      <trkpt lat="39.8960850" lon="-0.3428820">
        <ele>501.2</ele>
        <time>2020-11-11T09:40:44Z</time>
      </trkpt>
      <trkpt lat="39.8960150" lon="-0.3429020">
        <ele>501.7</ele>
        <time>2020-11-11T09:40:48Z</time>
      </trkpt>
      <trkpt lat="39.8959820" lon="-0.3429190">
        <ele>502.0</ele>
        <time>2020-11-11T09:40:50Z</time>
      </trkpt>
      <trkpt lat="39.8959660" lon="-0.3429290">
        <ele>502.1</ele>
        <time>2020-11-11T09:40:51Z</time>
      </trkpt>
      <trkpt lat="39.8959500" lon="-0.3429380">
        <ele>502.2</ele>
        <time>2020-11-11T09:40:52Z</time>
      </trkpt>
      <trkpt lat="39.8959320" lon="-0.3429470">
        <ele>502.3</ele>
        <time>2020-11-11T09:40:53Z</time>
      </trkpt>
      <trkpt lat="39.8958800" lon="-0.3429950">
        <ele>502.7</ele>
        <time>2020-11-11T09:40:57Z</time>
      </trkpt>
      <trkpt lat="39.8958420" lon="-0.3430570">
        <ele>503.0</ele>
        <time>2020-11-11T09:41:01Z</time>
      </trkpt>
      <trkpt lat="39.8957960" lon="-0.3431380">
        <ele>503.4</ele>
        <time>2020-11-11T09:41:06Z</time>
      </trkpt>
      <trkpt lat="39.8957900" lon="-0.3433060">
        <ele>504.1</ele>
        <time>2020-11-11T09:41:14Z</time>
      </trkpt>
      <trkpt lat="39.8957920" lon="-0.3433240">
        <ele>504.1</ele>
        <time>2020-11-11T09:41:15Z</time>
      </trkpt>
      <trkpt lat="39.8957920" lon="-0.3433410">
        <ele>504.2</ele>
        <time>2020-11-11T09:41:16Z</time>
      </trkpt>
      <trkpt lat="39.8957950" lon="-0.3433600">
        <ele>504.3</ele>
        <time>2020-11-11T09:41:17Z</time>
      </trkpt>
      <trkpt lat="39.8958130" lon="-0.3436110">
        <ele>505.6</ele>
        <time>2020-11-11T09:41:31Z</time>
      </trkpt>
      <trkpt lat="39.8958360" lon="-0.3437350">
        <ele>506.3</ele>
        <time>2020-11-11T09:41:38Z</time>
      </trkpt>
      <trkpt lat="39.8958350" lon="-0.3438630">
        <ele>507.1</ele>
        <time>2020-11-11T09:41:45Z</time>
      </trkpt>
      <trkpt lat="39.8958140" lon="-0.3439920">
        <ele>507.7</ele>
        <time>2020-11-11T09:41:52Z</time>
      </trkpt>
      <trkpt lat="39.8958060" lon="-0.3441050">
        <ele>508.6</ele>
        <time>2020-11-11T09:41:58Z</time>
      </trkpt>
      <trkpt lat="39.8958030" lon="-0.3441450">
        <ele>508.9</ele>
        <time>2020-11-11T09:42:00Z</time>
      </trkpt>
      <trkpt lat="39.8957940" lon="-0.3442150">
        <ele>509.4</ele>
        <time>2020-11-11T09:42:04Z</time>
      </trkpt>
      <trkpt lat="39.8957870" lon="-0.3442600">
        <ele>509.8</ele>
        <time>2020-11-11T09:42:07Z</time>
      </trkpt>
      <trkpt lat="39.8956530" lon="-0.3444300">
        <ele>511.6</ele>
        <time>2020-11-11T09:42:22Z</time>
      </trkpt>
      <trkpt lat="39.8955100" lon="-0.3445860">
        <ele>511.5</ele>
        <time>2020-11-11T09:42:35Z</time>
      </trkpt>
      <trkpt lat="39.8953490" lon="-0.3446990">
        <ele>511.4</ele>
        <time>2020-11-11T09:42:48Z</time>
      </trkpt>
      <trkpt lat="39.8951840" lon="-0.3448000">
        <ele>512.2</ele>
        <time>2020-11-11T09:43:01Z</time>
      </trkpt>
      <trkpt lat="39.8950130" lon="-0.3448890">
        <ele>513.4</ele>
        <time>2020-11-11T09:43:16Z</time>
      </trkpt>
      <trkpt lat="39.8948280" lon="-0.3449460">
        <ele>514.2</ele>
        <time>2020-11-11T09:43:30Z</time>
      </trkpt>
      <trkpt lat="39.8946390" lon="-0.3449330">
        <ele>515.3</ele>
        <time>2020-11-11T09:43:43Z</time>
      </trkpt>
      <trkpt lat="39.8944540" lon="-0.3448980">
        <ele>516.8</ele>
        <time>2020-11-11T09:43:59Z</time>
      </trkpt>
      <trkpt lat="39.8943600" lon="-0.3449350">
        <ele>518.0</ele>
        <time>2020-11-11T09:44:07Z</time>
      </trkpt>
      <trkpt lat="39.8943010" lon="-0.3449350">
        <ele>518.9</ele>
        <time>2020-11-11T09:44:12Z</time>
      </trkpt>
      <trkpt lat="39.8942790" lon="-0.3449320">
        <ele>519.3</ele>
        <time>2020-11-11T09:44:14Z</time>
      </trkpt>
      <trkpt lat="39.8941830" lon="-0.3449740">
        <ele>521.0</ele>
        <time>2020-11-11T09:44:24Z</time>
      </trkpt>
      <trkpt lat="39.8939990" lon="-0.3450410">
        <ele>523.8</ele>
        <time>2020-11-11T09:44:40Z</time>
      </trkpt>
      <trkpt lat="39.8938160" lon="-0.3450190">
        <ele>526.5</ele>
        <time>2020-11-11T09:44:56Z</time>
      </trkpt>
      <trkpt lat="39.8937850" lon="-0.3450270">
        <ele>527.0</ele>
        <time>2020-11-11T09:45:00Z</time>
      </trkpt>
      <trkpt lat="39.8937720" lon="-0.3450320">
        <ele>527.2</ele>
        <time>2020-11-11T09:45:02Z</time>
      </trkpt>
      <trkpt lat="39.8937600" lon="-0.3450370">
        <ele>527.4</ele>
        <time>2020-11-11T09:45:04Z</time>
      </trkpt>
      <trkpt lat="39.8937470" lon="-0.3450490">
        <ele>527.6</ele>
        <time>2020-11-11T09:45:06Z</time>
      </trkpt>
      <trkpt lat="39.8936230" lon="-0.3449970">
        <ele>529.1</ele>
        <time>2020-11-11T09:45:13Z</time>
      </trkpt>
      <trkpt lat="39.8934770" lon="-0.3448530">
        <ele>529.9</ele>
        <time>2020-11-11T09:45:27Z</time>
      </trkpt>
      <trkpt lat="39.8933280" lon="-0.3447050">
        <ele>530.7</ele>
        <time>2020-11-11T09:45:42Z</time>
      </trkpt>
      <trkpt lat="39.8933000" lon="-0.3446760">
        <ele>531.0</ele>
        <time>2020-11-11T09:45:45Z</time>
      </trkpt>
      <trkpt lat="39.8932930" lon="-0.3446620">
        <ele>531.1</ele>
        <time>2020-11-11T09:45:46Z</time>
      </trkpt>
      <trkpt lat="39.8932850" lon="-0.3446490">
        <ele>531.1</ele>
        <time>2020-11-11T09:45:47Z</time>
      </trkpt>
      <trkpt lat="39.8932760" lon="-0.3446370">
        <ele>531.2</ele>
        <time>2020-11-11T09:45:48Z</time>
      </trkpt>
      <trkpt lat="39.8932660" lon="-0.3446250">
        <ele>531.3</ele>
        <time>2020-11-11T09:45:49Z</time>
      </trkpt>
      <trkpt lat="39.8932580" lon="-0.3446120">
        <ele>531.4</ele>
        <time>2020-11-11T09:45:50Z</time>
      </trkpt>
      <trkpt lat="39.8932470" lon="-0.3446010">
        <ele>531.5</ele>
        <time>2020-11-11T09:45:51Z</time>
      </trkpt>
      <trkpt lat="39.8932390" lon="-0.3445890">
        <ele>531.6</ele>
        <time>2020-11-11T09:45:52Z</time>
      </trkpt>
      <trkpt lat="39.8932330" lon="-0.3445790">
        <ele>531.6</ele>
        <time>2020-11-11T09:45:53Z</time>
      </trkpt>
      <trkpt lat="39.8932280" lon="-0.3445660">
        <ele>531.7</ele>
        <time>2020-11-11T09:45:54Z</time>
      </trkpt>
      <trkpt lat="39.8932200" lon="-0.3445530">
        <ele>531.8</ele>
        <time>2020-11-11T09:45:55Z</time>
      </trkpt>
      <trkpt lat="39.8932110" lon="-0.3445390">
        <ele>531.9</ele>
        <time>2020-11-11T09:45:56Z</time>
      </trkpt>
      <trkpt lat="39.8930410" lon="-0.3444570">
        <ele>532.8</ele>
        <time>2020-11-11T09:46:11Z</time>
      </trkpt>
      <trkpt lat="39.8929870" lon="-0.3444510">
        <ele>533.0</ele>
        <time>2020-11-11T09:46:15Z</time>
      </trkpt>
      <trkpt lat="39.8928930" lon="-0.3444350">
        <ele>533.1</ele>
        <time>2020-11-11T09:46:24Z</time>
      </trkpt>
      <trkpt lat="39.8928750" lon="-0.3444420">
        <ele>533.1</ele>
        <time>2020-11-11T09:46:26Z</time>
      </trkpt>
      <trkpt lat="39.8928550" lon="-0.3444490">
        <ele>533.1</ele>
        <time>2020-11-11T09:46:28Z</time>
      </trkpt>
      <trkpt lat="39.8928240" lon="-0.3444660">
        <ele>533.1</ele>
        <time>2020-11-11T09:46:32Z</time>
      </trkpt>
      <trkpt lat="39.8927840" lon="-0.3444860">
        <ele>533.1</ele>
        <time>2020-11-11T09:46:36Z</time>
      </trkpt>
      <trkpt lat="39.8927590" lon="-0.3444940">
        <ele>533.1</ele>
        <time>2020-11-11T09:46:38Z</time>
      </trkpt>
      <trkpt lat="39.8926490" lon="-0.3445320">
        <ele>533.2</ele>
        <time>2020-11-11T09:46:45Z</time>
      </trkpt>
      <trkpt lat="39.8925920" lon="-0.3445700">
        <ele>533.2</ele>
        <time>2020-11-11T09:46:50Z</time>
      </trkpt>
      <trkpt lat="39.8924260" lon="-0.3446930">
        <ele>533.1</ele>
        <time>2020-11-11T09:47:05Z</time>
      </trkpt>
      <trkpt lat="39.8922500" lon="-0.3447850">
        <ele>532.9</ele>
        <time>2020-11-11T09:47:16Z</time>
      </trkpt>
      <trkpt lat="39.8921070" lon="-0.3449330">
        <ele>532.2</ele>
        <time>2020-11-11T09:47:30Z</time>
      </trkpt>
      <trkpt lat="39.8919690" lon="-0.3450940">
        <ele>531.5</ele>
        <time>2020-11-11T09:47:41Z</time>
      </trkpt>
      <trkpt lat="39.8918810" lon="-0.3453060">
        <ele>531.4</ele>
        <time>2020-11-11T09:47:54Z</time>
      </trkpt>
      <trkpt lat="39.8918710" lon="-0.3454120">
        <ele>531.7</ele>
        <time>2020-11-11T09:48:00Z</time>
      </trkpt>
      <trkpt lat="39.8918670" lon="-0.3454310">
        <ele>531.8</ele>
        <time>2020-11-11T09:48:01Z</time>
      </trkpt>
      <trkpt lat="39.8917190" lon="-0.3455610">
        <ele>532.9</ele>
        <time>2020-11-11T09:48:15Z</time>
      </trkpt>
      <trkpt lat="39.8915700" lon="-0.3455460">
        <ele>533.7</ele>
        <time>2020-11-11T09:48:27Z</time>
      </trkpt>
      <trkpt lat="39.8915060" lon="-0.3455340">
        <ele>534.0</ele>
        <time>2020-11-11T09:48:31Z</time>
      </trkpt>
      <trkpt lat="39.8914670" lon="-0.3455360">
        <ele>534.1</ele>
        <time>2020-11-11T09:48:33Z</time>
      </trkpt>
      <trkpt lat="39.8912850" lon="-0.3455740">
        <ele>534.9</ele>
        <time>2020-11-11T09:48:45Z</time>
      </trkpt>
      <trkpt lat="39.8912700" lon="-0.3455840">
        <ele>535.0</ele>
        <time>2020-11-11T09:48:46Z</time>
      </trkpt>
      <trkpt lat="39.8911580" lon="-0.3457820">
        <ele>535.8</ele>
        <time>2020-11-11T09:48:59Z</time>
      </trkpt>
      <trkpt lat="39.8910280" lon="-0.3459490">
        <ele>536.7</ele>
        <time>2020-11-11T09:49:13Z</time>
      </trkpt>
      <trkpt lat="39.8908840" lon="-0.3461000">
        <ele>537.7</ele>
        <time>2020-11-11T09:49:26Z</time>
      </trkpt>
      <trkpt lat="39.8907350" lon="-0.3462490">
        <ele>538.7</ele>
        <time>2020-11-11T09:49:38Z</time>
      </trkpt>
      <trkpt lat="39.8905690" lon="-0.3463630">
        <ele>539.6</ele>
        <time>2020-11-11T09:49:52Z</time>
      </trkpt>
      <trkpt lat="39.8904050" lon="-0.3464690">
        <ele>540.6</ele>
        <time>2020-11-11T09:50:06Z</time>
      </trkpt>
      <trkpt lat="39.8903440" lon="-0.3464960">
        <ele>541.0</ele>
        <time>2020-11-11T09:50:11Z</time>
      </trkpt>
      <trkpt lat="39.8902760" lon="-0.3465210">
        <ele>541.4</ele>
        <time>2020-11-11T09:50:16Z</time>
      </trkpt>
      <trkpt lat="39.8900950" lon="-0.3465940">
        <ele>542.3</ele>
        <time>2020-11-11T09:50:29Z</time>
      </trkpt>
      <trkpt lat="39.8900150" lon="-0.3466380">
        <ele>542.7</ele>
        <time>2020-11-11T09:50:35Z</time>
      </trkpt>
      <trkpt lat="39.8898490" lon="-0.3467510">
        <ele>543.6</ele>
        <time>2020-11-11T09:50:48Z</time>
      </trkpt>
      <trkpt lat="39.8896810" lon="-0.3468320">
        <ele>544.1</ele>
        <time>2020-11-11T09:51:00Z</time>
      </trkpt>
      <trkpt lat="39.8895030" lon="-0.3469110">
        <ele>544.6</ele>
        <time>2020-11-11T09:51:14Z</time>
      </trkpt>
      <trkpt lat="39.8893220" lon="-0.3468900">
        <ele>545.1</ele>
        <time>2020-11-11T09:51:28Z</time>
      </trkpt>
      <trkpt lat="39.8891450" lon="-0.3467960">
        <ele>545.9</ele>
        <time>2020-11-11T09:51:41Z</time>
      </trkpt>
      <trkpt lat="39.8890390" lon="-0.3466950">
        <ele>546.4</ele>
        <time>2020-11-11T09:51:50Z</time>
      </trkpt>
      <trkpt lat="39.8889270" lon="-0.3466200">
        <ele>546.8</ele>
        <time>2020-11-11T09:52:00Z</time>
      </trkpt>
      <trkpt lat="39.8888740" lon="-0.3466000">
        <ele>546.9</ele>
        <time>2020-11-11T09:52:04Z</time>
      </trkpt>
      <trkpt lat="39.8886840" lon="-0.3465380">
        <ele>547.2</ele>
        <time>2020-11-11T09:52:18Z</time>
      </trkpt>
      <trkpt lat="39.8886270" lon="-0.3465100">
        <ele>547.4</ele>
        <time>2020-11-11T09:52:21Z</time>
      </trkpt>
      <trkpt lat="39.8885510" lon="-0.3464710">
        <ele>547.7</ele>
        <time>2020-11-11T09:52:26Z</time>
      </trkpt>
      <trkpt lat="39.8884980" lon="-0.3464280">
        <ele>548.1</ele>
        <time>2020-11-11T09:52:30Z</time>
      </trkpt>
      <trkpt lat="39.8883650" lon="-0.3463780">
        <ele>548.9</ele>
        <time>2020-11-11T09:52:38Z</time>
      </trkpt>
      <trkpt lat="39.8881830" lon="-0.3463230">
        <ele>549.9</ele>
        <time>2020-11-11T09:52:51Z</time>
      </trkpt>
      <trkpt lat="39.8879970" lon="-0.3462800">
        <ele>550.9</ele>
        <time>2020-11-11T09:53:05Z</time>
      </trkpt>
      <trkpt lat="39.8879000" lon="-0.3462700">
        <ele>551.4</ele>
        <time>2020-11-11T09:53:12Z</time>
      </trkpt>
      <trkpt lat="39.8877120" lon="-0.3462480">
        <ele>552.6</ele>
        <time>2020-11-11T09:53:25Z</time>
      </trkpt>
      <trkpt lat="39.8875270" lon="-0.3462490">
        <ele>553.9</ele>
        <time>2020-11-11T09:53:39Z</time>
      </trkpt>
      <trkpt lat="39.8874720" lon="-0.3462620">
        <ele>554.3</ele>
        <time>2020-11-11T09:53:43Z</time>
      </trkpt>
      <trkpt lat="39.8873870" lon="-0.3463050">
        <ele>555.0</ele>
        <time>2020-11-11T09:53:49Z</time>
      </trkpt>
      <trkpt lat="39.8872080" lon="-0.3463530">
        <ele>556.2</ele>
        <time>2020-11-11T09:54:02Z</time>
      </trkpt>
      <trkpt lat="39.8870320" lon="-0.3464160">
        <ele>557.3</ele>
        <time>2020-11-11T09:54:17Z</time>
      </trkpt>
      <trkpt lat="39.8868570" lon="-0.3464880">
        <ele>558.4</ele>
        <time>2020-11-11T09:54:28Z</time>
      </trkpt>
      <trkpt lat="39.8867310" lon="-0.3466000">
        <ele>559.3</ele>
        <time>2020-11-11T09:54:37Z</time>
      </trkpt>
      <trkpt lat="39.8867060" lon="-0.3466280">
        <ele>559.5</ele>
        <time>2020-11-11T09:54:39Z</time>
      </trkpt>
      <trkpt lat="39.8866690" lon="-0.3466700">
        <ele>559.8</ele>
        <time>2020-11-11T09:54:42Z</time>
      </trkpt>
      <trkpt lat="39.8866620" lon="-0.3466840">
        <ele>559.9</ele>
        <time>2020-11-11T09:54:43Z</time>
      </trkpt>
      <trkpt lat="39.8866400" lon="-0.3467100">
        <ele>560.1</ele>
        <time>2020-11-11T09:54:45Z</time>
      </trkpt>
      <trkpt lat="39.8866300" lon="-0.3467210">
        <ele>560.2</ele>
        <time>2020-11-11T09:54:46Z</time>
      </trkpt>
      <trkpt lat="39.8866180" lon="-0.3467290">
        <ele>560.3</ele>
        <time>2020-11-11T09:54:47Z</time>
      </trkpt>
      <trkpt lat="39.8866070" lon="-0.3467400">
        <ele>560.4</ele>
        <time>2020-11-11T09:54:48Z</time>
      </trkpt>
      <trkpt lat="39.8865980" lon="-0.3467540">
        <ele>560.5</ele>
        <time>2020-11-11T09:54:49Z</time>
      </trkpt>
      <trkpt lat="39.8865920" lon="-0.3467680">
        <ele>560.5</ele>
        <time>2020-11-11T09:54:50Z</time>
      </trkpt>
      <trkpt lat="39.8865840" lon="-0.3467810">
        <ele>560.6</ele>
        <time>2020-11-11T09:54:51Z</time>
      </trkpt>
      <trkpt lat="39.8865560" lon="-0.3468170">
        <ele>560.9</ele>
        <time>2020-11-11T09:54:54Z</time>
      </trkpt>
      <trkpt lat="39.8865450" lon="-0.3468230">
        <ele>560.9</ele>
        <time>2020-11-11T09:54:55Z</time>
      </trkpt>
      <trkpt lat="39.8865210" lon="-0.3468380">
        <ele>561.1</ele>
        <time>2020-11-11T09:54:57Z</time>
      </trkpt>
      <trkpt lat="39.8865070" lon="-0.3468560">
        <ele>561.2</ele>
        <time>2020-11-11T09:54:59Z</time>
      </trkpt>
      <trkpt lat="39.8864960" lon="-0.3468750">
        <ele>561.3</ele>
        <time>2020-11-11T09:55:01Z</time>
      </trkpt>
      <trkpt lat="39.8864880" lon="-0.3468800">
        <ele>561.4</ele>
        <time>2020-11-11T09:55:02Z</time>
      </trkpt>
      <trkpt lat="39.8864810" lon="-0.3468850">
        <ele>561.4</ele>
        <time>2020-11-11T09:55:04Z</time>
      </trkpt>
      <trkpt lat="39.8864820" lon="-0.3468930">
        <ele>561.5</ele>
        <time>2020-11-11T09:55:06Z</time>
      </trkpt>
      <trkpt lat="39.8864830" lon="-0.3468960">
        <ele>561.5</ele>
        <time>2020-11-11T09:55:08Z</time>
      </trkpt>
      <trkpt lat="39.8864810" lon="-0.3468950">
        <ele>561.5</ele>
        <time>2020-11-11T09:55:10Z</time>
      </trkpt>
      <trkpt lat="39.8864780" lon="-0.3468880">
        <ele>561.5</ele>
        <time>2020-11-11T09:55:15Z</time>
      </trkpt>
      <trkpt lat="39.8864780" lon="-0.3468790">
        <ele>561.6</ele>
        <time>2020-11-11T09:55:17Z</time>
      </trkpt>
      <trkpt lat="39.8864780" lon="-0.3468760">
        <ele>561.6</ele>
        <time>2020-11-11T09:55:18Z</time>
      </trkpt>
      <trkpt lat="39.8864750" lon="-0.3468660">
        <ele>561.6</ele>
        <time>2020-11-11T09:55:19Z</time>
      </trkpt>
      <trkpt lat="39.8864710" lon="-0.3468660">
        <ele>561.7</ele>
        <time>2020-11-11T09:55:20Z</time>
      </trkpt>
      <trkpt lat="39.8864640" lon="-0.3468760">
        <ele>561.7</ele>
        <time>2020-11-11T09:55:21Z</time>
      </trkpt>
      <trkpt lat="39.8864550" lon="-0.3468850">
        <ele>561.8</ele>
        <time>2020-11-11T09:55:22Z</time>
      </trkpt>
      <trkpt lat="39.8864330" lon="-0.3469000">
        <ele>561.9</ele>
        <time>2020-11-11T09:55:24Z</time>
      </trkpt>
      <trkpt lat="39.8863820" lon="-0.3469290">
        <ele>562.2</ele>
        <time>2020-11-11T09:55:28Z</time>
      </trkpt>
      <trkpt lat="39.8863140" lon="-0.3469360">
        <ele>562.6</ele>
        <time>2020-11-11T09:55:33Z</time>
      </trkpt>
      <trkpt lat="39.8863000" lon="-0.3469400">
        <ele>562.6</ele>
        <time>2020-11-11T09:55:34Z</time>
      </trkpt>
      <trkpt lat="39.8862930" lon="-0.3469440">
        <ele>562.7</ele>
        <time>2020-11-11T09:55:39Z</time>
      </trkpt>
      <trkpt lat="39.8862930" lon="-0.3469500">
        <ele>562.7</ele>
        <time>2020-11-11T09:55:47Z</time>
      </trkpt>
      <trkpt lat="39.8861580" lon="-0.3470060">
        <ele>563.1</ele>
        <time>2020-11-11T09:56:13Z</time>
      </trkpt>
      <trkpt lat="39.8859760" lon="-0.3469860">
        <ele>563.3</ele>
        <time>2020-11-11T09:56:26Z</time>
      </trkpt>
      <trkpt lat="39.8857890" lon="-0.3469870">
        <ele>563.5</ele>
        <time>2020-11-11T09:56:39Z</time>
      </trkpt>
      <trkpt lat="39.8856430" lon="-0.3471080">
        <ele>566.6</ele>
        <time>2020-11-11T09:56:53Z</time>
      </trkpt>
      <trkpt lat="39.8855060" lon="-0.3472650">
        <ele>570.6</ele>
        <time>2020-11-11T09:57:06Z</time>
      </trkpt>
      <trkpt lat="39.8854220" lon="-0.3473480">
        <ele>572.7</ele>
        <time>2020-11-11T09:57:14Z</time>
      </trkpt>
      <trkpt lat="39.8853790" lon="-0.3473720">
        <ele>573.6</ele>
        <time>2020-11-11T09:57:17Z</time>
      </trkpt>
      <trkpt lat="39.8852240" lon="-0.3475020">
        <ele>577.1</ele>
        <time>2020-11-11T09:57:30Z</time>
      </trkpt>
      <trkpt lat="39.8851680" lon="-0.3475250">
        <ele>578.3</ele>
        <time>2020-11-11T09:57:34Z</time>
      </trkpt>
      <trkpt lat="39.8850050" lon="-0.3476350">
        <ele>582.1</ele>
        <time>2020-11-11T09:57:48Z</time>
      </trkpt>
      <trkpt lat="39.8849300" lon="-0.3476640">
        <ele>583.9</ele>
        <time>2020-11-11T09:57:54Z</time>
      </trkpt>
      <trkpt lat="39.8849060" lon="-0.3476740">
        <ele>584.4</ele>
        <time>2020-11-11T09:57:56Z</time>
      </trkpt>
      <trkpt lat="39.8848690" lon="-0.3476950">
        <ele>585.3</ele>
        <time>2020-11-11T09:57:59Z</time>
      </trkpt>
      <trkpt lat="39.8848590" lon="-0.3477030">
        <ele>585.6</ele>
        <time>2020-11-11T09:58:00Z</time>
      </trkpt>
      <trkpt lat="39.8847430" lon="-0.3478740">
        <ele>589.4</ele>
        <time>2020-11-11T09:58:13Z</time>
      </trkpt>
      <trkpt lat="39.8846830" lon="-0.3480390">
        <ele>592.6</ele>
        <time>2020-11-11T09:58:24Z</time>
      </trkpt>
      <trkpt lat="39.8845580" lon="-0.3482270">
        <ele>596.6</ele>
        <time>2020-11-11T09:58:38Z</time>
      </trkpt>
      <trkpt lat="39.8844730" lon="-0.3484420">
        <ele>599.6</ele>
        <time>2020-11-11T09:58:52Z</time>
      </trkpt>
      <trkpt lat="39.8844290" lon="-0.3484820">
        <ele>600.5</ele>
        <time>2020-11-11T09:58:56Z</time>
      </trkpt>
      <trkpt lat="39.8843270" lon="-0.3486300">
        <ele>603.2</ele>
        <time>2020-11-11T09:59:07Z</time>
      </trkpt>
      <trkpt lat="39.8842350" lon="-0.3487830">
        <ele>606.6</ele>
        <time>2020-11-11T09:59:20Z</time>
      </trkpt>
      <trkpt lat="39.8842260" lon="-0.3488040">
        <ele>607.1</ele>
        <time>2020-11-11T09:59:22Z</time>
      </trkpt>
      <trkpt lat="39.8841020" lon="-0.3489100">
        <ele>610.6</ele>
        <time>2020-11-11T09:59:34Z</time>
      </trkpt>
      <trkpt lat="39.8839410" lon="-0.3490450">
        <ele>614.6</ele>
        <time>2020-11-11T09:59:49Z</time>
      </trkpt>
      <trkpt lat="39.8837650" lon="-0.3491230">
        <ele>619.3</ele>
        <time>2020-11-11T10:00:03Z</time>
      </trkpt>
      <trkpt lat="39.8836690" lon="-0.3492160">
        <ele>622.6</ele>
        <time>2020-11-11T10:00:14Z</time>
      </trkpt>
      <trkpt lat="39.8836030" lon="-0.3492660">
        <ele>622.9</ele>
        <time>2020-11-11T10:00:22Z</time>
      </trkpt>
      <trkpt lat="39.8835980" lon="-0.3492720">
        <ele>622.9</ele>
        <time>2020-11-11T10:00:23Z</time>
      </trkpt>
      <trkpt lat="39.8835420" lon="-0.3492890">
        <ele>622.9</ele>
        <time>2020-11-11T10:00:30Z</time>
      </trkpt>
      <trkpt lat="39.8834740" lon="-0.3493360">
        <ele>623.0</ele>
        <time>2020-11-11T10:00:39Z</time>
      </trkpt>
      <trkpt lat="39.8833930" lon="-0.3493970">
        <ele>623.6</ele>
        <time>2020-11-11T10:00:50Z</time>
      </trkpt>
      <trkpt lat="39.8833530" lon="-0.3493280">
        <ele>624.1</ele>
        <time>2020-11-11T10:00:54Z</time>
      </trkpt>
      <trkpt lat="39.8833290" lon="-0.3492560">
        <ele>624.5</ele>
        <time>2020-11-11T10:01:01Z</time>
      </trkpt>
      <trkpt lat="39.8833260" lon="-0.3492340">
        <ele>624.4</ele>
        <time>2020-11-11T10:01:21Z</time>
      </trkpt>
      <trkpt lat="39.8833370" lon="-0.3492230">
        <ele>624.4</ele>
        <time>2020-11-11T10:01:37Z</time>
      </trkpt>
      <trkpt lat="39.8833370" lon="-0.3492230">
        <ele>624.4</ele>
        <time>2020-11-11T10:01:38Z</time>
      </trkpt>
      <trkpt lat="39.8833370" lon="-0.3492240">
        <ele>624.4</ele>
        <time>2020-11-11T10:01:39Z</time>
      </trkpt>
      <trkpt lat="39.8833380" lon="-0.3492220">
        <ele>624.4</ele>
        <time>2020-11-11T10:01:46Z</time>
      </trkpt>
      <trkpt lat="39.8833380" lon="-0.3492230">
        <ele>624.4</ele>
        <time>2020-11-11T10:01:47Z</time>
      </trkpt>
      <trkpt lat="39.8833380" lon="-0.3492230">
        <ele>624.4</ele>
        <time>2020-11-11T10:01:48Z</time>
      </trkpt>
      <trkpt lat="39.8832520" lon="-0.3491610">
        <ele>624.2</ele>
        <time>2020-11-11T10:02:03Z</time>
      </trkpt>
      <trkpt lat="39.8831660" lon="-0.3491160">
        <ele>624.3</ele>
        <time>2020-11-11T10:02:10Z</time>
      </trkpt>
      <trkpt lat="39.8831570" lon="-0.3491070">
        <ele>624.3</ele>
        <time>2020-11-11T10:02:11Z</time>
      </trkpt>
      <trkpt lat="39.8831510" lon="-0.3490850">
        <ele>624.4</ele>
        <time>2020-11-11T10:02:13Z</time>
      </trkpt>
      <trkpt lat="39.8831370" lon="-0.3490770">
        <ele>624.5</ele>
        <time>2020-11-11T10:02:16Z</time>
      </trkpt>
      <trkpt lat="39.8831290" lon="-0.3490810">
        <ele>624.5</ele>
        <time>2020-11-11T10:02:17Z</time>
      </trkpt>
      <trkpt lat="39.8831210" lon="-0.3490840">
        <ele>624.6</ele>
        <time>2020-11-11T10:02:18Z</time>
      </trkpt>
      <trkpt lat="39.8831130" lon="-0.3490830">
        <ele>624.6</ele>
        <time>2020-11-11T10:02:19Z</time>
      </trkpt>
      <trkpt lat="39.8830950" lon="-0.3490760">
        <ele>624.7</ele>
        <time>2020-11-11T10:02:21Z</time>
      </trkpt>
      <trkpt lat="39.8830860" lon="-0.3490770">
        <ele>624.8</ele>
        <time>2020-11-11T10:02:22Z</time>
      </trkpt>
      <trkpt lat="39.8830760" lon="-0.3490750">
        <ele>624.9</ele>
        <time>2020-11-11T10:02:25Z</time>
      </trkpt>
      <trkpt lat="39.8830720" lon="-0.3490640">
        <ele>624.7</ele>
        <time>2020-11-11T10:02:27Z</time>
      </trkpt>
      <trkpt lat="39.8830670" lon="-0.3490560">
        <ele>625.3</ele>
        <time>2020-11-11T10:02:29Z</time>
      </trkpt>
      <trkpt lat="39.8830550" lon="-0.3490470">
        <ele>625.3</ele>
        <time>2020-11-11T10:02:30Z</time>
      </trkpt>
      <trkpt lat="39.8830510" lon="-0.3490470">
        <ele>625.3</ele>
        <time>2020-11-11T10:02:31Z</time>
      </trkpt>
      <trkpt lat="39.8830420" lon="-0.3490460">
        <ele>625.2</ele>
        <time>2020-11-11T10:02:33Z</time>
      </trkpt>
      <trkpt lat="39.8830310" lon="-0.3490360">
        <ele>625.9</ele>
        <time>2020-11-11T10:02:34Z</time>
      </trkpt>
      <trkpt lat="39.8830160" lon="-0.3490110">
        <ele>625.8</ele>
        <time>2020-11-11T10:02:36Z</time>
      </trkpt>
      <trkpt lat="39.8829940" lon="-0.3489640">
        <ele>626.4</ele>
        <time>2020-11-11T10:02:41Z</time>
      </trkpt>
      <trkpt lat="39.8829800" lon="-0.3489410">
        <ele>626.4</ele>
        <time>2020-11-11T10:02:44Z</time>
      </trkpt>
      <trkpt lat="39.8829560" lon="-0.3489220">
        <ele>627.1</ele>
        <time>2020-11-11T10:02:46Z</time>
      </trkpt>
      <trkpt lat="39.8829370" lon="-0.3489130">
        <ele>627.1</ele>
        <time>2020-11-11T10:02:48Z</time>
      </trkpt>
      <trkpt lat="39.8828930" lon="-0.3488770">
        <ele>628.4</ele>
        <time>2020-11-11T10:02:55Z</time>
      </trkpt>
      <trkpt lat="39.8828080" lon="-0.3488130">
        <ele>629.9</ele>
        <time>2020-11-11T10:03:03Z</time>
      </trkpt>
      <trkpt lat="39.8827620" lon="-0.3488240">
        <ele>631.6</ele>
        <time>2020-11-11T10:03:08Z</time>
      </trkpt>
      <trkpt lat="39.8827370" lon="-0.3488190">
        <ele>632.5</ele>
        <time>2020-11-11T10:03:10Z</time>
      </trkpt>
      <trkpt lat="39.8827070" lon="-0.3487860">
        <ele>632.5</ele>
        <time>2020-11-11T10:03:13Z</time>
      </trkpt>
      <trkpt lat="39.8827050" lon="-0.3487640">
        <ele>632.6</ele>
        <time>2020-11-11T10:03:15Z</time>
      </trkpt>
      <trkpt lat="39.8827310" lon="-0.3487380">
        <ele>632.5</ele>
        <time>2020-11-11T10:03:18Z</time>
      </trkpt>
      <trkpt lat="39.8827010" lon="-0.3487010">
        <ele>633.6</ele>
        <time>2020-11-11T10:03:22Z</time>
      </trkpt>
      <trkpt lat="39.8826770" lon="-0.3486850">
        <ele>633.8</ele>
        <time>2020-11-11T10:03:27Z</time>
      </trkpt>
      <trkpt lat="39.8826630" lon="-0.3486650">
        <ele>634.7</ele>
        <time>2020-11-11T10:03:30Z</time>
      </trkpt>
      <trkpt lat="39.8826500" lon="-0.3486460">
        <ele>634.6</ele>
        <time>2020-11-11T10:03:32Z</time>
      </trkpt>
      <trkpt lat="39.8826460" lon="-0.3486340">
        <ele>634.9</ele>
        <time>2020-11-11T10:03:34Z</time>
      </trkpt>
      <trkpt lat="39.8826330" lon="-0.3486180">
        <ele>635.7</ele>
        <time>2020-11-11T10:03:37Z</time>
      </trkpt>
      <trkpt lat="39.8826550" lon="-0.3486030">
        <ele>634.8</ele>
        <time>2020-11-11T10:04:01Z</time>
      </trkpt>
      <trkpt lat="39.8826540" lon="-0.3486050">
        <ele>634.8</ele>
        <time>2020-11-11T10:04:02Z</time>
      </trkpt>
      <trkpt lat="39.8826550" lon="-0.3486060">
        <ele>634.8</ele>
        <time>2020-11-11T10:04:04Z</time>
      </trkpt>
      <trkpt lat="39.8826480" lon="-0.3486090">
        <ele>634.8</ele>
        <time>2020-11-11T10:04:08Z</time>
      </trkpt>
      <trkpt lat="39.8826420" lon="-0.3486020">
        <ele>634.8</ele>
        <time>2020-11-11T10:04:10Z</time>
      </trkpt>
      <trkpt lat="39.8826290" lon="-0.3486250">
        <ele>635.6</ele>
        <time>2020-11-11T10:04:20Z</time>
      </trkpt>
      <trkpt lat="39.8825620" lon="-0.3484530">
        <ele>638.4</ele>
        <time>2020-11-11T10:04:47Z</time>
      </trkpt>
      <trkpt lat="39.8824980" lon="-0.3483820">
        <ele>640.8</ele>
        <time>2020-11-11T10:04:56Z</time>
      </trkpt>
      <trkpt lat="39.8824600" lon="-0.3483570">
        <ele>641.8</ele>
        <time>2020-11-11T10:05:00Z</time>
      </trkpt>
      <trkpt lat="39.8824510" lon="-0.3483540">
        <ele>641.7</ele>
        <time>2020-11-11T10:05:01Z</time>
      </trkpt>
      <trkpt lat="39.8824230" lon="-0.3483340">
        <ele>642.9</ele>
        <time>2020-11-11T10:05:04Z</time>
      </trkpt>
      <trkpt lat="39.8824020" lon="-0.3483230">
        <ele>643.8</ele>
        <time>2020-11-11T10:05:07Z</time>
      </trkpt>
      <trkpt lat="39.8823990" lon="-0.3483190">
        <ele>643.8</ele>
        <time>2020-11-11T10:05:08Z</time>
      </trkpt>
      <trkpt lat="39.8823940" lon="-0.3483110">
        <ele>643.8</ele>
        <time>2020-11-11T10:05:09Z</time>
      </trkpt>
      <trkpt lat="39.8823770" lon="-0.3482990">
        <ele>644.0</ele>
        <time>2020-11-11T10:05:10Z</time>
      </trkpt>
      <trkpt lat="39.8823640" lon="-0.3482870">
        <ele>644.8</ele>
        <time>2020-11-11T10:05:11Z</time>
      </trkpt>
      <trkpt lat="39.8823540" lon="-0.3482770">
        <ele>644.8</ele>
        <time>2020-11-11T10:05:12Z</time>
      </trkpt>
      <trkpt lat="39.8823180" lon="-0.3482460">
        <ele>645.8</ele>
        <time>2020-11-11T10:05:16Z</time>
      </trkpt>
      <trkpt lat="39.8823020" lon="-0.3482320">
        <ele>646.7</ele>
        <time>2020-11-11T10:05:18Z</time>
      </trkpt>
      <trkpt lat="39.8822820" lon="-0.3482190">
        <ele>646.7</ele>
        <time>2020-11-11T10:05:19Z</time>
      </trkpt>
      <trkpt lat="39.8822770" lon="-0.3482190">
        <ele>646.7</ele>
        <time>2020-11-11T10:05:20Z</time>
      </trkpt>
      <trkpt lat="39.8822690" lon="-0.3482110">
        <ele>647.8</ele>
        <time>2020-11-11T10:05:21Z</time>
      </trkpt>
      <trkpt lat="39.8822600" lon="-0.3482000">
        <ele>647.8</ele>
        <time>2020-11-11T10:05:23Z</time>
      </trkpt>
      <trkpt lat="39.8822540" lon="-0.3481860">
        <ele>647.8</ele>
        <time>2020-11-11T10:05:25Z</time>
      </trkpt>
      <trkpt lat="39.8822330" lon="-0.3481680">
        <ele>649.0</ele>
        <time>2020-11-11T10:05:27Z</time>
      </trkpt>
      <trkpt lat="39.8821630" lon="-0.3481370">
        <ele>651.0</ele>
        <time>2020-11-11T10:05:32Z</time>
      </trkpt>
      <trkpt lat="39.8821070" lon="-0.3481620">
        <ele>652.7</ele>
        <time>2020-11-11T10:05:38Z</time>
      </trkpt>
      <trkpt lat="39.8820550" lon="-0.3481540">
        <ele>653.4</ele>
        <time>2020-11-11T10:05:41Z</time>
      </trkpt>
      <trkpt lat="39.8820060" lon="-0.3481270">
        <ele>655.1</ele>
        <time>2020-11-11T10:05:46Z</time>
      </trkpt>
      <trkpt lat="39.8819680" lon="-0.3481140">
        <ele>655.9</ele>
        <time>2020-11-11T10:05:49Z</time>
      </trkpt>
      <trkpt lat="39.8819470" lon="-0.3481090">
        <ele>656.8</ele>
        <time>2020-11-11T10:05:52Z</time>
      </trkpt>
      <trkpt lat="39.8819570" lon="-0.3481070">
        <ele>655.9</ele>
        <time>2020-11-11T10:05:55Z</time>
      </trkpt>
      <trkpt lat="39.8819740" lon="-0.3481080">
        <ele>655.9</ele>
        <time>2020-11-11T10:05:57Z</time>
      </trkpt>
      <trkpt lat="39.8819820" lon="-0.3481180">
        <ele>655.0</ele>
        <time>2020-11-11T10:06:00Z</time>
      </trkpt>
      <trkpt lat="39.8819850" lon="-0.3481370">
        <ele>654.9</ele>
        <time>2020-11-11T10:06:02Z</time>
      </trkpt>
      <trkpt lat="39.8819600" lon="-0.3482010">
        <ele>655.8</ele>
        <time>2020-11-11T10:06:09Z</time>
      </trkpt>
      <trkpt lat="39.8819490" lon="-0.3482000">
        <ele>655.8</ele>
        <time>2020-11-11T10:06:17Z</time>
      </trkpt>
      <trkpt lat="39.8819590" lon="-0.3482010">
        <ele>655.8</ele>
        <time>2020-11-11T10:06:18Z</time>
      </trkpt>
      <trkpt lat="39.8819800" lon="-0.3481910">
        <ele>655.7</ele>
        <time>2020-11-11T10:06:21Z</time>
      </trkpt>
      <trkpt lat="39.8819810" lon="-0.3481780">
        <ele>654.8</ele>
        <time>2020-11-11T10:06:22Z</time>
      </trkpt>
      <trkpt lat="39.8819840" lon="-0.3481620">
        <ele>654.8</ele>
        <time>2020-11-11T10:06:24Z</time>
      </trkpt>
      <trkpt lat="39.8819860" lon="-0.3481520">
        <ele>654.8</ele>
        <time>2020-11-11T10:06:25Z</time>
      </trkpt>
      <trkpt lat="39.8819410" lon="-0.3481530">
        <ele>656.5</ele>
        <time>2020-11-11T10:06:29Z</time>
      </trkpt>
      <trkpt lat="39.8819270" lon="-0.3481590">
        <ele>656.5</ele>
        <time>2020-11-11T10:06:31Z</time>
      </trkpt>
      <trkpt lat="39.8819150" lon="-0.3481490">
        <ele>656.5</ele>
        <time>2020-11-11T10:06:33Z</time>
      </trkpt>
      <trkpt lat="39.8819010" lon="-0.3481280">
        <ele>657.3</ele>
        <time>2020-11-11T10:06:35Z</time>
      </trkpt>
      <trkpt lat="39.8818860" lon="-0.3481160">
        <ele>657.3</ele>
        <time>2020-11-11T10:06:36Z</time>
      </trkpt>
      <trkpt lat="39.8818650" lon="-0.3481170">
        <ele>658.0</ele>
        <time>2020-11-11T10:06:41Z</time>
      </trkpt>
      <trkpt lat="39.8818420" lon="-0.3481240">
        <ele>658.7</ele>
        <time>2020-11-11T10:06:45Z</time>
      </trkpt>
      <trkpt lat="39.8818120" lon="-0.3481020">
        <ele>659.4</ele>
        <time>2020-11-11T10:06:48Z</time>
      </trkpt>
      <trkpt lat="39.8817980" lon="-0.3480920">
        <ele>659.3</ele>
        <time>2020-11-11T10:06:49Z</time>
      </trkpt>
      <trkpt lat="39.8817550" lon="-0.3480730">
        <ele>660.0</ele>
        <time>2020-11-11T10:06:54Z</time>
      </trkpt>
      <trkpt lat="39.8817340" lon="-0.3480890">
        <ele>660.8</ele>
        <time>2020-11-11T10:06:58Z</time>
      </trkpt>
      <trkpt lat="39.8816790" lon="-0.3481210">
        <ele>662.6</ele>
        <time>2020-11-11T10:07:10Z</time>
      </trkpt>
      <trkpt lat="39.8815630" lon="-0.3482720">
        <ele>666.8</ele>
        <time>2020-11-11T10:07:33Z</time>
      </trkpt>
      <trkpt lat="39.8815630" lon="-0.3482740">
        <ele>666.8</ele>
        <time>2020-11-11T10:07:34Z</time>
      </trkpt>
      <trkpt lat="39.8815560" lon="-0.3482780">
        <ele>666.7</ele>
        <time>2020-11-11T10:07:36Z</time>
      </trkpt>
      <trkpt lat="39.8815380" lon="-0.3482790">
        <ele>667.6</ele>
        <time>2020-11-11T10:07:39Z</time>
      </trkpt>
      <trkpt lat="39.8814710" lon="-0.3483450">
        <ele>670.8</ele>
        <time>2020-11-11T10:07:54Z</time>
      </trkpt>
      <trkpt lat="39.8814300" lon="-0.3483430">
        <ele>671.1</ele>
        <time>2020-11-11T10:08:04Z</time>
      </trkpt>
      <trkpt lat="39.8814040" lon="-0.3483730">
        <ele>672.9</ele>
        <time>2020-11-11T10:08:15Z</time>
      </trkpt>
      <trkpt lat="39.8814260" lon="-0.3484150">
        <ele>672.6</ele>
        <time>2020-11-11T10:08:49Z</time>
      </trkpt>
      <trkpt lat="39.8814280" lon="-0.3484170">
        <ele>672.6</ele>
        <time>2020-11-11T10:08:53Z</time>
      </trkpt>
      <trkpt lat="39.8813970" lon="-0.3484010">
        <ele>673.6</ele>
        <time>2020-11-11T10:09:04Z</time>
      </trkpt>
      <trkpt lat="39.8813700" lon="-0.3483820">
        <ele>673.8</ele>
        <time>2020-11-11T10:09:08Z</time>
      </trkpt>
      <trkpt lat="39.8813710" lon="-0.3483790">
        <ele>673.8</ele>
        <time>2020-11-11T10:09:09Z</time>
      </trkpt>
      <trkpt lat="39.8813710" lon="-0.3483730">
        <ele>673.8</ele>
        <time>2020-11-11T10:09:10Z</time>
      </trkpt>
      <trkpt lat="39.8813530" lon="-0.3483560">
        <ele>674.7</ele>
        <time>2020-11-11T10:09:15Z</time>
      </trkpt>
      <trkpt lat="39.8812740" lon="-0.3483280">
        <ele>675.7</ele>
        <time>2020-11-11T10:09:39Z</time>
      </trkpt>
      <trkpt lat="39.8812700" lon="-0.3483390">
        <ele>675.7</ele>
        <time>2020-11-11T10:09:48Z</time>
      </trkpt>
      <trkpt lat="39.8812700" lon="-0.3483530">
        <ele>676.5</ele>
        <time>2020-11-11T10:09:52Z</time>
      </trkpt>
      <trkpt lat="39.8812720" lon="-0.3483780">
        <ele>676.5</ele>
        <time>2020-11-11T10:10:00Z</time>
      </trkpt>
      <trkpt lat="39.8812640" lon="-0.3483740">
        <ele>676.5</ele>
        <time>2020-11-11T10:10:08Z</time>
      </trkpt>
      <trkpt lat="39.8812620" lon="-0.3483740">
        <ele>676.4</ele>
        <time>2020-11-11T10:10:09Z</time>
      </trkpt>
      <trkpt lat="39.8812610" lon="-0.3483730">
        <ele>676.4</ele>
        <time>2020-11-11T10:10:10Z</time>
      </trkpt>
      <trkpt lat="39.8812570" lon="-0.3483610">
        <ele>676.4</ele>
        <time>2020-11-11T10:10:23Z</time>
      </trkpt>
      <trkpt lat="39.8812600" lon="-0.3483610">
        <ele>676.4</ele>
        <time>2020-11-11T10:10:24Z</time>
      </trkpt>
      <trkpt lat="39.8812590" lon="-0.3483590">
        <ele>676.4</ele>
        <time>2020-11-11T10:10:25Z</time>
      </trkpt>
      <trkpt lat="39.8812590" lon="-0.3483580">
        <ele>676.4</ele>
        <time>2020-11-11T10:10:26Z</time>
      </trkpt>
      <trkpt lat="39.8812560" lon="-0.3483590">
        <ele>676.4</ele>
        <time>2020-11-11T10:10:27Z</time>
      </trkpt>
      <trkpt lat="39.8812350" lon="-0.3483970">
        <ele>678.1</ele>
        <time>2020-11-11T10:10:32Z</time>
      </trkpt>
      <trkpt lat="39.8812260" lon="-0.3484120">
        <ele>678.1</ele>
        <time>2020-11-11T10:10:35Z</time>
      </trkpt>
      <trkpt lat="39.8812200" lon="-0.3484390">
        <ele>680.0</ele>
        <time>2020-11-11T10:10:38Z</time>
      </trkpt>
      <trkpt lat="39.8811750" lon="-0.3484740">
        <ele>682.0</ele>
        <time>2020-11-11T10:10:56Z</time>
      </trkpt>
      <trkpt lat="39.8811730" lon="-0.3484860">
        <ele>682.0</ele>
        <time>2020-11-11T10:11:02Z</time>
      </trkpt>
      <trkpt lat="39.8811930" lon="-0.3485070">
        <ele>680.9</ele>
        <time>2020-11-11T10:11:07Z</time>
      </trkpt>
      <trkpt lat="39.8812020" lon="-0.3485220">
        <ele>681.9</ele>
        <time>2020-11-11T10:11:10Z</time>
      </trkpt>
      <trkpt lat="39.8811400" lon="-0.3485620">
        <ele>685.1</ele>
        <time>2020-11-11T10:11:36Z</time>
      </trkpt>
      <trkpt lat="39.8811230" lon="-0.3485700">
        <ele>686.2</ele>
        <time>2020-11-11T10:11:40Z</time>
      </trkpt>
      <trkpt lat="39.8811170" lon="-0.3485750">
        <ele>686.2</ele>
        <time>2020-11-11T10:11:44Z</time>
      </trkpt>
      <trkpt lat="39.8811530" lon="-0.3485710">
        <ele>685.1</ele>
        <time>2020-11-11T10:11:50Z</time>
      </trkpt>
      <trkpt lat="39.8811550" lon="-0.3485690">
        <ele>685.1</ele>
        <time>2020-11-11T10:11:52Z</time>
      </trkpt>
      <trkpt lat="39.8811560" lon="-0.3485680">
        <ele>685.0</ele>
        <time>2020-11-11T10:11:53Z</time>
      </trkpt>
      <trkpt lat="39.8811550" lon="-0.3485670">
        <ele>685.0</ele>
        <time>2020-11-11T10:11:54Z</time>
      </trkpt>
      <trkpt lat="39.8811490" lon="-0.3485620">
        <ele>685.0</ele>
        <time>2020-11-11T10:11:55Z</time>
      </trkpt>
      <trkpt lat="39.8811490" lon="-0.3485670">
        <ele>685.0</ele>
        <time>2020-11-11T10:11:57Z</time>
      </trkpt>
      <trkpt lat="39.8811570" lon="-0.3485760">
        <ele>685.0</ele>
        <time>2020-11-11T10:11:59Z</time>
      </trkpt>
      <trkpt lat="39.8811560" lon="-0.3485810">
        <ele>685.0</ele>
        <time>2020-11-11T10:12:03Z</time>
      </trkpt>
      <trkpt lat="39.8811690" lon="-0.3486230">
        <ele>684.9</ele>
        <time>2020-11-11T10:12:11Z</time>
      </trkpt>
      <trkpt lat="39.8812060" lon="-0.3486610">
        <ele>684.9</ele>
        <time>2020-11-11T10:12:26Z</time>
      </trkpt>
      <trkpt lat="39.8812100" lon="-0.3486760">
        <ele>684.9</ele>
        <time>2020-11-11T10:12:30Z</time>
      </trkpt>
      <trkpt lat="39.8812180" lon="-0.3487060">
        <ele>686.1</ele>
        <time>2020-11-11T10:12:42Z</time>
      </trkpt>
      <trkpt lat="39.8812140" lon="-0.3487080">
        <ele>686.0</ele>
        <time>2020-11-11T10:12:44Z</time>
      </trkpt>
      <trkpt lat="39.8811910" lon="-0.3486900">
        <ele>686.0</ele>
        <time>2020-11-11T10:12:48Z</time>
      </trkpt>
      <trkpt lat="39.8811770" lon="-0.3486870">
        <ele>685.9</ele>
        <time>2020-11-11T10:12:55Z</time>
      </trkpt>
      <trkpt lat="39.8811630" lon="-0.3487350">
        <ele>688.3</ele>
        <time>2020-11-11T10:13:02Z</time>
      </trkpt>
      <trkpt lat="39.8811140" lon="-0.3487890">
        <ele>691.8</ele>
        <time>2020-11-11T10:13:11Z</time>
      </trkpt>
      <trkpt lat="39.8811020" lon="-0.3488070">
        <ele>691.8</ele>
        <time>2020-11-11T10:13:15Z</time>
      </trkpt>
      <trkpt lat="39.8810920" lon="-0.3488240">
        <ele>693.0</ele>
        <time>2020-11-11T10:13:17Z</time>
      </trkpt>
      <trkpt lat="39.8810690" lon="-0.3488750">
        <ele>695.3</ele>
        <time>2020-11-11T10:13:24Z</time>
      </trkpt>
      <trkpt lat="39.8810660" lon="-0.3488800">
        <ele>695.3</ele>
        <time>2020-11-11T10:13:25Z</time>
      </trkpt>
      <trkpt lat="39.8810630" lon="-0.3488830">
        <ele>695.2</ele>
        <time>2020-11-11T10:13:26Z</time>
      </trkpt>
      <trkpt lat="39.8810610" lon="-0.3488860">
        <ele>695.2</ele>
        <time>2020-11-11T10:13:27Z</time>
      </trkpt>
      <trkpt lat="39.8810440" lon="-0.3489000">
        <ele>696.2</ele>
        <time>2020-11-11T10:13:31Z</time>
      </trkpt>
      <trkpt lat="39.8810440" lon="-0.3489200">
        <ele>697.4</ele>
        <time>2020-11-11T10:13:36Z</time>
      </trkpt>
      <trkpt lat="39.8810520" lon="-0.3489190">
        <ele>697.4</ele>
        <time>2020-11-11T10:13:40Z</time>
      </trkpt>
      <trkpt lat="39.8810890" lon="-0.3489340">
        <ele>696.4</ele>
        <time>2020-11-11T10:13:48Z</time>
      </trkpt>
      <trkpt lat="39.8810820" lon="-0.3489350">
        <ele>696.4</ele>
        <time>2020-11-11T10:13:49Z</time>
      </trkpt>
      <trkpt lat="39.8810580" lon="-0.3489590">
        <ele>698.5</ele>
        <time>2020-11-11T10:13:54Z</time>
      </trkpt>
      <trkpt lat="39.8810090" lon="-0.3490100">
        <ele>700.6</ele>
        <time>2020-11-11T10:14:18Z</time>
      </trkpt>
      <trkpt lat="39.8810180" lon="-0.3490110">
        <ele>700.6</ele>
        <time>2020-11-11T10:14:22Z</time>
      </trkpt>
      <trkpt lat="39.8810020" lon="-0.3490020">
        <ele>700.6</ele>
        <time>2020-11-11T10:14:27Z</time>
      </trkpt>
      <trkpt lat="39.8809650" lon="-0.3490330">
        <ele>702.7</ele>
        <time>2020-11-11T10:14:32Z</time>
      </trkpt>
      <trkpt lat="39.8809450" lon="-0.3490840">
        <ele>704.9</ele>
        <time>2020-11-11T10:14:37Z</time>
      </trkpt>
      <trkpt lat="39.8809270" lon="-0.3491120">
        <ele>704.9</ele>
        <time>2020-11-11T10:14:42Z</time>
      </trkpt>
      <trkpt lat="39.8809240" lon="-0.3491170">
        <ele>707.1</ele>
        <time>2020-11-11T10:14:43Z</time>
      </trkpt>
      <trkpt lat="39.8809280" lon="-0.3491220">
        <ele>706.1</ele>
        <time>2020-11-11T10:14:46Z</time>
      </trkpt>
      <trkpt lat="39.8809520" lon="-0.3491410">
        <ele>706.1</ele>
        <time>2020-11-11T10:14:50Z</time>
      </trkpt>
      <trkpt lat="39.8809580" lon="-0.3491430">
        <ele>706.1</ele>
        <time>2020-11-11T10:14:51Z</time>
      </trkpt>
      <trkpt lat="39.8809500" lon="-0.3491550">
        <ele>706.1</ele>
        <time>2020-11-11T10:14:57Z</time>
      </trkpt>
      <trkpt lat="39.8809470" lon="-0.3491570">
        <ele>706.0</ele>
        <time>2020-11-11T10:14:58Z</time>
      </trkpt>
      <trkpt lat="39.8809550" lon="-0.3491500">
        <ele>706.0</ele>
        <time>2020-11-11T10:15:02Z</time>
      </trkpt>
      <trkpt lat="39.8809640" lon="-0.3491320">
        <ele>705.1</ele>
        <time>2020-11-11T10:15:08Z</time>
      </trkpt>
      <trkpt lat="39.8809700" lon="-0.3491300">
        <ele>705.1</ele>
        <time>2020-11-11T10:15:09Z</time>
      </trkpt>
      <trkpt lat="39.8809750" lon="-0.3491330">
        <ele>705.1</ele>
        <time>2020-11-11T10:15:10Z</time>
      </trkpt>
      <trkpt lat="39.8809830" lon="-0.3491340">
        <ele>705.1</ele>
        <time>2020-11-11T10:15:11Z</time>
      </trkpt>
      <trkpt lat="39.8809910" lon="-0.3491330">
        <ele>705.0</ele>
        <time>2020-11-11T10:15:12Z</time>
      </trkpt>
      <trkpt lat="39.8810070" lon="-0.3491390">
        <ele>704.1</ele>
        <time>2020-11-11T10:15:19Z</time>
      </trkpt>
      <trkpt lat="39.8810050" lon="-0.3491450">
        <ele>704.1</ele>
        <time>2020-11-11T10:15:24Z</time>
      </trkpt>
      <trkpt lat="39.8809990" lon="-0.3491530">
        <ele>704.1</ele>
        <time>2020-11-11T10:15:26Z</time>
      </trkpt>
      <trkpt lat="39.8810080" lon="-0.3491550">
        <ele>704.1</ele>
        <time>2020-11-11T10:15:29Z</time>
      </trkpt>
      <trkpt lat="39.8810150" lon="-0.3491540">
        <ele>704.1</ele>
        <time>2020-11-11T10:15:30Z</time>
      </trkpt>
      <trkpt lat="39.8810150" lon="-0.3491680">
        <ele>705.3</ele>
        <time>2020-11-11T10:15:33Z</time>
      </trkpt>
      <trkpt lat="39.8810130" lon="-0.3491720">
        <ele>705.3</ele>
        <time>2020-11-11T10:15:34Z</time>
      </trkpt>
      <trkpt lat="39.8810130" lon="-0.3491760">
        <ele>705.3</ele>
        <time>2020-11-11T10:15:35Z</time>
      </trkpt>
      <trkpt lat="39.8810120" lon="-0.3491790">
        <ele>705.3</ele>
        <time>2020-11-11T10:15:36Z</time>
      </trkpt>
      <trkpt lat="39.8810190" lon="-0.3491830">
        <ele>705.3</ele>
        <time>2020-11-11T10:15:38Z</time>
      </trkpt>
      <trkpt lat="39.8810290" lon="-0.3491960">
        <ele>704.4</ele>
        <time>2020-11-11T10:15:40Z</time>
      </trkpt>
      <trkpt lat="39.8810500" lon="-0.3492160">
        <ele>705.6</ele>
        <time>2020-11-11T10:15:45Z</time>
      </trkpt>
      <trkpt lat="39.8810710" lon="-0.3492690">
        <ele>705.9</ele>
        <time>2020-11-11T10:16:04Z</time>
      </trkpt>
      <trkpt lat="39.8809930" lon="-0.3493550">
        <ele>710.0</ele>
        <time>2020-11-11T10:16:37Z</time>
      </trkpt>
      <trkpt lat="39.8809950" lon="-0.3493540">
        <ele>710.0</ele>
        <time>2020-11-11T10:16:38Z</time>
      </trkpt>
      <trkpt lat="39.8809980" lon="-0.3493560">
        <ele>710.0</ele>
        <time>2020-11-11T10:16:39Z</time>
      </trkpt>
      <trkpt lat="39.8810080" lon="-0.3493760">
        <ele>711.1</ele>
        <time>2020-11-11T10:16:44Z</time>
      </trkpt>
      <trkpt lat="39.8810200" lon="-0.3493860">
        <ele>711.1</ele>
        <time>2020-11-11T10:16:47Z</time>
      </trkpt>
      <trkpt lat="39.8810450" lon="-0.3493710">
        <ele>709.0</ele>
        <time>2020-11-11T10:16:59Z</time>
      </trkpt>
      <trkpt lat="39.8810380" lon="-0.3494100">
        <ele>710.1</ele>
        <time>2020-11-11T10:17:09Z</time>
      </trkpt>
      <trkpt lat="39.8810260" lon="-0.3494310">
        <ele>711.2</ele>
        <time>2020-11-11T10:17:15Z</time>
      </trkpt>
      <trkpt lat="39.8810230" lon="-0.3494500">
        <ele>712.1</ele>
        <time>2020-11-11T10:17:20Z</time>
      </trkpt>
      <trkpt lat="39.8810330" lon="-0.3494570">
        <ele>711.2</ele>
        <time>2020-11-11T10:17:24Z</time>
      </trkpt>
      <trkpt lat="39.8810280" lon="-0.3495030">
        <ele>713.4</ele>
        <time>2020-11-11T10:17:35Z</time>
      </trkpt>
      <trkpt lat="39.8809840" lon="-0.3495720">
        <ele>716.5</ele>
        <time>2020-11-11T10:17:50Z</time>
      </trkpt>
      <trkpt lat="39.8809820" lon="-0.3495830">
        <ele>716.5</ele>
        <time>2020-11-11T10:17:52Z</time>
      </trkpt>
      <trkpt lat="39.8809900" lon="-0.3495880">
        <ele>716.5</ele>
        <time>2020-11-11T10:17:53Z</time>
      </trkpt>
      <trkpt lat="39.8810040" lon="-0.3495970">
        <ele>716.6</ele>
        <time>2020-11-11T10:17:55Z</time>
      </trkpt>
      <trkpt lat="39.8810060" lon="-0.3496220">
        <ele>716.6</ele>
        <time>2020-11-11T10:18:08Z</time>
      </trkpt>
      <trkpt lat="39.8810020" lon="-0.3496020">
        <ele>716.5</ele>
        <time>2020-11-11T10:18:16Z</time>
      </trkpt>
      <trkpt lat="39.8809700" lon="-0.3495960">
        <ele>717.5</ele>
        <time>2020-11-11T10:18:24Z</time>
      </trkpt>
      <trkpt lat="39.8809790" lon="-0.3496040">
        <ele>717.5</ele>
        <time>2020-11-11T10:18:35Z</time>
      </trkpt>
      <trkpt lat="39.8809700" lon="-0.3496240">
        <ele>717.5</ele>
        <time>2020-11-11T10:18:51Z</time>
      </trkpt>
      <trkpt lat="39.8809570" lon="-0.3496100">
        <ele>718.5</ele>
        <time>2020-11-11T10:18:56Z</time>
      </trkpt>
      <trkpt lat="39.8809040" lon="-0.3495750">
        <ele>718.4</ele>
        <time>2020-11-11T10:18:59Z</time>
      </trkpt>
      <trkpt lat="39.8808730" lon="-0.3495810">
        <ele>719.4</ele>
        <time>2020-11-11T10:19:04Z</time>
      </trkpt>
      <trkpt lat="39.8808710" lon="-0.3495770">
        <ele>719.4</ele>
        <time>2020-11-11T10:19:08Z</time>
      </trkpt>
      <trkpt lat="39.8808690" lon="-0.3496170">
        <ele>720.5</ele>
        <time>2020-11-11T10:19:18Z</time>
      </trkpt>
      <trkpt lat="39.8808640" lon="-0.3496320">
        <ele>721.6</ele>
        <time>2020-11-11T10:19:20Z</time>
      </trkpt>
      <trkpt lat="39.8808640" lon="-0.3496380">
        <ele>721.5</ele>
        <time>2020-11-11T10:19:21Z</time>
      </trkpt>
      <trkpt lat="39.8808630" lon="-0.3496430">
        <ele>721.5</ele>
        <time>2020-11-11T10:19:22Z</time>
      </trkpt>
      <trkpt lat="39.8808630" lon="-0.3496440">
        <ele>721.5</ele>
        <time>2020-11-11T10:19:23Z</time>
      </trkpt>
      <trkpt lat="39.8808600" lon="-0.3496470">
        <ele>722.6</ele>
        <time>2020-11-11T10:19:26Z</time>
      </trkpt>
      <trkpt lat="39.8808630" lon="-0.3496570">
        <ele>721.5</ele>
        <time>2020-11-11T10:19:27Z</time>
      </trkpt>
      <trkpt lat="39.8808650" lon="-0.3496640">
        <ele>721.5</ele>
        <time>2020-11-11T10:19:28Z</time>
      </trkpt>
      <trkpt lat="39.8808620" lon="-0.3496680">
        <ele>721.4</ele>
        <time>2020-11-11T10:19:29Z</time>
      </trkpt>
      <trkpt lat="39.8808610" lon="-0.3496730">
        <ele>721.4</ele>
        <time>2020-11-11T10:19:32Z</time>
      </trkpt>
      <trkpt lat="39.8808500" lon="-0.3496790">
        <ele>723.5</ele>
        <time>2020-11-11T10:19:34Z</time>
      </trkpt>
      <trkpt lat="39.8808320" lon="-0.3496890">
        <ele>723.5</ele>
        <time>2020-11-11T10:19:38Z</time>
      </trkpt>
      <trkpt lat="39.8808350" lon="-0.3497010">
        <ele>723.5</ele>
        <time>2020-11-11T10:19:40Z</time>
      </trkpt>
      <trkpt lat="39.8808200" lon="-0.3497470">
        <ele>725.5</ele>
        <time>2020-11-11T10:19:49Z</time>
      </trkpt>
      <trkpt lat="39.8808020" lon="-0.3497460">
        <ele>725.5</ele>
        <time>2020-11-11T10:19:52Z</time>
      </trkpt>
      <trkpt lat="39.8808050" lon="-0.3497570">
        <ele>725.5</ele>
        <time>2020-11-11T10:19:54Z</time>
      </trkpt>
      <trkpt lat="39.8808190" lon="-0.3497490">
        <ele>725.5</ele>
        <time>2020-11-11T10:20:07Z</time>
      </trkpt>
      <trkpt lat="39.8808190" lon="-0.3497610">
        <ele>726.3</ele>
        <time>2020-11-11T10:20:11Z</time>
      </trkpt>
      <trkpt lat="39.8808230" lon="-0.3497720">
        <ele>726.3</ele>
        <time>2020-11-11T10:20:13Z</time>
      </trkpt>
      <trkpt lat="39.8808140" lon="-0.3497780">
        <ele>726.3</ele>
        <time>2020-11-11T10:20:16Z</time>
      </trkpt>
      <trkpt lat="39.8808130" lon="-0.3497830">
        <ele>726.3</ele>
        <time>2020-11-11T10:20:19Z</time>
      </trkpt>
      <trkpt lat="39.8808080" lon="-0.3498050">
        <ele>727.1</ele>
        <time>2020-11-11T10:20:23Z</time>
      </trkpt>
      <trkpt lat="39.8808050" lon="-0.3498330">
        <ele>727.2</ele>
        <time>2020-11-11T10:20:27Z</time>
      </trkpt>
      <trkpt lat="39.8808000" lon="-0.3499030">
        <ele>727.4</ele>
        <time>2020-11-11T10:20:45Z</time>
      </trkpt>
      <trkpt lat="39.8808440" lon="-0.3499630">
        <ele>727.7</ele>
        <time>2020-11-11T10:20:53Z</time>
      </trkpt>
      <trkpt lat="39.8808480" lon="-0.3499750">
        <ele>727.8</ele>
        <time>2020-11-11T10:20:54Z</time>
      </trkpt>
      <trkpt lat="39.8808510" lon="-0.3499870">
        <ele>727.8</ele>
        <time>2020-11-11T10:20:55Z</time>
      </trkpt>
      <trkpt lat="39.8808510" lon="-0.3499980">
        <ele>727.9</ele>
        <time>2020-11-11T10:20:56Z</time>
      </trkpt>
      <trkpt lat="39.8808610" lon="-0.3500250">
        <ele>728.0</ele>
        <time>2020-11-11T10:20:59Z</time>
      </trkpt>
      <trkpt lat="39.8808640" lon="-0.3500350">
        <ele>728.0</ele>
        <time>2020-11-11T10:21:00Z</time>
      </trkpt>
      <trkpt lat="39.8808800" lon="-0.3500540">
        <ele>728.1</ele>
        <time>2020-11-11T10:21:03Z</time>
      </trkpt>
      <trkpt lat="39.8808880" lon="-0.3500800">
        <ele>728.2</ele>
        <time>2020-11-11T10:21:08Z</time>
      </trkpt>
      <trkpt lat="39.8808790" lon="-0.3501070">
        <ele>728.3</ele>
        <time>2020-11-11T10:21:21Z</time>
      </trkpt>
      <trkpt lat="39.8808680" lon="-0.3501090">
        <ele>728.4</ele>
        <time>2020-11-11T10:21:30Z</time>
      </trkpt>
      <trkpt lat="39.8808660" lon="-0.3501080">
        <ele>728.4</ele>
        <time>2020-11-11T10:21:35Z</time>
      </trkpt>
      <trkpt lat="39.8808640" lon="-0.3501110">
        <ele>728.4</ele>
        <time>2020-11-11T10:21:39Z</time>
      </trkpt>
      <trkpt lat="39.8808880" lon="-0.3501560">
        <ele>728.6</ele>
        <time>2020-11-11T10:21:50Z</time>
      </trkpt>
      <trkpt lat="39.8808920" lon="-0.3501630">
        <ele>728.6</ele>
        <time>2020-11-11T10:21:51Z</time>
      </trkpt>
      <trkpt lat="39.8808950" lon="-0.3501700">
        <ele>728.7</ele>
        <time>2020-11-11T10:21:52Z</time>
      </trkpt>
      <trkpt lat="39.8809060" lon="-0.3502090">
        <ele>728.8</ele>
        <time>2020-11-11T10:21:56Z</time>
      </trkpt>
      <trkpt lat="39.8809100" lon="-0.3502430">
        <ele>728.9</ele>
        <time>2020-11-11T10:21:58Z</time>
      </trkpt>
      <trkpt lat="39.8809110" lon="-0.3503670">
        <ele>729.4</ele>
        <time>2020-11-11T10:22:08Z</time>
      </trkpt>
      <trkpt lat="39.8809120" lon="-0.3503820">
        <ele>729.4</ele>
        <time>2020-11-11T10:22:09Z</time>
      </trkpt>
      <trkpt lat="39.8809140" lon="-0.3504910">
        <ele>729.9</ele>
        <time>2020-11-11T10:22:16Z</time>
      </trkpt>
      <trkpt lat="39.8809630" lon="-0.3506980">
        <ele>730.7</ele>
        <time>2020-11-11T10:22:30Z</time>
      </trkpt>
      <trkpt lat="39.8809940" lon="-0.3508940">
        <ele>731.5</ele>
        <time>2020-11-11T10:22:48Z</time>
      </trkpt>
      <trkpt lat="39.8809900" lon="-0.3509040">
        <ele>731.6</ele>
        <time>2020-11-11T10:22:52Z</time>
      </trkpt>
      <trkpt lat="39.8810010" lon="-0.3509200">
        <ele>731.7</ele>
        <time>2020-11-11T10:23:02Z</time>
      </trkpt>
      <trkpt lat="39.8809940" lon="-0.3509080">
        <ele>731.7</ele>
        <time>2020-11-11T10:23:12Z</time>
      </trkpt>
      <trkpt lat="39.8809940" lon="-0.3509070">
        <ele>731.7</ele>
        <time>2020-11-11T10:23:16Z</time>
      </trkpt>
      <trkpt lat="39.8809910" lon="-0.3508940">
        <ele>731.8</ele>
        <time>2020-11-11T10:23:22Z</time>
      </trkpt>
      <trkpt lat="39.8809800" lon="-0.3508070">
        <ele>732.1</ele>
        <time>2020-11-11T10:23:28Z</time>
      </trkpt>
      <trkpt lat="39.8809500" lon="-0.3506820">
        <ele>732.7</ele>
        <time>2020-11-11T10:23:36Z</time>
      </trkpt>
      <trkpt lat="39.8809290" lon="-0.3506280">
        <ele>732.9</ele>
        <time>2020-11-11T10:23:40Z</time>
      </trkpt>
      <trkpt lat="39.8809330" lon="-0.3505450">
        <ele>733.2</ele>
        <time>2020-11-11T10:23:46Z</time>
      </trkpt>
      <trkpt lat="39.8809400" lon="-0.3505390">
        <ele>733.2</ele>
        <time>2020-11-11T10:23:47Z</time>
      </trkpt>
      <trkpt lat="39.8809530" lon="-0.3505310">
        <ele>733.3</ele>
        <time>2020-11-11T10:23:49Z</time>
      </trkpt>
      <trkpt lat="39.8809750" lon="-0.3505180">
        <ele>733.4</ele>
        <time>2020-11-11T10:23:53Z</time>
      </trkpt>
      <trkpt lat="39.8809790" lon="-0.3505170">
        <ele>733.4</ele>
        <time>2020-11-11T10:23:57Z</time>
      </trkpt>
      <trkpt lat="39.8809810" lon="-0.3505160">
        <ele>733.4</ele>
        <time>2020-11-11T10:24:06Z</time>
      </trkpt>
      <trkpt lat="39.8809840" lon="-0.3505270">
        <ele>733.5</ele>
        <time>2020-11-11T10:24:09Z</time>
      </trkpt>
      <trkpt lat="39.8809820" lon="-0.3505650">
        <ele>733.6</ele>
        <time>2020-11-11T10:24:13Z</time>
      </trkpt>
      <trkpt lat="39.8809790" lon="-0.3506310">
        <ele>733.9</ele>
        <time>2020-11-11T10:24:18Z</time>
      </trkpt>
      <trkpt lat="39.8809810" lon="-0.3506580">
        <ele>734.0</ele>
        <time>2020-11-11T10:24:20Z</time>
      </trkpt>
      <trkpt lat="39.8809840" lon="-0.3506960">
        <ele>734.1</ele>
        <time>2020-11-11T10:24:23Z</time>
      </trkpt>
      <trkpt lat="39.8809820" lon="-0.3507580">
        <ele>734.3</ele>
        <time>2020-11-11T10:24:27Z</time>
      </trkpt>
      <trkpt lat="39.8809760" lon="-0.3508810">
        <ele>734.7</ele>
        <time>2020-11-11T10:24:34Z</time>
      </trkpt>
      <trkpt lat="39.8809870" lon="-0.3511310">
        <ele>735.8</ele>
        <time>2020-11-11T10:24:48Z</time>
      </trkpt>
      <trkpt lat="39.8809910" lon="-0.3512240">
        <ele>736.2</ele>
        <time>2020-11-11T10:24:53Z</time>
      </trkpt>
      <trkpt lat="39.8809880" lon="-0.3512420">
        <ele>736.3</ele>
        <time>2020-11-11T10:24:54Z</time>
      </trkpt>
      <trkpt lat="39.8809160" lon="-0.3514640">
        <ele>737.5</ele>
        <time>2020-11-11T10:25:06Z</time>
      </trkpt>
      <trkpt lat="39.8808300" lon="-0.3515790">
        <ele>738.3</ele>
        <time>2020-11-11T10:25:14Z</time>
      </trkpt>
      <trkpt lat="39.8808160" lon="-0.3515920">
        <ele>738.5</ele>
        <time>2020-11-11T10:25:15Z</time>
      </trkpt>
      <trkpt lat="39.8807060" lon="-0.3517020">
        <ele>739.4</ele>
        <time>2020-11-11T10:25:25Z</time>
      </trkpt>
      <trkpt lat="39.8806640" lon="-0.3517330">
        <ele>739.7</ele>
        <time>2020-11-11T10:25:28Z</time>
      </trkpt>
      <trkpt lat="39.8806460" lon="-0.3517430">
        <ele>739.9</ele>
        <time>2020-11-11T10:25:29Z</time>
      </trkpt>
      <trkpt lat="39.8806360" lon="-0.3517530">
        <ele>740.0</ele>
        <time>2020-11-11T10:25:30Z</time>
      </trkpt>
      <trkpt lat="39.8806220" lon="-0.3517610">
        <ele>740.1</ele>
        <time>2020-11-11T10:25:31Z</time>
      </trkpt>
      <trkpt lat="39.8805160" lon="-0.3519320">
        <ele>741.3</ele>
        <time>2020-11-11T10:25:44Z</time>
      </trkpt>
      <trkpt lat="39.8804980" lon="-0.3519700">
        <ele>741.6</ele>
        <time>2020-11-11T10:25:47Z</time>
      </trkpt>
      <trkpt lat="39.8803230" lon="-0.3520820">
        <ele>743.1</ele>
        <time>2020-11-11T10:26:01Z</time>
      </trkpt>
      <trkpt lat="39.8801900" lon="-0.3521890">
        <ele>744.1</ele>
        <time>2020-11-11T10:26:12Z</time>
      </trkpt>
      <trkpt lat="39.8800570" lon="-0.3523370">
        <ele>745.0</ele>
        <time>2020-11-11T10:26:23Z</time>
      </trkpt>
      <trkpt lat="39.8800100" lon="-0.3524830">
        <ele>745.5</ele>
        <time>2020-11-11T10:26:30Z</time>
      </trkpt>
      <trkpt lat="39.8801360" lon="-0.3526570">
        <ele>746.2</ele>
        <time>2020-11-11T10:26:41Z</time>
      </trkpt>
      <trkpt lat="39.8802000" lon="-0.3527610">
        <ele>746.7</ele>
        <time>2020-11-11T10:26:48Z</time>
      </trkpt>
      <trkpt lat="39.8802240" lon="-0.3528000">
        <ele>746.9</ele>
        <time>2020-11-11T10:26:51Z</time>
      </trkpt>
      <trkpt lat="39.8803580" lon="-0.3529810">
        <ele>748.1</ele>
        <time>2020-11-11T10:27:04Z</time>
      </trkpt>
      <trkpt lat="39.8803990" lon="-0.3531630">
        <ele>749.2</ele>
        <time>2020-11-11T10:27:16Z</time>
      </trkpt>
      <trkpt lat="39.8803560" lon="-0.3531440">
        <ele>749.5</ele>
        <time>2020-11-11T10:27:41Z</time>
      </trkpt>
      <trkpt lat="39.8803620" lon="-0.3531620">
        <ele>749.6</ele>
        <time>2020-11-11T10:27:50Z</time>
      </trkpt>
      <trkpt lat="39.8803120" lon="-0.3533330">
        <ele>750.6</ele>
        <time>2020-11-11T10:28:02Z</time>
      </trkpt>
      <trkpt lat="39.8802930" lon="-0.3533760">
        <ele>750.8</ele>
        <time>2020-11-11T10:28:05Z</time>
      </trkpt>
      <trkpt lat="39.8803060" lon="-0.3535380">
        <ele>751.5</ele>
        <time>2020-11-11T10:28:14Z</time>
      </trkpt>
      <trkpt lat="39.8803500" lon="-0.3535810">
        <ele>751.7</ele>
        <time>2020-11-11T10:28:18Z</time>
      </trkpt>
      <trkpt lat="39.8805170" lon="-0.3536770">
        <ele>752.3</ele>
        <time>2020-11-11T10:28:31Z</time>
      </trkpt>
      <trkpt lat="39.8806980" lon="-0.3537590">
        <ele>753.0</ele>
        <time>2020-11-11T10:28:44Z</time>
      </trkpt>
      <trkpt lat="39.8808370" lon="-0.3538440">
        <ele>753.6</ele>
        <time>2020-11-11T10:28:54Z</time>
      </trkpt>
      <trkpt lat="39.8808950" lon="-0.3538810">
        <ele>753.9</ele>
        <time>2020-11-11T10:28:59Z</time>
      </trkpt>
      <trkpt lat="39.8810750" lon="-0.3539070">
        <ele>754.8</ele>
        <time>2020-11-11T10:29:09Z</time>
      </trkpt>
      <trkpt lat="39.8812240" lon="-0.3540540">
        <ele>755.9</ele>
        <time>2020-11-11T10:29:21Z</time>
      </trkpt>
      <trkpt lat="39.8813060" lon="-0.3542730">
        <ele>757.0</ele>
        <time>2020-11-11T10:29:34Z</time>
      </trkpt>
      <trkpt lat="39.8814310" lon="-0.3544490">
        <ele>758.0</ele>
        <time>2020-11-11T10:29:46Z</time>
      </trkpt>
      <trkpt lat="39.8815040" lon="-0.3545550">
        <ele>758.6</ele>
        <time>2020-11-11T10:29:53Z</time>
      </trkpt>
      <trkpt lat="39.8815100" lon="-0.3545700">
        <ele>758.7</ele>
        <time>2020-11-11T10:29:54Z</time>
      </trkpt>
      <trkpt lat="39.8815300" lon="-0.3546320">
        <ele>758.9</ele>
        <time>2020-11-11T10:29:58Z</time>
      </trkpt>
      <trkpt lat="39.8815080" lon="-0.3547190">
        <ele>760.1</ele>
        <time>2020-11-11T10:30:03Z</time>
      </trkpt>
      <trkpt lat="39.8814990" lon="-0.3547340">
        <ele>761.3</ele>
        <time>2020-11-11T10:30:04Z</time>
      </trkpt>
      <trkpt lat="39.8814920" lon="-0.3547500">
        <ele>762.5</ele>
        <time>2020-11-11T10:30:05Z</time>
      </trkpt>
      <trkpt lat="39.8814110" lon="-0.3549060">
        <ele>766.8</ele>
        <time>2020-11-11T10:30:16Z</time>
      </trkpt>
      <trkpt lat="39.8812810" lon="-0.3550860">
        <ele>768.3</ele>
        <time>2020-11-11T10:30:31Z</time>
      </trkpt>
      <trkpt lat="39.8812460" lon="-0.3551370">
        <ele>768.9</ele>
        <time>2020-11-11T10:30:35Z</time>
      </trkpt>
      <trkpt lat="39.8812140" lon="-0.3551790">
        <ele>769.4</ele>
        <time>2020-11-11T10:30:40Z</time>
      </trkpt>
      <trkpt lat="39.8811690" lon="-0.3552110">
        <ele>770.1</ele>
        <time>2020-11-11T10:30:45Z</time>
      </trkpt>
      <trkpt lat="39.8810200" lon="-0.3553430">
        <ele>773.7</ele>
        <time>2020-11-11T10:31:02Z</time>
      </trkpt>
      <trkpt lat="39.8810070" lon="-0.3553660">
        <ele>774.2</ele>
        <time>2020-11-11T10:31:06Z</time>
      </trkpt>
      <trkpt lat="39.8810050" lon="-0.3553800">
        <ele>774.5</ele>
        <time>2020-11-11T10:31:08Z</time>
      </trkpt>
      <trkpt lat="39.8810010" lon="-0.3553920">
        <ele>774.8</ele>
        <time>2020-11-11T10:31:09Z</time>
      </trkpt>
      <trkpt lat="39.8810050" lon="-0.3554200">
        <ele>775.3</ele>
        <time>2020-11-11T10:31:11Z</time>
      </trkpt>
      <trkpt lat="39.8810000" lon="-0.3554490">
        <ele>775.9</ele>
        <time>2020-11-11T10:31:13Z</time>
      </trkpt>
      <trkpt lat="39.8809930" lon="-0.3555620">
        <ele>778.1</ele>
        <time>2020-11-11T10:31:21Z</time>
      </trkpt>
      <trkpt lat="39.8809540" lon="-0.3557710">
        <ele>782.2</ele>
        <time>2020-11-11T10:31:40Z</time>
      </trkpt>
      <trkpt lat="39.8809370" lon="-0.3558430">
        <ele>783.6</ele>
        <time>2020-11-11T10:31:47Z</time>
      </trkpt>
      <trkpt lat="39.8809280" lon="-0.3559480">
        <ele>785.4</ele>
        <time>2020-11-11T10:31:57Z</time>
      </trkpt>
      <trkpt lat="39.8809270" lon="-0.3559670">
        <ele>785.7</ele>
        <time>2020-11-11T10:31:59Z</time>
      </trkpt>
      <trkpt lat="39.8809330" lon="-0.3560240">
        <ele>786.5</ele>
        <time>2020-11-11T10:32:03Z</time>
      </trkpt>
      <trkpt lat="39.8809370" lon="-0.3560370">
        <ele>786.7</ele>
        <time>2020-11-11T10:32:04Z</time>
      </trkpt>
      <trkpt lat="39.8809390" lon="-0.3560430">
        <ele>786.8</ele>
        <time>2020-11-11T10:32:05Z</time>
      </trkpt>
      <trkpt lat="39.8809400" lon="-0.3560470">
        <ele>786.9</ele>
        <time>2020-11-11T10:32:06Z</time>
      </trkpt>
      <trkpt lat="39.8809330" lon="-0.3560560">
        <ele>787.0</ele>
        <time>2020-11-11T10:32:11Z</time>
      </trkpt>
      <trkpt lat="39.8809360" lon="-0.3560580">
        <ele>787.1</ele>
        <time>2020-11-11T10:32:12Z</time>
      </trkpt>
      <trkpt lat="39.8809390" lon="-0.3560570">
        <ele>787.2</ele>
        <time>2020-11-11T10:32:17Z</time>
      </trkpt>
      <trkpt lat="39.8809400" lon="-0.3560570">
        <ele>787.2</ele>
        <time>2020-11-11T10:32:18Z</time>
      </trkpt>
      <trkpt lat="39.8809410" lon="-0.3560560">
        <ele>787.2</ele>
        <time>2020-11-11T10:32:19Z</time>
      </trkpt>
      <trkpt lat="39.8809540" lon="-0.3560640">
        <ele>787.4</ele>
        <time>2020-11-11T10:32:22Z</time>
      </trkpt>
      <trkpt lat="39.8809570" lon="-0.3560730">
        <ele>787.5</ele>
        <time>2020-11-11T10:32:25Z</time>
      </trkpt>
      <trkpt lat="39.8809700" lon="-0.3561490">
        <ele>788.2</ele>
        <time>2020-11-11T10:32:32Z</time>
      </trkpt>
      <trkpt lat="39.8809760" lon="-0.3561570">
        <ele>788.3</ele>
        <time>2020-11-11T10:32:33Z</time>
      </trkpt>
      <trkpt lat="39.8809990" lon="-0.3561740">
        <ele>788.5</ele>
        <time>2020-11-11T10:32:36Z</time>
      </trkpt>
      <trkpt lat="39.8810480" lon="-0.3562040">
        <ele>788.8</ele>
        <time>2020-11-11T10:32:40Z</time>
      </trkpt>
      <trkpt lat="39.8811350" lon="-0.3562580">
        <ele>789.1</ele>
        <time>2020-11-11T10:32:50Z</time>
      </trkpt>
      <trkpt lat="39.8811480" lon="-0.3562630">
        <ele>789.3</ele>
        <time>2020-11-11T10:32:53Z</time>
      </trkpt>
      <trkpt lat="39.8811590" lon="-0.3562720">
        <ele>789.3</ele>
        <time>2020-11-11T10:32:55Z</time>
      </trkpt>
      <trkpt lat="39.8811790" lon="-0.3563020">
        <ele>789.7</ele>
        <time>2020-11-11T10:33:02Z</time>
      </trkpt>
      <trkpt lat="39.8811490" lon="-0.3563220">
        <ele>790.1</ele>
        <time>2020-11-11T10:33:14Z</time>
      </trkpt>
      <trkpt lat="39.8811510" lon="-0.3563230">
        <ele>790.2</ele>
        <time>2020-11-11T10:33:15Z</time>
      </trkpt>
      <trkpt lat="39.8811550" lon="-0.3563220">
        <ele>790.2</ele>
        <time>2020-11-11T10:33:17Z</time>
      </trkpt>
      <trkpt lat="39.8811690" lon="-0.3563350">
        <ele>790.6</ele>
        <time>2020-11-11T10:33:21Z</time>
      </trkpt>
      <trkpt lat="39.8812160" lon="-0.3563880">
        <ele>791.9</ele>
        <time>2020-11-11T10:33:26Z</time>
      </trkpt>
      <trkpt lat="39.8812460" lon="-0.3564240">
        <ele>793.0</ele>
        <time>2020-11-11T10:33:30Z</time>
      </trkpt>
      <trkpt lat="39.8812660" lon="-0.3564380">
        <ele>793.6</ele>
        <time>2020-11-11T10:33:32Z</time>
      </trkpt>
      <trkpt lat="39.8813470" lon="-0.3565380">
        <ele>796.4</ele>
        <time>2020-11-11T10:33:41Z</time>
      </trkpt>
      <trkpt lat="39.8813670" lon="-0.3565860">
        <ele>797.3</ele>
        <time>2020-11-11T10:33:45Z</time>
      </trkpt>
      <trkpt lat="39.8813760" lon="-0.3566240">
        <ele>798.0</ele>
        <time>2020-11-11T10:33:48Z</time>
      </trkpt>
      <trkpt lat="39.8813800" lon="-0.3566390">
        <ele>798.3</ele>
        <time>2020-11-11T10:33:49Z</time>
      </trkpt>
      <trkpt lat="39.8813890" lon="-0.3566780">
        <ele>799.0</ele>
        <time>2020-11-11T10:33:52Z</time>
      </trkpt>
      <trkpt lat="39.8813900" lon="-0.3566910">
        <ele>799.2</ele>
        <time>2020-11-11T10:33:53Z</time>
      </trkpt>
      <trkpt lat="39.8813990" lon="-0.3567340">
        <ele>799.9</ele>
        <time>2020-11-11T10:33:56Z</time>
      </trkpt>
      <trkpt lat="39.8813980" lon="-0.3567980">
        <ele>800.9</ele>
        <time>2020-11-11T10:33:59Z</time>
      </trkpt>
      <trkpt lat="39.8813430" lon="-0.3570280">
        <ele>803.9</ele>
        <time>2020-11-11T10:34:14Z</time>
      </trkpt>
      <trkpt lat="39.8812770" lon="-0.3571320">
        <ele>805.2</ele>
        <time>2020-11-11T10:34:23Z</time>
      </trkpt>
      <trkpt lat="39.8811900" lon="-0.3572260">
        <ele>806.6</ele>
        <time>2020-11-11T10:34:33Z</time>
      </trkpt>
      <trkpt lat="39.8811850" lon="-0.3572280">
        <ele>806.7</ele>
        <time>2020-11-11T10:34:34Z</time>
      </trkpt>
      <trkpt lat="39.8811480" lon="-0.3572230">
        <ele>807.3</ele>
        <time>2020-11-11T10:34:38Z</time>
      </trkpt>
      <trkpt lat="39.8811360" lon="-0.3572240">
        <ele>807.5</ele>
        <time>2020-11-11T10:34:39Z</time>
      </trkpt>
      <trkpt lat="39.8811170" lon="-0.3572340">
        <ele>807.9</ele>
        <time>2020-11-11T10:34:41Z</time>
      </trkpt>
      <trkpt lat="39.8810980" lon="-0.3572440">
        <ele>808.3</ele>
        <time>2020-11-11T10:34:43Z</time>
      </trkpt>
      <trkpt lat="39.8809930" lon="-0.3573480">
        <ele>811.3</ele>
        <time>2020-11-11T10:34:57Z</time>
      </trkpt>
      <trkpt lat="39.8809820" lon="-0.3573160">
        <ele>811.9</ele>
        <time>2020-11-11T10:35:00Z</time>
      </trkpt>
      <trkpt lat="39.8809870" lon="-0.3572690">
        <ele>812.7</ele>
        <time>2020-11-11T10:35:04Z</time>
      </trkpt>
      <trkpt lat="39.8809820" lon="-0.3572650">
        <ele>812.8</ele>
        <time>2020-11-11T10:35:05Z</time>
      </trkpt>
      <trkpt lat="39.8809730" lon="-0.3572640">
        <ele>813.0</ele>
        <time>2020-11-11T10:35:06Z</time>
      </trkpt>
      <trkpt lat="39.8809580" lon="-0.3572770">
        <ele>813.4</ele>
        <time>2020-11-11T10:35:08Z</time>
      </trkpt>
      <trkpt lat="39.8808280" lon="-0.3574460">
        <ele>816.8</ele>
        <time>2020-11-11T10:35:26Z</time>
      </trkpt>
      <trkpt lat="39.8808230" lon="-0.3574480">
        <ele>816.9</ele>
        <time>2020-11-11T10:35:28Z</time>
      </trkpt>
      <trkpt lat="39.8807880" lon="-0.3574280">
        <ele>817.5</ele>
        <time>2020-11-11T10:35:34Z</time>
      </trkpt>
      <trkpt lat="39.8807850" lon="-0.3574260">
        <ele>817.6</ele>
        <time>2020-11-11T10:35:36Z</time>
      </trkpt>
      <trkpt lat="39.8807850" lon="-0.3574260">
        <ele>817.6</ele>
        <time>2020-11-11T10:35:37Z</time>
      </trkpt>
      <trkpt lat="39.8807850" lon="-0.3574270">
        <ele>817.6</ele>
        <time>2020-11-11T10:35:38Z</time>
      </trkpt>
      <trkpt lat="39.8807460" lon="-0.3574670">
        <ele>818.4</ele>
        <time>2020-11-11T10:35:44Z</time>
      </trkpt>
      <trkpt lat="39.8807130" lon="-0.3575160">
        <ele>819.2</ele>
        <time>2020-11-11T10:35:49Z</time>
      </trkpt>
      <trkpt lat="39.8807000" lon="-0.3575350">
        <ele>819.5</ele>
        <time>2020-11-11T10:35:51Z</time>
      </trkpt>
      <trkpt lat="39.8806780" lon="-0.3575600">
        <ele>819.9</ele>
        <time>2020-11-11T10:35:56Z</time>
      </trkpt>
      <trkpt lat="39.8806710" lon="-0.3575670">
        <ele>820.0</ele>
        <time>2020-11-11T10:36:03Z</time>
      </trkpt>
      <trkpt lat="39.8806640" lon="-0.3575680">
        <ele>820.1</ele>
        <time>2020-11-11T10:36:08Z</time>
      </trkpt>
      <trkpt lat="39.8806660" lon="-0.3575680">
        <ele>820.1</ele>
        <time>2020-11-11T10:36:17Z</time>
      </trkpt>
      <trkpt lat="39.8806710" lon="-0.3575670">
        <ele>820.2</ele>
        <time>2020-11-11T10:36:20Z</time>
      </trkpt>
      <trkpt lat="39.8806750" lon="-0.3575660">
        <ele>820.3</ele>
        <time>2020-11-11T10:36:22Z</time>
      </trkpt>
      <trkpt lat="39.8806760" lon="-0.3575630">
        <ele>820.3</ele>
        <time>2020-11-11T10:36:26Z</time>
      </trkpt>
      <trkpt lat="39.8806680" lon="-0.3575750">
        <ele>820.5</ele>
        <time>2020-11-11T10:36:29Z</time>
      </trkpt>
      <trkpt lat="39.8806400" lon="-0.3576180">
        <ele>821.1</ele>
        <time>2020-11-11T10:36:35Z</time>
      </trkpt>
      <trkpt lat="39.8806590" lon="-0.3576160">
        <ele>821.3</ele>
        <time>2020-11-11T10:36:43Z</time>
      </trkpt>
      <trkpt lat="39.8806680" lon="-0.3576130">
        <ele>821.4</ele>
        <time>2020-11-11T10:36:52Z</time>
      </trkpt>
      <trkpt lat="39.8806670" lon="-0.3576150">
        <ele>821.4</ele>
        <time>2020-11-11T10:36:53Z</time>
      </trkpt>
      <trkpt lat="39.8806660" lon="-0.3576310">
        <ele>821.6</ele>
        <time>2020-11-11T10:37:01Z</time>
      </trkpt>
      <trkpt lat="39.8806590" lon="-0.3576480">
        <ele>821.8</ele>
        <time>2020-11-11T10:37:03Z</time>
      </trkpt>
      <trkpt lat="39.8805060" lon="-0.3578010">
        <ele>824.1</ele>
        <time>2020-11-11T10:37:19Z</time>
      </trkpt>
      <trkpt lat="39.8803480" lon="-0.3579380">
        <ele>826.5</ele>
        <time>2020-11-11T10:37:35Z</time>
      </trkpt>
      <trkpt lat="39.8802950" lon="-0.3579750">
        <ele>827.3</ele>
        <time>2020-11-11T10:37:40Z</time>
      </trkpt>
      <trkpt lat="39.8801260" lon="-0.3580450">
        <ele>829.7</ele>
        <time>2020-11-11T10:37:53Z</time>
      </trkpt>
      <trkpt lat="39.8799680" lon="-0.3580190">
        <ele>831.7</ele>
        <time>2020-11-11T10:38:03Z</time>
      </trkpt>
      <trkpt lat="39.8799190" lon="-0.3580360">
        <ele>832.4</ele>
        <time>2020-11-11T10:38:08Z</time>
      </trkpt>
      <trkpt lat="39.8798950" lon="-0.3580640">
        <ele>832.8</ele>
        <time>2020-11-11T10:38:11Z</time>
      </trkpt>
      <trkpt lat="39.8798180" lon="-0.3581800">
        <ele>834.4</ele>
        <time>2020-11-11T10:38:23Z</time>
      </trkpt>
      <trkpt lat="39.8797430" lon="-0.3583820">
        <ele>837.9</ele>
        <time>2020-11-11T10:38:41Z</time>
      </trkpt>
      <trkpt lat="39.8797270" lon="-0.3584180">
        <ele>838.7</ele>
        <time>2020-11-11T10:38:44Z</time>
      </trkpt>
      <trkpt lat="39.8797350" lon="-0.3584520">
        <ele>839.4</ele>
        <time>2020-11-11T10:38:47Z</time>
      </trkpt>
      <trkpt lat="39.8797530" lon="-0.3585260">
        <ele>840.9</ele>
        <time>2020-11-11T10:38:55Z</time>
      </trkpt>
      <trkpt lat="39.8797450" lon="-0.3585370">
        <ele>841.2</ele>
        <time>2020-11-11T10:38:56Z</time>
      </trkpt>
      <trkpt lat="39.8797410" lon="-0.3585470">
        <ele>841.4</ele>
        <time>2020-11-11T10:38:57Z</time>
      </trkpt>
      <trkpt lat="39.8797320" lon="-0.3586000">
        <ele>842.5</ele>
        <time>2020-11-11T10:39:04Z</time>
      </trkpt>
      <trkpt lat="39.8797310" lon="-0.3586050">
        <ele>842.6</ele>
        <time>2020-11-11T10:39:06Z</time>
      </trkpt>
      <trkpt lat="39.8796620" lon="-0.3586040">
        <ele>844.2</ele>
        <time>2020-11-11T10:39:22Z</time>
      </trkpt>
      <trkpt lat="39.8796550" lon="-0.3586120">
        <ele>844.4</ele>
        <time>2020-11-11T10:39:24Z</time>
      </trkpt>
      <trkpt lat="39.8796530" lon="-0.3586210">
        <ele>844.6</ele>
        <time>2020-11-11T10:39:25Z</time>
      </trkpt>
      <trkpt lat="39.8796560" lon="-0.3586320">
        <ele>844.8</ele>
        <time>2020-11-11T10:39:26Z</time>
      </trkpt>
      <trkpt lat="39.8796720" lon="-0.3586490">
        <ele>845.2</ele>
        <time>2020-11-11T10:39:28Z</time>
      </trkpt>
      <trkpt lat="39.8796740" lon="-0.3586680">
        <ele>845.6</ele>
        <time>2020-11-11T10:39:29Z</time>
      </trkpt>
      <trkpt lat="39.8796770" lon="-0.3586830">
        <ele>845.8</ele>
        <time>2020-11-11T10:39:30Z</time>
      </trkpt>
      <trkpt lat="39.8796820" lon="-0.3587020">
        <ele>846.1</ele>
        <time>2020-11-11T10:39:32Z</time>
      </trkpt>
      <trkpt lat="39.8796840" lon="-0.3587050">
        <ele>846.1</ele>
        <time>2020-11-11T10:39:33Z</time>
      </trkpt>
      <trkpt lat="39.8796840" lon="-0.3587060">
        <ele>846.1</ele>
        <time>2020-11-11T10:39:34Z</time>
      </trkpt>
      <trkpt lat="39.8796840" lon="-0.3587060">
        <ele>846.1</ele>
        <time>2020-11-11T10:39:35Z</time>
      </trkpt>
      <trkpt lat="39.8796790" lon="-0.3587030">
        <ele>846.2</ele>
        <time>2020-11-11T10:39:38Z</time>
      </trkpt>
      <trkpt lat="39.8796780" lon="-0.3587020">
        <ele>846.3</ele>
        <time>2020-11-11T10:39:39Z</time>
      </trkpt>
      <trkpt lat="39.8796760" lon="-0.3587050">
        <ele>846.3</ele>
        <time>2020-11-11T10:39:40Z</time>
      </trkpt>
      <trkpt lat="39.8796750" lon="-0.3587040">
        <ele>846.3</ele>
        <time>2020-11-11T10:39:42Z</time>
      </trkpt>
      <trkpt lat="39.8796690" lon="-0.3587130">
        <ele>846.5</ele>
        <time>2020-11-11T10:39:55Z</time>
      </trkpt>
      <trkpt lat="39.8796670" lon="-0.3587090">
        <ele>846.6</ele>
        <time>2020-11-11T10:39:59Z</time>
      </trkpt>
      <trkpt lat="39.8796550" lon="-0.3587080">
        <ele>846.7</ele>
        <time>2020-11-11T10:40:02Z</time>
      </trkpt>
      <trkpt lat="39.8796560" lon="-0.3587160">
        <ele>846.8</ele>
        <time>2020-11-11T10:40:05Z</time>
      </trkpt>
      <trkpt lat="39.8796420" lon="-0.3587560">
        <ele>847.3</ele>
        <time>2020-11-11T10:40:09Z</time>
      </trkpt>
      <trkpt lat="39.8796150" lon="-0.3587920">
        <ele>847.9</ele>
        <time>2020-11-11T10:40:13Z</time>
      </trkpt>
      <trkpt lat="39.8795310" lon="-0.3589260">
        <ele>849.8</ele>
        <time>2020-11-11T10:40:28Z</time>
      </trkpt>
      <trkpt lat="39.8795350" lon="-0.3590250">
        <ele>851.1</ele>
        <time>2020-11-11T10:40:40Z</time>
      </trkpt>
      <trkpt lat="39.8795020" lon="-0.3590100">
        <ele>851.7</ele>
        <time>2020-11-11T10:40:45Z</time>
      </trkpt>
      <trkpt lat="39.8794890" lon="-0.3590080">
        <ele>852.0</ele>
        <time>2020-11-11T10:40:47Z</time>
      </trkpt>
      <trkpt lat="39.8794150" lon="-0.3590330">
        <ele>853.5</ele>
        <time>2020-11-11T10:40:56Z</time>
      </trkpt>
      <trkpt lat="39.8793950" lon="-0.3590400">
        <ele>853.9</ele>
        <time>2020-11-11T10:40:59Z</time>
      </trkpt>
      <trkpt lat="39.8793880" lon="-0.3590460">
        <ele>854.1</ele>
        <time>2020-11-11T10:41:00Z</time>
      </trkpt>
      <trkpt lat="39.8793790" lon="-0.3591150">
        <ele>855.4</ele>
        <time>2020-11-11T10:41:10Z</time>
      </trkpt>
      <trkpt lat="39.8793740" lon="-0.3591210">
        <ele>855.5</ele>
        <time>2020-11-11T10:41:11Z</time>
      </trkpt>
      <trkpt lat="39.8793680" lon="-0.3591290">
        <ele>855.7</ele>
        <time>2020-11-11T10:41:12Z</time>
      </trkpt>
      <trkpt lat="39.8793600" lon="-0.3591370">
        <ele>856.0</ele>
        <time>2020-11-11T10:41:13Z</time>
      </trkpt>
      <trkpt lat="39.8793540" lon="-0.3591460">
        <ele>856.2</ele>
        <time>2020-11-11T10:41:14Z</time>
      </trkpt>
      <trkpt lat="39.8793450" lon="-0.3591760">
        <ele>856.7</ele>
        <time>2020-11-11T10:41:18Z</time>
      </trkpt>
      <trkpt lat="39.8793720" lon="-0.3592030">
        <ele>857.5</ele>
        <time>2020-11-11T10:41:23Z</time>
      </trkpt>
      <trkpt lat="39.8794140" lon="-0.3592060">
        <ele>858.5</ele>
        <time>2020-11-11T10:41:27Z</time>
      </trkpt>
      <trkpt lat="39.8794170" lon="-0.3592180">
        <ele>858.7</ele>
        <time>2020-11-11T10:41:32Z</time>
      </trkpt>
      <trkpt lat="39.8794180" lon="-0.3592240">
        <ele>858.8</ele>
        <time>2020-11-11T10:41:33Z</time>
      </trkpt>
      <trkpt lat="39.8794210" lon="-0.3592340">
        <ele>859.0</ele>
        <time>2020-11-11T10:41:34Z</time>
      </trkpt>
      <trkpt lat="39.8794250" lon="-0.3592470">
        <ele>859.3</ele>
        <time>2020-11-11T10:41:35Z</time>
      </trkpt>
      <trkpt lat="39.8794310" lon="-0.3592570">
        <ele>859.5</ele>
        <time>2020-11-11T10:41:36Z</time>
      </trkpt>
      <trkpt lat="39.8794550" lon="-0.3592690">
        <ele>860.0</ele>
        <time>2020-11-11T10:41:38Z</time>
      </trkpt>
      <trkpt lat="39.8795140" lon="-0.3593650">
        <ele>862.0</ele>
        <time>2020-11-11T10:41:49Z</time>
      </trkpt>
      <trkpt lat="39.8795080" lon="-0.3593810">
        <ele>862.3</ele>
        <time>2020-11-11T10:41:55Z</time>
      </trkpt>
      <trkpt lat="39.8795000" lon="-0.3593620">
        <ele>862.7</ele>
        <time>2020-11-11T10:41:58Z</time>
      </trkpt>
      <trkpt lat="39.8794880" lon="-0.3594360">
        <ele>864.0</ele>
        <time>2020-11-11T10:42:08Z</time>
      </trkpt>
      <trkpt lat="39.8794500" lon="-0.3595650">
        <ele>866.6</ele>
        <time>2020-11-11T10:42:20Z</time>
      </trkpt>
      <trkpt lat="39.8794350" lon="-0.3596120">
        <ele>867.5</ele>
        <time>2020-11-11T10:42:24Z</time>
      </trkpt>
      <trkpt lat="39.8794260" lon="-0.3596470">
        <ele>868.2</ele>
        <time>2020-11-11T10:42:28Z</time>
      </trkpt>
      <trkpt lat="39.8793890" lon="-0.3597510">
        <ele>870.3</ele>
        <time>2020-11-11T10:42:37Z</time>
      </trkpt>
      <trkpt lat="39.8793470" lon="-0.3598570">
        <ele>872.4</ele>
        <time>2020-11-11T10:42:46Z</time>
      </trkpt>
      <trkpt lat="39.8793210" lon="-0.3598890">
        <ele>873.1</ele>
        <time>2020-11-11T10:42:50Z</time>
      </trkpt>
      <trkpt lat="39.8792940" lon="-0.3598350">
        <ele>874.2</ele>
        <time>2020-11-11T10:42:56Z</time>
      </trkpt>
      <trkpt lat="39.8792800" lon="-0.3597950">
        <ele>874.9</ele>
        <time>2020-11-11T10:42:59Z</time>
      </trkpt>
      <trkpt lat="39.8792760" lon="-0.3597810">
        <ele>875.1</ele>
        <time>2020-11-11T10:43:00Z</time>
      </trkpt>
      <trkpt lat="39.8792720" lon="-0.3597670">
        <ele>875.4</ele>
        <time>2020-11-11T10:43:01Z</time>
      </trkpt>
      <trkpt lat="39.8792670" lon="-0.3597580">
        <ele>875.5</ele>
        <time>2020-11-11T10:43:02Z</time>
      </trkpt>
      <trkpt lat="39.8792550" lon="-0.3597490">
        <ele>875.8</ele>
        <time>2020-11-11T10:43:05Z</time>
      </trkpt>
      <trkpt lat="39.8792500" lon="-0.3597650">
        <ele>876.1</ele>
        <time>2020-11-11T10:43:09Z</time>
      </trkpt>
      <trkpt lat="39.8792290" lon="-0.3598480">
        <ele>877.5</ele>
        <time>2020-11-11T10:43:25Z</time>
      </trkpt>
      <trkpt lat="39.8792150" lon="-0.3599030">
        <ele>878.4</ele>
        <time>2020-11-11T10:43:30Z</time>
      </trkpt>
      <trkpt lat="39.8792110" lon="-0.3599940">
        <ele>879.6</ele>
        <time>2020-11-11T10:43:36Z</time>
      </trkpt>
      <trkpt lat="39.8792080" lon="-0.3600380">
        <ele>880.1</ele>
        <time>2020-11-11T10:43:39Z</time>
      </trkpt>
      <trkpt lat="39.8792150" lon="-0.3600970">
        <ele>880.8</ele>
        <time>2020-11-11T10:43:44Z</time>
      </trkpt>
      <trkpt lat="39.8792310" lon="-0.3602110">
        <ele>882.1</ele>
        <time>2020-11-11T10:43:55Z</time>
      </trkpt>
      <trkpt lat="39.8792270" lon="-0.3602170">
        <ele>882.2</ele>
        <time>2020-11-11T10:43:56Z</time>
      </trkpt>
      <trkpt lat="39.8792170" lon="-0.3602400">
        <ele>883.6</ele>
        <time>2020-11-11T10:44:14Z</time>
      </trkpt>
      <trkpt lat="39.8791560" lon="-0.3602710">
        <ele>885.2</ele>
        <time>2020-11-11T10:44:26Z</time>
      </trkpt>
      <trkpt lat="39.8790710" lon="-0.3603600">
        <ele>887.7</ele>
        <time>2020-11-11T10:44:45Z</time>
      </trkpt>
      <trkpt lat="39.8790330" lon="-0.3604020">
        <ele>888.4</ele>
        <time>2020-11-11T10:44:50Z</time>
      </trkpt>
      <trkpt lat="39.8789830" lon="-0.3604550">
        <ele>889.0</ele>
        <time>2020-11-11T10:44:57Z</time>
      </trkpt>
      <trkpt lat="39.8789760" lon="-0.3604580">
        <ele>889.0</ele>
        <time>2020-11-11T10:44:58Z</time>
      </trkpt>
      <trkpt lat="39.8789510" lon="-0.3604530">
        <ele>889.0</ele>
        <time>2020-11-11T10:45:10Z</time>
      </trkpt>
      <trkpt lat="39.8789070" lon="-0.3606590">
        <ele>887.7</ele>
        <time>2020-11-11T10:45:27Z</time>
      </trkpt>
      <trkpt lat="39.8789180" lon="-0.3606980">
        <ele>887.5</ele>
        <time>2020-11-11T10:45:31Z</time>
      </trkpt>
      <trkpt lat="39.8789210" lon="-0.3607410">
        <ele>887.3</ele>
        <time>2020-11-11T10:45:35Z</time>
      </trkpt>
      <trkpt lat="39.8789230" lon="-0.3607490">
        <ele>887.2</ele>
        <time>2020-11-11T10:45:36Z</time>
      </trkpt>
      <trkpt lat="39.8789240" lon="-0.3607570">
        <ele>887.2</ele>
        <time>2020-11-11T10:45:37Z</time>
      </trkpt>
      <trkpt lat="39.8789270" lon="-0.3607610">
        <ele>887.2</ele>
        <time>2020-11-11T10:45:38Z</time>
      </trkpt>
      <trkpt lat="39.8789300" lon="-0.3607690">
        <ele>887.1</ele>
        <time>2020-11-11T10:45:40Z</time>
      </trkpt>
      <trkpt lat="39.8789380" lon="-0.3607830">
        <ele>887.1</ele>
        <time>2020-11-11T10:45:49Z</time>
      </trkpt>
      <trkpt lat="39.8789440" lon="-0.3607920">
        <ele>887.0</ele>
        <time>2020-11-11T10:45:58Z</time>
      </trkpt>
      <trkpt lat="39.8789520" lon="-0.3607900">
        <ele>887.0</ele>
        <time>2020-11-11T10:46:37Z</time>
      </trkpt>
      <trkpt lat="39.8789560" lon="-0.3608680">
        <ele>886.8</ele>
        <time>2020-11-11T10:46:57Z</time>
      </trkpt>
      <trkpt lat="39.8790150" lon="-0.3611040">
        <ele>885.6</ele>
        <time>2020-11-11T10:47:11Z</time>
      </trkpt>
      <trkpt lat="39.8790650" lon="-0.3613060">
        <ele>883.6</ele>
        <time>2020-11-11T10:47:19Z</time>
      </trkpt>
      <trkpt lat="39.8790740" lon="-0.3613370">
        <ele>883.4</ele>
        <time>2020-11-11T10:47:20Z</time>
      </trkpt>
      <trkpt lat="39.8790820" lon="-0.3613690">
        <ele>883.1</ele>
        <time>2020-11-11T10:47:21Z</time>
      </trkpt>
      <trkpt lat="39.8790910" lon="-0.3614000">
        <ele>882.8</ele>
        <time>2020-11-11T10:47:22Z</time>
      </trkpt>
      <trkpt lat="39.8790980" lon="-0.3614270">
        <ele>882.5</ele>
        <time>2020-11-11T10:47:23Z</time>
      </trkpt>
      <trkpt lat="39.8791040" lon="-0.3614480">
        <ele>882.3</ele>
        <time>2020-11-11T10:47:24Z</time>
      </trkpt>
      <trkpt lat="39.8791100" lon="-0.3614640">
        <ele>882.1</ele>
        <time>2020-11-11T10:47:25Z</time>
      </trkpt>
      <trkpt lat="39.8791160" lon="-0.3614810">
        <ele>881.9</ele>
        <time>2020-11-11T10:47:26Z</time>
      </trkpt>
      <trkpt lat="39.8791150" lon="-0.3614970">
        <ele>881.8</ele>
        <time>2020-11-11T10:47:27Z</time>
      </trkpt>
      <trkpt lat="39.8791150" lon="-0.3615060">
        <ele>881.7</ele>
        <time>2020-11-11T10:47:28Z</time>
      </trkpt>
      <trkpt lat="39.8791120" lon="-0.3615130">
        <ele>881.6</ele>
        <time>2020-11-11T10:47:29Z</time>
      </trkpt>
      <trkpt lat="39.8791120" lon="-0.3615140">
        <ele>881.6</ele>
        <time>2020-11-11T10:47:30Z</time>
      </trkpt>
      <trkpt lat="39.8791100" lon="-0.3615150">
        <ele>881.6</ele>
        <time>2020-11-11T10:47:32Z</time>
      </trkpt>
      <trkpt lat="39.8791080" lon="-0.3615200">
        <ele>881.5</ele>
        <time>2020-11-11T10:47:36Z</time>
      </trkpt>
      <trkpt lat="39.8791050" lon="-0.3615240">
        <ele>881.4</ele>
        <time>2020-11-11T10:47:39Z</time>
      </trkpt>
      <trkpt lat="39.8791020" lon="-0.3615240">
        <ele>881.4</ele>
        <time>2020-11-11T10:47:40Z</time>
      </trkpt>
      <trkpt lat="39.8790990" lon="-0.3615250">
        <ele>881.3</ele>
        <time>2020-11-11T10:47:41Z</time>
      </trkpt>
      <trkpt lat="39.8790970" lon="-0.3615250">
        <ele>881.3</ele>
        <time>2020-11-11T10:47:42Z</time>
      </trkpt>
      <trkpt lat="39.8790960" lon="-0.3615240">
        <ele>881.3</ele>
        <time>2020-11-11T10:47:43Z</time>
      </trkpt>
      <trkpt lat="39.8790950" lon="-0.3615250">
        <ele>881.3</ele>
        <time>2020-11-11T10:47:44Z</time>
      </trkpt>
      <trkpt lat="39.8790940" lon="-0.3615270">
        <ele>881.2</ele>
        <time>2020-11-11T10:47:45Z</time>
      </trkpt>
      <trkpt lat="39.8790930" lon="-0.3615280">
        <ele>881.2</ele>
        <time>2020-11-11T10:47:46Z</time>
      </trkpt>
      <trkpt lat="39.8790370" lon="-0.3614720">
        <ele>880.0</ele>
        <time>2020-11-11T10:47:58Z</time>
      </trkpt>
      <trkpt lat="39.8790020" lon="-0.3614370">
        <ele>879.1</ele>
        <time>2020-11-11T10:48:01Z</time>
      </trkpt>
      <trkpt lat="39.8789720" lon="-0.3613850">
        <ele>878.2</ele>
        <time>2020-11-11T10:48:04Z</time>
      </trkpt>
      <trkpt lat="39.8788370" lon="-0.3612720">
        <ele>875.4</ele>
        <time>2020-11-11T10:48:11Z</time>
      </trkpt>
      <trkpt lat="39.8787420" lon="-0.3611960">
        <ele>873.9</ele>
        <time>2020-11-11T10:48:15Z</time>
      </trkpt>
      <trkpt lat="39.8786210" lon="-0.3610290">
        <ele>871.5</ele>
        <time>2020-11-11T10:48:24Z</time>
      </trkpt>
      <trkpt lat="39.8786060" lon="-0.3609580">
        <ele>870.5</ele>
        <time>2020-11-11T10:48:28Z</time>
      </trkpt>
      <trkpt lat="39.8785900" lon="-0.3609680">
        <ele>870.2</ele>
        <time>2020-11-11T10:48:30Z</time>
      </trkpt>
      <trkpt lat="39.8785460" lon="-0.3612220">
        <ele>866.7</ele>
        <time>2020-11-11T10:48:38Z</time>
      </trkpt>
      <trkpt lat="39.8785990" lon="-0.3613640">
        <ele>864.8</ele>
        <time>2020-11-11T10:48:43Z</time>
      </trkpt>
      <trkpt lat="39.8786160" lon="-0.3613890">
        <ele>864.4</ele>
        <time>2020-11-11T10:48:44Z</time>
      </trkpt>
      <trkpt lat="39.8786610" lon="-0.3614910">
        <ele>863.1</ele>
        <time>2020-11-11T10:48:47Z</time>
      </trkpt>
      <trkpt lat="39.8786750" lon="-0.3615200">
        <ele>862.7</ele>
        <time>2020-11-11T10:48:48Z</time>
      </trkpt>
      <trkpt lat="39.8787020" lon="-0.3615640">
        <ele>862.0</ele>
        <time>2020-11-11T10:48:50Z</time>
      </trkpt>
      <trkpt lat="39.8787130" lon="-0.3615810">
        <ele>861.6</ele>
        <time>2020-11-11T10:48:51Z</time>
      </trkpt>
      <trkpt lat="39.8787180" lon="-0.3615930">
        <ele>861.4</ele>
        <time>2020-11-11T10:48:52Z</time>
      </trkpt>
      <trkpt lat="39.8787140" lon="-0.3616030">
        <ele>861.5</ele>
        <time>2020-11-11T10:48:53Z</time>
      </trkpt>
      <trkpt lat="39.8786970" lon="-0.3615920">
        <ele>861.5</ele>
        <time>2020-11-11T10:48:54Z</time>
      </trkpt>
      <trkpt lat="39.8786360" lon="-0.3615390">
        <ele>858.9</ele>
        <time>2020-11-11T10:48:58Z</time>
      </trkpt>
      <trkpt lat="39.8785920" lon="-0.3615180">
        <ele>857.7</ele>
        <time>2020-11-11T10:49:01Z</time>
      </trkpt>
      <trkpt lat="39.8785850" lon="-0.3615680">
        <ele>856.2</ele>
        <time>2020-11-11T10:49:05Z</time>
      </trkpt>
      <trkpt lat="39.8786050" lon="-0.3616120">
        <ele>857.6</ele>
        <time>2020-11-11T10:49:08Z</time>
      </trkpt>
      <trkpt lat="39.8785780" lon="-0.3616260">
        <ele>856.2</ele>
        <time>2020-11-11T10:49:11Z</time>
      </trkpt>
      <trkpt lat="39.8785510" lon="-0.3616160">
        <ele>854.9</ele>
        <time>2020-11-11T10:49:13Z</time>
      </trkpt>
      <trkpt lat="39.8783800" lon="-0.3615320">
        <ele>848.9</ele>
        <time>2020-11-11T10:49:24Z</time>
      </trkpt>
      <trkpt lat="39.8782510" lon="-0.3613680">
        <ele>846.3</ele>
        <time>2020-11-11T10:49:37Z</time>
      </trkpt>
      <trkpt lat="39.8782260" lon="-0.3612800">
        <ele>846.7</ele>
        <time>2020-11-11T10:49:42Z</time>
      </trkpt>
      <trkpt lat="39.8782180" lon="-0.3612700">
        <ele>846.7</ele>
        <time>2020-11-11T10:49:43Z</time>
      </trkpt>
      <trkpt lat="39.8781750" lon="-0.3614870">
        <ele>842.2</ele>
        <time>2020-11-11T10:49:55Z</time>
      </trkpt>
      <trkpt lat="39.8781790" lon="-0.3615320">
        <ele>841.6</ele>
        <time>2020-11-11T10:49:58Z</time>
      </trkpt>
      <trkpt lat="39.8781770" lon="-0.3615460">
        <ele>841.6</ele>
        <time>2020-11-11T10:49:59Z</time>
      </trkpt>
      <trkpt lat="39.8781750" lon="-0.3615620">
        <ele>841.0</ele>
        <time>2020-11-11T10:50:00Z</time>
      </trkpt>
      <trkpt lat="39.8781770" lon="-0.3615800">
        <ele>841.0</ele>
        <time>2020-11-11T10:50:01Z</time>
      </trkpt>
      <trkpt lat="39.8781810" lon="-0.3616110">
        <ele>840.4</ele>
        <time>2020-11-11T10:50:03Z</time>
      </trkpt>
      <trkpt lat="39.8781820" lon="-0.3616260">
        <ele>840.4</ele>
        <time>2020-11-11T10:50:04Z</time>
      </trkpt>
      <trkpt lat="39.8781890" lon="-0.3616410">
        <ele>840.4</ele>
        <time>2020-11-11T10:50:05Z</time>
      </trkpt>
      <trkpt lat="39.8781980" lon="-0.3616710">
        <ele>841.2</ele>
        <time>2020-11-11T10:50:07Z</time>
      </trkpt>
      <trkpt lat="39.8782040" lon="-0.3616850">
        <ele>841.2</ele>
        <time>2020-11-11T10:50:08Z</time>
      </trkpt>
      <trkpt lat="39.8782080" lon="-0.3616970">
        <ele>840.8</ele>
        <time>2020-11-11T10:50:09Z</time>
      </trkpt>
      <trkpt lat="39.8782080" lon="-0.3617070">
        <ele>840.8</ele>
        <time>2020-11-11T10:50:12Z</time>
      </trkpt>
      <trkpt lat="39.8781980" lon="-0.3617010">
        <ele>840.8</ele>
        <time>2020-11-11T10:50:13Z</time>
      </trkpt>
      <trkpt lat="39.8781340" lon="-0.3616330">
        <ele>839.2</ele>
        <time>2020-11-11T10:50:19Z</time>
      </trkpt>
      <trkpt lat="39.8781230" lon="-0.3616160">
        <ele>837.9</ele>
        <time>2020-11-11T10:50:20Z</time>
      </trkpt>
      <trkpt lat="39.8780950" lon="-0.3615820">
        <ele>838.7</ele>
        <time>2020-11-11T10:50:23Z</time>
      </trkpt>
      <trkpt lat="39.8780630" lon="-0.3615580">
        <ele>838.2</ele>
        <time>2020-11-11T10:50:26Z</time>
      </trkpt>
      <trkpt lat="39.8780330" lon="-0.3614800">
        <ele>837.9</ele>
        <time>2020-11-11T10:50:31Z</time>
      </trkpt>
      <trkpt lat="39.8780270" lon="-0.3614290">
        <ele>838.8</ele>
        <time>2020-11-11T10:50:35Z</time>
      </trkpt>
      <trkpt lat="39.8780110" lon="-0.3613560">
        <ele>839.9</ele>
        <time>2020-11-11T10:50:40Z</time>
      </trkpt>
      <trkpt lat="39.8779660" lon="-0.3614140">
        <ele>837.9</ele>
        <time>2020-11-11T10:50:47Z</time>
      </trkpt>
      <trkpt lat="39.8779590" lon="-0.3614950">
        <ele>834.8</ele>
        <time>2020-11-11T10:50:52Z</time>
      </trkpt>
      <trkpt lat="39.8779940" lon="-0.3616210">
        <ele>833.0</ele>
        <time>2020-11-11T10:51:00Z</time>
      </trkpt>
      <trkpt lat="39.8780080" lon="-0.3617290">
        <ele>832.5</ele>
        <time>2020-11-11T10:51:09Z</time>
      </trkpt>
      <trkpt lat="39.8779910" lon="-0.3617580">
        <ele>830.3</ele>
        <time>2020-11-11T10:51:11Z</time>
      </trkpt>
      <trkpt lat="39.8779320" lon="-0.3617570">
        <ele>829.0</ele>
        <time>2020-11-11T10:51:15Z</time>
      </trkpt>
      <trkpt lat="39.8777630" lon="-0.3616760">
        <ele>825.0</ele>
        <time>2020-11-11T10:51:29Z</time>
      </trkpt>
      <trkpt lat="39.8777550" lon="-0.3616730">
        <ele>825.0</ele>
        <time>2020-11-11T10:51:30Z</time>
      </trkpt>
      <trkpt lat="39.8777480" lon="-0.3616780">
        <ele>825.0</ele>
        <time>2020-11-11T10:51:31Z</time>
      </trkpt>
      <trkpt lat="39.8777460" lon="-0.3616880">
        <ele>825.0</ele>
        <time>2020-11-11T10:51:32Z</time>
      </trkpt>
      <trkpt lat="39.8777470" lon="-0.3617010">
        <ele>823.8</ele>
        <time>2020-11-11T10:51:33Z</time>
      </trkpt>
      <trkpt lat="39.8777400" lon="-0.3617160">
        <ele>823.8</ele>
        <time>2020-11-11T10:51:35Z</time>
      </trkpt>
      <trkpt lat="39.8777360" lon="-0.3617230">
        <ele>823.8</ele>
        <time>2020-11-11T10:51:36Z</time>
      </trkpt>
      <trkpt lat="39.8777350" lon="-0.3617330">
        <ele>823.8</ele>
        <time>2020-11-11T10:51:37Z</time>
      </trkpt>
      <trkpt lat="39.8777330" lon="-0.3617420">
        <ele>822.6</ele>
        <time>2020-11-11T10:51:39Z</time>
      </trkpt>
      <trkpt lat="39.8777430" lon="-0.3617530">
        <ele>822.6</ele>
        <time>2020-11-11T10:51:41Z</time>
      </trkpt>
      <trkpt lat="39.8777210" lon="-0.3617450">
        <ele>821.7</ele>
        <time>2020-11-11T10:51:46Z</time>
      </trkpt>
      <trkpt lat="39.8777160" lon="-0.3617440">
        <ele>821.7</ele>
        <time>2020-11-11T10:51:48Z</time>
      </trkpt>
      <trkpt lat="39.8777150" lon="-0.3617470">
        <ele>821.7</ele>
        <time>2020-11-11T10:51:49Z</time>
      </trkpt>
      <trkpt lat="39.8777180" lon="-0.3617490">
        <ele>821.8</ele>
        <time>2020-11-11T10:51:50Z</time>
      </trkpt>
      <trkpt lat="39.8777320" lon="-0.3617560">
        <ele>821.8</ele>
        <time>2020-11-11T10:51:52Z</time>
      </trkpt>
      <trkpt lat="39.8777330" lon="-0.3617480">
        <ele>822.7</ele>
        <time>2020-11-11T10:51:54Z</time>
      </trkpt>
      <trkpt lat="39.8777370" lon="-0.3617470">
        <ele>822.7</ele>
        <time>2020-11-11T10:51:55Z</time>
      </trkpt>
      <trkpt lat="39.8777390" lon="-0.3617450">
        <ele>822.7</ele>
        <time>2020-11-11T10:51:56Z</time>
      </trkpt>
      <trkpt lat="39.8777380" lon="-0.3617410">
        <ele>822.7</ele>
        <time>2020-11-11T10:51:57Z</time>
      </trkpt>
      <trkpt lat="39.8777330" lon="-0.3617360">
        <ele>822.8</ele>
        <time>2020-11-11T10:51:58Z</time>
      </trkpt>
      <trkpt lat="39.8777360" lon="-0.3617350">
        <ele>822.8</ele>
        <time>2020-11-11T10:51:59Z</time>
      </trkpt>
      <trkpt lat="39.8777400" lon="-0.3617370">
        <ele>822.8</ele>
        <time>2020-11-11T10:52:00Z</time>
      </trkpt>
      <trkpt lat="39.8777420" lon="-0.3617250">
        <ele>824.1</ele>
        <time>2020-11-11T10:52:05Z</time>
      </trkpt>
      <trkpt lat="39.8777410" lon="-0.3617330">
        <ele>824.1</ele>
        <time>2020-11-11T10:52:06Z</time>
      </trkpt>
      <trkpt lat="39.8777410" lon="-0.3617540">
        <ele>822.8</ele>
        <time>2020-11-11T10:52:08Z</time>
      </trkpt>
      <trkpt lat="39.8777450" lon="-0.3617650">
        <ele>822.9</ele>
        <time>2020-11-11T10:52:09Z</time>
      </trkpt>
      <trkpt lat="39.8777490" lon="-0.3617730">
        <ele>822.9</ele>
        <time>2020-11-11T10:52:10Z</time>
      </trkpt>
      <trkpt lat="39.8777450" lon="-0.3617890">
        <ele>821.7</ele>
        <time>2020-11-11T10:52:13Z</time>
      </trkpt>
      <trkpt lat="39.8777380" lon="-0.3617980">
        <ele>821.7</ele>
        <time>2020-11-11T10:52:14Z</time>
      </trkpt>
      <trkpt lat="39.8777290" lon="-0.3618440">
        <ele>819.6</ele>
        <time>2020-11-11T10:52:18Z</time>
      </trkpt>
      <trkpt lat="39.8777110" lon="-0.3618900">
        <ele>818.5</ele>
        <time>2020-11-11T10:52:21Z</time>
      </trkpt>
      <trkpt lat="39.8776830" lon="-0.3619170">
        <ele>816.4</ele>
        <time>2020-11-11T10:52:24Z</time>
      </trkpt>
      <trkpt lat="39.8776690" lon="-0.3619670">
        <ele>815.3</ele>
        <time>2020-11-11T10:52:30Z</time>
      </trkpt>
      <trkpt lat="39.8776650" lon="-0.3619790">
        <ele>814.3</ele>
        <time>2020-11-11T10:52:32Z</time>
      </trkpt>
      <trkpt lat="39.8776620" lon="-0.3619970">
        <ele>813.3</ele>
        <time>2020-11-11T10:52:34Z</time>
      </trkpt>
      <trkpt lat="39.8776500" lon="-0.3620140">
        <ele>813.3</ele>
        <time>2020-11-11T10:52:37Z</time>
      </trkpt>
      <trkpt lat="39.8776410" lon="-0.3620430">
        <ele>812.4</ele>
        <time>2020-11-11T10:52:40Z</time>
      </trkpt>
      <trkpt lat="39.8776240" lon="-0.3620960">
        <ele>810.4</ele>
        <time>2020-11-11T10:52:46Z</time>
      </trkpt>
      <trkpt lat="39.8776300" lon="-0.3621230">
        <ele>809.5</ele>
        <time>2020-11-11T10:52:48Z</time>
      </trkpt>
      <trkpt lat="39.8776470" lon="-0.3621730">
        <ele>809.8</ele>
        <time>2020-11-11T10:52:51Z</time>
      </trkpt>
      <trkpt lat="39.8776270" lon="-0.3622470">
        <ele>807.8</ele>
        <time>2020-11-11T10:52:57Z</time>
      </trkpt>
      <trkpt lat="39.8776140" lon="-0.3622860">
        <ele>807.0</ele>
        <time>2020-11-11T10:53:00Z</time>
      </trkpt>
      <trkpt lat="39.8776130" lon="-0.3622970">
        <ele>806.3</ele>
        <time>2020-11-11T10:53:01Z</time>
      </trkpt>
      <trkpt lat="39.8776070" lon="-0.3623060">
        <ele>806.4</ele>
        <time>2020-11-11T10:53:02Z</time>
      </trkpt>
      <trkpt lat="39.8776010" lon="-0.3623190">
        <ele>806.4</ele>
        <time>2020-11-11T10:53:03Z</time>
      </trkpt>
      <trkpt lat="39.8775800" lon="-0.3623620">
        <ele>804.4</ele>
        <time>2020-11-11T10:53:06Z</time>
      </trkpt>
      <trkpt lat="39.8775690" lon="-0.3624340">
        <ele>803.0</ele>
        <time>2020-11-11T10:53:10Z</time>
      </trkpt>
      <trkpt lat="39.8775710" lon="-0.3625150">
        <ele>801.7</ele>
        <time>2020-11-11T10:53:14Z</time>
      </trkpt>
      <trkpt lat="39.8775720" lon="-0.3625450">
        <ele>801.7</ele>
        <time>2020-11-11T10:53:16Z</time>
      </trkpt>
      <trkpt lat="39.8775720" lon="-0.3625520">
        <ele>800.6</ele>
        <time>2020-11-11T10:53:17Z</time>
      </trkpt>
      <trkpt lat="39.8775860" lon="-0.3625750">
        <ele>800.6</ele>
        <time>2020-11-11T10:53:22Z</time>
      </trkpt>
      <trkpt lat="39.8775850" lon="-0.3625860">
        <ele>800.7</ele>
        <time>2020-11-11T10:53:23Z</time>
      </trkpt>
      <trkpt lat="39.8775790" lon="-0.3625970">
        <ele>800.1</ele>
        <time>2020-11-11T10:53:24Z</time>
      </trkpt>
      <trkpt lat="39.8775420" lon="-0.3628370">
        <ele>796.2</ele>
        <time>2020-11-11T10:53:40Z</time>
      </trkpt>
      <trkpt lat="39.8775290" lon="-0.3628780">
        <ele>794.1</ele>
        <time>2020-11-11T10:53:47Z</time>
      </trkpt>
      <trkpt lat="39.8775250" lon="-0.3628740">
        <ele>794.1</ele>
        <time>2020-11-11T10:53:55Z</time>
      </trkpt>
      <trkpt lat="39.8775190" lon="-0.3628710">
        <ele>794.1</ele>
        <time>2020-11-11T10:53:58Z</time>
      </trkpt>
      <trkpt lat="39.8775160" lon="-0.3628370">
        <ele>794.5</ele>
        <time>2020-11-11T10:54:11Z</time>
      </trkpt>
      <trkpt lat="39.8775040" lon="-0.3627850">
        <ele>794.8</ele>
        <time>2020-11-11T10:54:15Z</time>
      </trkpt>
      <trkpt lat="39.8774780" lon="-0.3627260">
        <ele>793.5</ele>
        <time>2020-11-11T10:54:20Z</time>
      </trkpt>
      <trkpt lat="39.8774680" lon="-0.3627560">
        <ele>791.8</ele>
        <time>2020-11-11T10:54:23Z</time>
      </trkpt>
      <trkpt lat="39.8774680" lon="-0.3628050">
        <ele>791.3</ele>
        <time>2020-11-11T10:54:26Z</time>
      </trkpt>
      <trkpt lat="39.8773770" lon="-0.3628800">
        <ele>787.1</ele>
        <time>2020-11-11T10:54:39Z</time>
      </trkpt>
      <trkpt lat="39.8773670" lon="-0.3628790">
        <ele>785.7</ele>
        <time>2020-11-11T10:54:40Z</time>
      </trkpt>
      <trkpt lat="39.8773510" lon="-0.3628790">
        <ele>785.7</ele>
        <time>2020-11-11T10:54:43Z</time>
      </trkpt>
      <trkpt lat="39.8773470" lon="-0.3628810">
        <ele>785.8</ele>
        <time>2020-11-11T10:54:44Z</time>
      </trkpt>
      <trkpt lat="39.8773440" lon="-0.3628880">
        <ele>785.8</ele>
        <time>2020-11-11T10:54:45Z</time>
      </trkpt>
      <trkpt lat="39.8773390" lon="-0.3628950">
        <ele>785.3</ele>
        <time>2020-11-11T10:54:46Z</time>
      </trkpt>
      <trkpt lat="39.8773380" lon="-0.3629010">
        <ele>785.3</ele>
        <time>2020-11-11T10:54:47Z</time>
      </trkpt>
      <trkpt lat="39.8773350" lon="-0.3629140">
        <ele>784.0</ele>
        <time>2020-11-11T10:54:49Z</time>
      </trkpt>
      <trkpt lat="39.8773370" lon="-0.3629210">
        <ele>785.3</ele>
        <time>2020-11-11T10:54:50Z</time>
      </trkpt>
      <trkpt lat="39.8773340" lon="-0.3629290">
        <ele>784.1</ele>
        <time>2020-11-11T10:54:51Z</time>
      </trkpt>
      <trkpt lat="39.8773300" lon="-0.3629370">
        <ele>783.6</ele>
        <time>2020-11-11T10:54:52Z</time>
      </trkpt>
      <trkpt lat="39.8773290" lon="-0.3629460">
        <ele>783.6</ele>
        <time>2020-11-11T10:54:53Z</time>
      </trkpt>
      <trkpt lat="39.8773270" lon="-0.3629570">
        <ele>783.6</ele>
        <time>2020-11-11T10:54:54Z</time>
      </trkpt>
      <trkpt lat="39.8773240" lon="-0.3629680">
        <ele>783.6</ele>
        <time>2020-11-11T10:54:55Z</time>
      </trkpt>
      <trkpt lat="39.8773190" lon="-0.3629810">
        <ele>783.2</ele>
        <time>2020-11-11T10:54:56Z</time>
      </trkpt>
      <trkpt lat="39.8773120" lon="-0.3630030">
        <ele>783.2</ele>
        <time>2020-11-11T10:54:58Z</time>
      </trkpt>
      <trkpt lat="39.8773000" lon="-0.3630250">
        <ele>781.4</ele>
        <time>2020-11-11T10:55:00Z</time>
      </trkpt>
      <trkpt lat="39.8772950" lon="-0.3630340">
        <ele>781.4</ele>
        <time>2020-11-11T10:55:01Z</time>
      </trkpt>
      <trkpt lat="39.8772940" lon="-0.3630400">
        <ele>781.4</ele>
        <time>2020-11-11T10:55:02Z</time>
      </trkpt>
      <trkpt lat="39.8772940" lon="-0.3630480">
        <ele>781.4</ele>
        <time>2020-11-11T10:55:03Z</time>
      </trkpt>
      <trkpt lat="39.8772730" lon="-0.3630690">
        <ele>780.9</ele>
        <time>2020-11-11T10:55:06Z</time>
      </trkpt>
      <trkpt lat="39.8772480" lon="-0.3630670">
        <ele>779.5</ele>
        <time>2020-11-11T10:55:09Z</time>
      </trkpt>
      <trkpt lat="39.8772400" lon="-0.3630580">
        <ele>780.1</ele>
        <time>2020-11-11T10:55:10Z</time>
      </trkpt>
      <trkpt lat="39.8772290" lon="-0.3630520">
        <ele>778.8</ele>
        <time>2020-11-11T10:55:11Z</time>
      </trkpt>
      <trkpt lat="39.8771920" lon="-0.3632690">
        <ele>774.3</ele>
        <time>2020-11-11T10:55:29Z</time>
      </trkpt>
      <trkpt lat="39.8771770" lon="-0.3632880">
        <ele>773.8</ele>
        <time>2020-11-11T10:55:34Z</time>
      </trkpt>
      <trkpt lat="39.8771590" lon="-0.3632590">
        <ele>772.8</ele>
        <time>2020-11-11T10:55:41Z</time>
      </trkpt>
      <trkpt lat="39.8771290" lon="-0.3631950">
        <ele>772.1</ele>
        <time>2020-11-11T10:55:47Z</time>
      </trkpt>
      <trkpt lat="39.8771210" lon="-0.3632480">
        <ele>771.4</ele>
        <time>2020-11-11T10:55:53Z</time>
      </trkpt>
      <trkpt lat="39.8771230" lon="-0.3633630">
        <ele>770.2</ele>
        <time>2020-11-11T10:56:06Z</time>
      </trkpt>
      <trkpt lat="39.8770680" lon="-0.3633250">
        <ele>767.8</ele>
        <time>2020-11-11T10:56:13Z</time>
      </trkpt>
      <trkpt lat="39.8770590" lon="-0.3633350">
        <ele>767.8</ele>
        <time>2020-11-11T10:56:15Z</time>
      </trkpt>
      <trkpt lat="39.8770600" lon="-0.3634010">
        <ele>767.2</ele>
        <time>2020-11-11T10:56:20Z</time>
      </trkpt>
      <trkpt lat="39.8770520" lon="-0.3634240">
        <ele>766.6</ele>
        <time>2020-11-11T10:56:24Z</time>
      </trkpt>
      <trkpt lat="39.8770070" lon="-0.3634520">
        <ele>763.7</ele>
        <time>2020-11-11T10:56:31Z</time>
      </trkpt>
      <trkpt lat="39.8770330" lon="-0.3635110">
        <ele>764.3</ele>
        <time>2020-11-11T10:56:34Z</time>
      </trkpt>
      <trkpt lat="39.8770360" lon="-0.3635350">
        <ele>764.3</ele>
        <time>2020-11-11T10:56:36Z</time>
      </trkpt>
      <trkpt lat="39.8769720" lon="-0.3635980">
        <ele>760.7</ele>
        <time>2020-11-11T10:56:46Z</time>
      </trkpt>
      <trkpt lat="39.8769470" lon="-0.3636100">
        <ele>760.8</ele>
        <time>2020-11-11T10:56:48Z</time>
      </trkpt>
      <trkpt lat="39.8769390" lon="-0.3636010">
        <ele>759.5</ele>
        <time>2020-11-11T10:56:52Z</time>
      </trkpt>
      <trkpt lat="39.8769430" lon="-0.3637110">
        <ele>759.4</ele>
        <time>2020-11-11T10:57:05Z</time>
      </trkpt>
      <trkpt lat="39.8768930" lon="-0.3637680">
        <ele>756.2</ele>
        <time>2020-11-11T10:57:13Z</time>
      </trkpt>
      <trkpt lat="39.8768660" lon="-0.3637550">
        <ele>755.0</ele>
        <time>2020-11-11T10:57:16Z</time>
      </trkpt>
      <trkpt lat="39.8768480" lon="-0.3637520">
        <ele>755.1</ele>
        <time>2020-11-11T10:57:19Z</time>
      </trkpt>
      <trkpt lat="39.8768410" lon="-0.3637590">
        <ele>754.1</ele>
        <time>2020-11-11T10:57:21Z</time>
      </trkpt>
      <trkpt lat="39.8768400" lon="-0.3639220">
        <ele>752.3</ele>
        <time>2020-11-11T10:57:33Z</time>
      </trkpt>
      <trkpt lat="39.8768250" lon="-0.3639770">
        <ele>751.1</ele>
        <time>2020-11-11T10:57:36Z</time>
      </trkpt>
      <trkpt lat="39.8767960" lon="-0.3639980">
        <ele>750.1</ele>
        <time>2020-11-11T10:57:40Z</time>
      </trkpt>
      <trkpt lat="39.8767750" lon="-0.3639950">
        <ele>749.2</ele>
        <time>2020-11-11T10:57:43Z</time>
      </trkpt>
      <trkpt lat="39.8767560" lon="-0.3640300">
        <ele>748.7</ele>
        <time>2020-11-11T10:57:47Z</time>
      </trkpt>
      <trkpt lat="39.8767340" lon="-0.3640610">
        <ele>747.4</ele>
        <time>2020-11-11T10:57:56Z</time>
      </trkpt>
      <trkpt lat="39.8766970" lon="-0.3640760">
        <ele>746.5</ele>
        <time>2020-11-11T10:58:01Z</time>
      </trkpt>
      <trkpt lat="39.8766560" lon="-0.3640640">
        <ele>745.6</ele>
        <time>2020-11-11T10:58:16Z</time>
      </trkpt>
      <trkpt lat="39.8766780" lon="-0.3640690">
        <ele>745.2</ele>
        <time>2020-11-11T10:58:23Z</time>
      </trkpt>
      <trkpt lat="39.8766690" lon="-0.3641480">
        <ele>744.2</ele>
        <time>2020-11-11T10:58:32Z</time>
      </trkpt>
      <trkpt lat="39.8766440" lon="-0.3643890">
        <ele>741.3</ele>
        <time>2020-11-11T10:58:45Z</time>
      </trkpt>
      <trkpt lat="39.8766420" lon="-0.3645950">
        <ele>739.0</ele>
        <time>2020-11-11T10:58:55Z</time>
      </trkpt>
      <trkpt lat="39.8766270" lon="-0.3647010">
        <ele>737.7</ele>
        <time>2020-11-11T10:59:02Z</time>
      </trkpt>
      <trkpt lat="39.8766160" lon="-0.3647140">
        <ele>737.4</ele>
        <time>2020-11-11T10:59:03Z</time>
      </trkpt>
      <trkpt lat="39.8766060" lon="-0.3647360">
        <ele>737.1</ele>
        <time>2020-11-11T10:59:05Z</time>
      </trkpt>
      <trkpt lat="39.8765820" lon="-0.3648630">
        <ele>735.2</ele>
        <time>2020-11-11T10:59:12Z</time>
      </trkpt>
      <trkpt lat="39.8765750" lon="-0.3648930">
        <ele>734.7</ele>
        <time>2020-11-11T10:59:14Z</time>
      </trkpt>
      <trkpt lat="39.8765560" lon="-0.3649020">
        <ele>734.3</ele>
        <time>2020-11-11T10:59:16Z</time>
      </trkpt>
      <trkpt lat="39.8765490" lon="-0.3648910">
        <ele>734.1</ele>
        <time>2020-11-11T10:59:17Z</time>
      </trkpt>
      <trkpt lat="39.8765440" lon="-0.3648760">
        <ele>733.9</ele>
        <time>2020-11-11T10:59:18Z</time>
      </trkpt>
      <trkpt lat="39.8765320" lon="-0.3648420">
        <ele>733.3</ele>
        <time>2020-11-11T10:59:20Z</time>
      </trkpt>
      <trkpt lat="39.8765250" lon="-0.3648250">
        <ele>733.0</ele>
        <time>2020-11-11T10:59:21Z</time>
      </trkpt>
      <trkpt lat="39.8765220" lon="-0.3648120">
        <ele>732.8</ele>
        <time>2020-11-11T10:59:22Z</time>
      </trkpt>
      <trkpt lat="39.8765210" lon="-0.3648000">
        <ele>732.6</ele>
        <time>2020-11-11T10:59:23Z</time>
      </trkpt>
      <trkpt lat="39.8765230" lon="-0.3647900">
        <ele>732.4</ele>
        <time>2020-11-11T10:59:24Z</time>
      </trkpt>
      <trkpt lat="39.8765130" lon="-0.3647600">
        <ele>731.9</ele>
        <time>2020-11-11T10:59:26Z</time>
      </trkpt>
      <trkpt lat="39.8765030" lon="-0.3647260">
        <ele>731.3</ele>
        <time>2020-11-11T10:59:28Z</time>
      </trkpt>
      <trkpt lat="39.8764760" lon="-0.3647030">
        <ele>730.6</ele>
        <time>2020-11-11T10:59:32Z</time>
      </trkpt>
      <trkpt lat="39.8764180" lon="-0.3648240">
        <ele>727.7</ele>
        <time>2020-11-11T10:59:43Z</time>
      </trkpt>
      <trkpt lat="39.8763620" lon="-0.3648790">
        <ele>725.8</ele>
        <time>2020-11-11T10:59:49Z</time>
      </trkpt>
      <trkpt lat="39.8763750" lon="-0.3649640">
        <ele>724.0</ele>
        <time>2020-11-11T10:59:55Z</time>
      </trkpt>
      <trkpt lat="39.8763790" lon="-0.3649750">
        <ele>723.7</ele>
        <time>2020-11-11T10:59:56Z</time>
      </trkpt>
      <trkpt lat="39.8763820" lon="-0.3649790">
        <ele>723.6</ele>
        <time>2020-11-11T10:59:58Z</time>
      </trkpt>
      <trkpt lat="39.8763810" lon="-0.3649790">
        <ele>723.6</ele>
        <time>2020-11-11T10:59:59Z</time>
      </trkpt>
      <trkpt lat="39.8763850" lon="-0.3649720">
        <ele>723.4</ele>
        <time>2020-11-11T11:00:04Z</time>
      </trkpt>
      <trkpt lat="39.8763860" lon="-0.3649710">
        <ele>723.4</ele>
        <time>2020-11-11T11:00:05Z</time>
      </trkpt>
      <trkpt lat="39.8763880" lon="-0.3649680">
        <ele>723.3</ele>
        <time>2020-11-11T11:00:06Z</time>
      </trkpt>
      <trkpt lat="39.8763960" lon="-0.3649910">
        <ele>722.7</ele>
        <time>2020-11-11T11:00:13Z</time>
      </trkpt>
      <trkpt lat="39.8763760" lon="-0.3650410">
        <ele>721.5</ele>
        <time>2020-11-11T11:00:17Z</time>
      </trkpt>
      <trkpt lat="39.8763250" lon="-0.3650600">
        <ele>720.1</ele>
        <time>2020-11-11T11:00:19Z</time>
      </trkpt>
      <trkpt lat="39.8762820" lon="-0.3650760">
        <ele>719.0</ele>
        <time>2020-11-11T11:00:22Z</time>
      </trkpt>
      <trkpt lat="39.8762790" lon="-0.3651820">
        <ele>717.0</ele>
        <time>2020-11-11T11:00:28Z</time>
      </trkpt>
      <trkpt lat="39.8762820" lon="-0.3652020">
        <ele>716.7</ele>
        <time>2020-11-11T11:00:29Z</time>
      </trkpt>
      <trkpt lat="39.8762840" lon="-0.3652240">
        <ele>716.3</ele>
        <time>2020-11-11T11:00:30Z</time>
      </trkpt>
      <trkpt lat="39.8762860" lon="-0.3652480">
        <ele>715.8</ele>
        <time>2020-11-11T11:00:31Z</time>
      </trkpt>
      <trkpt lat="39.8762850" lon="-0.3652700">
        <ele>715.4</ele>
        <time>2020-11-11T11:00:32Z</time>
      </trkpt>
      <trkpt lat="39.8762870" lon="-0.3653320">
        <ele>714.2</ele>
        <time>2020-11-11T11:00:35Z</time>
      </trkpt>
      <trkpt lat="39.8762830" lon="-0.3653470">
        <ele>714.0</ele>
        <time>2020-11-11T11:00:36Z</time>
      </trkpt>
      <trkpt lat="39.8762730" lon="-0.3653530">
        <ele>713.6</ele>
        <time>2020-11-11T11:00:37Z</time>
      </trkpt>
      <trkpt lat="39.8762230" lon="-0.3653520">
        <ele>712.4</ele>
        <time>2020-11-11T11:00:40Z</time>
      </trkpt>
      <trkpt lat="39.8762100" lon="-0.3653620">
        <ele>712.0</ele>
        <time>2020-11-11T11:00:41Z</time>
      </trkpt>
      <trkpt lat="39.8761820" lon="-0.3654330">
        <ele>710.6</ele>
        <time>2020-11-11T11:00:45Z</time>
      </trkpt>
      <trkpt lat="39.8761710" lon="-0.3654520">
        <ele>710.2</ele>
        <time>2020-11-11T11:00:46Z</time>
      </trkpt>
      <trkpt lat="39.8761170" lon="-0.3655550">
        <ele>708.2</ele>
        <time>2020-11-11T11:00:51Z</time>
      </trkpt>
      <trkpt lat="39.8760960" lon="-0.3656260">
        <ele>707.1</ele>
        <time>2020-11-11T11:00:54Z</time>
      </trkpt>
      <trkpt lat="39.8760760" lon="-0.3656370">
        <ele>706.7</ele>
        <time>2020-11-11T11:00:55Z</time>
      </trkpt>
      <trkpt lat="39.8760510" lon="-0.3656470">
        <ele>706.2</ele>
        <time>2020-11-11T11:00:56Z</time>
      </trkpt>
      <trkpt lat="39.8760300" lon="-0.3656590">
        <ele>705.8</ele>
        <time>2020-11-11T11:00:57Z</time>
      </trkpt>
      <trkpt lat="39.8759920" lon="-0.3656790">
        <ele>705.0</ele>
        <time>2020-11-11T11:00:59Z</time>
      </trkpt>
      <trkpt lat="39.8759720" lon="-0.3656850">
        <ele>704.6</ele>
        <time>2020-11-11T11:01:00Z</time>
      </trkpt>
      <trkpt lat="39.8759530" lon="-0.3656920">
        <ele>704.2</ele>
        <time>2020-11-11T11:01:01Z</time>
      </trkpt>
      <trkpt lat="39.8759230" lon="-0.3657020">
        <ele>703.5</ele>
        <time>2020-11-11T11:01:03Z</time>
      </trkpt>
      <trkpt lat="39.8758900" lon="-0.3657230">
        <ele>702.7</ele>
        <time>2020-11-11T11:01:05Z</time>
      </trkpt>
      <trkpt lat="39.8758520" lon="-0.3657840">
        <ele>701.2</ele>
        <time>2020-11-11T11:01:09Z</time>
      </trkpt>
      <trkpt lat="39.8758180" lon="-0.3658680">
        <ele>699.4</ele>
        <time>2020-11-11T11:01:13Z</time>
      </trkpt>
      <trkpt lat="39.8757670" lon="-0.3661020">
        <ele>695.6</ele>
        <time>2020-11-11T11:01:20Z</time>
      </trkpt>
      <trkpt lat="39.8757310" lon="-0.3663030">
        <ele>693.2</ele>
        <time>2020-11-11T11:01:25Z</time>
      </trkpt>
      <trkpt lat="39.8757160" lon="-0.3664240">
        <ele>691.9</ele>
        <time>2020-11-11T11:01:28Z</time>
      </trkpt>
      <trkpt lat="39.8757100" lon="-0.3664860">
        <ele>691.3</ele>
        <time>2020-11-11T11:01:30Z</time>
      </trkpt>
      <trkpt lat="39.8756990" lon="-0.3665480">
        <ele>690.7</ele>
        <time>2020-11-11T11:01:32Z</time>
      </trkpt>
      <trkpt lat="39.8757000" lon="-0.3667660">
        <ele>688.2</ele>
        <time>2020-11-11T11:01:38Z</time>
      </trkpt>
      <trkpt lat="39.8755840" lon="-0.3669380">
        <ele>684.6</ele>
        <time>2020-11-11T11:01:50Z</time>
      </trkpt>
      <trkpt lat="39.8755550" lon="-0.3669760">
        <ele>683.7</ele>
        <time>2020-11-11T11:01:54Z</time>
      </trkpt>
      <trkpt lat="39.8755440" lon="-0.3669800">
        <ele>683.4</ele>
        <time>2020-11-11T11:01:56Z</time>
      </trkpt>
      <trkpt lat="39.8755260" lon="-0.3670190">
        <ele>682.7</ele>
        <time>2020-11-11T11:02:00Z</time>
      </trkpt>
      <trkpt lat="39.8755150" lon="-0.3670750">
        <ele>681.7</ele>
        <time>2020-11-11T11:02:18Z</time>
      </trkpt>
      <trkpt lat="39.8755090" lon="-0.3670730">
        <ele>681.6</ele>
        <time>2020-11-11T11:02:27Z</time>
      </trkpt>
      <trkpt lat="39.8755080" lon="-0.3670690">
        <ele>681.5</ele>
        <time>2020-11-11T11:02:30Z</time>
      </trkpt>
      <trkpt lat="39.8754990" lon="-0.3671510">
        <ele>680.3</ele>
        <time>2020-11-11T11:02:43Z</time>
      </trkpt>
      <trkpt lat="39.8754200" lon="-0.3673780">
        <ele>677.1</ele>
        <time>2020-11-11T11:02:52Z</time>
      </trkpt>
      <trkpt lat="39.8753690" lon="-0.3674620">
        <ele>676.0</ele>
        <time>2020-11-11T11:02:55Z</time>
      </trkpt>
      <trkpt lat="39.8753570" lon="-0.3674890">
        <ele>675.7</ele>
        <time>2020-11-11T11:02:56Z</time>
      </trkpt>
      <trkpt lat="39.8753420" lon="-0.3675160">
        <ele>675.4</ele>
        <time>2020-11-11T11:02:57Z</time>
      </trkpt>
      <trkpt lat="39.8752280" lon="-0.3677020">
        <ele>673.3</ele>
        <time>2020-11-11T11:03:04Z</time>
      </trkpt>
      <trkpt lat="39.8751910" lon="-0.3677490">
        <ele>672.7</ele>
        <time>2020-11-11T11:03:05Z</time>
      </trkpt>
      <trkpt lat="39.8751910" lon="-0.3677490">
        <ele>672.7</ele>
        <time>2020-11-11T11:03:06Z</time>
      </trkpt>
      <trkpt lat="39.8751300" lon="-0.3678200">
        <ele>671.5</ele>
        <time>2020-11-11T11:03:09Z</time>
      </trkpt>
      <trkpt lat="39.8750430" lon="-0.3679670">
        <ele>668.8</ele>
        <time>2020-11-11T11:03:16Z</time>
      </trkpt>
      <trkpt lat="39.8750010" lon="-0.3680450">
        <ele>667.3</ele>
        <time>2020-11-11T11:03:19Z</time>
      </trkpt>
      <trkpt lat="39.8749880" lon="-0.3680700">
        <ele>666.9</ele>
        <time>2020-11-11T11:03:20Z</time>
      </trkpt>
      <trkpt lat="39.8749270" lon="-0.3681640">
        <ele>664.9</ele>
        <time>2020-11-11T11:03:26Z</time>
      </trkpt>
      <trkpt lat="39.8748990" lon="-0.3682040">
        <ele>664.1</ele>
        <time>2020-11-11T11:03:31Z</time>
      </trkpt>
      <trkpt lat="39.8749080" lon="-0.3682130">
        <ele>663.9</ele>
        <time>2020-11-11T11:03:33Z</time>
      </trkpt>
      <trkpt lat="39.8749310" lon="-0.3682320">
        <ele>663.4</ele>
        <time>2020-11-11T11:03:43Z</time>
      </trkpt>
      <trkpt lat="39.8749310" lon="-0.3682320">
        <ele>663.4</ele>
        <time>2020-11-11T11:03:45Z</time>
      </trkpt>
      <trkpt lat="39.8749330" lon="-0.3682330">
        <ele>663.3</ele>
        <time>2020-11-11T11:03:50Z</time>
      </trkpt>
      <trkpt lat="39.8749110" lon="-0.3682590">
        <ele>662.8</ele>
        <time>2020-11-11T11:03:57Z</time>
      </trkpt>
      <trkpt lat="39.8748830" lon="-0.3683120">
        <ele>661.9</ele>
        <time>2020-11-11T11:04:01Z</time>
      </trkpt>
      <trkpt lat="39.8748530" lon="-0.3683790">
        <ele>660.8</ele>
        <time>2020-11-11T11:04:05Z</time>
      </trkpt>
      <trkpt lat="39.8748350" lon="-0.3684540">
        <ele>659.8</ele>
        <time>2020-11-11T11:04:09Z</time>
      </trkpt>
      <trkpt lat="39.8748180" lon="-0.3685550">
        <ele>658.4</ele>
        <time>2020-11-11T11:04:14Z</time>
      </trkpt>
      <trkpt lat="39.8748280" lon="-0.3685850">
        <ele>658.0</ele>
        <time>2020-11-11T11:04:16Z</time>
      </trkpt>
      <trkpt lat="39.8748560" lon="-0.3686360">
        <ele>657.2</ele>
        <time>2020-11-11T11:04:20Z</time>
      </trkpt>
      <trkpt lat="39.8749100" lon="-0.3687770">
        <ele>655.2</ele>
        <time>2020-11-11T11:04:27Z</time>
      </trkpt>
      <trkpt lat="39.8749060" lon="-0.3687950">
        <ele>655.0</ele>
        <time>2020-11-11T11:04:28Z</time>
      </trkpt>
      <trkpt lat="39.8747760" lon="-0.3689030">
        <ele>652.7</ele>
        <time>2020-11-11T11:04:34Z</time>
      </trkpt>
      <trkpt lat="39.8747520" lon="-0.3689080">
        <ele>652.5</ele>
        <time>2020-11-11T11:04:35Z</time>
      </trkpt>
      <trkpt lat="39.8747270" lon="-0.3689100">
        <ele>652.2</ele>
        <time>2020-11-11T11:04:36Z</time>
      </trkpt>
      <trkpt lat="39.8747000" lon="-0.3689070">
        <ele>652.0</ele>
        <time>2020-11-11T11:04:37Z</time>
      </trkpt>
      <trkpt lat="39.8746750" lon="-0.3689010">
        <ele>651.9</ele>
        <time>2020-11-11T11:04:38Z</time>
      </trkpt>
      <trkpt lat="39.8746480" lon="-0.3688980">
        <ele>651.7</ele>
        <time>2020-11-11T11:04:39Z</time>
      </trkpt>
      <trkpt lat="39.8745370" lon="-0.3689570">
        <ele>651.0</ele>
        <time>2020-11-11T11:04:45Z</time>
      </trkpt>
      <trkpt lat="39.8745000" lon="-0.3690120">
        <ele>650.4</ele>
        <time>2020-11-11T11:04:49Z</time>
      </trkpt>
      <trkpt lat="39.8743780" lon="-0.3690790">
        <ele>648.3</ele>
        <time>2020-11-11T11:04:57Z</time>
      </trkpt>
      <trkpt lat="39.8742940" lon="-0.3692100">
        <ele>645.2</ele>
        <time>2020-11-11T11:05:02Z</time>
      </trkpt>
      <trkpt lat="39.8742140" lon="-0.3694330">
        <ele>641.1</ele>
        <time>2020-11-11T11:05:08Z</time>
      </trkpt>
      <trkpt lat="39.8741960" lon="-0.3695460">
        <ele>639.5</ele>
        <time>2020-11-11T11:05:12Z</time>
      </trkpt>
      <trkpt lat="39.8741660" lon="-0.3695760">
        <ele>639.0</ele>
        <time>2020-11-11T11:05:14Z</time>
      </trkpt>
      <trkpt lat="39.8741440" lon="-0.3696340">
        <ele>638.3</ele>
        <time>2020-11-11T11:05:16Z</time>
      </trkpt>
      <trkpt lat="39.8741220" lon="-0.3698710">
        <ele>635.8</ele>
        <time>2020-11-11T11:05:22Z</time>
      </trkpt>
      <trkpt lat="39.8740840" lon="-0.3701310">
        <ele>633.1</ele>
        <time>2020-11-11T11:05:28Z</time>
      </trkpt>
      <trkpt lat="39.8739970" lon="-0.3703750">
        <ele>631.2</ele>
        <time>2020-11-11T11:05:34Z</time>
      </trkpt>
      <trkpt lat="39.8739940" lon="-0.3704690">
        <ele>630.7</ele>
        <time>2020-11-11T11:05:39Z</time>
      </trkpt>
      <trkpt lat="39.8739880" lon="-0.3705090">
        <ele>630.4</ele>
        <time>2020-11-11T11:05:44Z</time>
      </trkpt>
      <trkpt lat="39.8739870" lon="-0.3705210">
        <ele>630.3</ele>
        <time>2020-11-11T11:05:48Z</time>
      </trkpt>
      <trkpt lat="39.8739850" lon="-0.3705360">
        <ele>630.2</ele>
        <time>2020-11-11T11:05:50Z</time>
      </trkpt>
      <trkpt lat="39.8739790" lon="-0.3705720">
        <ele>629.9</ele>
        <time>2020-11-11T11:05:54Z</time>
      </trkpt>
      <trkpt lat="39.8739590" lon="-0.3705980">
        <ele>629.7</ele>
        <time>2020-11-11T11:05:57Z</time>
      </trkpt>
      <trkpt lat="39.8739350" lon="-0.3706690">
        <ele>629.1</ele>
        <time>2020-11-11T11:06:04Z</time>
      </trkpt>
      <trkpt lat="39.8738890" lon="-0.3708880">
        <ele>626.6</ele>
        <time>2020-11-11T11:06:25Z</time>
      </trkpt>
      <trkpt lat="39.8738970" lon="-0.3709450">
        <ele>625.7</ele>
        <time>2020-11-11T11:06:29Z</time>
      </trkpt>
      <trkpt lat="39.8739150" lon="-0.3710310">
        <ele>624.2</ele>
        <time>2020-11-11T11:06:35Z</time>
      </trkpt>
      <trkpt lat="39.8739400" lon="-0.3710490">
        <ele>623.6</ele>
        <time>2020-11-11T11:06:41Z</time>
      </trkpt>
      <trkpt lat="39.8739410" lon="-0.3710490">
        <ele>623.5</ele>
        <time>2020-11-11T11:06:53Z</time>
      </trkpt>
      <trkpt lat="39.8739400" lon="-0.3710480">
        <ele>623.5</ele>
        <time>2020-11-11T11:06:55Z</time>
      </trkpt>
      <trkpt lat="39.8739550" lon="-0.3710800">
        <ele>622.9</ele>
        <time>2020-11-11T11:07:05Z</time>
      </trkpt>
      <trkpt lat="39.8739090" lon="-0.3711250">
        <ele>621.7</ele>
        <time>2020-11-11T11:07:12Z</time>
      </trkpt>
      <trkpt lat="39.8739010" lon="-0.3711310">
        <ele>621.5</ele>
        <time>2020-11-11T11:07:13Z</time>
      </trkpt>
      <trkpt lat="39.8738940" lon="-0.3711360">
        <ele>621.3</ele>
        <time>2020-11-11T11:07:14Z</time>
      </trkpt>
      <trkpt lat="39.8738890" lon="-0.3711430">
        <ele>621.2</ele>
        <time>2020-11-11T11:07:15Z</time>
      </trkpt>
      <trkpt lat="39.8738840" lon="-0.3711700">
        <ele>620.7</ele>
        <time>2020-11-11T11:07:17Z</time>
      </trkpt>
      <trkpt lat="39.8738810" lon="-0.3712060">
        <ele>620.1</ele>
        <time>2020-11-11T11:07:20Z</time>
      </trkpt>
      <trkpt lat="39.8738790" lon="-0.3712320">
        <ele>619.7</ele>
        <time>2020-11-11T11:07:22Z</time>
      </trkpt>
      <trkpt lat="39.8738780" lon="-0.3712490">
        <ele>619.4</ele>
        <time>2020-11-11T11:07:23Z</time>
      </trkpt>
      <trkpt lat="39.8738720" lon="-0.3713080">
        <ele>618.4</ele>
        <time>2020-11-11T11:07:26Z</time>
      </trkpt>
      <trkpt lat="39.8738630" lon="-0.3713620">
        <ele>617.3</ele>
        <time>2020-11-11T11:07:29Z</time>
      </trkpt>
      <trkpt lat="39.8738410" lon="-0.3713700">
        <ele>616.7</ele>
        <time>2020-11-11T11:07:31Z</time>
      </trkpt>
      <trkpt lat="39.8737470" lon="-0.3712850">
        <ele>613.8</ele>
        <time>2020-11-11T11:07:39Z</time>
      </trkpt>
      <trkpt lat="39.8737320" lon="-0.3712900">
        <ele>613.4</ele>
        <time>2020-11-11T11:07:42Z</time>
      </trkpt>
      <trkpt lat="39.8737250" lon="-0.3712980">
        <ele>613.2</ele>
        <time>2020-11-11T11:07:46Z</time>
      </trkpt>
      <trkpt lat="39.8737220" lon="-0.3713140">
        <ele>612.9</ele>
        <time>2020-11-11T11:07:48Z</time>
      </trkpt>
      <trkpt lat="39.8736850" lon="-0.3713610">
        <ele>611.6</ele>
        <time>2020-11-11T11:07:53Z</time>
      </trkpt>
      <trkpt lat="39.8736490" lon="-0.3713810">
        <ele>610.7</ele>
        <time>2020-11-11T11:07:57Z</time>
      </trkpt>
      <trkpt lat="39.8736380" lon="-0.3714320">
        <ele>609.7</ele>
        <time>2020-11-11T11:08:01Z</time>
      </trkpt>
      <trkpt lat="39.8736170" lon="-0.3714890">
        <ele>608.6</ele>
        <time>2020-11-11T11:08:07Z</time>
      </trkpt>
      <trkpt lat="39.8736260" lon="-0.3715500">
        <ele>607.4</ele>
        <time>2020-11-11T11:08:15Z</time>
      </trkpt>
      <trkpt lat="39.8736290" lon="-0.3715450">
        <ele>607.3</ele>
        <time>2020-11-11T11:08:17Z</time>
      </trkpt>
      <trkpt lat="39.8736750" lon="-0.3715280">
        <ele>606.1</ele>
        <time>2020-11-11T11:08:27Z</time>
      </trkpt>
      <trkpt lat="39.8736100" lon="-0.3715380">
        <ele>604.4</ele>
        <time>2020-11-11T11:08:54Z</time>
      </trkpt>
      <trkpt lat="39.8735830" lon="-0.3715930">
        <ele>603.0</ele>
        <time>2020-11-11T11:09:26Z</time>
      </trkpt>
      <trkpt lat="39.8735810" lon="-0.3715960">
        <ele>602.9</ele>
        <time>2020-11-11T11:09:27Z</time>
      </trkpt>
      <trkpt lat="39.8735790" lon="-0.3715990">
        <ele>602.8</ele>
        <time>2020-11-11T11:09:28Z</time>
      </trkpt>
      <trkpt lat="39.8735730" lon="-0.3715980">
        <ele>602.6</ele>
        <time>2020-11-11T11:09:29Z</time>
      </trkpt>
      <trkpt lat="39.8735500" lon="-0.3715910">
        <ele>602.0</ele>
        <time>2020-11-11T11:09:33Z</time>
      </trkpt>
      <trkpt lat="39.8735450" lon="-0.3715920">
        <ele>601.8</ele>
        <time>2020-11-11T11:09:34Z</time>
      </trkpt>
      <trkpt lat="39.8735400" lon="-0.3715930">
        <ele>601.7</ele>
        <time>2020-11-11T11:09:35Z</time>
      </trkpt>
      <trkpt lat="39.8734620" lon="-0.3715740">
        <ele>601.4</ele>
        <time>2020-11-11T11:09:47Z</time>
      </trkpt>
      <trkpt lat="39.8734300" lon="-0.3715510">
        <ele>601.4</ele>
        <time>2020-11-11T11:10:07Z</time>
      </trkpt>
      <trkpt lat="39.8734290" lon="-0.3715600">
        <ele>601.4</ele>
        <time>2020-11-11T11:10:09Z</time>
      </trkpt>
      <trkpt lat="39.8734340" lon="-0.3715640">
        <ele>601.4</ele>
        <time>2020-11-11T11:10:14Z</time>
      </trkpt>
      <trkpt lat="39.8734450" lon="-0.3715410">
        <ele>601.4</ele>
        <time>2020-11-11T11:10:18Z</time>
      </trkpt>
      <trkpt lat="39.8735660" lon="-0.3715290">
        <ele>601.6</ele>
        <time>2020-11-11T11:10:46Z</time>
      </trkpt>
      <trkpt lat="39.8735680" lon="-0.3715300">
        <ele>601.6</ele>
        <time>2020-11-11T11:10:48Z</time>
      </trkpt>
      <trkpt lat="39.8735730" lon="-0.3715260">
        <ele>601.6</ele>
        <time>2020-11-11T11:10:52Z</time>
      </trkpt>
      <trkpt lat="39.8736000" lon="-0.3715540">
        <ele>601.4</ele>
        <time>2020-11-11T11:10:59Z</time>
      </trkpt>
      <trkpt lat="39.8736000" lon="-0.3715650">
        <ele>601.3</ele>
        <time>2020-11-11T11:11:08Z</time>
      </trkpt>
      <trkpt lat="39.8736060" lon="-0.3715890">
        <ele>601.2</ele>
        <time>2020-11-11T11:11:20Z</time>
      </trkpt>
      <trkpt lat="39.8736850" lon="-0.3715600">
        <ele>600.6</ele>
        <time>2020-11-11T11:11:40Z</time>
      </trkpt>
      <trkpt lat="39.8737580" lon="-0.3715860">
        <ele>600.0</ele>
        <time>2020-11-11T11:11:47Z</time>
      </trkpt>
      <trkpt lat="39.8738410" lon="-0.3716440">
        <ele>599.2</ele>
        <time>2020-11-11T11:11:54Z</time>
      </trkpt>
      <trkpt lat="39.8738530" lon="-0.3716520">
        <ele>599.1</ele>
        <time>2020-11-11T11:11:55Z</time>
      </trkpt>
      <trkpt lat="39.8738760" lon="-0.3716730">
        <ele>598.9</ele>
        <time>2020-11-11T11:11:57Z</time>
      </trkpt>
      <trkpt lat="39.8738990" lon="-0.3716950">
        <ele>598.7</ele>
        <time>2020-11-11T11:11:59Z</time>
      </trkpt>
      <trkpt lat="39.8740650" lon="-0.3717770">
        <ele>597.2</ele>
        <time>2020-11-11T11:12:10Z</time>
      </trkpt>
      <trkpt lat="39.8742010" lon="-0.3717740">
        <ele>596.1</ele>
        <time>2020-11-11T11:12:24Z</time>
      </trkpt>
      <trkpt lat="39.8743190" lon="-0.3718720">
        <ele>595.0</ele>
        <time>2020-11-11T11:12:34Z</time>
      </trkpt>
      <trkpt lat="39.8743960" lon="-0.3719390">
        <ele>594.2</ele>
        <time>2020-11-11T11:12:40Z</time>
      </trkpt>
      <trkpt lat="39.8745270" lon="-0.3720650">
        <ele>592.9</ele>
        <time>2020-11-11T11:12:51Z</time>
      </trkpt>
      <trkpt lat="39.8746920" lon="-0.3721640">
        <ele>591.5</ele>
        <time>2020-11-11T11:13:03Z</time>
      </trkpt>
      <trkpt lat="39.8748740" lon="-0.3722410">
        <ele>590.0</ele>
        <time>2020-11-11T11:13:15Z</time>
      </trkpt>
      <trkpt lat="39.8750350" lon="-0.3723480">
        <ele>588.6</ele>
        <time>2020-11-11T11:13:27Z</time>
      </trkpt>
      <trkpt lat="39.8751450" lon="-0.3725430">
        <ele>587.0</ele>
        <time>2020-11-11T11:13:39Z</time>
      </trkpt>
      <trkpt lat="39.8750640" lon="-0.3727820">
        <ele>587.1</ele>
        <time>2020-11-11T11:13:47Z</time>
      </trkpt>
      <trkpt lat="39.8750220" lon="-0.3730280">
        <ele>587.0</ele>
        <time>2020-11-11T11:13:54Z</time>
      </trkpt>
      <trkpt lat="39.8750160" lon="-0.3730640">
        <ele>587.0</ele>
        <time>2020-11-11T11:13:56Z</time>
      </trkpt>
      <trkpt lat="39.8750110" lon="-0.3730990">
        <ele>587.0</ele>
        <time>2020-11-11T11:13:58Z</time>
      </trkpt>
      <trkpt lat="39.8749940" lon="-0.3731460">
        <ele>586.9</ele>
        <time>2020-11-11T11:14:01Z</time>
      </trkpt>
      <trkpt lat="39.8749780" lon="-0.3731930">
        <ele>586.9</ele>
        <time>2020-11-11T11:14:04Z</time>
      </trkpt>
      <trkpt lat="39.8750040" lon="-0.3732820">
        <ele>586.9</ele>
        <time>2020-11-11T11:14:09Z</time>
      </trkpt>
      <trkpt lat="39.8750330" lon="-0.3733230">
        <ele>586.9</ele>
        <time>2020-11-11T11:14:12Z</time>
      </trkpt>
      <trkpt lat="39.8752020" lon="-0.3734440">
        <ele>586.7</ele>
        <time>2020-11-11T11:14:24Z</time>
      </trkpt>
      <trkpt lat="39.8752420" lon="-0.3734780">
        <ele>586.6</ele>
        <time>2020-11-11T11:14:27Z</time>
      </trkpt>
      <trkpt lat="39.8753130" lon="-0.3735320">
        <ele>586.5</ele>
        <time>2020-11-11T11:14:32Z</time>
      </trkpt>
      <trkpt lat="39.8753400" lon="-0.3735610">
        <ele>586.4</ele>
        <time>2020-11-11T11:14:34Z</time>
      </trkpt>
      <trkpt lat="39.8753510" lon="-0.3735780">
        <ele>586.3</ele>
        <time>2020-11-11T11:14:35Z</time>
      </trkpt>
      <trkpt lat="39.8753630" lon="-0.3735940">
        <ele>586.3</ele>
        <time>2020-11-11T11:14:36Z</time>
      </trkpt>
      <trkpt lat="39.8753990" lon="-0.3736560">
        <ele>586.2</ele>
        <time>2020-11-11T11:14:40Z</time>
      </trkpt>
      <trkpt lat="39.8753900" lon="-0.3737730">
        <ele>585.9</ele>
        <time>2020-11-11T11:14:46Z</time>
      </trkpt>
      <trkpt lat="39.8752630" lon="-0.3739670">
        <ele>585.5</ele>
        <time>2020-11-11T11:14:55Z</time>
      </trkpt>
      <trkpt lat="39.8751190" lon="-0.3741390">
        <ele>585.1</ele>
        <time>2020-11-11T11:15:01Z</time>
      </trkpt>
      <trkpt lat="39.8749800" lon="-0.3743350">
        <ele>584.6</ele>
        <time>2020-11-11T11:15:07Z</time>
      </trkpt>
      <trkpt lat="39.8749420" lon="-0.3744110">
        <ele>584.4</ele>
        <time>2020-11-11T11:15:09Z</time>
      </trkpt>
      <trkpt lat="39.8749250" lon="-0.3744490">
        <ele>584.3</ele>
        <time>2020-11-11T11:15:10Z</time>
      </trkpt>
      <trkpt lat="39.8748340" lon="-0.3746830">
        <ele>583.9</ele>
        <time>2020-11-11T11:15:16Z</time>
      </trkpt>
      <trkpt lat="39.8748040" lon="-0.3747570">
        <ele>583.7</ele>
        <time>2020-11-11T11:15:18Z</time>
      </trkpt>
      <trkpt lat="39.8747320" lon="-0.3749940">
        <ele>583.2</ele>
        <time>2020-11-11T11:15:24Z</time>
      </trkpt>
      <trkpt lat="39.8747840" lon="-0.3751800">
        <ele>582.9</ele>
        <time>2020-11-11T11:15:29Z</time>
      </trkpt>
      <trkpt lat="39.8747920" lon="-0.3752830">
        <ele>582.7</ele>
        <time>2020-11-11T11:15:32Z</time>
      </trkpt>
      <trkpt lat="39.8747420" lon="-0.3753640">
        <ele>582.5</ele>
        <time>2020-11-11T11:15:35Z</time>
      </trkpt>
      <trkpt lat="39.8746900" lon="-0.3753980">
        <ele>582.4</ele>
        <time>2020-11-11T11:15:37Z</time>
      </trkpt>
      <trkpt lat="39.8746630" lon="-0.3754130">
        <ele>582.3</ele>
        <time>2020-11-11T11:15:38Z</time>
      </trkpt>
      <trkpt lat="39.8745580" lon="-0.3754750">
        <ele>582.1</ele>
        <time>2020-11-11T11:15:42Z</time>
      </trkpt>
      <trkpt lat="39.8745230" lon="-0.3755250">
        <ele>582.0</ele>
        <time>2020-11-11T11:15:47Z</time>
      </trkpt>
      <trkpt lat="39.8745360" lon="-0.3754930">
        <ele>581.9</ele>
        <time>2020-11-11T11:15:56Z</time>
      </trkpt>
      <trkpt lat="39.8745390" lon="-0.3754950">
        <ele>581.9</ele>
        <time>2020-11-11T11:16:02Z</time>
      </trkpt>
      <trkpt lat="39.8745410" lon="-0.3754950">
        <ele>581.9</ele>
        <time>2020-11-11T11:16:07Z</time>
      </trkpt>
      <trkpt lat="39.8745350" lon="-0.3754930">
        <ele>581.9</ele>
        <time>2020-11-11T11:16:20Z</time>
      </trkpt>
      <trkpt lat="39.8745340" lon="-0.3754960">
        <ele>581.9</ele>
        <time>2020-11-11T11:16:22Z</time>
      </trkpt>
      <trkpt lat="39.8745330" lon="-0.3754950">
        <ele>581.9</ele>
        <time>2020-11-11T11:16:25Z</time>
      </trkpt>
      <trkpt lat="39.8745370" lon="-0.3754910">
        <ele>581.9</ele>
        <time>2020-11-11T11:16:29Z</time>
      </trkpt>
      <trkpt lat="39.8745380" lon="-0.3754910">
        <ele>581.9</ele>
        <time>2020-11-11T11:16:32Z</time>
      </trkpt>
      <trkpt lat="39.8745080" lon="-0.3756200">
        <ele>581.6</ele>
        <time>2020-11-11T11:16:41Z</time>
      </trkpt>
      <trkpt lat="39.8746040" lon="-0.3758320">
        <ele>580.8</ele>
        <time>2020-11-11T11:16:53Z</time>
      </trkpt>
      <trkpt lat="39.8747250" lon="-0.3760160">
        <ele>580.1</ele>
        <time>2020-11-11T11:17:03Z</time>
      </trkpt>
      <trkpt lat="39.8747520" lon="-0.3760470">
        <ele>580.0</ele>
        <time>2020-11-11T11:17:05Z</time>
      </trkpt>
      <trkpt lat="39.8747900" lon="-0.3760990">
        <ele>579.7</ele>
        <time>2020-11-11T11:17:08Z</time>
      </trkpt>
      <trkpt lat="39.8748150" lon="-0.3761480">
        <ele>579.6</ele>
        <time>2020-11-11T11:17:11Z</time>
      </trkpt>
      <trkpt lat="39.8748260" lon="-0.3761830">
        <ele>579.4</ele>
        <time>2020-11-11T11:17:13Z</time>
      </trkpt>
      <trkpt lat="39.8748310" lon="-0.3762010">
        <ele>579.4</ele>
        <time>2020-11-11T11:17:14Z</time>
      </trkpt>
      <trkpt lat="39.8748350" lon="-0.3762200">
        <ele>579.3</ele>
        <time>2020-11-11T11:17:15Z</time>
      </trkpt>
      <trkpt lat="39.8748390" lon="-0.3762420">
        <ele>579.2</ele>
        <time>2020-11-11T11:17:16Z</time>
      </trkpt>
      <trkpt lat="39.8748490" lon="-0.3763190">
        <ele>579.0</ele>
        <time>2020-11-11T11:17:20Z</time>
      </trkpt>
      <trkpt lat="39.8748520" lon="-0.3763370">
        <ele>578.9</ele>
        <time>2020-11-11T11:17:21Z</time>
      </trkpt>
      <trkpt lat="39.8748570" lon="-0.3763520">
        <ele>578.9</ele>
        <time>2020-11-11T11:17:22Z</time>
      </trkpt>
      <trkpt lat="39.8748700" lon="-0.3763860">
        <ele>578.8</ele>
        <time>2020-11-11T11:17:24Z</time>
      </trkpt>
      <trkpt lat="39.8749790" lon="-0.3765910">
        <ele>577.9</ele>
        <time>2020-11-11T11:17:36Z</time>
      </trkpt>
      <trkpt lat="39.8750730" lon="-0.3768000">
        <ele>577.2</ele>
        <time>2020-11-11T11:17:47Z</time>
      </trkpt>
      <trkpt lat="39.8752280" lon="-0.3769460">
        <ele>576.3</ele>
        <time>2020-11-11T11:17:58Z</time>
      </trkpt>
      <trkpt lat="39.8753420" lon="-0.3771180">
        <ele>575.5</ele>
        <time>2020-11-11T11:18:10Z</time>
      </trkpt>
      <trkpt lat="39.8752610" lon="-0.3773510">
        <ele>574.6</ele>
        <time>2020-11-11T11:18:20Z</time>
      </trkpt>
      <trkpt lat="39.8752530" lon="-0.3775320">
        <ele>574.1</ele>
        <time>2020-11-11T11:18:29Z</time>
      </trkpt>
      <trkpt lat="39.8752560" lon="-0.3775550">
        <ele>574.0</ele>
        <time>2020-11-11T11:18:30Z</time>
      </trkpt>
      <trkpt lat="39.8753020" lon="-0.3778030">
        <ele>573.3</ele>
        <time>2020-11-11T11:18:41Z</time>
      </trkpt>
      <trkpt lat="39.8753460" lon="-0.3779770">
        <ele>572.8</ele>
        <time>2020-11-11T11:18:50Z</time>
      </trkpt>
      <trkpt lat="39.8753610" lon="-0.3780630">
        <ele>572.5</ele>
        <time>2020-11-11T11:18:54Z</time>
      </trkpt>
      <trkpt lat="39.8753780" lon="-0.3781760">
        <ele>572.2</ele>
        <time>2020-11-11T11:18:59Z</time>
      </trkpt>
      <trkpt lat="39.8753860" lon="-0.3782410">
        <ele>571.9</ele>
        <time>2020-11-11T11:19:02Z</time>
      </trkpt>
      <trkpt lat="39.8753920" lon="-0.3782830">
        <ele>571.8</ele>
        <time>2020-11-11T11:19:04Z</time>
      </trkpt>
      <trkpt lat="39.8754560" lon="-0.3785100">
        <ele>571.0</ele>
        <time>2020-11-11T11:19:15Z</time>
      </trkpt>
      <trkpt lat="39.8754640" lon="-0.3785280">
        <ele>570.9</ele>
        <time>2020-11-11T11:19:16Z</time>
      </trkpt>
      <trkpt lat="39.8754720" lon="-0.3785460">
        <ele>570.8</ele>
        <time>2020-11-11T11:19:17Z</time>
      </trkpt>
      <trkpt lat="39.8755810" lon="-0.3787280">
        <ele>570.1</ele>
        <time>2020-11-11T11:19:28Z</time>
      </trkpt>
      <trkpt lat="39.8756850" lon="-0.3789350">
        <ele>569.4</ele>
        <time>2020-11-11T11:19:39Z</time>
      </trkpt>
      <trkpt lat="39.8758080" lon="-0.3791230">
        <ele>568.8</ele>
        <time>2020-11-11T11:19:51Z</time>
      </trkpt>
      <trkpt lat="39.8758860" lon="-0.3793410">
        <ele>568.1</ele>
        <time>2020-11-11T11:20:04Z</time>
      </trkpt>
      <trkpt lat="39.8759120" lon="-0.3795130">
        <ele>567.6</ele>
        <time>2020-11-11T11:20:13Z</time>
      </trkpt>
      <trkpt lat="39.8759080" lon="-0.3795910">
        <ele>567.4</ele>
        <time>2020-11-11T11:20:19Z</time>
      </trkpt>
      <trkpt lat="39.8759080" lon="-0.3795930">
        <ele>567.4</ele>
        <time>2020-11-11T11:20:20Z</time>
      </trkpt>
      <trkpt lat="39.8759090" lon="-0.3795960">
        <ele>567.4</ele>
        <time>2020-11-11T11:20:21Z</time>
      </trkpt>
      <trkpt lat="39.8759240" lon="-0.3796240">
        <ele>567.3</ele>
        <time>2020-11-11T11:20:31Z</time>
      </trkpt>
      <trkpt lat="39.8759510" lon="-0.3798680">
        <ele>566.9</ele>
        <time>2020-11-11T11:20:44Z</time>
      </trkpt>
      <trkpt lat="39.8759500" lon="-0.3801280">
        <ele>566.8</ele>
        <time>2020-11-11T11:20:52Z</time>
      </trkpt>
      <trkpt lat="39.8759460" lon="-0.3802830">
        <ele>566.9</ele>
        <time>2020-11-11T11:20:56Z</time>
      </trkpt>
      <trkpt lat="39.8759450" lon="-0.3803960">
        <ele>567.0</ele>
        <time>2020-11-11T11:20:59Z</time>
      </trkpt>
      <trkpt lat="39.8759430" lon="-0.3804340">
        <ele>567.0</ele>
        <time>2020-11-11T11:21:00Z</time>
      </trkpt>
      <trkpt lat="39.8759400" lon="-0.3804730">
        <ele>567.1</ele>
        <time>2020-11-11T11:21:01Z</time>
      </trkpt>
      <trkpt lat="39.8759390" lon="-0.3805510">
        <ele>567.1</ele>
        <time>2020-11-11T11:21:03Z</time>
      </trkpt>
      <trkpt lat="39.8759380" lon="-0.3805890">
        <ele>567.2</ele>
        <time>2020-11-11T11:21:04Z</time>
      </trkpt>
      <trkpt lat="39.8759040" lon="-0.3808160">
        <ele>567.7</ele>
        <time>2020-11-11T11:21:10Z</time>
      </trkpt>
      <trkpt lat="39.8758210" lon="-0.3810530">
        <ele>568.7</ele>
        <time>2020-11-11T11:21:17Z</time>
      </trkpt>
      <trkpt lat="39.8758150" lon="-0.3810850">
        <ele>568.9</ele>
        <time>2020-11-11T11:21:18Z</time>
      </trkpt>
      <trkpt lat="39.8757840" lon="-0.3811650">
        <ele>569.4</ele>
        <time>2020-11-11T11:21:23Z</time>
      </trkpt>
      <trkpt lat="39.8757820" lon="-0.3811720">
        <ele>569.4</ele>
        <time>2020-11-11T11:21:25Z</time>
      </trkpt>
      <trkpt lat="39.8757810" lon="-0.3811700">
        <ele>569.4</ele>
        <time>2020-11-11T11:21:28Z</time>
      </trkpt>
      <trkpt lat="39.8757800" lon="-0.3811700">
        <ele>569.4</ele>
        <time>2020-11-11T11:21:29Z</time>
      </trkpt>
      <trkpt lat="39.8757820" lon="-0.3811680">
        <ele>569.5</ele>
        <time>2020-11-11T11:21:30Z</time>
      </trkpt>
      <trkpt lat="39.8757840" lon="-0.3811700">
        <ele>569.5</ele>
        <time>2020-11-11T11:21:36Z</time>
      </trkpt>
      <trkpt lat="39.8757860" lon="-0.3811710">
        <ele>569.5</ele>
        <time>2020-11-11T11:21:39Z</time>
      </trkpt>
      <trkpt lat="39.8757910" lon="-0.3811660">
        <ele>569.5</ele>
        <time>2020-11-11T11:21:42Z</time>
      </trkpt>
      <trkpt lat="39.8757920" lon="-0.3811650">
        <ele>569.6</ele>
        <time>2020-11-11T11:21:45Z</time>
      </trkpt>
      <trkpt lat="39.8757920" lon="-0.3811650">
        <ele>569.6</ele>
        <time>2020-11-11T11:21:46Z</time>
      </trkpt>
      <trkpt lat="39.8757920" lon="-0.3811650">
        <ele>569.6</ele>
        <time>2020-11-11T11:21:49Z</time>
      </trkpt>
      <trkpt lat="39.8757970" lon="-0.3811630">
        <ele>569.6</ele>
        <time>2020-11-11T11:21:57Z</time>
      </trkpt>
      <trkpt lat="39.8757990" lon="-0.3811660">
        <ele>569.6</ele>
        <time>2020-11-11T11:21:58Z</time>
      </trkpt>
      <trkpt lat="39.8757960" lon="-0.3811590">
        <ele>569.7</ele>
        <time>2020-11-11T11:21:59Z</time>
      </trkpt>
      <trkpt lat="39.8757980" lon="-0.3811600">
        <ele>569.7</ele>
        <time>2020-11-11T11:22:00Z</time>
      </trkpt>
      <trkpt lat="39.8758040" lon="-0.3811670">
        <ele>569.7</ele>
        <time>2020-11-11T11:22:06Z</time>
      </trkpt>
      <trkpt lat="39.8758190" lon="-0.3812120">
        <ele>570.0</ele>
        <time>2020-11-11T11:22:30Z</time>
      </trkpt>
      <trkpt lat="39.8758380" lon="-0.3812200">
        <ele>570.2</ele>
        <time>2020-11-11T11:22:33Z</time>
      </trkpt>
      <trkpt lat="39.8758880" lon="-0.3812240">
        <ele>570.5</ele>
        <time>2020-11-11T11:22:55Z</time>
      </trkpt>
      <trkpt lat="39.8758640" lon="-0.3812470">
        <ele>570.7</ele>
        <time>2020-11-11T11:22:57Z</time>
      </trkpt>
      <trkpt lat="39.8758350" lon="-0.3813380">
        <ele>571.3</ele>
        <time>2020-11-11T11:23:03Z</time>
      </trkpt>
      <trkpt lat="39.8758350" lon="-0.3813530">
        <ele>571.4</ele>
        <time>2020-11-11T11:23:04Z</time>
      </trkpt>
      <trkpt lat="39.8758320" lon="-0.3813680">
        <ele>571.5</ele>
        <time>2020-11-11T11:23:05Z</time>
      </trkpt>
      <trkpt lat="39.8758270" lon="-0.3814170">
        <ele>571.7</ele>
        <time>2020-11-11T11:23:08Z</time>
      </trkpt>
      <trkpt lat="39.8758310" lon="-0.3814770">
        <ele>572.0</ele>
        <time>2020-11-11T11:23:12Z</time>
      </trkpt>
      <trkpt lat="39.8758350" lon="-0.3815600">
        <ele>572.5</ele>
        <time>2020-11-11T11:23:17Z</time>
      </trkpt>
      <trkpt lat="39.8758750" lon="-0.3817910">
        <ele>573.7</ele>
        <time>2020-11-11T11:23:32Z</time>
      </trkpt>
      <trkpt lat="39.8759050" lon="-0.3820090">
        <ele>574.9</ele>
        <time>2020-11-11T11:23:45Z</time>
      </trkpt>
      <trkpt lat="39.8760090" lon="-0.3822000">
        <ele>575.5</ele>
        <time>2020-11-11T11:23:59Z</time>
      </trkpt>
      <trkpt lat="39.8760280" lon="-0.3822220">
        <ele>575.4</ele>
        <time>2020-11-11T11:24:01Z</time>
      </trkpt>
      <trkpt lat="39.8760610" lon="-0.3822480">
        <ele>575.3</ele>
        <time>2020-11-11T11:24:04Z</time>
      </trkpt>
      <trkpt lat="39.8762310" lon="-0.3823120">
        <ele>573.8</ele>
        <time>2020-11-11T11:24:17Z</time>
      </trkpt>
      <trkpt lat="39.8762950" lon="-0.3822180">
        <ele>572.7</ele>
        <time>2020-11-11T11:24:25Z</time>
      </trkpt>
      <trkpt lat="39.8762930" lon="-0.3821980">
        <ele>572.5</ele>
        <time>2020-11-11T11:24:26Z</time>
      </trkpt>
      <trkpt lat="39.8762920" lon="-0.3821780">
        <ele>572.4</ele>
        <time>2020-11-11T11:24:27Z</time>
      </trkpt>
      <trkpt lat="39.8762910" lon="-0.3821550">
        <ele>572.1</ele>
        <time>2020-11-11T11:24:28Z</time>
      </trkpt>
      <trkpt lat="39.8762820" lon="-0.3820420">
        <ele>571.0</ele>
        <time>2020-11-11T11:24:34Z</time>
      </trkpt>
      <trkpt lat="39.8763000" lon="-0.3819250">
        <ele>569.9</ele>
        <time>2020-11-11T11:24:40Z</time>
      </trkpt>
      <trkpt lat="39.8763270" lon="-0.3818430">
        <ele>569.1</ele>
        <time>2020-11-11T11:24:45Z</time>
      </trkpt>
      <trkpt lat="39.8764560" lon="-0.3816780">
        <ele>566.9</ele>
        <time>2020-11-11T11:24:57Z</time>
      </trkpt>
      <trkpt lat="39.8765530" lon="-0.3815430">
        <ele>565.3</ele>
        <time>2020-11-11T11:25:06Z</time>
      </trkpt>
      <trkpt lat="39.8766780" lon="-0.3813620">
        <ele>562.9</ele>
        <time>2020-11-11T11:25:18Z</time>
      </trkpt>
      <trkpt lat="39.8767380" lon="-0.3812400">
        <ele>561.4</ele>
        <time>2020-11-11T11:25:25Z</time>
      </trkpt>
      <trkpt lat="39.8767710" lon="-0.3811360">
        <ele>560.4</ele>
        <time>2020-11-11T11:25:30Z</time>
      </trkpt>
      <trkpt lat="39.8767920" lon="-0.3810640">
        <ele>559.6</ele>
        <time>2020-11-11T11:25:34Z</time>
      </trkpt>
      <trkpt lat="39.8768870" lon="-0.3808500">
        <ele>557.3</ele>
        <time>2020-11-11T11:25:46Z</time>
      </trkpt>
      <trkpt lat="39.8769550" lon="-0.3807940">
        <ele>556.2</ele>
        <time>2020-11-11T11:25:51Z</time>
      </trkpt>
      <trkpt lat="39.8770500" lon="-0.3807200">
        <ele>554.8</ele>
        <time>2020-11-11T11:25:57Z</time>
      </trkpt>
      <trkpt lat="39.8772120" lon="-0.3805890">
        <ele>552.4</ele>
        <time>2020-11-11T11:26:08Z</time>
      </trkpt>
      <trkpt lat="39.8773470" lon="-0.3804250">
        <ele>550.1</ele>
        <time>2020-11-11T11:26:22Z</time>
      </trkpt>
      <trkpt lat="39.8773860" lon="-0.3801820">
        <ele>551.2</ele>
        <time>2020-11-11T11:26:34Z</time>
      </trkpt>
      <trkpt lat="39.8773720" lon="-0.3799480">
        <ele>552.0</ele>
        <time>2020-11-11T11:26:47Z</time>
      </trkpt>
      <trkpt lat="39.8774690" lon="-0.3797320">
        <ele>553.1</ele>
        <time>2020-11-11T11:27:01Z</time>
      </trkpt>
      <trkpt lat="39.8776020" lon="-0.3795580">
        <ele>554.2</ele>
        <time>2020-11-11T11:27:16Z</time>
      </trkpt>
      <trkpt lat="39.8777250" lon="-0.3793870">
        <ele>555.4</ele>
        <time>2020-11-11T11:27:30Z</time>
      </trkpt>
      <trkpt lat="39.8777660" lon="-0.3792180">
        <ele>556.4</ele>
        <time>2020-11-11T11:27:41Z</time>
      </trkpt>
      <trkpt lat="39.8777700" lon="-0.3791580">
        <ele>556.8</ele>
        <time>2020-11-11T11:27:45Z</time>
      </trkpt>
      <trkpt lat="39.8777510" lon="-0.3791330">
        <ele>557.0</ele>
        <time>2020-11-11T11:27:49Z</time>
      </trkpt>
      <trkpt lat="39.8777480" lon="-0.3791260">
        <ele>557.1</ele>
        <time>2020-11-11T11:27:52Z</time>
      </trkpt>
      <trkpt lat="39.8777540" lon="-0.3791190">
        <ele>557.2</ele>
        <time>2020-11-11T11:27:57Z</time>
      </trkpt>
      <trkpt lat="39.8777520" lon="-0.3791170">
        <ele>557.2</ele>
        <time>2020-11-11T11:28:02Z</time>
      </trkpt>
      <trkpt lat="39.8777220" lon="-0.3791070">
        <ele>557.5</ele>
        <time>2020-11-11T11:28:10Z</time>
      </trkpt>
      <trkpt lat="39.8777150" lon="-0.3791050">
        <ele>557.5</ele>
        <time>2020-11-11T11:28:14Z</time>
      </trkpt>
      <trkpt lat="39.8777180" lon="-0.3791160">
        <ele>557.6</ele>
        <time>2020-11-11T11:28:17Z</time>
      </trkpt>
      <trkpt lat="39.8777120" lon="-0.3791270">
        <ele>557.7</ele>
        <time>2020-11-11T11:28:22Z</time>
      </trkpt>
      <trkpt lat="39.8777150" lon="-0.3791200">
        <ele>557.8</ele>
        <time>2020-11-11T11:28:24Z</time>
      </trkpt>
      <trkpt lat="39.8777140" lon="-0.3791200">
        <ele>557.8</ele>
        <time>2020-11-11T11:28:27Z</time>
      </trkpt>
      <trkpt lat="39.8777070" lon="-0.3790930">
        <ele>558.0</ele>
        <time>2020-11-11T11:28:29Z</time>
      </trkpt>
      <trkpt lat="39.8776590" lon="-0.3788660">
        <ele>559.6</ele>
        <time>2020-11-11T11:28:43Z</time>
      </trkpt>
      <trkpt lat="39.8776450" lon="-0.3786210">
        <ele>561.4</ele>
        <time>2020-11-11T11:28:55Z</time>
      </trkpt>
      <trkpt lat="39.8776390" lon="-0.3784920">
        <ele>562.2</ele>
        <time>2020-11-11T11:29:03Z</time>
      </trkpt>
      <trkpt lat="39.8776430" lon="-0.3783730">
        <ele>563.0</ele>
        <time>2020-11-11T11:29:10Z</time>
      </trkpt>
      <trkpt lat="39.8776840" lon="-0.3782610">
        <ele>563.8</ele>
        <time>2020-11-11T11:29:17Z</time>
      </trkpt>
      <trkpt lat="39.8777000" lon="-0.3782280">
        <ele>564.0</ele>
        <time>2020-11-11T11:29:19Z</time>
      </trkpt>
      <trkpt lat="39.8777820" lon="-0.3781570">
        <ele>564.7</ele>
        <time>2020-11-11T11:29:26Z</time>
      </trkpt>
      <trkpt lat="39.8778100" lon="-0.3781560">
        <ele>564.9</ele>
        <time>2020-11-11T11:29:28Z</time>
      </trkpt>
      <trkpt lat="39.8780000" lon="-0.3781720">
        <ele>566.2</ele>
        <time>2020-11-11T11:29:42Z</time>
      </trkpt>
      <trkpt lat="39.8781910" lon="-0.3781600">
        <ele>567.4</ele>
        <time>2020-11-11T11:29:54Z</time>
      </trkpt>
      <trkpt lat="39.8782720" lon="-0.3781310">
        <ele>567.9</ele>
        <time>2020-11-11T11:30:00Z</time>
      </trkpt>
      <trkpt lat="39.8783080" lon="-0.3781180">
        <ele>568.1</ele>
        <time>2020-11-11T11:30:03Z</time>
      </trkpt>
      <trkpt lat="39.8783410" lon="-0.3780990">
        <ele>568.3</ele>
        <time>2020-11-11T11:30:06Z</time>
      </trkpt>
      <trkpt lat="39.8784400" lon="-0.3780720">
        <ele>568.9</ele>
        <time>2020-11-11T11:30:13Z</time>
      </trkpt>
      <trkpt lat="39.8786340" lon="-0.3780830">
        <ele>570.1</ele>
        <time>2020-11-11T11:30:25Z</time>
      </trkpt>
      <trkpt lat="39.8786470" lon="-0.3780830">
        <ele>570.2</ele>
        <time>2020-11-11T11:30:26Z</time>
      </trkpt>
      <trkpt lat="39.8788370" lon="-0.3780370">
        <ele>571.4</ele>
        <time>2020-11-11T11:30:38Z</time>
      </trkpt>
      <trkpt lat="39.8790130" lon="-0.3779450">
        <ele>572.7</ele>
        <time>2020-11-11T11:30:52Z</time>
      </trkpt>
      <trkpt lat="39.8790620" lon="-0.3779330">
        <ele>573.1</ele>
        <time>2020-11-11T11:30:56Z</time>
      </trkpt>
      <trkpt lat="39.8792310" lon="-0.3778700">
        <ele>570.1</ele>
        <time>2020-11-11T11:31:11Z</time>
      </trkpt>
      <trkpt lat="39.8792310" lon="-0.3778860">
        <ele>569.7</ele>
        <time>2020-11-11T11:31:13Z</time>
      </trkpt>
      <trkpt lat="39.8792360" lon="-0.3779130">
        <ele>569.1</ele>
        <time>2020-11-11T11:31:16Z</time>
      </trkpt>
      <trkpt lat="39.8792950" lon="-0.3778970">
        <ele>567.4</ele>
        <time>2020-11-11T11:31:21Z</time>
      </trkpt>
      <trkpt lat="39.8793950" lon="-0.3778570">
        <ele>564.6</ele>
        <time>2020-11-11T11:31:41Z</time>
      </trkpt>
      <trkpt lat="39.8794070" lon="-0.3778290">
        <ele>564.0</ele>
        <time>2020-11-11T11:31:49Z</time>
      </trkpt>
      <trkpt lat="39.8794290" lon="-0.3778370">
        <ele>563.4</ele>
        <time>2020-11-11T11:31:51Z</time>
      </trkpt>
      <trkpt lat="39.8794360" lon="-0.3778460">
        <ele>563.1</ele>
        <time>2020-11-11T11:31:52Z</time>
      </trkpt>
      <trkpt lat="39.8794540" lon="-0.3778650">
        <ele>562.5</ele>
        <time>2020-11-11T11:31:54Z</time>
      </trkpt>
      <trkpt lat="39.8794640" lon="-0.3778880">
        <ele>561.9</ele>
        <time>2020-11-11T11:31:56Z</time>
      </trkpt>
      <trkpt lat="39.8794700" lon="-0.3779160">
        <ele>561.3</ele>
        <time>2020-11-11T11:31:58Z</time>
      </trkpt>
      <trkpt lat="39.8794770" lon="-0.3779170">
        <ele>561.1</ele>
        <time>2020-11-11T11:31:59Z</time>
      </trkpt>
      <trkpt lat="39.8794820" lon="-0.3779190">
        <ele>560.9</ele>
        <time>2020-11-11T11:32:00Z</time>
      </trkpt>
      <trkpt lat="39.8794840" lon="-0.3779190">
        <ele>560.9</ele>
        <time>2020-11-11T11:32:01Z</time>
      </trkpt>
      <trkpt lat="39.8794850" lon="-0.3779180">
        <ele>560.8</ele>
        <time>2020-11-11T11:32:02Z</time>
      </trkpt>
      <trkpt lat="39.8794910" lon="-0.3779200">
        <ele>560.7</ele>
        <time>2020-11-11T11:32:03Z</time>
      </trkpt>
      <trkpt lat="39.8795040" lon="-0.3779320">
        <ele>560.2</ele>
        <time>2020-11-11T11:32:05Z</time>
      </trkpt>
      <trkpt lat="39.8795110" lon="-0.3779390">
        <ele>560.0</ele>
        <time>2020-11-11T11:32:06Z</time>
      </trkpt>
      <trkpt lat="39.8795170" lon="-0.3779480">
        <ele>559.7</ele>
        <time>2020-11-11T11:32:07Z</time>
      </trkpt>
      <trkpt lat="39.8795520" lon="-0.3779440">
        <ele>558.7</ele>
        <time>2020-11-11T11:32:19Z</time>
      </trkpt>
      <trkpt lat="39.8795620" lon="-0.3779370">
        <ele>558.4</ele>
        <time>2020-11-11T11:32:24Z</time>
      </trkpt>
      <trkpt lat="39.8795630" lon="-0.3779290">
        <ele>558.2</ele>
        <time>2020-11-11T11:32:25Z</time>
      </trkpt>
      <trkpt lat="39.8795640" lon="-0.3779210">
        <ele>558.0</ele>
        <time>2020-11-11T11:32:26Z</time>
      </trkpt>
      <trkpt lat="39.8795670" lon="-0.3779080">
        <ele>557.7</ele>
        <time>2020-11-11T11:32:27Z</time>
      </trkpt>
      <trkpt lat="39.8795690" lon="-0.3778830">
        <ele>557.1</ele>
        <time>2020-11-11T11:32:29Z</time>
      </trkpt>
      <trkpt lat="39.8795660" lon="-0.3778740">
        <ele>556.9</ele>
        <time>2020-11-11T11:32:30Z</time>
      </trkpt>
      <trkpt lat="39.8795630" lon="-0.3778680">
        <ele>556.7</ele>
        <time>2020-11-11T11:32:31Z</time>
      </trkpt>
      <trkpt lat="39.8795650" lon="-0.3778620">
        <ele>556.6</ele>
        <time>2020-11-11T11:32:32Z</time>
      </trkpt>
      <trkpt lat="39.8795740" lon="-0.3778450">
        <ele>556.1</ele>
        <time>2020-11-11T11:32:35Z</time>
      </trkpt>
      <trkpt lat="39.8795760" lon="-0.3778360">
        <ele>555.9</ele>
        <time>2020-11-11T11:32:36Z</time>
      </trkpt>
      <trkpt lat="39.8795400" lon="-0.3776810">
        <ele>552.3</ele>
        <time>2020-11-11T11:32:46Z</time>
      </trkpt>
      <trkpt lat="39.8795340" lon="-0.3776650">
        <ele>551.9</ele>
        <time>2020-11-11T11:32:47Z</time>
      </trkpt>
      <trkpt lat="39.8795290" lon="-0.3776510">
        <ele>551.6</ele>
        <time>2020-11-11T11:32:48Z</time>
      </trkpt>
      <trkpt lat="39.8795010" lon="-0.3774910">
        <ele>548.1</ele>
        <time>2020-11-11T11:32:58Z</time>
      </trkpt>
      <trkpt lat="39.8795030" lon="-0.3774900">
        <ele>548.0</ele>
        <time>2020-11-11T11:32:59Z</time>
      </trkpt>
      <trkpt lat="39.8795210" lon="-0.3775100">
        <ele>547.3</ele>
        <time>2020-11-11T11:33:01Z</time>
      </trkpt>
      <trkpt lat="39.8795390" lon="-0.3775220">
        <ele>546.7</ele>
        <time>2020-11-11T11:33:03Z</time>
      </trkpt>
      <trkpt lat="39.8795400" lon="-0.3774980">
        <ele>546.1</ele>
        <time>2020-11-11T11:33:05Z</time>
      </trkpt>
      <trkpt lat="39.8795870" lon="-0.3773600">
        <ele>542.1</ele>
        <time>2020-11-11T11:33:15Z</time>
      </trkpt>
      <trkpt lat="39.8796380" lon="-0.3773900">
        <ele>540.2</ele>
        <time>2020-11-11T11:33:19Z</time>
      </trkpt>
      <trkpt lat="39.8796460" lon="-0.3773630">
        <ele>539.5</ele>
        <time>2020-11-11T11:33:21Z</time>
      </trkpt>
      <trkpt lat="39.8796450" lon="-0.3773230">
        <ele>538.5</ele>
        <time>2020-11-11T11:33:23Z</time>
      </trkpt>
      <trkpt lat="39.8796560" lon="-0.3772750">
        <ele>537.3</ele>
        <time>2020-11-11T11:33:26Z</time>
      </trkpt>
      <trkpt lat="39.8796630" lon="-0.3772620">
        <ele>537.0</ele>
        <time>2020-11-11T11:33:27Z</time>
      </trkpt>
      <trkpt lat="39.8796640" lon="-0.3772510">
        <ele>536.7</ele>
        <time>2020-11-11T11:33:28Z</time>
      </trkpt>
      <trkpt lat="39.8796660" lon="-0.3772360">
        <ele>536.3</ele>
        <time>2020-11-11T11:33:29Z</time>
      </trkpt>
      <trkpt lat="39.8796720" lon="-0.3772080">
        <ele>535.7</ele>
        <time>2020-11-11T11:33:31Z</time>
      </trkpt>
      <trkpt lat="39.8796740" lon="-0.3771960">
        <ele>535.4</ele>
        <time>2020-11-11T11:33:32Z</time>
      </trkpt>
      <trkpt lat="39.8796730" lon="-0.3771840">
        <ele>535.2</ele>
        <time>2020-11-11T11:33:33Z</time>
      </trkpt>
      <trkpt lat="39.8796680" lon="-0.3771690">
        <ele>534.8</ele>
        <time>2020-11-11T11:33:34Z</time>
      </trkpt>
      <trkpt lat="39.8796620" lon="-0.3771560">
        <ele>534.5</ele>
        <time>2020-11-11T11:33:35Z</time>
      </trkpt>
      <trkpt lat="39.8796560" lon="-0.3771400">
        <ele>534.1</ele>
        <time>2020-11-11T11:33:38Z</time>
      </trkpt>
      <trkpt lat="39.8796570" lon="-0.3771380">
        <ele>534.1</ele>
        <time>2020-11-11T11:33:39Z</time>
      </trkpt>
      <trkpt lat="39.8796740" lon="-0.3771420">
        <ele>533.6</ele>
        <time>2020-11-11T11:33:51Z</time>
      </trkpt>
      <trkpt lat="39.8796800" lon="-0.3771390">
        <ele>533.4</ele>
        <time>2020-11-11T11:33:52Z</time>
      </trkpt>
      <trkpt lat="39.8796820" lon="-0.3771380">
        <ele>533.3</ele>
        <time>2020-11-11T11:33:53Z</time>
      </trkpt>
      <trkpt lat="39.8796850" lon="-0.3771220">
        <ele>533.0</ele>
        <time>2020-11-11T11:33:55Z</time>
      </trkpt>
      <trkpt lat="39.8796900" lon="-0.3771170">
        <ele>532.8</ele>
        <time>2020-11-11T11:33:56Z</time>
      </trkpt>
      <trkpt lat="39.8796980" lon="-0.3771190">
        <ele>532.6</ele>
        <time>2020-11-11T11:33:57Z</time>
      </trkpt>
      <trkpt lat="39.8797520" lon="-0.3771770">
        <ele>530.9</ele>
        <time>2020-11-11T11:34:04Z</time>
      </trkpt>
      <trkpt lat="39.8797670" lon="-0.3771920">
        <ele>530.5</ele>
        <time>2020-11-11T11:34:07Z</time>
      </trkpt>
      <trkpt lat="39.8797960" lon="-0.3770630">
        <ele>528.5</ele>
        <time>2020-11-11T11:34:19Z</time>
      </trkpt>
      <trkpt lat="39.8797700" lon="-0.3769330">
        <ele>526.9</ele>
        <time>2020-11-11T11:34:29Z</time>
      </trkpt>
      <trkpt lat="39.8797610" lon="-0.3768690">
        <ele>526.2</ele>
        <time>2020-11-11T11:34:33Z</time>
      </trkpt>
      <trkpt lat="39.8797560" lon="-0.3768450">
        <ele>525.9</ele>
        <time>2020-11-11T11:34:34Z</time>
      </trkpt>
      <trkpt lat="39.8797540" lon="-0.3768230">
        <ele>525.6</ele>
        <time>2020-11-11T11:34:35Z</time>
      </trkpt>
      <trkpt lat="39.8797500" lon="-0.3767400">
        <ele>524.5</ele>
        <time>2020-11-11T11:34:39Z</time>
      </trkpt>
      <trkpt lat="39.8797470" lon="-0.3767150">
        <ele>524.1</ele>
        <time>2020-11-11T11:34:41Z</time>
      </trkpt>
      <trkpt lat="39.8797490" lon="-0.3766990">
        <ele>523.9</ele>
        <time>2020-11-11T11:34:42Z</time>
      </trkpt>
      <trkpt lat="39.8797490" lon="-0.3766860">
        <ele>523.7</ele>
        <time>2020-11-11T11:34:43Z</time>
      </trkpt>
      <trkpt lat="39.8797570" lon="-0.3766790">
        <ele>523.5</ele>
        <time>2020-11-11T11:34:45Z</time>
      </trkpt>
      <trkpt lat="39.8797610" lon="-0.3766820">
        <ele>523.4</ele>
        <time>2020-11-11T11:34:46Z</time>
      </trkpt>
      <trkpt lat="39.8797790" lon="-0.3766870">
        <ele>523.0</ele>
        <time>2020-11-11T11:34:49Z</time>
      </trkpt>
      <trkpt lat="39.8798490" lon="-0.3766920">
        <ele>521.3</ele>
        <time>2020-11-11T11:34:55Z</time>
      </trkpt>
      <trkpt lat="39.8799210" lon="-0.3767100">
        <ele>519.3</ele>
        <time>2020-11-11T11:35:00Z</time>
      </trkpt>
      <trkpt lat="39.8800410" lon="-0.3767490">
        <ele>515.7</ele>
        <time>2020-11-11T11:35:09Z</time>
      </trkpt>
      <trkpt lat="39.8800370" lon="-0.3767850">
        <ele>514.9</ele>
        <time>2020-11-11T11:35:12Z</time>
      </trkpt>
      <trkpt lat="39.8800330" lon="-0.3768020">
        <ele>514.6</ele>
        <time>2020-11-11T11:35:13Z</time>
      </trkpt>
      <trkpt lat="39.8800370" lon="-0.3768090">
        <ele>514.4</ele>
        <time>2020-11-11T11:35:14Z</time>
      </trkpt>
      <trkpt lat="39.8800480" lon="-0.3768160">
        <ele>514.1</ele>
        <time>2020-11-11T11:35:15Z</time>
      </trkpt>
      <trkpt lat="39.8800630" lon="-0.3768190">
        <ele>513.8</ele>
        <time>2020-11-11T11:35:16Z</time>
      </trkpt>
      <trkpt lat="39.8800800" lon="-0.3768150">
        <ele>513.4</ele>
        <time>2020-11-11T11:35:17Z</time>
      </trkpt>
      <trkpt lat="39.8801470" lon="-0.3767930">
        <ele>512.2</ele>
        <time>2020-11-11T11:35:21Z</time>
      </trkpt>
      <trkpt lat="39.8801630" lon="-0.3767800">
        <ele>512.0</ele>
        <time>2020-11-11T11:35:22Z</time>
      </trkpt>
      <trkpt lat="39.8802180" lon="-0.3767490">
        <ele>511.4</ele>
        <time>2020-11-11T11:35:27Z</time>
      </trkpt>
      <trkpt lat="39.8802570" lon="-0.3766950">
        <ele>510.9</ele>
        <time>2020-11-11T11:35:31Z</time>
      </trkpt>
      <trkpt lat="39.8802680" lon="-0.3766850">
        <ele>510.9</ele>
        <time>2020-11-11T11:35:32Z</time>
      </trkpt>
      <trkpt lat="39.8802760" lon="-0.3766740">
        <ele>510.8</ele>
        <time>2020-11-11T11:35:33Z</time>
      </trkpt>
      <trkpt lat="39.8802850" lon="-0.3766620">
        <ele>510.7</ele>
        <time>2020-11-11T11:35:34Z</time>
      </trkpt>
      <trkpt lat="39.8803420" lon="-0.3766290">
        <ele>510.4</ele>
        <time>2020-11-11T11:35:39Z</time>
      </trkpt>
      <trkpt lat="39.8804950" lon="-0.3765060">
        <ele>510.1</ele>
        <time>2020-11-11T11:35:53Z</time>
      </trkpt>
      <trkpt lat="39.8805510" lon="-0.3764520">
        <ele>510.0</ele>
        <time>2020-11-11T11:35:58Z</time>
      </trkpt>
      <trkpt lat="39.8806020" lon="-0.3764320">
        <ele>510.0</ele>
        <time>2020-11-11T11:36:02Z</time>
      </trkpt>
      <trkpt lat="39.8806400" lon="-0.3764200">
        <ele>509.9</ele>
        <time>2020-11-11T11:36:05Z</time>
      </trkpt>
      <trkpt lat="39.8807310" lon="-0.3764140">
        <ele>510.3</ele>
        <time>2020-11-11T11:36:12Z</time>
      </trkpt>
      <trkpt lat="39.8807940" lon="-0.3763690">
        <ele>510.8</ele>
        <time>2020-11-11T11:36:18Z</time>
      </trkpt>
      <trkpt lat="39.8808010" lon="-0.3763620">
        <ele>510.9</ele>
        <time>2020-11-11T11:36:19Z</time>
      </trkpt>
      <trkpt lat="39.8808230" lon="-0.3763550">
        <ele>511.0</ele>
        <time>2020-11-11T11:36:20Z</time>
      </trkpt>
      <trkpt lat="39.8808470" lon="-0.3763350">
        <ele>511.2</ele>
        <time>2020-11-11T11:36:22Z</time>
      </trkpt>
      <trkpt lat="39.8808530" lon="-0.3763250">
        <ele>511.3</ele>
        <time>2020-11-11T11:36:23Z</time>
      </trkpt>
      <trkpt lat="39.8808890" lon="-0.3762770">
        <ele>511.6</ele>
        <time>2020-11-11T11:36:26Z</time>
      </trkpt>
      <trkpt lat="39.8810310" lon="-0.3761990">
        <ele>512.3</ele>
        <time>2020-11-11T11:36:36Z</time>
      </trkpt>
      <trkpt lat="39.8810610" lon="-0.3761890">
        <ele>512.4</ele>
        <time>2020-11-11T11:36:38Z</time>
      </trkpt>
      <trkpt lat="39.8812100" lon="-0.3761600">
        <ele>512.7</ele>
        <time>2020-11-11T11:36:48Z</time>
      </trkpt>
      <trkpt lat="39.8813120" lon="-0.3761200">
        <ele>513.0</ele>
        <time>2020-11-11T11:36:55Z</time>
      </trkpt>
      <trkpt lat="39.8814710" lon="-0.3760010">
        <ele>513.5</ele>
        <time>2020-11-11T11:37:07Z</time>
      </trkpt>
      <trkpt lat="39.8815590" lon="-0.3759470">
        <ele>514.1</ele>
        <time>2020-11-11T11:37:17Z</time>
      </trkpt>
      <trkpt lat="39.8815620" lon="-0.3759410">
        <ele>514.1</ele>
        <time>2020-11-11T11:37:21Z</time>
      </trkpt>
      <trkpt lat="39.8815650" lon="-0.3759370">
        <ele>514.1</ele>
        <time>2020-11-11T11:37:22Z</time>
      </trkpt>
      <trkpt lat="39.8815800" lon="-0.3759110">
        <ele>514.3</ele>
        <time>2020-11-11T11:37:25Z</time>
      </trkpt>
      <trkpt lat="39.8815730" lon="-0.3758840">
        <ele>514.5</ele>
        <time>2020-11-11T11:37:28Z</time>
      </trkpt>
      <trkpt lat="39.8815620" lon="-0.3758680">
        <ele>514.7</ele>
        <time>2020-11-11T11:37:33Z</time>
      </trkpt>
      <trkpt lat="39.8815780" lon="-0.3758580">
        <ele>514.8</ele>
        <time>2020-11-11T11:37:36Z</time>
      </trkpt>
      <trkpt lat="39.8816440" lon="-0.3758060">
        <ele>515.6</ele>
        <time>2020-11-11T11:37:44Z</time>
      </trkpt>
      <trkpt lat="39.8818130" lon="-0.3757100">
        <ele>517.6</ele>
        <time>2020-11-11T11:37:56Z</time>
      </trkpt>
      <trkpt lat="39.8818660" lon="-0.3756700">
        <ele>518.3</ele>
        <time>2020-11-11T11:38:01Z</time>
      </trkpt>
      <trkpt lat="39.8818780" lon="-0.3756630">
        <ele>518.4</ele>
        <time>2020-11-11T11:38:02Z</time>
      </trkpt>
      <trkpt lat="39.8818900" lon="-0.3756570">
        <ele>518.6</ele>
        <time>2020-11-11T11:38:03Z</time>
      </trkpt>
      <trkpt lat="39.8819160" lon="-0.3756480">
        <ele>518.8</ele>
        <time>2020-11-11T11:38:05Z</time>
      </trkpt>
      <trkpt lat="39.8820060" lon="-0.3755380">
        <ele>520.0</ele>
        <time>2020-11-11T11:38:17Z</time>
      </trkpt>
      <trkpt lat="39.8820040" lon="-0.3755330">
        <ele>520.1</ele>
        <time>2020-11-11T11:38:18Z</time>
      </trkpt>
      <trkpt lat="39.8819900" lon="-0.3754980">
        <ele>520.2</ele>
        <time>2020-11-11T11:38:31Z</time>
      </trkpt>
      <trkpt lat="39.8819910" lon="-0.3755270">
        <ele>520.3</ele>
        <time>2020-11-11T11:38:41Z</time>
      </trkpt>
      <trkpt lat="39.8820160" lon="-0.3755130">
        <ele>520.4</ele>
        <time>2020-11-11T11:38:47Z</time>
      </trkpt>
      <trkpt lat="39.8820200" lon="-0.3755170">
        <ele>520.4</ele>
        <time>2020-11-11T11:38:52Z</time>
      </trkpt>
      <trkpt lat="39.8820230" lon="-0.3755160">
        <ele>520.4</ele>
        <time>2020-11-11T11:38:55Z</time>
      </trkpt>
      <trkpt lat="39.8820260" lon="-0.3755090">
        <ele>520.4</ele>
        <time>2020-11-11T11:38:57Z</time>
      </trkpt>
      <trkpt lat="39.8820190" lon="-0.3754810">
        <ele>520.5</ele>
        <time>2020-11-11T11:39:03Z</time>
      </trkpt>
      <trkpt lat="39.8820130" lon="-0.3754590">
        <ele>520.6</ele>
        <time>2020-11-11T11:39:22Z</time>
      </trkpt>
      <trkpt lat="39.8819920" lon="-0.3754250">
        <ele>520.7</ele>
        <time>2020-11-11T11:39:44Z</time>
      </trkpt>
      <trkpt lat="39.8820100" lon="-0.3753640">
        <ele>520.9</ele>
        <time>2020-11-11T11:40:09Z</time>
      </trkpt>
      <trkpt lat="39.8820220" lon="-0.3753340">
        <ele>520.9</ele>
        <time>2020-11-11T11:40:11Z</time>
      </trkpt>
      <trkpt lat="39.8820300" lon="-0.3753120">
        <ele>521.0</ele>
        <time>2020-11-11T11:40:13Z</time>
      </trkpt>
      <trkpt lat="39.8820340" lon="-0.3752500">
        <ele>521.2</ele>
        <time>2020-11-11T11:40:19Z</time>
      </trkpt>
      <trkpt lat="39.8820250" lon="-0.3752200">
        <ele>521.2</ele>
        <time>2020-11-11T11:40:25Z</time>
      </trkpt>
      <trkpt lat="39.8820270" lon="-0.3752060">
        <ele>521.2</ele>
        <time>2020-11-11T11:40:27Z</time>
      </trkpt>
      <trkpt lat="39.8820200" lon="-0.3752000">
        <ele>521.3</ele>
        <time>2020-11-11T11:40:33Z</time>
      </trkpt>
      <trkpt lat="39.8820180" lon="-0.3752020">
        <ele>521.3</ele>
        <time>2020-11-11T11:40:34Z</time>
      </trkpt>
      <trkpt lat="39.8820180" lon="-0.3752070">
        <ele>521.3</ele>
        <time>2020-11-11T11:40:35Z</time>
      </trkpt>
      <trkpt lat="39.8820150" lon="-0.3752130">
        <ele>521.3</ele>
        <time>2020-11-11T11:40:40Z</time>
      </trkpt>
      <trkpt lat="39.8820000" lon="-0.3752020">
        <ele>521.3</ele>
        <time>2020-11-11T11:40:45Z</time>
      </trkpt>
      <trkpt lat="39.8820000" lon="-0.3752050">
        <ele>521.3</ele>
        <time>2020-11-11T11:40:47Z</time>
      </trkpt>
      <trkpt lat="39.8820110" lon="-0.3752030">
        <ele>521.4</ele>
        <time>2020-11-11T11:40:53Z</time>
      </trkpt>
      <trkpt lat="39.8820150" lon="-0.3751990">
        <ele>521.4</ele>
        <time>2020-11-11T11:40:54Z</time>
      </trkpt>
      <trkpt lat="39.8820160" lon="-0.3751790">
        <ele>521.4</ele>
        <time>2020-11-11T11:40:59Z</time>
      </trkpt>
      <trkpt lat="39.8820230" lon="-0.3751660">
        <ele>521.4</ele>
        <time>2020-11-11T11:41:09Z</time>
      </trkpt>
      <trkpt lat="39.8820350" lon="-0.3751740">
        <ele>521.5</ele>
        <time>2020-11-11T11:41:18Z</time>
      </trkpt>
      <trkpt lat="39.8820330" lon="-0.3751780">
        <ele>521.5</ele>
        <time>2020-11-11T11:41:19Z</time>
      </trkpt>
      <trkpt lat="39.8820330" lon="-0.3752140">
        <ele>521.5</ele>
        <time>2020-11-11T11:41:27Z</time>
      </trkpt>
      <trkpt lat="39.8820100" lon="-0.3751730">
        <ele>521.6</ele>
        <time>2020-11-11T11:41:40Z</time>
      </trkpt>
      <trkpt lat="39.8820090" lon="-0.3751720">
        <ele>521.6</ele>
        <time>2020-11-11T11:41:44Z</time>
      </trkpt>
      <trkpt lat="39.8820100" lon="-0.3751760">
        <ele>521.6</ele>
        <time>2020-11-11T11:41:45Z</time>
      </trkpt>
      <trkpt lat="39.8820620" lon="-0.3752000">
        <ele>521.7</ele>
        <time>2020-11-11T11:42:07Z</time>
      </trkpt>
      <trkpt lat="39.8820600" lon="-0.3751790">
        <ele>521.8</ele>
        <time>2020-11-11T11:42:13Z</time>
      </trkpt>
      <trkpt lat="39.8820620" lon="-0.3751900">
        <ele>521.8</ele>
        <time>2020-11-11T11:42:15Z</time>
      </trkpt>
      <trkpt lat="39.8820810" lon="-0.3753290">
        <ele>521.9</ele>
        <time>2020-11-11T11:42:25Z</time>
      </trkpt>
      <trkpt lat="39.8820750" lon="-0.3753710">
        <ele>522.0</ele>
        <time>2020-11-11T11:42:28Z</time>
      </trkpt>
      <trkpt lat="39.8821680" lon="-0.3755390">
        <ele>522.1</ele>
        <time>2020-11-11T11:42:42Z</time>
      </trkpt>
      <trkpt lat="39.8821900" lon="-0.3755450">
        <ele>522.1</ele>
        <time>2020-11-11T11:42:44Z</time>
      </trkpt>
      <trkpt lat="39.8822120" lon="-0.3755470">
        <ele>522.1</ele>
        <time>2020-11-11T11:42:46Z</time>
      </trkpt>
      <trkpt lat="39.8822390" lon="-0.3755400">
        <ele>522.1</ele>
        <time>2020-11-11T11:42:49Z</time>
      </trkpt>
      <trkpt lat="39.8822870" lon="-0.3755310">
        <ele>522.1</ele>
        <time>2020-11-11T11:42:53Z</time>
      </trkpt>
      <trkpt lat="39.8824460" lon="-0.3754910">
        <ele>522.2</ele>
        <time>2020-11-11T11:43:05Z</time>
      </trkpt>
      <trkpt lat="39.8825550" lon="-0.3754540">
        <ele>522.3</ele>
        <time>2020-11-11T11:43:13Z</time>
      </trkpt>
      <trkpt lat="39.8826310" lon="-0.3753910">
        <ele>522.5</ele>
        <time>2020-11-11T11:43:20Z</time>
      </trkpt>
      <trkpt lat="39.8826950" lon="-0.3753480">
        <ele>522.8</ele>
        <time>2020-11-11T11:43:25Z</time>
      </trkpt>
      <trkpt lat="39.8828500" lon="-0.3752280">
        <ele>523.6</ele>
        <time>2020-11-11T11:43:39Z</time>
      </trkpt>
      <trkpt lat="39.8829990" lon="-0.3750940">
        <ele>524.9</ele>
        <time>2020-11-11T11:43:52Z</time>
      </trkpt>
      <trkpt lat="39.8830620" lon="-0.3750820">
        <ele>525.0</ele>
        <time>2020-11-11T11:43:56Z</time>
      </trkpt>
      <trkpt lat="39.8830760" lon="-0.3750890">
        <ele>525.0</ele>
        <time>2020-11-11T11:43:57Z</time>
      </trkpt>
      <trkpt lat="39.8831070" lon="-0.3750940">
        <ele>525.0</ele>
        <time>2020-11-11T11:43:59Z</time>
      </trkpt>
      <trkpt lat="39.8832120" lon="-0.3750780">
        <ele>525.2</ele>
        <time>2020-11-11T11:44:07Z</time>
      </trkpt>
      <trkpt lat="39.8832230" lon="-0.3750860">
        <ele>525.3</ele>
        <time>2020-11-11T11:44:11Z</time>
      </trkpt>
      <trkpt lat="39.8832500" lon="-0.3750600">
        <ele>525.4</ele>
        <time>2020-11-11T11:44:16Z</time>
      </trkpt>
      <trkpt lat="39.8832600" lon="-0.3750360">
        <ele>525.6</ele>
        <time>2020-11-11T11:44:18Z</time>
      </trkpt>
      <trkpt lat="39.8833850" lon="-0.3748760">
        <ele>526.9</ele>
        <time>2020-11-11T11:44:33Z</time>
      </trkpt>
      <trkpt lat="39.8834060" lon="-0.3748530">
        <ele>527.1</ele>
        <time>2020-11-11T11:44:35Z</time>
      </trkpt>
      <trkpt lat="39.8834180" lon="-0.3748390">
        <ele>527.2</ele>
        <time>2020-11-11T11:44:36Z</time>
      </trkpt>
      <trkpt lat="39.8834470" lon="-0.3747750">
        <ele>527.6</ele>
        <time>2020-11-11T11:44:40Z</time>
      </trkpt>
      <trkpt lat="39.8834630" lon="-0.3747340">
        <ele>527.9</ele>
        <time>2020-11-11T11:44:42Z</time>
      </trkpt>
      <trkpt lat="39.8835760" lon="-0.3745500">
        <ele>529.4</ele>
        <time>2020-11-11T11:44:54Z</time>
      </trkpt>
      <trkpt lat="39.8836150" lon="-0.3743720">
        <ele>530.8</ele>
        <time>2020-11-11T11:45:04Z</time>
      </trkpt>
      <trkpt lat="39.8836390" lon="-0.3742230">
        <ele>532.1</ele>
        <time>2020-11-11T11:45:14Z</time>
      </trkpt>
      <trkpt lat="39.8836880" lon="-0.3740990">
        <ele>533.2</ele>
        <time>2020-11-11T11:45:25Z</time>
      </trkpt>
      <trkpt lat="39.8837190" lon="-0.3740610">
        <ele>533.7</ele>
        <time>2020-11-11T11:45:30Z</time>
      </trkpt>
      <trkpt lat="39.8838440" lon="-0.3739460">
        <ele>535.0</ele>
        <time>2020-11-11T11:45:41Z</time>
      </trkpt>
      <trkpt lat="39.8838580" lon="-0.3739410">
        <ele>535.1</ele>
        <time>2020-11-11T11:45:42Z</time>
      </trkpt>
      <trkpt lat="39.8838830" lon="-0.3739350">
        <ele>535.3</ele>
        <time>2020-11-11T11:45:44Z</time>
      </trkpt>
      <trkpt lat="39.8839360" lon="-0.3739150">
        <ele>535.7</ele>
        <time>2020-11-11T11:45:48Z</time>
      </trkpt>
      <trkpt lat="39.8839930" lon="-0.3738850">
        <ele>536.1</ele>
        <time>2020-11-11T11:45:53Z</time>
      </trkpt>
      <trkpt lat="39.8840120" lon="-0.3738810">
        <ele>536.2</ele>
        <time>2020-11-11T11:45:54Z</time>
      </trkpt>
      <trkpt lat="39.8841670" lon="-0.3738570">
        <ele>537.1</ele>
        <time>2020-11-11T11:46:09Z</time>
      </trkpt>
      <trkpt lat="39.8841980" lon="-0.3738560">
        <ele>537.3</ele>
        <time>2020-11-11T11:46:12Z</time>
      </trkpt>
      <trkpt lat="39.8842160" lon="-0.3738640">
        <ele>537.4</ele>
        <time>2020-11-11T11:46:13Z</time>
      </trkpt>
      <trkpt lat="39.8842590" lon="-0.3738680">
        <ele>537.7</ele>
        <time>2020-11-11T11:46:16Z</time>
      </trkpt>
      <trkpt lat="39.8842690" lon="-0.3738650">
        <ele>537.7</ele>
        <time>2020-11-11T11:46:17Z</time>
      </trkpt>
      <trkpt lat="39.8842790" lon="-0.3738620">
        <ele>537.8</ele>
        <time>2020-11-11T11:46:18Z</time>
      </trkpt>
      <trkpt lat="39.8842920" lon="-0.3738630">
        <ele>537.9</ele>
        <time>2020-11-11T11:46:19Z</time>
      </trkpt>
      <trkpt lat="39.8843040" lon="-0.3738620">
        <ele>537.9</ele>
        <time>2020-11-11T11:46:20Z</time>
      </trkpt>
      <trkpt lat="39.8843160" lon="-0.3738600">
        <ele>538.0</ele>
        <time>2020-11-11T11:46:21Z</time>
      </trkpt>
      <trkpt lat="39.8843310" lon="-0.3738690">
        <ele>538.1</ele>
        <time>2020-11-11T11:46:22Z</time>
      </trkpt>
      <trkpt lat="39.8843350" lon="-0.3738670">
        <ele>538.1</ele>
        <time>2020-11-11T11:46:23Z</time>
      </trkpt>
      <trkpt lat="39.8843380" lon="-0.3738650">
        <ele>538.2</ele>
        <time>2020-11-11T11:46:24Z</time>
      </trkpt>
      <trkpt lat="39.8843410" lon="-0.3738650">
        <ele>538.2</ele>
        <time>2020-11-11T11:46:26Z</time>
      </trkpt>
      <trkpt lat="39.8843440" lon="-0.3738590">
        <ele>538.2</ele>
        <time>2020-11-11T11:46:27Z</time>
      </trkpt>
      <trkpt lat="39.8843570" lon="-0.3738530">
        <ele>538.3</ele>
        <time>2020-11-11T11:46:29Z</time>
      </trkpt>
      <trkpt lat="39.8843680" lon="-0.3738490">
        <ele>538.4</ele>
        <time>2020-11-11T11:46:30Z</time>
      </trkpt>
      <trkpt lat="39.8843790" lon="-0.3738400">
        <ele>538.4</ele>
        <time>2020-11-11T11:46:32Z</time>
      </trkpt>
      <trkpt lat="39.8844720" lon="-0.3738030">
        <ele>539.0</ele>
        <time>2020-11-11T11:46:39Z</time>
      </trkpt>
      <trkpt lat="39.8845160" lon="-0.3737450">
        <ele>539.4</ele>
        <time>2020-11-11T11:46:43Z</time>
      </trkpt>
      <trkpt lat="39.8845680" lon="-0.3736530">
        <ele>539.9</ele>
        <time>2020-11-11T11:46:50Z</time>
      </trkpt>
      <trkpt lat="39.8846070" lon="-0.3735130">
        <ele>540.5</ele>
        <time>2020-11-11T11:46:58Z</time>
      </trkpt>
      <trkpt lat="39.8846430" lon="-0.3734530">
        <ele>540.9</ele>
        <time>2020-11-11T11:47:03Z</time>
      </trkpt>
      <trkpt lat="39.8846720" lon="-0.3733990">
        <ele>541.2</ele>
        <time>2020-11-11T11:47:08Z</time>
      </trkpt>
      <trkpt lat="39.8847140" lon="-0.3732960">
        <ele>541.6</ele>
        <time>2020-11-11T11:47:14Z</time>
      </trkpt>
      <trkpt lat="39.8847290" lon="-0.3731790">
        <ele>542.0</ele>
        <time>2020-11-11T11:47:21Z</time>
      </trkpt>
      <trkpt lat="39.8847860" lon="-0.3729330">
        <ele>542.9</ele>
        <time>2020-11-11T11:47:34Z</time>
      </trkpt>
      <trkpt lat="39.8848070" lon="-0.3728570">
        <ele>543.2</ele>
        <time>2020-11-11T11:47:37Z</time>
      </trkpt>
      <trkpt lat="39.8848420" lon="-0.3726210">
        <ele>543.9</ele>
        <time>2020-11-11T11:47:50Z</time>
      </trkpt>
      <trkpt lat="39.8848630" lon="-0.3725580">
        <ele>544.2</ele>
        <time>2020-11-11T11:47:54Z</time>
      </trkpt>
      <trkpt lat="39.8848750" lon="-0.3725340">
        <ele>544.3</ele>
        <time>2020-11-11T11:47:56Z</time>
      </trkpt>
      <trkpt lat="39.8848860" lon="-0.3725100">
        <ele>544.4</ele>
        <time>2020-11-11T11:47:58Z</time>
      </trkpt>
      <trkpt lat="39.8849620" lon="-0.3723410">
        <ele>545.3</ele>
        <time>2020-11-11T11:48:10Z</time>
      </trkpt>
      <trkpt lat="39.8849670" lon="-0.3723100">
        <ele>545.5</ele>
        <time>2020-11-11T11:48:12Z</time>
      </trkpt>
      <trkpt lat="39.8849820" lon="-0.3722790">
        <ele>545.6</ele>
        <time>2020-11-11T11:48:14Z</time>
      </trkpt>
      <trkpt lat="39.8850200" lon="-0.3722330">
        <ele>546.0</ele>
        <time>2020-11-11T11:48:18Z</time>
      </trkpt>
      <trkpt lat="39.8851300" lon="-0.3721480">
        <ele>546.8</ele>
        <time>2020-11-11T11:48:26Z</time>
      </trkpt>
      <trkpt lat="39.8852110" lon="-0.3721150">
        <ele>547.4</ele>
        <time>2020-11-11T11:48:32Z</time>
      </trkpt>
      <trkpt lat="39.8852260" lon="-0.3721070">
        <ele>547.5</ele>
        <time>2020-11-11T11:48:33Z</time>
      </trkpt>
      <trkpt lat="39.8853230" lon="-0.3719880">
        <ele>548.2</ele>
        <time>2020-11-11T11:48:42Z</time>
      </trkpt>
      <trkpt lat="39.8853450" lon="-0.3719700">
        <ele>548.3</ele>
        <time>2020-11-11T11:48:44Z</time>
      </trkpt>
      <trkpt lat="39.8853530" lon="-0.3719620">
        <ele>548.4</ele>
        <time>2020-11-11T11:48:45Z</time>
      </trkpt>
      <trkpt lat="39.8853610" lon="-0.3719500">
        <ele>548.4</ele>
        <time>2020-11-11T11:48:46Z</time>
      </trkpt>
      <trkpt lat="39.8853790" lon="-0.3719150">
        <ele>548.5</ele>
        <time>2020-11-11T11:48:48Z</time>
      </trkpt>
      <trkpt lat="39.8854130" lon="-0.3718610">
        <ele>548.6</ele>
        <time>2020-11-11T11:48:53Z</time>
      </trkpt>
      <trkpt lat="39.8854710" lon="-0.3718280">
        <ele>548.8</ele>
        <time>2020-11-11T11:48:59Z</time>
      </trkpt>
      <trkpt lat="39.8854940" lon="-0.3718170">
        <ele>548.9</ele>
        <time>2020-11-11T11:49:03Z</time>
      </trkpt>
      <trkpt lat="39.8855300" lon="-0.3717560">
        <ele>549.0</ele>
        <time>2020-11-11T11:49:09Z</time>
      </trkpt>
      <trkpt lat="39.8855360" lon="-0.3717540">
        <ele>549.1</ele>
        <time>2020-11-11T11:49:13Z</time>
      </trkpt>
      <trkpt lat="39.8855400" lon="-0.3717530">
        <ele>549.1</ele>
        <time>2020-11-11T11:49:15Z</time>
      </trkpt>
      <trkpt lat="39.8855450" lon="-0.3717400">
        <ele>549.1</ele>
        <time>2020-11-11T11:49:16Z</time>
      </trkpt>
      <trkpt lat="39.8855470" lon="-0.3717280">
        <ele>549.1</ele>
        <time>2020-11-11T11:49:17Z</time>
      </trkpt>
      <trkpt lat="39.8855430" lon="-0.3717140">
        <ele>549.2</ele>
        <time>2020-11-11T11:49:18Z</time>
      </trkpt>
      <trkpt lat="39.8854940" lon="-0.3716450">
        <ele>549.4</ele>
        <time>2020-11-11T11:49:24Z</time>
      </trkpt>
      <trkpt lat="39.8854860" lon="-0.3716300">
        <ele>549.5</ele>
        <time>2020-11-11T11:49:27Z</time>
      </trkpt>
      <trkpt lat="39.8854850" lon="-0.3716270">
        <ele>549.5</ele>
        <time>2020-11-11T11:49:29Z</time>
      </trkpt>
      <trkpt lat="39.8854680" lon="-0.3716490">
        <ele>549.7</ele>
        <time>2020-11-11T11:49:34Z</time>
      </trkpt>
      <trkpt lat="39.8854750" lon="-0.3716500">
        <ele>549.7</ele>
        <time>2020-11-11T11:49:35Z</time>
      </trkpt>
      <trkpt lat="39.8854720" lon="-0.3716620">
        <ele>549.8</ele>
        <time>2020-11-11T11:49:47Z</time>
      </trkpt>
      <trkpt lat="39.8854790" lon="-0.3716440">
        <ele>549.9</ele>
        <time>2020-11-11T11:49:49Z</time>
      </trkpt>
      <trkpt lat="39.8855110" lon="-0.3716010">
        <ele>550.3</ele>
        <time>2020-11-11T11:49:53Z</time>
      </trkpt>
      <trkpt lat="39.8855610" lon="-0.3715290">
        <ele>551.2</ele>
        <time>2020-11-11T11:49:59Z</time>
      </trkpt>
      <trkpt lat="39.8855840" lon="-0.3714950">
        <ele>551.6</ele>
        <time>2020-11-11T11:50:01Z</time>
      </trkpt>
      <trkpt lat="39.8856070" lon="-0.3714460">
        <ele>552.2</ele>
        <time>2020-11-11T11:50:04Z</time>
      </trkpt>
      <trkpt lat="39.8856130" lon="-0.3712600">
        <ele>553.8</ele>
        <time>2020-11-11T11:50:16Z</time>
      </trkpt>
      <trkpt lat="39.8856110" lon="-0.3712580">
        <ele>553.9</ele>
        <time>2020-11-11T11:50:17Z</time>
      </trkpt>
      <trkpt lat="39.8856090" lon="-0.3712570">
        <ele>553.9</ele>
        <time>2020-11-11T11:50:19Z</time>
      </trkpt>
      <trkpt lat="39.8856110" lon="-0.3712340">
        <ele>554.0</ele>
        <time>2020-11-11T11:50:21Z</time>
      </trkpt>
      <trkpt lat="39.8856370" lon="-0.3711920">
        <ele>554.4</ele>
        <time>2020-11-11T11:50:26Z</time>
      </trkpt>
      <trkpt lat="39.8856530" lon="-0.3710570">
        <ele>555.0</ele>
        <time>2020-11-11T11:50:35Z</time>
      </trkpt>
      <trkpt lat="39.8856170" lon="-0.3709550">
        <ele>555.5</ele>
        <time>2020-11-11T11:50:45Z</time>
      </trkpt>
      <trkpt lat="39.8856050" lon="-0.3709140">
        <ele>555.7</ele>
        <time>2020-11-11T11:50:48Z</time>
      </trkpt>
      <trkpt lat="39.8855500" lon="-0.3706730">
        <ele>556.6</ele>
        <time>2020-11-11T11:51:03Z</time>
      </trkpt>
      <trkpt lat="39.8855520" lon="-0.3706220">
        <ele>556.7</ele>
        <time>2020-11-11T11:51:07Z</time>
      </trkpt>
      <trkpt lat="39.8855640" lon="-0.3705860">
        <ele>556.7</ele>
        <time>2020-11-11T11:51:09Z</time>
      </trkpt>
      <trkpt lat="39.8855570" lon="-0.3705220">
        <ele>556.7</ele>
        <time>2020-11-11T11:51:14Z</time>
      </trkpt>
      <trkpt lat="39.8855560" lon="-0.3705010">
        <ele>556.7</ele>
        <time>2020-11-11T11:51:16Z</time>
      </trkpt>
      <trkpt lat="39.8855570" lon="-0.3704180">
        <ele>557.0</ele>
        <time>2020-11-11T11:51:21Z</time>
      </trkpt>
      <trkpt lat="39.8855560" lon="-0.3703680">
        <ele>557.2</ele>
        <time>2020-11-11T11:51:26Z</time>
      </trkpt>
      <trkpt lat="39.8855480" lon="-0.3703410">
        <ele>557.5</ele>
        <time>2020-11-11T11:51:28Z</time>
      </trkpt>
      <trkpt lat="39.8855050" lon="-0.3702740">
        <ele>558.1</ele>
        <time>2020-11-11T11:51:33Z</time>
      </trkpt>
      <trkpt lat="39.8854960" lon="-0.3702590">
        <ele>558.3</ele>
        <time>2020-11-11T11:51:34Z</time>
      </trkpt>
      <trkpt lat="39.8854160" lon="-0.3701500">
        <ele>559.6</ele>
        <time>2020-11-11T11:51:43Z</time>
      </trkpt>
      <trkpt lat="39.8853910" lon="-0.3700960">
        <ele>560.2</ele>
        <time>2020-11-11T11:51:48Z</time>
      </trkpt>
      <trkpt lat="39.8853920" lon="-0.3700910">
        <ele>560.3</ele>
        <time>2020-11-11T11:51:50Z</time>
      </trkpt>
      <trkpt lat="39.8853900" lon="-0.3700850">
        <ele>560.3</ele>
        <time>2020-11-11T11:51:51Z</time>
      </trkpt>
      <trkpt lat="39.8853880" lon="-0.3700780">
        <ele>560.4</ele>
        <time>2020-11-11T11:51:52Z</time>
      </trkpt>
      <trkpt lat="39.8853840" lon="-0.3700460">
        <ele>560.8</ele>
        <time>2020-11-11T11:51:54Z</time>
      </trkpt>
      <trkpt lat="39.8853820" lon="-0.3700150">
        <ele>561.1</ele>
        <time>2020-11-11T11:51:56Z</time>
      </trkpt>
      <trkpt lat="39.8853670" lon="-0.3699950">
        <ele>561.5</ele>
        <time>2020-11-11T11:51:58Z</time>
      </trkpt>
      <trkpt lat="39.8853000" lon="-0.3699150">
        <ele>563.3</ele>
        <time>2020-11-11T11:52:06Z</time>
      </trkpt>
      <trkpt lat="39.8852880" lon="-0.3698880">
        <ele>563.8</ele>
        <time>2020-11-11T11:52:08Z</time>
      </trkpt>
      <trkpt lat="39.8853200" lon="-0.3698270">
        <ele>565.3</ele>
        <time>2020-11-11T11:52:13Z</time>
      </trkpt>
      <trkpt lat="39.8853270" lon="-0.3698200">
        <ele>565.6</ele>
        <time>2020-11-11T11:52:14Z</time>
      </trkpt>
      <trkpt lat="39.8853360" lon="-0.3698180">
        <ele>565.9</ele>
        <time>2020-11-11T11:52:15Z</time>
      </trkpt>
      <trkpt lat="39.8853460" lon="-0.3698200">
        <ele>566.2</ele>
        <time>2020-11-11T11:52:16Z</time>
      </trkpt>
      <trkpt lat="39.8853690" lon="-0.3698220">
        <ele>566.9</ele>
        <time>2020-11-11T11:52:20Z</time>
      </trkpt>
      <trkpt lat="39.8853680" lon="-0.3697970">
        <ele>567.5</ele>
        <time>2020-11-11T11:52:23Z</time>
      </trkpt>
      <trkpt lat="39.8853730" lon="-0.3697780">
        <ele>567.9</ele>
        <time>2020-11-11T11:52:26Z</time>
      </trkpt>
      <trkpt lat="39.8853770" lon="-0.3697770">
        <ele>568.1</ele>
        <time>2020-11-11T11:52:28Z</time>
      </trkpt>
      <trkpt lat="39.8853980" lon="-0.3697790">
        <ele>568.7</ele>
        <time>2020-11-11T11:52:32Z</time>
      </trkpt>
      <trkpt lat="39.8854350" lon="-0.3697810">
        <ele>569.6</ele>
        <time>2020-11-11T11:52:36Z</time>
      </trkpt>
      <trkpt lat="39.8854410" lon="-0.3697720">
        <ele>569.8</ele>
        <time>2020-11-11T11:52:37Z</time>
      </trkpt>
      <trkpt lat="39.8854370" lon="-0.3697220">
        <ele>570.6</ele>
        <time>2020-11-11T11:52:41Z</time>
      </trkpt>
      <trkpt lat="39.8853510" lon="-0.3695080">
        <ele>572.4</ele>
        <time>2020-11-11T11:52:55Z</time>
      </trkpt>
      <trkpt lat="39.8853350" lon="-0.3694770">
        <ele>572.6</ele>
        <time>2020-11-11T11:52:57Z</time>
      </trkpt>
      <trkpt lat="39.8852440" lon="-0.3692620">
        <ele>573.8</ele>
        <time>2020-11-11T11:53:12Z</time>
      </trkpt>
      <trkpt lat="39.8852250" lon="-0.3690300">
        <ele>574.9</ele>
        <time>2020-11-11T11:53:25Z</time>
      </trkpt>
      <trkpt lat="39.8852320" lon="-0.3689910">
        <ele>575.0</ele>
        <time>2020-11-11T11:53:27Z</time>
      </trkpt>
      <trkpt lat="39.8852430" lon="-0.3689390">
        <ele>575.2</ele>
        <time>2020-11-11T11:53:30Z</time>
      </trkpt>
      <trkpt lat="39.8852460" lon="-0.3689220">
        <ele>575.3</ele>
        <time>2020-11-11T11:53:31Z</time>
      </trkpt>
      <trkpt lat="39.8852610" lon="-0.3688910">
        <ele>575.4</ele>
        <time>2020-11-11T11:53:33Z</time>
      </trkpt>
      <trkpt lat="39.8853090" lon="-0.3688680">
        <ele>575.6</ele>
        <time>2020-11-11T11:53:37Z</time>
      </trkpt>
      <trkpt lat="39.8854030" lon="-0.3688850">
        <ele>576.0</ele>
        <time>2020-11-11T11:53:43Z</time>
      </trkpt>
      <trkpt lat="39.8854440" lon="-0.3688930">
        <ele>576.2</ele>
        <time>2020-11-11T11:53:47Z</time>
      </trkpt>
      <trkpt lat="39.8854730" lon="-0.3689230">
        <ele>576.3</ele>
        <time>2020-11-11T11:53:50Z</time>
      </trkpt>
      <trkpt lat="39.8854860" lon="-0.3689320">
        <ele>576.4</ele>
        <time>2020-11-11T11:53:51Z</time>
      </trkpt>
      <trkpt lat="39.8855250" lon="-0.3689480">
        <ele>576.5</ele>
        <time>2020-11-11T11:53:54Z</time>
      </trkpt>
      <trkpt lat="39.8857000" lon="-0.3688800">
        <ele>577.2</ele>
        <time>2020-11-11T11:54:10Z</time>
      </trkpt>
      <trkpt lat="39.8857680" lon="-0.3688210">
        <ele>577.6</ele>
        <time>2020-11-11T11:54:17Z</time>
      </trkpt>
      <trkpt lat="39.8857870" lon="-0.3687990">
        <ele>577.8</ele>
        <time>2020-11-11T11:54:19Z</time>
      </trkpt>
      <trkpt lat="39.8858640" lon="-0.3686930">
        <ele>578.4</ele>
        <time>2020-11-11T11:54:29Z</time>
      </trkpt>
      <trkpt lat="39.8858720" lon="-0.3686650">
        <ele>578.6</ele>
        <time>2020-11-11T11:54:31Z</time>
      </trkpt>
      <trkpt lat="39.8858740" lon="-0.3686260">
        <ele>578.9</ele>
        <time>2020-11-11T11:54:36Z</time>
      </trkpt>
      <trkpt lat="39.8858940" lon="-0.3686130">
        <ele>579.1</ele>
        <time>2020-11-11T11:54:39Z</time>
      </trkpt>
      <trkpt lat="39.8859410" lon="-0.3685610">
        <ele>579.8</ele>
        <time>2020-11-11T11:54:46Z</time>
      </trkpt>
      <trkpt lat="39.8859570" lon="-0.3685460">
        <ele>580.1</ele>
        <time>2020-11-11T11:54:53Z</time>
      </trkpt>
      <trkpt lat="39.8860080" lon="-0.3685400">
        <ele>580.7</ele>
        <time>2020-11-11T11:54:59Z</time>
      </trkpt>
      <trkpt lat="39.8860600" lon="-0.3685100">
        <ele>581.4</ele>
        <time>2020-11-11T11:55:05Z</time>
      </trkpt>
      <trkpt lat="39.8860810" lon="-0.3684880">
        <ele>581.7</ele>
        <time>2020-11-11T11:55:08Z</time>
      </trkpt>
      <trkpt lat="39.8861610" lon="-0.3684490">
        <ele>582.5</ele>
        <time>2020-11-11T11:55:15Z</time>
      </trkpt>
      <trkpt lat="39.8862180" lon="-0.3684600">
        <ele>583.0</ele>
        <time>2020-11-11T11:55:20Z</time>
      </trkpt>
      <trkpt lat="39.8862490" lon="-0.3684480">
        <ele>583.2</ele>
        <time>2020-11-11T11:55:23Z</time>
      </trkpt>
      <trkpt lat="39.8863400" lon="-0.3685000">
        <ele>584.2</ele>
        <time>2020-11-11T11:55:30Z</time>
      </trkpt>
      <trkpt lat="39.8863790" lon="-0.3684760">
        <ele>584.8</ele>
        <time>2020-11-11T11:55:36Z</time>
      </trkpt>
      <trkpt lat="39.8863900" lon="-0.3684840">
        <ele>585.0</ele>
        <time>2020-11-11T11:55:41Z</time>
      </trkpt>
      <trkpt lat="39.8864080" lon="-0.3684950">
        <ele>585.3</ele>
        <time>2020-11-11T11:55:45Z</time>
      </trkpt>
      <trkpt lat="39.8864410" lon="-0.3684990">
        <ele>585.8</ele>
        <time>2020-11-11T11:55:49Z</time>
      </trkpt>
      <trkpt lat="39.8864870" lon="-0.3685070">
        <ele>586.5</ele>
        <time>2020-11-11T11:55:55Z</time>
      </trkpt>
      <trkpt lat="39.8865080" lon="-0.3684800">
        <ele>587.0</ele>
        <time>2020-11-11T11:55:59Z</time>
      </trkpt>
      <trkpt lat="39.8865370" lon="-0.3684850">
        <ele>587.4</ele>
        <time>2020-11-11T11:56:01Z</time>
      </trkpt>
      <trkpt lat="39.8866170" lon="-0.3684880">
        <ele>588.6</ele>
        <time>2020-11-11T11:56:08Z</time>
      </trkpt>
      <trkpt lat="39.8866330" lon="-0.3684720">
        <ele>588.9</ele>
        <time>2020-11-11T11:56:12Z</time>
      </trkpt>
      <trkpt lat="39.8866470" lon="-0.3684590">
        <ele>589.1</ele>
        <time>2020-11-11T11:56:15Z</time>
      </trkpt>
      <trkpt lat="39.8866710" lon="-0.3684070">
        <ele>589.7</ele>
        <time>2020-11-11T11:56:20Z</time>
      </trkpt>
      <trkpt lat="39.8867140" lon="-0.3683670">
        <ele>590.4</ele>
        <time>2020-11-11T11:56:25Z</time>
      </trkpt>
      <trkpt lat="39.8867480" lon="-0.3683310">
        <ele>590.8</ele>
        <time>2020-11-11T11:56:28Z</time>
      </trkpt>
      <trkpt lat="39.8867600" lon="-0.3683270">
        <ele>590.9</ele>
        <time>2020-11-11T11:56:30Z</time>
      </trkpt>
      <trkpt lat="39.8867740" lon="-0.3683240">
        <ele>591.0</ele>
        <time>2020-11-11T11:56:33Z</time>
      </trkpt>
      <trkpt lat="39.8868080" lon="-0.3682670">
        <ele>591.4</ele>
        <time>2020-11-11T11:56:40Z</time>
      </trkpt>
      <trkpt lat="39.8868090" lon="-0.3682560">
        <ele>591.5</ele>
        <time>2020-11-11T11:56:41Z</time>
      </trkpt>
      <trkpt lat="39.8868080" lon="-0.3682430">
        <ele>591.5</ele>
        <time>2020-11-11T11:56:42Z</time>
      </trkpt>
      <trkpt lat="39.8868220" lon="-0.3682040">
        <ele>591.7</ele>
        <time>2020-11-11T11:56:45Z</time>
      </trkpt>
      <trkpt lat="39.8868530" lon="-0.3681560">
        <ele>591.8</ele>
        <time>2020-11-11T11:56:50Z</time>
      </trkpt>
      <trkpt lat="39.8868680" lon="-0.3681230">
        <ele>591.9</ele>
        <time>2020-11-11T11:56:52Z</time>
      </trkpt>
      <trkpt lat="39.8869490" lon="-0.3679150">
        <ele>592.0</ele>
        <time>2020-11-11T11:57:06Z</time>
      </trkpt>
      <trkpt lat="39.8869660" lon="-0.3678580">
        <ele>592.1</ele>
        <time>2020-11-11T11:57:10Z</time>
      </trkpt>
      <trkpt lat="39.8870160" lon="-0.3677190">
        <ele>592.5</ele>
        <time>2020-11-11T11:57:20Z</time>
      </trkpt>
      <trkpt lat="39.8870230" lon="-0.3677200">
        <ele>592.5</ele>
        <time>2020-11-11T11:57:21Z</time>
      </trkpt>
      <trkpt lat="39.8870370" lon="-0.3677240">
        <ele>592.6</ele>
        <time>2020-11-11T11:57:23Z</time>
      </trkpt>
      <trkpt lat="39.8870550" lon="-0.3677300">
        <ele>592.8</ele>
        <time>2020-11-11T11:57:26Z</time>
      </trkpt>
      <trkpt lat="39.8870840" lon="-0.3677330">
        <ele>593.1</ele>
        <time>2020-11-11T11:57:32Z</time>
      </trkpt>
      <trkpt lat="39.8870920" lon="-0.3677300">
        <ele>593.2</ele>
        <time>2020-11-11T11:57:35Z</time>
      </trkpt>
      <trkpt lat="39.8870950" lon="-0.3677310">
        <ele>593.2</ele>
        <time>2020-11-11T11:57:36Z</time>
      </trkpt>
      <trkpt lat="39.8870940" lon="-0.3677340">
        <ele>593.2</ele>
        <time>2020-11-11T11:57:37Z</time>
      </trkpt>
      <trkpt lat="39.8871540" lon="-0.3676470">
        <ele>594.5</ele>
        <time>2020-11-11T11:57:51Z</time>
      </trkpt>
      <trkpt lat="39.8871750" lon="-0.3675840">
        <ele>595.3</ele>
        <time>2020-11-11T11:57:56Z</time>
      </trkpt>
      <trkpt lat="39.8871720" lon="-0.3675150">
        <ele>596.0</ele>
        <time>2020-11-11T11:58:00Z</time>
      </trkpt>
      <trkpt lat="39.8871970" lon="-0.3674800">
        <ele>596.5</ele>
        <time>2020-11-11T11:58:03Z</time>
      </trkpt>
      <trkpt lat="39.8872290" lon="-0.3674120">
        <ele>597.3</ele>
        <time>2020-11-11T11:58:09Z</time>
      </trkpt>
      <trkpt lat="39.8872430" lon="-0.3673490">
        <ele>598.0</ele>
        <time>2020-11-11T11:58:14Z</time>
      </trkpt>
      <trkpt lat="39.8872550" lon="-0.3672720">
        <ele>598.6</ele>
        <time>2020-11-11T11:58:19Z</time>
      </trkpt>
      <trkpt lat="39.8872610" lon="-0.3672190">
        <ele>598.9</ele>
        <time>2020-11-11T11:58:24Z</time>
      </trkpt>
      <trkpt lat="39.8872620" lon="-0.3672210">
        <ele>598.9</ele>
        <time>2020-11-11T11:58:26Z</time>
      </trkpt>
      <trkpt lat="39.8872730" lon="-0.3672090">
        <ele>599.0</ele>
        <time>2020-11-11T11:58:31Z</time>
      </trkpt>
      <trkpt lat="39.8872780" lon="-0.3672120">
        <ele>599.0</ele>
        <time>2020-11-11T11:58:34Z</time>
      </trkpt>
      <trkpt lat="39.8873120" lon="-0.3672110">
        <ele>599.2</ele>
        <time>2020-11-11T11:58:37Z</time>
      </trkpt>
      <trkpt lat="39.8873320" lon="-0.3672060">
        <ele>599.2</ele>
        <time>2020-11-11T11:58:39Z</time>
      </trkpt>
      <trkpt lat="39.8873920" lon="-0.3671360">
        <ele>599.3</ele>
        <time>2020-11-11T11:58:46Z</time>
      </trkpt>
      <trkpt lat="39.8874130" lon="-0.3670950">
        <ele>599.3</ele>
        <time>2020-11-11T11:58:52Z</time>
      </trkpt>
      <trkpt lat="39.8874170" lon="-0.3670880">
        <ele>599.4</ele>
        <time>2020-11-11T11:58:53Z</time>
      </trkpt>
      <trkpt lat="39.8874330" lon="-0.3670640">
        <ele>599.4</ele>
        <time>2020-11-11T11:58:55Z</time>
      </trkpt>
      <trkpt lat="39.8874290" lon="-0.3669870">
        <ele>599.7</ele>
        <time>2020-11-11T11:59:03Z</time>
      </trkpt>
      <trkpt lat="39.8874210" lon="-0.3669380">
        <ele>600.0</ele>
        <time>2020-11-11T11:59:07Z</time>
      </trkpt>
      <trkpt lat="39.8874280" lon="-0.3669220">
        <ele>600.1</ele>
        <time>2020-11-11T11:59:09Z</time>
      </trkpt>
      <trkpt lat="39.8874440" lon="-0.3668870">
        <ele>600.4</ele>
        <time>2020-11-11T11:59:13Z</time>
      </trkpt>
      <trkpt lat="39.8874420" lon="-0.3668590">
        <ele>600.7</ele>
        <time>2020-11-11T11:59:15Z</time>
      </trkpt>
      <trkpt lat="39.8874500" lon="-0.3668160">
        <ele>601.1</ele>
        <time>2020-11-11T11:59:18Z</time>
      </trkpt>
      <trkpt lat="39.8874540" lon="-0.3668050">
        <ele>601.2</ele>
        <time>2020-11-11T11:59:19Z</time>
      </trkpt>
      <trkpt lat="39.8874650" lon="-0.3667740">
        <ele>601.5</ele>
        <time>2020-11-11T11:59:22Z</time>
      </trkpt>
      <trkpt lat="39.8874840" lon="-0.3667420">
        <ele>601.9</ele>
        <time>2020-11-11T11:59:24Z</time>
      </trkpt>
      <trkpt lat="39.8875160" lon="-0.3666870">
        <ele>602.5</ele>
        <time>2020-11-11T11:59:29Z</time>
      </trkpt>
      <trkpt lat="39.8875460" lon="-0.3665380">
        <ele>603.3</ele>
        <time>2020-11-11T11:59:38Z</time>
      </trkpt>
      <trkpt lat="39.8875550" lon="-0.3664760">
        <ele>603.6</ele>
        <time>2020-11-11T11:59:41Z</time>
      </trkpt>
      <trkpt lat="39.8875670" lon="-0.3664310">
        <ele>603.7</ele>
        <time>2020-11-11T11:59:44Z</time>
      </trkpt>
      <trkpt lat="39.8875740" lon="-0.3664140">
        <ele>603.8</ele>
        <time>2020-11-11T11:59:46Z</time>
      </trkpt>
      <trkpt lat="39.8875820" lon="-0.3663880">
        <ele>603.9</ele>
        <time>2020-11-11T11:59:48Z</time>
      </trkpt>
      <trkpt lat="39.8875640" lon="-0.3663250">
        <ele>604.3</ele>
        <time>2020-11-11T11:59:53Z</time>
      </trkpt>
      <trkpt lat="39.8875600" lon="-0.3663140">
        <ele>604.4</ele>
        <time>2020-11-11T11:59:54Z</time>
      </trkpt>
      <trkpt lat="39.8875400" lon="-0.3661390">
        <ele>605.7</ele>
        <time>2020-11-11T12:00:07Z</time>
      </trkpt>
      <trkpt lat="39.8875390" lon="-0.3660920">
        <ele>606.1</ele>
        <time>2020-11-11T12:00:09Z</time>
      </trkpt>
      <trkpt lat="39.8875450" lon="-0.3660740">
        <ele>606.2</ele>
        <time>2020-11-11T12:00:10Z</time>
      </trkpt>
      <trkpt lat="39.8875770" lon="-0.3660350">
        <ele>606.4</ele>
        <time>2020-11-11T12:00:13Z</time>
      </trkpt>
      <trkpt lat="39.8877320" lon="-0.3659330">
        <ele>606.9</ele>
        <time>2020-11-11T12:00:25Z</time>
      </trkpt>
      <trkpt lat="39.8877660" lon="-0.3658920">
        <ele>607.0</ele>
        <time>2020-11-11T12:00:29Z</time>
      </trkpt>
      <trkpt lat="39.8877820" lon="-0.3658660">
        <ele>607.1</ele>
        <time>2020-11-11T12:00:31Z</time>
      </trkpt>
      <trkpt lat="39.8878870" lon="-0.3657590">
        <ele>607.6</ele>
        <time>2020-11-11T12:00:40Z</time>
      </trkpt>
      <trkpt lat="39.8879680" lon="-0.3657380">
        <ele>608.3</ele>
        <time>2020-11-11T12:00:46Z</time>
      </trkpt>
      <trkpt lat="39.8881440" lon="-0.3657280">
        <ele>609.6</ele>
        <time>2020-11-11T12:01:07Z</time>
      </trkpt>
      <trkpt lat="39.8881980" lon="-0.3656690">
        <ele>610.0</ele>
        <time>2020-11-11T12:01:13Z</time>
      </trkpt>
      <trkpt lat="39.8882610" lon="-0.3655030">
        <ele>610.8</ele>
        <time>2020-11-11T12:01:23Z</time>
      </trkpt>
      <trkpt lat="39.8882960" lon="-0.3654110">
        <ele>611.3</ele>
        <time>2020-11-11T12:01:29Z</time>
      </trkpt>
      <trkpt lat="39.8883030" lon="-0.3653840">
        <ele>611.4</ele>
        <time>2020-11-11T12:01:31Z</time>
      </trkpt>
      <trkpt lat="39.8883070" lon="-0.3653680">
        <ele>611.5</ele>
        <time>2020-11-11T12:01:32Z</time>
      </trkpt>
      <trkpt lat="39.8883120" lon="-0.3653510">
        <ele>611.6</ele>
        <time>2020-11-11T12:01:33Z</time>
      </trkpt>
      <trkpt lat="39.8883210" lon="-0.3653390">
        <ele>611.7</ele>
        <time>2020-11-11T12:01:34Z</time>
      </trkpt>
      <trkpt lat="39.8883320" lon="-0.3653330">
        <ele>611.8</ele>
        <time>2020-11-11T12:01:35Z</time>
      </trkpt>
      <trkpt lat="39.8883520" lon="-0.3653090">
        <ele>611.9</ele>
        <time>2020-11-11T12:01:37Z</time>
      </trkpt>
      <trkpt lat="39.8883670" lon="-0.3652990">
        <ele>612.0</ele>
        <time>2020-11-11T12:01:39Z</time>
      </trkpt>
      <trkpt lat="39.8883760" lon="-0.3653050">
        <ele>612.1</ele>
        <time>2020-11-11T12:01:40Z</time>
      </trkpt>
      <trkpt lat="39.8883890" lon="-0.3653120">
        <ele>612.2</ele>
        <time>2020-11-11T12:01:41Z</time>
      </trkpt>
      <trkpt lat="39.8884050" lon="-0.3653050">
        <ele>612.3</ele>
        <time>2020-11-11T12:01:43Z</time>
      </trkpt>
      <trkpt lat="39.8884420" lon="-0.3653050">
        <ele>612.5</ele>
        <time>2020-11-11T12:01:47Z</time>
      </trkpt>
      <trkpt lat="39.8884870" lon="-0.3652930">
        <ele>612.9</ele>
        <time>2020-11-11T12:01:51Z</time>
      </trkpt>
      <trkpt lat="39.8885010" lon="-0.3652940">
        <ele>613.0</ele>
        <time>2020-11-11T12:01:52Z</time>
      </trkpt>
      <trkpt lat="39.8885160" lon="-0.3652970">
        <ele>613.2</ele>
        <time>2020-11-11T12:01:53Z</time>
      </trkpt>
      <trkpt lat="39.8885570" lon="-0.3652880">
        <ele>613.6</ele>
        <time>2020-11-11T12:01:56Z</time>
      </trkpt>
      <trkpt lat="39.8885700" lon="-0.3652800">
        <ele>613.8</ele>
        <time>2020-11-11T12:01:57Z</time>
      </trkpt>
      <trkpt lat="39.8885800" lon="-0.3652770">
        <ele>613.9</ele>
        <time>2020-11-11T12:01:58Z</time>
      </trkpt>
      <trkpt lat="39.8886240" lon="-0.3652590">
        <ele>614.4</ele>
        <time>2020-11-11T12:02:01Z</time>
      </trkpt>
      <trkpt lat="39.8886530" lon="-0.3652050">
        <ele>614.9</ele>
        <time>2020-11-11T12:02:05Z</time>
      </trkpt>
      <trkpt lat="39.8886770" lon="-0.3652040">
        <ele>615.1</ele>
        <time>2020-11-11T12:02:08Z</time>
      </trkpt>
      <trkpt lat="39.8887480" lon="-0.3652720">
        <ele>615.7</ele>
        <time>2020-11-11T12:02:16Z</time>
      </trkpt>
      <trkpt lat="39.8888760" lon="-0.3654100">
        <ele>617.1</ele>
        <time>2020-11-11T12:02:30Z</time>
      </trkpt>
      <trkpt lat="39.8889790" lon="-0.3654420">
        <ele>618.0</ele>
        <time>2020-11-11T12:02:38Z</time>
      </trkpt>
      <trkpt lat="39.8890020" lon="-0.3654460">
        <ele>618.2</ele>
        <time>2020-11-11T12:02:40Z</time>
      </trkpt>
      <trkpt lat="39.8890630" lon="-0.3654450">
        <ele>618.8</ele>
        <time>2020-11-11T12:02:46Z</time>
      </trkpt>
      <trkpt lat="39.8891600" lon="-0.3654210">
        <ele>620.0</ele>
        <time>2020-11-11T12:02:55Z</time>
      </trkpt>
      <trkpt lat="39.8891700" lon="-0.3654180">
        <ele>620.2</ele>
        <time>2020-11-11T12:02:56Z</time>
      </trkpt>
      <trkpt lat="39.8892260" lon="-0.3653980">
        <ele>621.2</ele>
        <time>2020-11-11T12:03:02Z</time>
      </trkpt>
      <trkpt lat="39.8892930" lon="-0.3654270">
        <ele>622.5</ele>
        <time>2020-11-11T12:03:12Z</time>
      </trkpt>
      <trkpt lat="39.8892930" lon="-0.3654400">
        <ele>622.7</ele>
        <time>2020-11-11T12:03:13Z</time>
      </trkpt>
      <trkpt lat="39.8893390" lon="-0.3656670">
        <ele>624.9</ele>
        <time>2020-11-11T12:03:30Z</time>
      </trkpt>
      <trkpt lat="39.8893640" lon="-0.3657220">
        <ele>625.1</ele>
        <time>2020-11-11T12:03:34Z</time>
      </trkpt>
      <trkpt lat="39.8893720" lon="-0.3657290">
        <ele>625.1</ele>
        <time>2020-11-11T12:03:35Z</time>
      </trkpt>
      <trkpt lat="39.8893970" lon="-0.3657680">
        <ele>625.2</ele>
        <time>2020-11-11T12:03:38Z</time>
      </trkpt>
      <trkpt lat="39.8894140" lon="-0.3657980">
        <ele>625.3</ele>
        <time>2020-11-11T12:03:40Z</time>
      </trkpt>
      <trkpt lat="39.8894220" lon="-0.3658130">
        <ele>625.3</ele>
        <time>2020-11-11T12:03:41Z</time>
      </trkpt>
      <trkpt lat="39.8894520" lon="-0.3658700">
        <ele>625.4</ele>
        <time>2020-11-11T12:03:45Z</time>
      </trkpt>
      <trkpt lat="39.8894580" lon="-0.3658840">
        <ele>625.5</ele>
        <time>2020-11-11T12:03:46Z</time>
      </trkpt>
      <trkpt lat="39.8894650" lon="-0.3658970">
        <ele>625.5</ele>
        <time>2020-11-11T12:03:47Z</time>
      </trkpt>
      <trkpt lat="39.8894980" lon="-0.3660110">
        <ele>625.9</ele>
        <time>2020-11-11T12:03:54Z</time>
      </trkpt>
      <trkpt lat="39.8895310" lon="-0.3661160">
        <ele>626.7</ele>
        <time>2020-11-11T12:04:01Z</time>
      </trkpt>
      <trkpt lat="39.8895360" lon="-0.3661320">
        <ele>626.8</ele>
        <time>2020-11-11T12:04:02Z</time>
      </trkpt>
      <trkpt lat="39.8895710" lon="-0.3661700">
        <ele>627.5</ele>
        <time>2020-11-11T12:04:08Z</time>
      </trkpt>
      <trkpt lat="39.8896460" lon="-0.3661420">
        <ele>628.9</ele>
        <time>2020-11-11T12:04:18Z</time>
      </trkpt>
      <trkpt lat="39.8896430" lon="-0.3661140">
        <ele>629.4</ele>
        <time>2020-11-11T12:04:23Z</time>
      </trkpt>
      <trkpt lat="39.8896430" lon="-0.3661150">
        <ele>629.4</ele>
        <time>2020-11-11T12:04:24Z</time>
      </trkpt>
      <trkpt lat="39.8896690" lon="-0.3660830">
        <ele>630.3</ele>
        <time>2020-11-11T12:04:28Z</time>
      </trkpt>
      <trkpt lat="39.8896840" lon="-0.3660850">
        <ele>630.7</ele>
        <time>2020-11-11T12:04:30Z</time>
      </trkpt>
      <trkpt lat="39.8896910" lon="-0.3660920">
        <ele>630.9</ele>
        <time>2020-11-11T12:04:31Z</time>
      </trkpt>
      <trkpt lat="39.8897240" lon="-0.3661310">
        <ele>632.0</ele>
        <time>2020-11-11T12:04:35Z</time>
      </trkpt>
      <trkpt lat="39.8897680" lon="-0.3661500">
        <ele>633.2</ele>
        <time>2020-11-11T12:04:40Z</time>
      </trkpt>
      <trkpt lat="39.8897910" lon="-0.3662160">
        <ele>634.5</ele>
        <time>2020-11-11T12:04:45Z</time>
      </trkpt>
      <trkpt lat="39.8897950" lon="-0.3662250">
        <ele>634.7</ele>
        <time>2020-11-11T12:04:47Z</time>
      </trkpt>
      <trkpt lat="39.8898000" lon="-0.3662210">
        <ele>634.9</ele>
        <time>2020-11-11T12:04:49Z</time>
      </trkpt>
      <trkpt lat="39.8898080" lon="-0.3662530">
        <ele>635.5</ele>
        <time>2020-11-11T12:04:52Z</time>
      </trkpt>
      <trkpt lat="39.8898380" lon="-0.3662890">
        <ele>636.2</ele>
        <time>2020-11-11T12:04:56Z</time>
      </trkpt>
      <trkpt lat="39.8898820" lon="-0.3663500">
        <ele>636.9</ele>
        <time>2020-11-11T12:05:04Z</time>
      </trkpt>
      <trkpt lat="39.8898630" lon="-0.3663580">
        <ele>637.1</ele>
        <time>2020-11-11T12:05:10Z</time>
      </trkpt>
      <trkpt lat="39.8898630" lon="-0.3663520">
        <ele>637.2</ele>
        <time>2020-11-11T12:05:12Z</time>
      </trkpt>
      <trkpt lat="39.8898590" lon="-0.3663510">
        <ele>637.2</ele>
        <time>2020-11-11T12:05:17Z</time>
      </trkpt>
      <trkpt lat="39.8898540" lon="-0.3663450">
        <ele>637.3</ele>
        <time>2020-11-11T12:05:20Z</time>
      </trkpt>
      <trkpt lat="39.8898540" lon="-0.3663450">
        <ele>637.3</ele>
        <time>2020-11-11T12:05:22Z</time>
      </trkpt>
      <trkpt lat="39.8900060" lon="-0.3667780">
        <ele>644.7</ele>
        <time>2020-11-11T12:06:43Z</time>
      </trkpt>
      <trkpt lat="39.8900060" lon="-0.3667870">
        <ele>644.8</ele>
        <time>2020-11-11T12:06:44Z</time>
      </trkpt>
      <trkpt lat="39.8900060" lon="-0.3667890">
        <ele>644.8</ele>
        <time>2020-11-11T12:06:45Z</time>
      </trkpt>
      <trkpt lat="39.8900060" lon="-0.3667900">
        <ele>644.8</ele>
        <time>2020-11-11T12:06:47Z</time>
      </trkpt>
      <trkpt lat="39.8900050" lon="-0.3667870">
        <ele>644.8</ele>
        <time>2020-11-11T12:06:48Z</time>
      </trkpt>
      <trkpt lat="39.8900030" lon="-0.3667860">
        <ele>644.8</ele>
        <time>2020-11-11T12:06:50Z</time>
      </trkpt>
      <trkpt lat="39.8900020" lon="-0.3667870">
        <ele>644.9</ele>
        <time>2020-11-11T12:06:51Z</time>
      </trkpt>
      <trkpt lat="39.8899960" lon="-0.3667930">
        <ele>645.0</ele>
        <time>2020-11-11T12:06:52Z</time>
      </trkpt>
      <trkpt lat="39.8899920" lon="-0.3667990">
        <ele>645.0</ele>
        <time>2020-11-11T12:06:53Z</time>
      </trkpt>
      <trkpt lat="39.8899870" lon="-0.3668130">
        <ele>645.2</ele>
        <time>2020-11-11T12:06:55Z</time>
      </trkpt>
      <trkpt lat="39.8899830" lon="-0.3668220">
        <ele>645.3</ele>
        <time>2020-11-11T12:06:56Z</time>
      </trkpt>
      <trkpt lat="39.8899800" lon="-0.3668310">
        <ele>645.4</ele>
        <time>2020-11-11T12:06:57Z</time>
      </trkpt>
      <trkpt lat="39.8899780" lon="-0.3668410">
        <ele>645.5</ele>
        <time>2020-11-11T12:06:58Z</time>
      </trkpt>
      <trkpt lat="39.8899760" lon="-0.3668580">
        <ele>645.6</ele>
        <time>2020-11-11T12:07:00Z</time>
      </trkpt>
      <trkpt lat="39.8899800" lon="-0.3668710">
        <ele>645.8</ele>
        <time>2020-11-11T12:07:01Z</time>
      </trkpt>
      <trkpt lat="39.8899840" lon="-0.3668860">
        <ele>645.9</ele>
        <time>2020-11-11T12:07:02Z</time>
      </trkpt>
      <trkpt lat="39.8899900" lon="-0.3669030">
        <ele>646.1</ele>
        <time>2020-11-11T12:07:04Z</time>
      </trkpt>
      <trkpt lat="39.8900080" lon="-0.3669310">
        <ele>646.4</ele>
        <time>2020-11-11T12:07:06Z</time>
      </trkpt>
      <trkpt lat="39.8900350" lon="-0.3669660">
        <ele>646.8</ele>
        <time>2020-11-11T12:07:08Z</time>
      </trkpt>
      <trkpt lat="39.8900600" lon="-0.3669880">
        <ele>647.1</ele>
        <time>2020-11-11T12:07:09Z</time>
      </trkpt>
      <trkpt lat="39.8900690" lon="-0.3669940">
        <ele>647.2</ele>
        <time>2020-11-11T12:07:10Z</time>
      </trkpt>
      <trkpt lat="39.8900890" lon="-0.3670060">
        <ele>647.4</ele>
        <time>2020-11-11T12:07:11Z</time>
      </trkpt>
      <trkpt lat="39.8901070" lon="-0.3670180">
        <ele>647.5</ele>
        <time>2020-11-11T12:07:13Z</time>
      </trkpt>
      <trkpt lat="39.8901360" lon="-0.3670330">
        <ele>647.8</ele>
        <time>2020-11-11T12:07:14Z</time>
      </trkpt>
      <trkpt lat="39.8901490" lon="-0.3670390">
        <ele>647.9</ele>
        <time>2020-11-11T12:07:15Z</time>
      </trkpt>
      <trkpt lat="39.8901770" lon="-0.3670490">
        <ele>648.1</ele>
        <time>2020-11-11T12:07:16Z</time>
      </trkpt>
      <trkpt lat="39.8902080" lon="-0.3670620">
        <ele>648.3</ele>
        <time>2020-11-11T12:07:17Z</time>
      </trkpt>
      <trkpt lat="39.8902200" lon="-0.3670660">
        <ele>648.4</ele>
        <time>2020-11-11T12:07:18Z</time>
      </trkpt>
      <trkpt lat="39.8902460" lon="-0.3670710">
        <ele>648.6</ele>
        <time>2020-11-11T12:07:19Z</time>
      </trkpt>
      <trkpt lat="39.8902800" lon="-0.3670720">
        <ele>648.8</ele>
        <time>2020-11-11T12:07:21Z</time>
      </trkpt>
      <trkpt lat="39.8903190" lon="-0.3670750">
        <ele>649.0</ele>
        <time>2020-11-11T12:07:22Z</time>
      </trkpt>
      <trkpt lat="39.8903330" lon="-0.3670780">
        <ele>649.0</ele>
        <time>2020-11-11T12:07:23Z</time>
      </trkpt>
      <trkpt lat="39.8903610" lon="-0.3670800">
        <ele>649.1</ele>
        <time>2020-11-11T12:07:25Z</time>
      </trkpt>
      <trkpt lat="39.8903950" lon="-0.3670720">
        <ele>649.2</ele>
        <time>2020-11-11T12:07:27Z</time>
      </trkpt>
      <trkpt lat="39.8904110" lon="-0.3670660">
        <ele>649.3</ele>
        <time>2020-11-11T12:07:28Z</time>
      </trkpt>
      <trkpt lat="39.8904250" lon="-0.3670590">
        <ele>649.3</ele>
        <time>2020-11-11T12:07:29Z</time>
      </trkpt>
      <trkpt lat="39.8904400" lon="-0.3670490">
        <ele>649.4</ele>
        <time>2020-11-11T12:07:30Z</time>
      </trkpt>
      <trkpt lat="39.8904560" lon="-0.3670390">
        <ele>649.4</ele>
        <time>2020-11-11T12:07:31Z</time>
      </trkpt>
      <trkpt lat="39.8904780" lon="-0.3670260">
        <ele>649.5</ele>
        <time>2020-11-11T12:07:33Z</time>
      </trkpt>
      <trkpt lat="39.8905010" lon="-0.3670080">
        <ele>649.5</ele>
        <time>2020-11-11T12:07:35Z</time>
      </trkpt>
      <trkpt lat="39.8905150" lon="-0.3669930">
        <ele>649.5</ele>
        <time>2020-11-11T12:07:36Z</time>
      </trkpt>
      <trkpt lat="39.8905280" lon="-0.3669800">
        <ele>649.5</ele>
        <time>2020-11-11T12:07:37Z</time>
      </trkpt>
      <trkpt lat="39.8905400" lon="-0.3669660">
        <ele>649.6</ele>
        <time>2020-11-11T12:07:38Z</time>
      </trkpt>
      <trkpt lat="39.8905630" lon="-0.3669360">
        <ele>649.6</ele>
        <time>2020-11-11T12:07:40Z</time>
      </trkpt>
      <trkpt lat="39.8905790" lon="-0.3669020">
        <ele>649.6</ele>
        <time>2020-11-11T12:07:41Z</time>
      </trkpt>
      <trkpt lat="39.8905820" lon="-0.3668930">
        <ele>649.6</ele>
        <time>2020-11-11T12:07:42Z</time>
      </trkpt>
      <trkpt lat="39.8905980" lon="-0.3668560">
        <ele>649.7</ele>
        <time>2020-11-11T12:07:44Z</time>
      </trkpt>
      <trkpt lat="39.8906030" lon="-0.3668430">
        <ele>649.7</ele>
        <time>2020-11-11T12:07:45Z</time>
      </trkpt>
      <trkpt lat="39.8906090" lon="-0.3668250">
        <ele>649.7</ele>
        <time>2020-11-11T12:07:46Z</time>
      </trkpt>
      <trkpt lat="39.8906170" lon="-0.3668010">
        <ele>649.7</ele>
        <time>2020-11-11T12:07:48Z</time>
      </trkpt>
      <trkpt lat="39.8906230" lon="-0.3667790">
        <ele>649.7</ele>
        <time>2020-11-11T12:07:49Z</time>
      </trkpt>
      <trkpt lat="39.8906270" lon="-0.3667620">
        <ele>649.7</ele>
        <time>2020-11-11T12:07:50Z</time>
      </trkpt>
      <trkpt lat="39.8906320" lon="-0.3667360">
        <ele>649.7</ele>
        <time>2020-11-11T12:07:52Z</time>
      </trkpt>
      <trkpt lat="39.8906340" lon="-0.3667200">
        <ele>649.7</ele>
        <time>2020-11-11T12:07:53Z</time>
      </trkpt>
      <trkpt lat="39.8906340" lon="-0.3666940">
        <ele>649.7</ele>
        <time>2020-11-11T12:07:54Z</time>
      </trkpt>
      <trkpt lat="39.8906340" lon="-0.3666750">
        <ele>649.8</ele>
        <time>2020-11-11T12:07:56Z</time>
      </trkpt>
      <trkpt lat="39.8906330" lon="-0.3666590">
        <ele>649.8</ele>
        <time>2020-11-11T12:07:57Z</time>
      </trkpt>
      <trkpt lat="39.8906320" lon="-0.3666450">
        <ele>649.8</ele>
        <time>2020-11-11T12:07:59Z</time>
      </trkpt>
      <trkpt lat="39.8906300" lon="-0.3666370">
        <ele>649.8</ele>
        <time>2020-11-11T12:08:00Z</time>
      </trkpt>
      <trkpt lat="39.8906240" lon="-0.3666220">
        <ele>649.8</ele>
        <time>2020-11-11T12:08:01Z</time>
      </trkpt>
      <trkpt lat="39.8906170" lon="-0.3666120">
        <ele>649.8</ele>
        <time>2020-11-11T12:08:03Z</time>
      </trkpt>
      <trkpt lat="39.8906110" lon="-0.3666010">
        <ele>649.8</ele>
        <time>2020-11-11T12:08:04Z</time>
      </trkpt>
      <trkpt lat="39.8906100" lon="-0.3665910">
        <ele>649.8</ele>
        <time>2020-11-11T12:08:05Z</time>
      </trkpt>
      <trkpt lat="39.8906100" lon="-0.3665780">
        <ele>649.8</ele>
        <time>2020-11-11T12:08:07Z</time>
      </trkpt>
      <trkpt lat="39.8906060" lon="-0.3665650">
        <ele>649.8</ele>
        <time>2020-11-11T12:08:09Z</time>
      </trkpt>
      <trkpt lat="39.8906000" lon="-0.3665550">
        <ele>649.8</ele>
        <time>2020-11-11T12:08:10Z</time>
      </trkpt>
      <trkpt lat="39.8905940" lon="-0.3665500">
        <ele>649.8</ele>
        <time>2020-11-11T12:08:11Z</time>
      </trkpt>
      <trkpt lat="39.8905850" lon="-0.3665480">
        <ele>649.8</ele>
        <time>2020-11-11T12:08:12Z</time>
      </trkpt>
      <trkpt lat="39.8905770" lon="-0.3665470">
        <ele>649.8</ele>
        <time>2020-11-11T12:08:14Z</time>
      </trkpt>
      <trkpt lat="39.8905620" lon="-0.3665580">
        <ele>649.8</ele>
        <time>2020-11-11T12:08:16Z</time>
      </trkpt>
      <trkpt lat="39.8905490" lon="-0.3665700">
        <ele>649.8</ele>
        <time>2020-11-11T12:08:17Z</time>
      </trkpt>
      <trkpt lat="39.8905370" lon="-0.3665840">
        <ele>649.8</ele>
        <time>2020-11-11T12:08:19Z</time>
      </trkpt>
      <trkpt lat="39.8905280" lon="-0.3665930">
        <ele>649.8</ele>
        <time>2020-11-11T12:08:20Z</time>
      </trkpt>
      <trkpt lat="39.8905220" lon="-0.3665970">
        <ele>649.8</ele>
        <time>2020-11-11T12:08:21Z</time>
      </trkpt>
      <trkpt lat="39.8905120" lon="-0.3665970">
        <ele>649.8</ele>
        <time>2020-11-11T12:08:23Z</time>
      </trkpt>
      <trkpt lat="39.8905040" lon="-0.3665920">
        <ele>649.8</ele>
        <time>2020-11-11T12:08:25Z</time>
      </trkpt>
      <trkpt lat="39.8905040" lon="-0.3665820">
        <ele>649.9</ele>
        <time>2020-11-11T12:08:27Z</time>
      </trkpt>
      <trkpt lat="39.8905120" lon="-0.3665800">
        <ele>649.9</ele>
        <time>2020-11-11T12:08:28Z</time>
      </trkpt>
      <trkpt lat="39.8905300" lon="-0.3665830">
        <ele>649.9</ele>
        <time>2020-11-11T12:08:29Z</time>
      </trkpt>
      <trkpt lat="39.8905400" lon="-0.3665860">
        <ele>649.9</ele>
        <time>2020-11-11T12:08:31Z</time>
      </trkpt>
      <trkpt lat="39.8905490" lon="-0.3665910">
        <ele>649.9</ele>
        <time>2020-11-11T12:08:32Z</time>
      </trkpt>
      <trkpt lat="39.8905590" lon="-0.3666000">
        <ele>649.9</ele>
        <time>2020-11-11T12:08:33Z</time>
      </trkpt>
      <trkpt lat="39.8905700" lon="-0.3666140">
        <ele>650.0</ele>
        <time>2020-11-11T12:08:34Z</time>
      </trkpt>
      <trkpt lat="39.8905830" lon="-0.3666350">
        <ele>650.0</ele>
        <time>2020-11-11T12:08:36Z</time>
      </trkpt>
      <trkpt lat="39.8905970" lon="-0.3666630">
        <ele>650.1</ele>
        <time>2020-11-11T12:08:37Z</time>
      </trkpt>
      <trkpt lat="39.8906030" lon="-0.3666750">
        <ele>650.2</ele>
        <time>2020-11-11T12:08:38Z</time>
      </trkpt>
      <trkpt lat="39.8906330" lon="-0.3666940">
        <ele>650.6</ele>
        <time>2020-11-11T12:08:39Z</time>
      </trkpt>
      <trkpt lat="39.8906840" lon="-0.3667090">
        <ele>651.5</ele>
        <time>2020-11-11T12:08:41Z</time>
      </trkpt>
      <trkpt lat="39.8907570" lon="-0.3667420">
        <ele>652.9</ele>
        <time>2020-11-11T12:08:42Z</time>
      </trkpt>
      <trkpt lat="39.8907870" lon="-0.3667580">
        <ele>653.8</ele>
        <time>2020-11-11T12:08:43Z</time>
      </trkpt>
      <trkpt lat="39.8908130" lon="-0.3667780">
        <ele>654.8</ele>
        <time>2020-11-11T12:08:45Z</time>
      </trkpt>
      <trkpt lat="39.8908200" lon="-0.3667850">
        <ele>654.9</ele>
        <time>2020-11-11T12:08:46Z</time>
      </trkpt>
      <trkpt lat="39.8908280" lon="-0.3667950">
        <ele>655.0</ele>
        <time>2020-11-11T12:08:48Z</time>
      </trkpt>
      <trkpt lat="39.8908380" lon="-0.3668020">
        <ele>655.1</ele>
        <time>2020-11-11T12:08:49Z</time>
      </trkpt>
      <trkpt lat="39.8908550" lon="-0.3668150">
        <ele>656.1</ele>
        <time>2020-11-11T12:08:51Z</time>
      </trkpt>
      <trkpt lat="39.8908630" lon="-0.3668200">
        <ele>656.2</ele>
        <time>2020-11-11T12:08:52Z</time>
      </trkpt>
      <trkpt lat="39.8908770" lon="-0.3668230">
        <ele>657.2</ele>
        <time>2020-11-11T12:08:53Z</time>
      </trkpt>
      <trkpt lat="39.8908880" lon="-0.3668200">
        <ele>657.3</ele>
        <time>2020-11-11T12:08:55Z</time>
      </trkpt>
      <trkpt lat="39.8908980" lon="-0.3668160">
        <ele>657.4</ele>
        <time>2020-11-11T12:08:56Z</time>
      </trkpt>
      <trkpt lat="39.8909140" lon="-0.3668050">
        <ele>658.4</ele>
        <time>2020-11-11T12:08:58Z</time>
      </trkpt>
      <trkpt lat="39.8909270" lon="-0.3667980">
        <ele>658.5</ele>
        <time>2020-11-11T12:08:59Z</time>
      </trkpt>
      <trkpt lat="39.8909450" lon="-0.3667870">
        <ele>659.6</ele>
        <time>2020-11-11T12:09:00Z</time>
      </trkpt>
      <trkpt lat="39.8909600" lon="-0.3667740">
        <ele>659.6</ele>
        <time>2020-11-11T12:09:02Z</time>
      </trkpt>
      <trkpt lat="39.8909700" lon="-0.3667630">
        <ele>659.7</ele>
        <time>2020-11-11T12:09:03Z</time>
      </trkpt>
      <trkpt lat="39.8909760" lon="-0.3667530">
        <ele>660.7</ele>
        <time>2020-11-11T12:09:04Z</time>
      </trkpt>
      <trkpt lat="39.8909810" lon="-0.3667370">
        <ele>660.8</ele>
        <time>2020-11-11T12:09:06Z</time>
      </trkpt>
      <trkpt lat="39.8909820" lon="-0.3667300">
        <ele>660.9</ele>
        <time>2020-11-11T12:09:07Z</time>
      </trkpt>
      <trkpt lat="39.8909770" lon="-0.3667330">
        <ele>661.0</ele>
        <time>2020-11-11T12:09:09Z</time>
      </trkpt>
      <trkpt lat="39.8909710" lon="-0.3667420">
        <ele>661.1</ele>
        <time>2020-11-11T12:09:11Z</time>
      </trkpt>
      <trkpt lat="39.8909660" lon="-0.3667510">
        <ele>660.3</ele>
        <time>2020-11-11T12:09:12Z</time>
      </trkpt>
      <trkpt lat="39.8909600" lon="-0.3667590">
        <ele>660.3</ele>
        <time>2020-11-11T12:09:13Z</time>
      </trkpt>
      <trkpt lat="39.8909540" lon="-0.3667680">
        <ele>660.4</ele>
        <time>2020-11-11T12:09:15Z</time>
      </trkpt>
      <trkpt lat="39.8909480" lon="-0.3667770">
        <ele>660.5</ele>
        <time>2020-11-11T12:09:16Z</time>
      </trkpt>
      <trkpt lat="39.8909420" lon="-0.3667860">
        <ele>660.6</ele>
        <time>2020-11-11T12:09:18Z</time>
      </trkpt>
      <trkpt lat="39.8909390" lon="-0.3667900">
        <ele>660.7</ele>
        <time>2020-11-11T12:09:19Z</time>
      </trkpt>
      <trkpt lat="39.8909410" lon="-0.3667880">
        <ele>660.8</ele>
        <time>2020-11-11T12:09:21Z</time>
      </trkpt>
      <trkpt lat="39.8909490" lon="-0.3667810">
        <ele>660.9</ele>
        <time>2020-11-11T12:09:23Z</time>
      </trkpt>
      <trkpt lat="39.8909580" lon="-0.3667760">
        <ele>661.0</ele>
        <time>2020-11-11T12:09:24Z</time>
      </trkpt>
      <trkpt lat="39.8909690" lon="-0.3667700">
        <ele>661.0</ele>
        <time>2020-11-11T12:09:25Z</time>
      </trkpt>
      <trkpt lat="39.8909820" lon="-0.3667640">
        <ele>662.0</ele>
        <time>2020-11-11T12:09:26Z</time>
      </trkpt>
      <trkpt lat="39.8910100" lon="-0.3667480">
        <ele>663.0</ele>
        <time>2020-11-11T12:09:27Z</time>
      </trkpt>
      <trkpt lat="39.8910200" lon="-0.3667360">
        <ele>663.1</ele>
        <time>2020-11-11T12:09:29Z</time>
      </trkpt>
      <trkpt lat="39.8910310" lon="-0.3667230">
        <ele>663.2</ele>
        <time>2020-11-11T12:09:30Z</time>
      </trkpt>
      <trkpt lat="39.8910410" lon="-0.3667110">
        <ele>664.1</ele>
        <time>2020-11-11T12:09:31Z</time>
      </trkpt>
      <trkpt lat="39.8910530" lon="-0.3666940">
        <ele>664.2</ele>
        <time>2020-11-11T12:09:32Z</time>
      </trkpt>
      <trkpt lat="39.8910700" lon="-0.3666710">
        <ele>665.2</ele>
        <time>2020-11-11T12:09:34Z</time>
      </trkpt>
      <trkpt lat="39.8910800" lon="-0.3666580">
        <ele>665.3</ele>
        <time>2020-11-11T12:09:35Z</time>
      </trkpt>
      <trkpt lat="39.8910930" lon="-0.3666440">
        <ele>665.4</ele>
        <time>2020-11-11T12:09:36Z</time>
      </trkpt>
      <trkpt lat="39.8911120" lon="-0.3666270">
        <ele>666.4</ele>
        <time>2020-11-11T12:09:37Z</time>
      </trkpt>
      <trkpt lat="39.8911250" lon="-0.3666170">
        <ele>666.6</ele>
        <time>2020-11-11T12:09:39Z</time>
      </trkpt>
      <trkpt lat="39.8911420" lon="-0.3666000">
        <ele>667.5</ele>
        <time>2020-11-11T12:09:40Z</time>
      </trkpt>
      <trkpt lat="39.8911490" lon="-0.3665940">
        <ele>667.6</ele>
        <time>2020-11-11T12:09:41Z</time>
      </trkpt>
      <trkpt lat="39.8911550" lon="-0.3665880">
        <ele>667.7</ele>
        <time>2020-11-11T12:09:42Z</time>
      </trkpt>
      <trkpt lat="39.8911740" lon="-0.3665810">
        <ele>668.8</ele>
        <time>2020-11-11T12:09:43Z</time>
      </trkpt>
      <trkpt lat="39.8911900" lon="-0.3665730">
        <ele>668.9</ele>
        <time>2020-11-11T12:09:45Z</time>
      </trkpt>
      <trkpt lat="39.8912000" lon="-0.3665590">
        <ele>669.0</ele>
        <time>2020-11-11T12:09:46Z</time>
      </trkpt>
      <trkpt lat="39.8912060" lon="-0.3665470">
        <ele>669.9</ele>
        <time>2020-11-11T12:09:47Z</time>
      </trkpt>
      <trkpt lat="39.8912180" lon="-0.3665270">
        <ele>670.1</ele>
        <time>2020-11-11T12:09:49Z</time>
      </trkpt>
      <trkpt lat="39.8912260" lon="-0.3665150">
        <ele>670.2</ele>
        <time>2020-11-11T12:09:50Z</time>
      </trkpt>
      <trkpt lat="39.8912370" lon="-0.3665000">
        <ele>671.1</ele>
        <time>2020-11-11T12:09:51Z</time>
      </trkpt>
      <trkpt lat="39.8912480" lon="-0.3664820">
        <ele>671.3</ele>
        <time>2020-11-11T12:09:53Z</time>
      </trkpt>
      <trkpt lat="39.8912610" lon="-0.3664610">
        <ele>671.4</ele>
        <time>2020-11-11T12:09:55Z</time>
      </trkpt>
      <trkpt lat="39.8912690" lon="-0.3664480">
        <ele>672.3</ele>
        <time>2020-11-11T12:09:56Z</time>
      </trkpt>
      <trkpt lat="39.8912850" lon="-0.3664270">
        <ele>672.4</ele>
        <time>2020-11-11T12:09:58Z</time>
      </trkpt>
      <trkpt lat="39.8912950" lon="-0.3664130">
        <ele>672.5</ele>
        <time>2020-11-11T12:09:59Z</time>
      </trkpt>
      <trkpt lat="39.8913130" lon="-0.3663970">
        <ele>673.4</ele>
        <time>2020-11-11T12:10:00Z</time>
      </trkpt>
      <trkpt lat="39.8913260" lon="-0.3663890">
        <ele>673.5</ele>
        <time>2020-11-11T12:10:01Z</time>
      </trkpt>
      <trkpt lat="39.8913390" lon="-0.3663800">
        <ele>674.2</ele>
        <time>2020-11-11T12:10:03Z</time>
      </trkpt>
      <trkpt lat="39.8913530" lon="-0.3663730">
        <ele>674.3</ele>
        <time>2020-11-11T12:10:04Z</time>
      </trkpt>
      <trkpt lat="39.8913810" lon="-0.3663780">
        <ele>675.1</ele>
        <time>2020-11-11T12:10:06Z</time>
      </trkpt>
      <trkpt lat="39.8913960" lon="-0.3663830">
        <ele>675.2</ele>
        <time>2020-11-11T12:10:07Z</time>
      </trkpt>
      <trkpt lat="39.8914110" lon="-0.3663840">
        <ele>676.0</ele>
        <time>2020-11-11T12:10:08Z</time>
      </trkpt>
      <trkpt lat="39.8914220" lon="-0.3663820">
        <ele>676.1</ele>
        <time>2020-11-11T12:10:09Z</time>
      </trkpt>
      <trkpt lat="39.8914360" lon="-0.3663780">
        <ele>676.9</ele>
        <time>2020-11-11T12:10:10Z</time>
      </trkpt>
      <trkpt lat="39.8914450" lon="-0.3663690">
        <ele>677.0</ele>
        <time>2020-11-11T12:10:12Z</time>
      </trkpt>
      <trkpt lat="39.8914540" lon="-0.3663610">
        <ele>677.2</ele>
        <time>2020-11-11T12:10:13Z</time>
      </trkpt>
      <trkpt lat="39.8914620" lon="-0.3663540">
        <ele>677.2</ele>
        <time>2020-11-11T12:10:14Z</time>
      </trkpt>
      <trkpt lat="39.8914680" lon="-0.3663450">
        <ele>678.0</ele>
        <time>2020-11-11T12:10:15Z</time>
      </trkpt>
      <trkpt lat="39.8914790" lon="-0.3663230">
        <ele>678.2</ele>
        <time>2020-11-11T12:10:16Z</time>
      </trkpt>
      <trkpt lat="39.8914830" lon="-0.3663110">
        <ele>678.3</ele>
        <time>2020-11-11T12:10:17Z</time>
      </trkpt>
      <trkpt lat="39.8914880" lon="-0.3662990">
        <ele>678.3</ele>
        <time>2020-11-11T12:10:19Z</time>
      </trkpt>
      <trkpt lat="39.8914930" lon="-0.3662860">
        <ele>678.4</ele>
        <time>2020-11-11T12:10:20Z</time>
      </trkpt>
      <trkpt lat="39.8914970" lon="-0.3662740">
        <ele>679.2</ele>
        <time>2020-11-11T12:10:21Z</time>
      </trkpt>
      <trkpt lat="39.8915020" lon="-0.3662620">
        <ele>679.3</ele>
        <time>2020-11-11T12:10:22Z</time>
      </trkpt>
      <trkpt lat="39.8915080" lon="-0.3662410">
        <ele>679.4</ele>
        <time>2020-11-11T12:10:24Z</time>
      </trkpt>
      <trkpt lat="39.8915130" lon="-0.3662230">
        <ele>679.5</ele>
        <time>2020-11-11T12:10:25Z</time>
      </trkpt>
      <trkpt lat="39.8915170" lon="-0.3662060">
        <ele>679.6</ele>
        <time>2020-11-11T12:10:26Z</time>
      </trkpt>
      <trkpt lat="39.8915210" lon="-0.3661780">
        <ele>679.8</ele>
        <time>2020-11-11T12:10:28Z</time>
      </trkpt>
      <trkpt lat="39.8915220" lon="-0.3661630">
        <ele>679.9</ele>
        <time>2020-11-11T12:10:29Z</time>
      </trkpt>
      <trkpt lat="39.8915230" lon="-0.3661340">
        <ele>680.0</ele>
        <time>2020-11-11T12:10:31Z</time>
      </trkpt>
      <trkpt lat="39.8915230" lon="-0.3661170">
        <ele>680.1</ele>
        <time>2020-11-11T12:10:32Z</time>
      </trkpt>
      <trkpt lat="39.8915250" lon="-0.3661030">
        <ele>680.3</ele>
        <time>2020-11-11T12:10:33Z</time>
      </trkpt>
      <trkpt lat="39.8915280" lon="-0.3660880">
        <ele>680.3</ele>
        <time>2020-11-11T12:10:34Z</time>
      </trkpt>
      <trkpt lat="39.8915340" lon="-0.3660740">
        <ele>680.9</ele>
        <time>2020-11-11T12:10:36Z</time>
      </trkpt>
      <trkpt lat="39.8915430" lon="-0.3660560">
        <ele>681.0</ele>
        <time>2020-11-11T12:10:37Z</time>
      </trkpt>
      <trkpt lat="39.8915500" lon="-0.3660400">
        <ele>681.1</ele>
        <time>2020-11-11T12:10:39Z</time>
      </trkpt>
      <trkpt lat="39.8915400" lon="-0.3660810">
        <ele>681.2</ele>
        <time>2020-11-11T12:10:40Z</time>
      </trkpt>
      <trkpt lat="39.8915270" lon="-0.3661230">
        <ele>680.7</ele>
        <time>2020-11-11T12:10:42Z</time>
      </trkpt>
      <trkpt lat="39.8915300" lon="-0.3661320">
        <ele>681.3</ele>
        <time>2020-11-11T12:10:43Z</time>
      </trkpt>
      <trkpt lat="39.8915390" lon="-0.3661280">
        <ele>681.4</ele>
        <time>2020-11-11T12:10:44Z</time>
      </trkpt>
      <trkpt lat="39.8915470" lon="-0.3661250">
        <ele>681.5</ele>
        <time>2020-11-11T12:10:46Z</time>
      </trkpt>
      <trkpt lat="39.8915550" lon="-0.3661210">
        <ele>681.6</ele>
        <time>2020-11-11T12:10:47Z</time>
      </trkpt>
      <trkpt lat="39.8915640" lon="-0.3661180">
        <ele>682.1</ele>
        <time>2020-11-11T12:10:49Z</time>
      </trkpt>
      <trkpt lat="39.8915720" lon="-0.3661150">
        <ele>682.2</ele>
        <time>2020-11-11T12:10:51Z</time>
      </trkpt>
      <trkpt lat="39.8915800" lon="-0.3661110">
        <ele>682.3</ele>
        <time>2020-11-11T12:10:53Z</time>
      </trkpt>
      <trkpt lat="39.8915890" lon="-0.3661080">
        <ele>682.4</ele>
        <time>2020-11-11T12:10:54Z</time>
      </trkpt>
      <trkpt lat="39.8915970" lon="-0.3661040">
        <ele>682.9</ele>
        <time>2020-11-11T12:10:56Z</time>
      </trkpt>
      <trkpt lat="39.8916050" lon="-0.3661010">
        <ele>683.0</ele>
        <time>2020-11-11T12:10:57Z</time>
      </trkpt>
      <trkpt lat="39.8916140" lon="-0.3660970">
        <ele>683.1</ele>
        <time>2020-11-11T12:10:58Z</time>
      </trkpt>
      <trkpt lat="39.8916220" lon="-0.3660940">
        <ele>683.2</ele>
        <time>2020-11-11T12:10:59Z</time>
      </trkpt>
      <trkpt lat="39.8916340" lon="-0.3660820">
        <ele>683.8</ele>
        <time>2020-11-11T12:11:00Z</time>
      </trkpt>
      <trkpt lat="39.8916430" lon="-0.3660650">
        <ele>683.9</ele>
        <time>2020-11-11T12:11:02Z</time>
      </trkpt>
      <trkpt lat="39.8916520" lon="-0.3660490">
        <ele>683.9</ele>
        <time>2020-11-11T12:11:03Z</time>
      </trkpt>
      <trkpt lat="39.8916570" lon="-0.3660330">
        <ele>684.0</ele>
        <time>2020-11-11T12:11:04Z</time>
      </trkpt>
      <trkpt lat="39.8916610" lon="-0.3660130">
        <ele>684.1</ele>
        <time>2020-11-11T12:11:05Z</time>
      </trkpt>
      <trkpt lat="39.8916620" lon="-0.3659830">
        <ele>684.7</ele>
        <time>2020-11-11T12:11:07Z</time>
      </trkpt>
      <trkpt lat="39.8916600" lon="-0.3659660">
        <ele>684.3</ele>
        <time>2020-11-11T12:11:08Z</time>
      </trkpt>
      <trkpt lat="39.8916560" lon="-0.3659500">
        <ele>684.4</ele>
        <time>2020-11-11T12:11:09Z</time>
      </trkpt>
      <trkpt lat="39.8916490" lon="-0.3659290">
        <ele>684.6</ele>
        <time>2020-11-11T12:11:11Z</time>
      </trkpt>
      <trkpt lat="39.8916400" lon="-0.3659160">
        <ele>684.7</ele>
        <time>2020-11-11T12:11:12Z</time>
      </trkpt>
      <trkpt lat="39.8916290" lon="-0.3659040">
        <ele>684.7</ele>
        <time>2020-11-11T12:11:13Z</time>
      </trkpt>
      <trkpt lat="39.8916110" lon="-0.3658850">
        <ele>684.4</ele>
        <time>2020-11-11T12:11:14Z</time>
      </trkpt>
      <trkpt lat="39.8916040" lon="-0.3658780">
        <ele>684.5</ele>
        <time>2020-11-11T12:11:15Z</time>
      </trkpt>
      <trkpt lat="39.8915970" lon="-0.3658700">
        <ele>684.6</ele>
        <time>2020-11-11T12:11:16Z</time>
      </trkpt>
      <trkpt lat="39.8915770" lon="-0.3658440">
        <ele>684.4</ele>
        <time>2020-11-11T12:11:18Z</time>
      </trkpt>
      <trkpt lat="39.8915720" lon="-0.3658340">
        <ele>684.4</ele>
        <time>2020-11-11T12:11:19Z</time>
      </trkpt>
      <trkpt lat="39.8915610" lon="-0.3658180">
        <ele>684.1</ele>
        <time>2020-11-11T12:11:20Z</time>
      </trkpt>
      <trkpt lat="39.8915560" lon="-0.3657950">
        <ele>684.3</ele>
        <time>2020-11-11T12:11:21Z</time>
      </trkpt>
      <trkpt lat="39.8915550" lon="-0.3657570">
        <ele>684.5</ele>
        <time>2020-11-11T12:11:23Z</time>
      </trkpt>
      <trkpt lat="39.8915550" lon="-0.3657440">
        <ele>684.6</ele>
        <time>2020-11-11T12:11:24Z</time>
      </trkpt>
      <trkpt lat="39.8915640" lon="-0.3657140">
        <ele>685.2</ele>
        <time>2020-11-11T12:11:25Z</time>
      </trkpt>
      <trkpt lat="39.8915730" lon="-0.3656950">
        <ele>685.3</ele>
        <time>2020-11-11T12:11:27Z</time>
      </trkpt>
      <trkpt lat="39.8915800" lon="-0.3656820">
        <ele>685.4</ele>
        <time>2020-11-11T12:11:28Z</time>
      </trkpt>
      <trkpt lat="39.8915940" lon="-0.3656680">
        <ele>685.6</ele>
        <time>2020-11-11T12:11:29Z</time>
      </trkpt>
      <trkpt lat="39.8916060" lon="-0.3656570">
        <ele>686.2</ele>
        <time>2020-11-11T12:11:30Z</time>
      </trkpt>
      <trkpt lat="39.8916210" lon="-0.3656460">
        <ele>686.2</ele>
        <time>2020-11-11T12:11:31Z</time>
      </trkpt>
      <trkpt lat="39.8916480" lon="-0.3656280">
        <ele>686.9</ele>
        <time>2020-11-11T12:11:33Z</time>
      </trkpt>
      <trkpt lat="39.8916560" lon="-0.3656210">
        <ele>687.0</ele>
        <time>2020-11-11T12:11:34Z</time>
      </trkpt>
      <trkpt lat="39.8916690" lon="-0.3656110">
        <ele>687.6</ele>
        <time>2020-11-11T12:11:35Z</time>
      </trkpt>
      <trkpt lat="39.8916840" lon="-0.3655970">
        <ele>687.7</ele>
        <time>2020-11-11T12:11:37Z</time>
      </trkpt>
      <trkpt lat="39.8916970" lon="-0.3655810">
        <ele>688.3</ele>
        <time>2020-11-11T12:11:38Z</time>
      </trkpt>
      <trkpt lat="39.8917090" lon="-0.3655670">
        <ele>688.4</ele>
        <time>2020-11-11T12:11:39Z</time>
      </trkpt>
      <trkpt lat="39.8917270" lon="-0.3655380">
        <ele>688.6</ele>
        <time>2020-11-11T12:11:40Z</time>
      </trkpt>
      <trkpt lat="39.8917320" lon="-0.3655300">
        <ele>689.2</ele>
        <time>2020-11-11T12:11:41Z</time>
      </trkpt>
      <trkpt lat="39.8917420" lon="-0.3655120">
        <ele>689.3</ele>
        <time>2020-11-11T12:11:43Z</time>
      </trkpt>
      <trkpt lat="39.8917500" lon="-0.3654940">
        <ele>689.5</ele>
        <time>2020-11-11T12:11:44Z</time>
      </trkpt>
      <trkpt lat="39.8917590" lon="-0.3654800">
        <ele>689.5</ele>
        <time>2020-11-11T12:11:45Z</time>
      </trkpt>
      <trkpt lat="39.8917690" lon="-0.3654670">
        <ele>690.2</ele>
        <time>2020-11-11T12:11:47Z</time>
      </trkpt>
      <trkpt lat="39.8917760" lon="-0.3654560">
        <ele>690.2</ele>
        <time>2020-11-11T12:11:48Z</time>
      </trkpt>
      <trkpt lat="39.8917820" lon="-0.3654440">
        <ele>690.3</ele>
        <time>2020-11-11T12:11:49Z</time>
      </trkpt>
      <trkpt lat="39.8917880" lon="-0.3654320">
        <ele>690.4</ele>
        <time>2020-11-11T12:11:50Z</time>
      </trkpt>
      <trkpt lat="39.8917940" lon="-0.3654230">
        <ele>691.0</ele>
        <time>2020-11-11T12:11:51Z</time>
      </trkpt>
      <trkpt lat="39.8918030" lon="-0.3654040">
        <ele>691.1</ele>
        <time>2020-11-11T12:11:53Z</time>
      </trkpt>
      <trkpt lat="39.8918060" lon="-0.3653940">
        <ele>691.2</ele>
        <time>2020-11-11T12:11:54Z</time>
      </trkpt>
      <trkpt lat="39.8918060" lon="-0.3653770">
        <ele>691.5</ele>
        <time>2020-11-11T12:11:55Z</time>
      </trkpt>
      <trkpt lat="39.8918100" lon="-0.3653630">
        <ele>691.6</ele>
        <time>2020-11-11T12:11:57Z</time>
      </trkpt>
      <trkpt lat="39.8918140" lon="-0.3653580">
        <ele>691.7</ele>
        <time>2020-11-11T12:11:58Z</time>
      </trkpt>
      <trkpt lat="39.8918130" lon="-0.3653500">
        <ele>691.8</ele>
        <time>2020-11-11T12:11:59Z</time>
      </trkpt>
      <trkpt lat="39.8918150" lon="-0.3653420">
        <ele>691.8</ele>
        <time>2020-11-11T12:12:00Z</time>
      </trkpt>
      <trkpt lat="39.8918170" lon="-0.3653320">
        <ele>692.2</ele>
        <time>2020-11-11T12:12:02Z</time>
      </trkpt>
      <trkpt lat="39.8918170" lon="-0.3653220">
        <ele>692.3</ele>
        <time>2020-11-11T12:12:03Z</time>
      </trkpt>
      <trkpt lat="39.8918190" lon="-0.3653110">
        <ele>692.4</ele>
        <time>2020-11-11T12:12:05Z</time>
      </trkpt>
      <trkpt lat="39.8918220" lon="-0.3653030">
        <ele>692.5</ele>
        <time>2020-11-11T12:12:06Z</time>
      </trkpt>
      <trkpt lat="39.8918250" lon="-0.3652960">
        <ele>692.6</ele>
        <time>2020-11-11T12:12:07Z</time>
      </trkpt>
      <trkpt lat="39.8918280" lon="-0.3652890">
        <ele>693.3</ele>
        <time>2020-11-11T12:12:08Z</time>
      </trkpt>
      <trkpt lat="39.8918330" lon="-0.3652830">
        <ele>693.4</ele>
        <time>2020-11-11T12:12:09Z</time>
      </trkpt>
      <trkpt lat="39.8918430" lon="-0.3652750">
        <ele>693.5</ele>
        <time>2020-11-11T12:12:11Z</time>
      </trkpt>
      <trkpt lat="39.8918530" lon="-0.3652690">
        <ele>693.6</ele>
        <time>2020-11-11T12:12:12Z</time>
      </trkpt>
      <trkpt lat="39.8918650" lon="-0.3652660">
        <ele>694.1</ele>
        <time>2020-11-11T12:12:13Z</time>
      </trkpt>
      <trkpt lat="39.8918760" lon="-0.3652620">
        <ele>694.2</ele>
        <time>2020-11-11T12:12:14Z</time>
      </trkpt>
      <trkpt lat="39.8918870" lon="-0.3652610">
        <ele>694.2</ele>
        <time>2020-11-11T12:12:16Z</time>
      </trkpt>
      <trkpt lat="39.8918960" lon="-0.3652580">
        <ele>694.8</ele>
        <time>2020-11-11T12:12:17Z</time>
      </trkpt>
      <trkpt lat="39.8919080" lon="-0.3652500">
        <ele>695.3</ele>
        <time>2020-11-11T12:12:18Z</time>
      </trkpt>
      <trkpt lat="39.8919180" lon="-0.3652420">
        <ele>695.3</ele>
        <time>2020-11-11T12:12:20Z</time>
      </trkpt>
      <trkpt lat="39.8919270" lon="-0.3652300">
        <ele>696.0</ele>
        <time>2020-11-11T12:12:22Z</time>
      </trkpt>
      <trkpt lat="39.8919310" lon="-0.3652220">
        <ele>696.1</ele>
        <time>2020-11-11T12:12:23Z</time>
      </trkpt>
      <trkpt lat="39.8919330" lon="-0.3652100">
        <ele>696.2</ele>
        <time>2020-11-11T12:12:24Z</time>
      </trkpt>
      <trkpt lat="39.8919340" lon="-0.3652020">
        <ele>696.7</ele>
        <time>2020-11-11T12:12:26Z</time>
      </trkpt>
      <trkpt lat="39.8919350" lon="-0.3651970">
        <ele>696.7</ele>
        <time>2020-11-11T12:12:27Z</time>
      </trkpt>
      <trkpt lat="39.8919340" lon="-0.3651830">
        <ele>696.8</ele>
        <time>2020-11-11T12:12:29Z</time>
      </trkpt>
      <trkpt lat="39.8919330" lon="-0.3651740">
        <ele>696.9</ele>
        <time>2020-11-11T12:12:30Z</time>
      </trkpt>
      <trkpt lat="39.8919290" lon="-0.3651580">
        <ele>697.4</ele>
        <time>2020-11-11T12:12:32Z</time>
      </trkpt>
      <trkpt lat="39.8919240" lon="-0.3651460">
        <ele>697.0</ele>
        <time>2020-11-11T12:12:33Z</time>
      </trkpt>
      <trkpt lat="39.8919210" lon="-0.3651350">
        <ele>697.1</ele>
        <time>2020-11-11T12:12:35Z</time>
      </trkpt>
      <trkpt lat="39.8919160" lon="-0.3651210">
        <ele>697.6</ele>
        <time>2020-11-11T12:12:36Z</time>
      </trkpt>
      <trkpt lat="39.8919140" lon="-0.3651120">
        <ele>697.7</ele>
        <time>2020-11-11T12:12:37Z</time>
      </trkpt>
      <trkpt lat="39.8919120" lon="-0.3651050">
        <ele>697.7</ele>
        <time>2020-11-11T12:12:38Z</time>
      </trkpt>
      <trkpt lat="39.8919100" lon="-0.3651040">
        <ele>697.8</ele>
        <time>2020-11-11T12:12:40Z</time>
      </trkpt>
      <trkpt lat="39.8919070" lon="-0.3651030">
        <ele>697.8</ele>
        <time>2020-11-11T12:12:41Z</time>
      </trkpt>
      <trkpt lat="39.8919040" lon="-0.3651040">
        <ele>697.8</ele>
        <time>2020-11-11T12:12:42Z</time>
      </trkpt>
      <trkpt lat="39.8918940" lon="-0.3651070">
        <ele>697.9</ele>
        <time>2020-11-11T12:12:43Z</time>
      </trkpt>
      <trkpt lat="39.8918880" lon="-0.3651100">
        <ele>698.0</ele>
        <time>2020-11-11T12:12:44Z</time>
      </trkpt>
      <trkpt lat="39.8918820" lon="-0.3651120">
        <ele>698.0</ele>
        <time>2020-11-11T12:12:46Z</time>
      </trkpt>
      <trkpt lat="39.8918760" lon="-0.3651130">
        <ele>698.1</ele>
        <time>2020-11-11T12:12:47Z</time>
      </trkpt>
      <trkpt lat="39.8918690" lon="-0.3651120">
        <ele>698.1</ele>
        <time>2020-11-11T12:12:48Z</time>
      </trkpt>
      <trkpt lat="39.8918620" lon="-0.3651110">
        <ele>698.2</ele>
        <time>2020-11-11T12:12:49Z</time>
      </trkpt>
      <trkpt lat="39.8918560" lon="-0.3651090">
        <ele>698.2</ele>
        <time>2020-11-11T12:12:50Z</time>
      </trkpt>
      <trkpt lat="39.8918470" lon="-0.3651090">
        <ele>698.3</ele>
        <time>2020-11-11T12:12:51Z</time>
      </trkpt>
      <trkpt lat="39.8918400" lon="-0.3651080">
        <ele>698.4</ele>
        <time>2020-11-11T12:12:52Z</time>
      </trkpt>
      <trkpt lat="39.8918330" lon="-0.3651070">
        <ele>698.4</ele>
        <time>2020-11-11T12:12:53Z</time>
      </trkpt>
      <trkpt lat="39.8918240" lon="-0.3651050">
        <ele>698.5</ele>
        <time>2020-11-11T12:12:54Z</time>
      </trkpt>
      <trkpt lat="39.8918160" lon="-0.3651040">
        <ele>698.6</ele>
        <time>2020-11-11T12:12:55Z</time>
      </trkpt>
      <trkpt lat="39.8917940" lon="-0.3651020">
        <ele>698.8</ele>
        <time>2020-11-11T12:12:57Z</time>
      </trkpt>
      <trkpt lat="39.8917830" lon="-0.3651040">
        <ele>698.9</ele>
        <time>2020-11-11T12:12:58Z</time>
      </trkpt>
      <trkpt lat="39.8917730" lon="-0.3651050">
        <ele>699.0</ele>
        <time>2020-11-11T12:13:00Z</time>
      </trkpt>
      <trkpt lat="39.8917620" lon="-0.3651060">
        <ele>699.1</ele>
        <time>2020-11-11T12:13:01Z</time>
      </trkpt>
      <trkpt lat="39.8917510" lon="-0.3651080">
        <ele>699.2</ele>
        <time>2020-11-11T12:13:02Z</time>
      </trkpt>
      <trkpt lat="39.8917400" lon="-0.3651090">
        <ele>699.3</ele>
        <time>2020-11-11T12:13:03Z</time>
      </trkpt>
      <trkpt lat="39.8917250" lon="-0.3651140">
        <ele>699.4</ele>
        <time>2020-11-11T12:13:04Z</time>
      </trkpt>
      <trkpt lat="39.8917100" lon="-0.3651190">
        <ele>699.6</ele>
        <time>2020-11-11T12:13:05Z</time>
      </trkpt>
      <trkpt lat="39.8916960" lon="-0.3651250">
        <ele>699.7</ele>
        <time>2020-11-11T12:13:06Z</time>
      </trkpt>
      <trkpt lat="39.8916800" lon="-0.3651340">
        <ele>699.8</ele>
        <time>2020-11-11T12:13:07Z</time>
      </trkpt>
      <trkpt lat="39.8916650" lon="-0.3651440">
        <ele>700.0</ele>
        <time>2020-11-11T12:13:08Z</time>
      </trkpt>
      <trkpt lat="39.8916500" lon="-0.3651560">
        <ele>700.2</ele>
        <time>2020-11-11T12:13:09Z</time>
      </trkpt>
      <trkpt lat="39.8916360" lon="-0.3651690">
        <ele>700.3</ele>
        <time>2020-11-11T12:13:11Z</time>
      </trkpt>
      <trkpt lat="39.8916220" lon="-0.3651820">
        <ele>700.5</ele>
        <time>2020-11-11T12:13:12Z</time>
      </trkpt>
      <trkpt lat="39.8916090" lon="-0.3651940">
        <ele>700.6</ele>
        <time>2020-11-11T12:13:13Z</time>
      </trkpt>
      <trkpt lat="39.8915960" lon="-0.3652050">
        <ele>700.8</ele>
        <time>2020-11-11T12:13:14Z</time>
      </trkpt>
      <trkpt lat="39.8915830" lon="-0.3652160">
        <ele>700.9</ele>
        <time>2020-11-11T12:13:15Z</time>
      </trkpt>
      <trkpt lat="39.8915700" lon="-0.3652300">
        <ele>701.1</ele>
        <time>2020-11-11T12:13:16Z</time>
      </trkpt>
      <trkpt lat="39.8915590" lon="-0.3652380">
        <ele>701.2</ele>
        <time>2020-11-11T12:13:17Z</time>
      </trkpt>
      <trkpt lat="39.8915410" lon="-0.3652520">
        <ele>701.4</ele>
        <time>2020-11-11T12:13:19Z</time>
      </trkpt>
      <trkpt lat="39.8915290" lon="-0.3652590">
        <ele>701.6</ele>
        <time>2020-11-11T12:13:20Z</time>
      </trkpt>
      <trkpt lat="39.8915140" lon="-0.3652650">
        <ele>701.7</ele>
        <time>2020-11-11T12:13:21Z</time>
      </trkpt>
      <trkpt lat="39.8914960" lon="-0.3652680">
        <ele>701.9</ele>
        <time>2020-11-11T12:13:22Z</time>
      </trkpt>
      <trkpt lat="39.8914770" lon="-0.3652650">
        <ele>702.1</ele>
        <time>2020-11-11T12:13:24Z</time>
      </trkpt>
      <trkpt lat="39.8914670" lon="-0.3652600">
        <ele>702.2</ele>
        <time>2020-11-11T12:13:25Z</time>
      </trkpt>
      <trkpt lat="39.8914500" lon="-0.3652450">
        <ele>702.4</ele>
        <time>2020-11-11T12:13:27Z</time>
      </trkpt>
      <trkpt lat="39.8914390" lon="-0.3652300">
        <ele>702.5</ele>
        <time>2020-11-11T12:13:28Z</time>
      </trkpt>
      <trkpt lat="39.8914270" lon="-0.3652100">
        <ele>702.7</ele>
        <time>2020-11-11T12:13:29Z</time>
      </trkpt>
      <trkpt lat="39.8914200" lon="-0.3651850">
        <ele>702.9</ele>
        <time>2020-11-11T12:13:31Z</time>
      </trkpt>
      <trkpt lat="39.8914190" lon="-0.3651650">
        <ele>703.1</ele>
        <time>2020-11-11T12:13:32Z</time>
      </trkpt>
      <trkpt lat="39.8914200" lon="-0.3651410">
        <ele>703.3</ele>
        <time>2020-11-11T12:13:33Z</time>
      </trkpt>
      <trkpt lat="39.8914220" lon="-0.3651210">
        <ele>703.4</ele>
        <time>2020-11-11T12:13:34Z</time>
      </trkpt>
      <trkpt lat="39.8914250" lon="-0.3651020">
        <ele>703.6</ele>
        <time>2020-11-11T12:13:35Z</time>
      </trkpt>
      <trkpt lat="39.8914280" lon="-0.3650820">
        <ele>703.7</ele>
        <time>2020-11-11T12:13:36Z</time>
      </trkpt>
      <trkpt lat="39.8914330" lon="-0.3650580">
        <ele>703.9</ele>
        <time>2020-11-11T12:13:37Z</time>
      </trkpt>
      <trkpt lat="39.8914420" lon="-0.3650280">
        <ele>704.1</ele>
        <time>2020-11-11T12:13:39Z</time>
      </trkpt>
      <trkpt lat="39.8914540" lon="-0.3649930">
        <ele>704.4</ele>
        <time>2020-11-11T12:13:40Z</time>
      </trkpt>
      <trkpt lat="39.8914590" lon="-0.3649780">
        <ele>704.5</ele>
        <time>2020-11-11T12:13:41Z</time>
      </trkpt>
      <trkpt lat="39.8914750" lon="-0.3649410">
        <ele>704.8</ele>
        <time>2020-11-11T12:13:42Z</time>
      </trkpt>
      <trkpt lat="39.8914810" lon="-0.3649280">
        <ele>704.9</ele>
        <time>2020-11-11T12:13:43Z</time>
      </trkpt>
      <trkpt lat="39.8915080" lon="-0.3648740">
        <ele>705.4</ele>
        <time>2020-11-11T12:13:45Z</time>
      </trkpt>
      <trkpt lat="39.8915150" lon="-0.3648560">
        <ele>705.6</ele>
        <time>2020-11-11T12:13:46Z</time>
      </trkpt>
      <trkpt lat="39.8915230" lon="-0.3648390">
        <ele>705.7</ele>
        <time>2020-11-11T12:13:47Z</time>
      </trkpt>
      <trkpt lat="39.8915400" lon="-0.3648000">
        <ele>706.0</ele>
        <time>2020-11-11T12:13:48Z</time>
      </trkpt>
      <trkpt lat="39.8915450" lon="-0.3647870">
        <ele>706.1</ele>
        <time>2020-11-11T12:13:49Z</time>
      </trkpt>
      <trkpt lat="39.8915550" lon="-0.3647620">
        <ele>706.3</ele>
        <time>2020-11-11T12:13:50Z</time>
      </trkpt>
      <trkpt lat="39.8915650" lon="-0.3647380">
        <ele>706.5</ele>
        <time>2020-11-11T12:13:52Z</time>
      </trkpt>
      <trkpt lat="39.8915730" lon="-0.3647180">
        <ele>706.6</ele>
        <time>2020-11-11T12:13:53Z</time>
      </trkpt>
      <trkpt lat="39.8915800" lon="-0.3646980">
        <ele>706.8</ele>
        <time>2020-11-11T12:13:54Z</time>
      </trkpt>
      <trkpt lat="39.8915870" lon="-0.3646790">
        <ele>706.9</ele>
        <time>2020-11-11T12:13:55Z</time>
      </trkpt>
      <trkpt lat="39.8915950" lon="-0.3646600">
        <ele>707.0</ele>
        <time>2020-11-11T12:13:56Z</time>
      </trkpt>
      <trkpt lat="39.8916010" lon="-0.3646420">
        <ele>707.2</ele>
        <time>2020-11-11T12:13:57Z</time>
      </trkpt>
      <trkpt lat="39.8916050" lon="-0.3646250">
        <ele>707.3</ele>
        <time>2020-11-11T12:13:58Z</time>
      </trkpt>
      <trkpt lat="39.8916090" lon="-0.3646080">
        <ele>707.4</ele>
        <time>2020-11-11T12:13:59Z</time>
      </trkpt>
      <trkpt lat="39.8916130" lon="-0.3645930">
        <ele>707.5</ele>
        <time>2020-11-11T12:14:00Z</time>
      </trkpt>
      <trkpt lat="39.8916180" lon="-0.3645790">
        <ele>707.6</ele>
        <time>2020-11-11T12:14:02Z</time>
      </trkpt>
      <trkpt lat="39.8916250" lon="-0.3645540">
        <ele>707.8</ele>
        <time>2020-11-11T12:14:03Z</time>
      </trkpt>
      <trkpt lat="39.8916290" lon="-0.3645430">
        <ele>707.9</ele>
        <time>2020-11-11T12:14:04Z</time>
      </trkpt>
      <trkpt lat="39.8916320" lon="-0.3645330">
        <ele>707.9</ele>
        <time>2020-11-11T12:14:05Z</time>
      </trkpt>
      <trkpt lat="39.8916380" lon="-0.3645160">
        <ele>708.0</ele>
        <time>2020-11-11T12:14:06Z</time>
      </trkpt>
      <trkpt lat="39.8916440" lon="-0.3644990">
        <ele>708.2</ele>
        <time>2020-11-11T12:14:07Z</time>
      </trkpt>
      <trkpt lat="39.8916500" lon="-0.3644790">
        <ele>708.3</ele>
        <time>2020-11-11T12:14:08Z</time>
      </trkpt>
      <trkpt lat="39.8916540" lon="-0.3644600">
        <ele>708.4</ele>
        <time>2020-11-11T12:14:09Z</time>
      </trkpt>
      <trkpt lat="39.8916580" lon="-0.3644420">
        <ele>708.6</ele>
        <time>2020-11-11T12:14:10Z</time>
      </trkpt>
      <trkpt lat="39.8916610" lon="-0.3644240">
        <ele>708.7</ele>
        <time>2020-11-11T12:14:11Z</time>
      </trkpt>
      <trkpt lat="39.8916650" lon="-0.3643800">
        <ele>709.0</ele>
        <time>2020-11-11T12:14:13Z</time>
      </trkpt>
      <trkpt lat="39.8916650" lon="-0.3643700">
        <ele>709.0</ele>
        <time>2020-11-11T12:14:14Z</time>
      </trkpt>
      <trkpt lat="39.8916670" lon="-0.3643520">
        <ele>709.1</ele>
        <time>2020-11-11T12:14:15Z</time>
      </trkpt>
      <trkpt lat="39.8916690" lon="-0.3643340">
        <ele>709.3</ele>
        <time>2020-11-11T12:14:16Z</time>
      </trkpt>
      <trkpt lat="39.8916720" lon="-0.3643080">
        <ele>709.4</ele>
        <time>2020-11-11T12:14:17Z</time>
      </trkpt>
      <trkpt lat="39.8916750" lon="-0.3642810">
        <ele>709.6</ele>
        <time>2020-11-11T12:14:19Z</time>
      </trkpt>
      <trkpt lat="39.8916750" lon="-0.3642620">
        <ele>709.8</ele>
        <time>2020-11-11T12:14:20Z</time>
      </trkpt>
      <trkpt lat="39.8916740" lon="-0.3642380">
        <ele>709.9</ele>
        <time>2020-11-11T12:14:21Z</time>
      </trkpt>
      <trkpt lat="39.8916720" lon="-0.3642150">
        <ele>710.1</ele>
        <time>2020-11-11T12:14:22Z</time>
      </trkpt>
      <trkpt lat="39.8916660" lon="-0.3641910">
        <ele>710.2</ele>
        <time>2020-11-11T12:14:24Z</time>
      </trkpt>
      <trkpt lat="39.8916620" lon="-0.3641740">
        <ele>710.4</ele>
        <time>2020-11-11T12:14:25Z</time>
      </trkpt>
      <trkpt lat="39.8916580" lon="-0.3641600">
        <ele>710.5</ele>
        <time>2020-11-11T12:14:26Z</time>
      </trkpt>
      <trkpt lat="39.8916550" lon="-0.3641470">
        <ele>710.6</ele>
        <time>2020-11-11T12:14:27Z</time>
      </trkpt>
      <trkpt lat="39.8916460" lon="-0.3641130">
        <ele>710.8</ele>
        <time>2020-11-11T12:14:28Z</time>
      </trkpt>
      <trkpt lat="39.8916420" lon="-0.3640980">
        <ele>711.0</ele>
        <time>2020-11-11T12:14:30Z</time>
      </trkpt>
      <trkpt lat="39.8916380" lon="-0.3640820">
        <ele>711.1</ele>
        <time>2020-11-11T12:14:31Z</time>
      </trkpt>
      <trkpt lat="39.8916340" lon="-0.3640670">
        <ele>711.2</ele>
        <time>2020-11-11T12:14:32Z</time>
      </trkpt>
      <trkpt lat="39.8916300" lon="-0.3640510">
        <ele>711.3</ele>
        <time>2020-11-11T12:14:33Z</time>
      </trkpt>
      <trkpt lat="39.8916210" lon="-0.3640160">
        <ele>711.6</ele>
        <time>2020-11-11T12:14:35Z</time>
      </trkpt>
      <trkpt lat="39.8916180" lon="-0.3640060">
        <ele>711.7</ele>
        <time>2020-11-11T12:14:36Z</time>
      </trkpt>
      <trkpt lat="39.8916130" lon="-0.3639900">
        <ele>711.8</ele>
        <time>2020-11-11T12:14:37Z</time>
      </trkpt>
      <trkpt lat="39.8916080" lon="-0.3639730">
        <ele>711.9</ele>
        <time>2020-11-11T12:14:38Z</time>
      </trkpt>
      <trkpt lat="39.8916030" lon="-0.3639580">
        <ele>712.0</ele>
        <time>2020-11-11T12:14:39Z</time>
      </trkpt>
      <trkpt lat="39.8915960" lon="-0.3639390">
        <ele>712.2</ele>
        <time>2020-11-11T12:14:41Z</time>
      </trkpt>
      <trkpt lat="39.8915930" lon="-0.3639250">
        <ele>712.3</ele>
        <time>2020-11-11T12:14:42Z</time>
      </trkpt>
      <trkpt lat="39.8915870" lon="-0.3638960">
        <ele>712.5</ele>
        <time>2020-11-11T12:14:44Z</time>
      </trkpt>
      <trkpt lat="39.8915830" lon="-0.3638740">
        <ele>712.7</ele>
        <time>2020-11-11T12:14:45Z</time>
      </trkpt>
      <trkpt lat="39.8915770" lon="-0.3638460">
        <ele>712.9</ele>
        <time>2020-11-11T12:14:47Z</time>
      </trkpt>
      <trkpt lat="39.8915720" lon="-0.3638260">
        <ele>713.0</ele>
        <time>2020-11-11T12:14:48Z</time>
      </trkpt>
      <trkpt lat="39.8915670" lon="-0.3638060">
        <ele>713.2</ele>
        <time>2020-11-11T12:14:49Z</time>
      </trkpt>
      <trkpt lat="39.8915620" lon="-0.3637900">
        <ele>713.3</ele>
        <time>2020-11-11T12:14:50Z</time>
      </trkpt>
      <trkpt lat="39.8915540" lon="-0.3637730">
        <ele>713.5</ele>
        <time>2020-11-11T12:14:51Z</time>
      </trkpt>
      <trkpt lat="39.8915310" lon="-0.3637480">
        <ele>713.8</ele>
        <time>2020-11-11T12:14:52Z</time>
      </trkpt>
      <trkpt lat="39.8915170" lon="-0.3637400">
        <ele>713.9</ele>
        <time>2020-11-11T12:14:54Z</time>
      </trkpt>
      <trkpt lat="39.8915040" lon="-0.3637330">
        <ele>714.0</ele>
        <time>2020-11-11T12:14:55Z</time>
      </trkpt>
      <trkpt lat="39.8914900" lon="-0.3637250">
        <ele>714.2</ele>
        <time>2020-11-11T12:14:56Z</time>
      </trkpt>
      <trkpt lat="39.8914570" lon="-0.3637130">
        <ele>714.5</ele>
        <time>2020-11-11T12:14:58Z</time>
      </trkpt>
      <trkpt lat="39.8914460" lon="-0.3637090">
        <ele>714.6</ele>
        <time>2020-11-11T12:14:59Z</time>
      </trkpt>
      <trkpt lat="39.8914300" lon="-0.3636990">
        <ele>714.8</ele>
        <time>2020-11-11T12:15:00Z</time>
      </trkpt>
      <trkpt lat="39.8914130" lon="-0.3636890">
        <ele>714.9</ele>
        <time>2020-11-11T12:15:01Z</time>
      </trkpt>
      <trkpt lat="39.8913550" lon="-0.3637270">
        <ele>715.5</ele>
        <time>2020-11-11T12:15:02Z</time>
      </trkpt>
      <trkpt lat="39.8913250" lon="-0.3637390">
        <ele>715.8</ele>
        <time>2020-11-11T12:15:03Z</time>
      </trkpt>
      <trkpt lat="39.8913110" lon="-0.3637340">
        <ele>715.9</ele>
        <time>2020-11-11T12:15:04Z</time>
      </trkpt>
      <trkpt lat="39.8912980" lon="-0.3637250">
        <ele>716.1</ele>
        <time>2020-11-11T12:15:05Z</time>
      </trkpt>
      <trkpt lat="39.8912810" lon="-0.3637110">
        <ele>716.2</ele>
        <time>2020-11-11T12:15:07Z</time>
      </trkpt>
      <trkpt lat="39.8912700" lon="-0.3637010">
        <ele>716.3</ele>
        <time>2020-11-11T12:15:08Z</time>
      </trkpt>
      <trkpt lat="39.8912450" lon="-0.3636780">
        <ele>716.6</ele>
        <time>2020-11-11T12:15:10Z</time>
      </trkpt>
      <trkpt lat="39.8912380" lon="-0.3636720">
        <ele>716.6</ele>
        <time>2020-11-11T12:15:11Z</time>
      </trkpt>
      <trkpt lat="39.8912300" lon="-0.3636630">
        <ele>716.7</ele>
        <time>2020-11-11T12:15:12Z</time>
      </trkpt>
      <trkpt lat="39.8912200" lon="-0.3636540">
        <ele>716.8</ele>
        <time>2020-11-11T12:15:13Z</time>
      </trkpt>
      <trkpt lat="39.8912110" lon="-0.3636450">
        <ele>716.9</ele>
        <time>2020-11-11T12:15:14Z</time>
      </trkpt>
      <trkpt lat="39.8911980" lon="-0.3636350">
        <ele>717.0</ele>
        <time>2020-11-11T12:15:15Z</time>
      </trkpt>
      <trkpt lat="39.8911850" lon="-0.3636260">
        <ele>717.1</ele>
        <time>2020-11-11T12:15:16Z</time>
      </trkpt>
      <trkpt lat="39.8911690" lon="-0.3636130">
        <ele>717.3</ele>
        <time>2020-11-11T12:15:18Z</time>
      </trkpt>
      <trkpt lat="39.8911570" lon="-0.3636030">
        <ele>717.4</ele>
        <time>2020-11-11T12:15:19Z</time>
      </trkpt>
      <trkpt lat="39.8911350" lon="-0.3635770">
        <ele>717.6</ele>
        <time>2020-11-11T12:15:20Z</time>
      </trkpt>
      <trkpt lat="39.8911300" lon="-0.3635690">
        <ele>717.7</ele>
        <time>2020-11-11T12:15:21Z</time>
      </trkpt>
      <trkpt lat="39.8911240" lon="-0.3635520">
        <ele>717.8</ele>
        <time>2020-11-11T12:15:23Z</time>
      </trkpt>
      <trkpt lat="39.8911200" lon="-0.3635320">
        <ele>717.9</ele>
        <time>2020-11-11T12:15:24Z</time>
      </trkpt>
      <trkpt lat="39.8911200" lon="-0.3635090">
        <ele>718.0</ele>
        <time>2020-11-11T12:15:25Z</time>
      </trkpt>
      <trkpt lat="39.8911200" lon="-0.3634890">
        <ele>718.1</ele>
        <time>2020-11-11T12:15:26Z</time>
      </trkpt>
      <trkpt lat="39.8911240" lon="-0.3634650">
        <ele>718.3</ele>
        <time>2020-11-11T12:15:27Z</time>
      </trkpt>
      <trkpt lat="39.8911290" lon="-0.3634430">
        <ele>718.4</ele>
        <time>2020-11-11T12:15:28Z</time>
      </trkpt>
      <trkpt lat="39.8911450" lon="-0.3634160">
        <ele>718.6</ele>
        <time>2020-11-11T12:15:29Z</time>
      </trkpt>
      <trkpt lat="39.8911630" lon="-0.3633810">
        <ele>718.8</ele>
        <time>2020-11-11T12:15:31Z</time>
      </trkpt>
      <trkpt lat="39.8911950" lon="-0.3633480">
        <ele>719.1</ele>
        <time>2020-11-11T12:15:33Z</time>
      </trkpt>
      <trkpt lat="39.8912210" lon="-0.3633290">
        <ele>719.3</ele>
        <time>2020-11-11T12:15:34Z</time>
      </trkpt>
      <trkpt lat="39.8912470" lon="-0.3633120">
        <ele>719.5</ele>
        <time>2020-11-11T12:15:35Z</time>
      </trkpt>
      <trkpt lat="39.8912800" lon="-0.3632930">
        <ele>719.8</ele>
        <time>2020-11-11T12:15:36Z</time>
      </trkpt>
      <trkpt lat="39.8913190" lon="-0.3632710">
        <ele>720.1</ele>
        <time>2020-11-11T12:15:38Z</time>
      </trkpt>
      <trkpt lat="39.8913510" lon="-0.3632530">
        <ele>720.3</ele>
        <time>2020-11-11T12:15:39Z</time>
      </trkpt>
      <trkpt lat="39.8913610" lon="-0.3632470">
        <ele>720.4</ele>
        <time>2020-11-11T12:15:40Z</time>
      </trkpt>
      <trkpt lat="39.8913890" lon="-0.3632300">
        <ele>720.6</ele>
        <time>2020-11-11T12:15:41Z</time>
      </trkpt>
      <trkpt lat="39.8913960" lon="-0.3632240">
        <ele>720.6</ele>
        <time>2020-11-11T12:15:42Z</time>
      </trkpt>
      <trkpt lat="39.8914250" lon="-0.3632070">
        <ele>720.8</ele>
        <time>2020-11-11T12:15:44Z</time>
      </trkpt>
      <trkpt lat="39.8914490" lon="-0.3631890">
        <ele>721.0</ele>
        <time>2020-11-11T12:15:45Z</time>
      </trkpt>
      <trkpt lat="39.8914630" lon="-0.3631750">
        <ele>721.1</ele>
        <time>2020-11-11T12:15:46Z</time>
      </trkpt>
      <trkpt lat="39.8914800" lon="-0.3631520">
        <ele>721.3</ele>
        <time>2020-11-11T12:15:48Z</time>
      </trkpt>
      <trkpt lat="39.8914930" lon="-0.3631160">
        <ele>721.5</ele>
        <time>2020-11-11T12:15:49Z</time>
      </trkpt>
      <trkpt lat="39.8914970" lon="-0.3630990">
        <ele>721.6</ele>
        <time>2020-11-11T12:15:50Z</time>
      </trkpt>
      <trkpt lat="39.8915050" lon="-0.3630380">
        <ele>721.9</ele>
        <time>2020-11-11T12:15:52Z</time>
      </trkpt>
      <trkpt lat="39.8915060" lon="-0.3630170">
        <ele>722.0</ele>
        <time>2020-11-11T12:15:53Z</time>
      </trkpt>
      <trkpt lat="39.8915070" lon="-0.3629950">
        <ele>722.1</ele>
        <time>2020-11-11T12:15:54Z</time>
      </trkpt>
      <trkpt lat="39.8915050" lon="-0.3629540">
        <ele>722.3</ele>
        <time>2020-11-11T12:15:56Z</time>
      </trkpt>
      <trkpt lat="39.8915040" lon="-0.3629400">
        <ele>722.4</ele>
        <time>2020-11-11T12:15:57Z</time>
      </trkpt>
      <trkpt lat="39.8914880" lon="-0.3629220">
        <ele>722.5</ele>
        <time>2020-11-11T12:15:58Z</time>
      </trkpt>
      <trkpt lat="39.8914780" lon="-0.3629090">
        <ele>722.6</ele>
        <time>2020-11-11T12:15:59Z</time>
      </trkpt>
      <trkpt lat="39.8914690" lon="-0.3629000">
        <ele>722.7</ele>
        <time>2020-11-11T12:16:01Z</time>
      </trkpt>
      <trkpt lat="39.8914600" lon="-0.3628820">
        <ele>722.8</ele>
        <time>2020-11-11T12:16:02Z</time>
      </trkpt>
      <trkpt lat="39.8914560" lon="-0.3628690">
        <ele>722.9</ele>
        <time>2020-11-11T12:16:04Z</time>
      </trkpt>
      <trkpt lat="39.8914550" lon="-0.3628510">
        <ele>722.9</ele>
        <time>2020-11-11T12:16:05Z</time>
      </trkpt>
      <trkpt lat="39.8914580" lon="-0.3628380">
        <ele>723.0</ele>
        <time>2020-11-11T12:16:06Z</time>
      </trkpt>
      <trkpt lat="39.8914770" lon="-0.3628100">
        <ele>723.2</ele>
        <time>2020-11-11T12:16:07Z</time>
      </trkpt>
      <trkpt lat="39.8914870" lon="-0.3627990">
        <ele>723.3</ele>
        <time>2020-11-11T12:16:08Z</time>
      </trkpt>
      <trkpt lat="39.8915030" lon="-0.3627870">
        <ele>723.4</ele>
        <time>2020-11-11T12:16:09Z</time>
      </trkpt>
      <trkpt lat="39.8915520" lon="-0.3627810">
        <ele>723.8</ele>
        <time>2020-11-11T12:16:11Z</time>
      </trkpt>
      <trkpt lat="39.8915980" lon="-0.3627750">
        <ele>724.1</ele>
        <time>2020-11-11T12:16:12Z</time>
      </trkpt>
      <trkpt lat="39.8916390" lon="-0.3627600">
        <ele>724.3</ele>
        <time>2020-11-11T12:16:13Z</time>
      </trkpt>
      <trkpt lat="39.8916650" lon="-0.3627460">
        <ele>724.5</ele>
        <time>2020-11-11T12:16:14Z</time>
      </trkpt>
      <trkpt lat="39.8916910" lon="-0.3627200">
        <ele>724.7</ele>
        <time>2020-11-11T12:16:15Z</time>
      </trkpt>
      <trkpt lat="39.8917140" lon="-0.3626920">
        <ele>724.9</ele>
        <time>2020-11-11T12:16:17Z</time>
      </trkpt>
      <trkpt lat="39.8917200" lon="-0.3626830">
        <ele>724.9</ele>
        <time>2020-11-11T12:16:18Z</time>
      </trkpt>
      <trkpt lat="39.8917300" lon="-0.3626680">
        <ele>725.0</ele>
        <time>2020-11-11T12:16:19Z</time>
      </trkpt>
      <trkpt lat="39.8917400" lon="-0.3626500">
        <ele>725.1</ele>
        <time>2020-11-11T12:16:20Z</time>
      </trkpt>
      <trkpt lat="39.8917480" lon="-0.3626330">
        <ele>725.2</ele>
        <time>2020-11-11T12:16:21Z</time>
      </trkpt>
      <trkpt lat="39.8917550" lon="-0.3626150">
        <ele>725.3</ele>
        <time>2020-11-11T12:16:22Z</time>
      </trkpt>
      <trkpt lat="39.8917610" lon="-0.3625980">
        <ele>725.3</ele>
        <time>2020-11-11T12:16:23Z</time>
      </trkpt>
      <trkpt lat="39.8917680" lon="-0.3625650">
        <ele>725.4</ele>
        <time>2020-11-11T12:16:25Z</time>
      </trkpt>
      <trkpt lat="39.8917320" lon="-0.3625350">
        <ele>725.6</ele>
        <time>2020-11-11T12:16:26Z</time>
      </trkpt>
      <trkpt lat="39.8917160" lon="-0.3625220">
        <ele>725.7</ele>
        <time>2020-11-11T12:16:27Z</time>
      </trkpt>
      <trkpt lat="39.8917060" lon="-0.3625250">
        <ele>725.7</ele>
        <time>2020-11-11T12:16:29Z</time>
      </trkpt>
      <trkpt lat="39.8916950" lon="-0.3625290">
        <ele>725.8</ele>
        <time>2020-11-11T12:16:30Z</time>
      </trkpt>
      <trkpt lat="39.8916840" lon="-0.3625320">
        <ele>725.8</ele>
        <time>2020-11-11T12:16:32Z</time>
      </trkpt>
      <trkpt lat="39.8916740" lon="-0.3625360">
        <ele>725.9</ele>
        <time>2020-11-11T12:16:33Z</time>
      </trkpt>
      <trkpt lat="39.8916630" lon="-0.3625390">
        <ele>725.9</ele>
        <time>2020-11-11T12:16:34Z</time>
      </trkpt>
      <trkpt lat="39.8916390" lon="-0.3625780">
        <ele>726.0</ele>
        <time>2020-11-11T12:16:35Z</time>
      </trkpt>
      <trkpt lat="39.8916300" lon="-0.3625870">
        <ele>726.1</ele>
        <time>2020-11-11T12:16:36Z</time>
      </trkpt>
      <trkpt lat="39.8916240" lon="-0.3625890">
        <ele>726.1</ele>
        <time>2020-11-11T12:16:38Z</time>
      </trkpt>
      <trkpt lat="39.8916220" lon="-0.3625840">
        <ele>726.1</ele>
        <time>2020-11-11T12:16:40Z</time>
      </trkpt>
      <trkpt lat="39.8916230" lon="-0.3625820">
        <ele>726.1</ele>
        <time>2020-11-11T12:16:41Z</time>
      </trkpt>
      <trkpt lat="39.8916250" lon="-0.3625760">
        <ele>726.1</ele>
        <time>2020-11-11T12:16:42Z</time>
      </trkpt>
      <trkpt lat="39.8916260" lon="-0.3625670">
        <ele>726.2</ele>
        <time>2020-11-11T12:16:43Z</time>
      </trkpt>
      <trkpt lat="39.8916280" lon="-0.3625560">
        <ele>726.2</ele>
        <time>2020-11-11T12:16:44Z</time>
      </trkpt>
      <trkpt lat="39.8916300" lon="-0.3625400">
        <ele>726.2</ele>
        <time>2020-11-11T12:16:45Z</time>
      </trkpt>
      <trkpt lat="39.8916330" lon="-0.3624980">
        <ele>726.3</ele>
        <time>2020-11-11T12:16:47Z</time>
      </trkpt>
      <trkpt lat="39.8916330" lon="-0.3624870">
        <ele>726.4</ele>
        <time>2020-11-11T12:16:48Z</time>
      </trkpt>
      <trkpt lat="39.8916320" lon="-0.3624450">
        <ele>726.5</ele>
        <time>2020-11-11T12:16:49Z</time>
      </trkpt>
      <trkpt lat="39.8916320" lon="-0.3624320">
        <ele>726.5</ele>
        <time>2020-11-11T12:16:50Z</time>
      </trkpt>
      <trkpt lat="39.8916330" lon="-0.3623860">
        <ele>726.7</ele>
        <time>2020-11-11T12:16:51Z</time>
      </trkpt>
      <trkpt lat="39.8916330" lon="-0.3623740">
        <ele>726.7</ele>
        <time>2020-11-11T12:16:52Z</time>
      </trkpt>
      <trkpt lat="39.8916340" lon="-0.3623490">
        <ele>726.8</ele>
        <time>2020-11-11T12:16:53Z</time>
      </trkpt>
      <trkpt lat="39.8916350" lon="-0.3623230">
        <ele>726.9</ele>
        <time>2020-11-11T12:16:55Z</time>
      </trkpt>
      <trkpt lat="39.8916410" lon="-0.3622840">
        <ele>727.1</ele>
        <time>2020-11-11T12:16:56Z</time>
      </trkpt>
      <trkpt lat="39.8916430" lon="-0.3622680">
        <ele>727.1</ele>
        <time>2020-11-11T12:16:57Z</time>
      </trkpt>
      <trkpt lat="39.8916490" lon="-0.3622360">
        <ele>727.3</ele>
        <time>2020-11-11T12:16:58Z</time>
      </trkpt>
      <trkpt lat="39.8916610" lon="-0.3621970">
        <ele>727.5</ele>
        <time>2020-11-11T12:17:00Z</time>
      </trkpt>
      <trkpt lat="39.8916740" lon="-0.3621580">
        <ele>727.7</ele>
        <time>2020-11-11T12:17:01Z</time>
      </trkpt>
      <trkpt lat="39.8916780" lon="-0.3621450">
        <ele>727.8</ele>
        <time>2020-11-11T12:17:02Z</time>
      </trkpt>
      <trkpt lat="39.8916940" lon="-0.3621000">
        <ele>728.0</ele>
        <time>2020-11-11T12:17:03Z</time>
      </trkpt>
      <trkpt lat="39.8917000" lon="-0.3620820">
        <ele>728.1</ele>
        <time>2020-11-11T12:17:04Z</time>
      </trkpt>
      <trkpt lat="39.8917210" lon="-0.3620320">
        <ele>728.5</ele>
        <time>2020-11-11T12:17:06Z</time>
      </trkpt>
      <trkpt lat="39.8917290" lon="-0.3620170">
        <ele>728.6</ele>
        <time>2020-11-11T12:17:07Z</time>
      </trkpt>
      <trkpt lat="39.8917360" lon="-0.3620010">
        <ele>728.7</ele>
        <time>2020-11-11T12:17:08Z</time>
      </trkpt>
      <trkpt lat="39.8917460" lon="-0.3619770">
        <ele>728.9</ele>
        <time>2020-11-11T12:17:10Z</time>
      </trkpt>
      <trkpt lat="39.8917530" lon="-0.3619450">
        <ele>729.1</ele>
        <time>2020-11-11T12:17:12Z</time>
      </trkpt>
      <trkpt lat="39.8917560" lon="-0.3619260">
        <ele>729.3</ele>
        <time>2020-11-11T12:17:13Z</time>
      </trkpt>
      <trkpt lat="39.8917560" lon="-0.3619050">
        <ele>729.4</ele>
        <time>2020-11-11T12:17:14Z</time>
      </trkpt>
      <trkpt lat="39.8917570" lon="-0.3618660">
        <ele>729.8</ele>
        <time>2020-11-11T12:17:15Z</time>
      </trkpt>
      <trkpt lat="39.8917570" lon="-0.3618570">
        <ele>729.8</ele>
        <time>2020-11-11T12:17:16Z</time>
      </trkpt>
      <trkpt lat="39.8917580" lon="-0.3618410">
        <ele>730.0</ele>
        <time>2020-11-11T12:17:18Z</time>
      </trkpt>
      <trkpt lat="39.8917590" lon="-0.3618250">
        <ele>730.1</ele>
        <time>2020-11-11T12:17:19Z</time>
      </trkpt>
      <trkpt lat="39.8917620" lon="-0.3618130">
        <ele>730.2</ele>
        <time>2020-11-11T12:17:20Z</time>
      </trkpt>
      <trkpt lat="39.8917630" lon="-0.3618030">
        <ele>730.3</ele>
        <time>2020-11-11T12:17:21Z</time>
      </trkpt>
      <trkpt lat="39.8917610" lon="-0.3617910">
        <ele>730.4</ele>
        <time>2020-11-11T12:17:22Z</time>
      </trkpt>
      <trkpt lat="39.8917570" lon="-0.3617800">
        <ele>730.5</ele>
        <time>2020-11-11T12:17:23Z</time>
      </trkpt>
      <trkpt lat="39.8917510" lon="-0.3617690">
        <ele>730.6</ele>
        <time>2020-11-11T12:17:24Z</time>
      </trkpt>
      <trkpt lat="39.8917430" lon="-0.3617600">
        <ele>730.7</ele>
        <time>2020-11-11T12:17:25Z</time>
      </trkpt>
      <trkpt lat="39.8917010" lon="-0.3617600">
        <ele>731.2</ele>
        <time>2020-11-11T12:17:27Z</time>
      </trkpt>
      <trkpt lat="39.8916690" lon="-0.3617680">
        <ele>731.6</ele>
        <time>2020-11-11T12:17:28Z</time>
      </trkpt>
      <trkpt lat="39.8916220" lon="-0.3617850">
        <ele>732.2</ele>
        <time>2020-11-11T12:17:29Z</time>
      </trkpt>
      <trkpt lat="39.8915600" lon="-0.3618250">
        <ele>732.9</ele>
        <time>2020-11-11T12:17:30Z</time>
      </trkpt>
      <trkpt lat="39.8915040" lon="-0.3618540">
        <ele>733.5</ele>
        <time>2020-11-11T12:17:32Z</time>
      </trkpt>
      <trkpt lat="39.8914770" lon="-0.3618700">
        <ele>733.8</ele>
        <time>2020-11-11T12:17:33Z</time>
      </trkpt>
      <trkpt lat="39.8914460" lon="-0.3618870">
        <ele>734.2</ele>
        <time>2020-11-11T12:17:34Z</time>
      </trkpt>
      <trkpt lat="39.8914130" lon="-0.3619030">
        <ele>734.5</ele>
        <time>2020-11-11T12:17:35Z</time>
      </trkpt>
      <trkpt lat="39.8914040" lon="-0.3619050">
        <ele>734.6</ele>
        <time>2020-11-11T12:17:36Z</time>
      </trkpt>
      <trkpt lat="39.8913740" lon="-0.3619170">
        <ele>734.9</ele>
        <time>2020-11-11T12:17:38Z</time>
      </trkpt>
      <trkpt lat="39.8913650" lon="-0.3619230">
        <ele>735.0</ele>
        <time>2020-11-11T12:17:39Z</time>
      </trkpt>
      <trkpt lat="39.8913520" lon="-0.3619370">
        <ele>735.2</ele>
        <time>2020-11-11T12:17:40Z</time>
      </trkpt>
      <trkpt lat="39.8913390" lon="-0.3619480">
        <ele>735.3</ele>
        <time>2020-11-11T12:17:41Z</time>
      </trkpt>
      <trkpt lat="39.8913220" lon="-0.3619540">
        <ele>735.5</ele>
        <time>2020-11-11T12:17:43Z</time>
      </trkpt>
      <trkpt lat="39.8913100" lon="-0.3619550">
        <ele>735.6</ele>
        <time>2020-11-11T12:17:44Z</time>
      </trkpt>
      <trkpt lat="39.8912950" lon="-0.3619530">
        <ele>735.7</ele>
        <time>2020-11-11T12:17:45Z</time>
      </trkpt>
      <trkpt lat="39.8912590" lon="-0.3619460">
        <ele>736.2</ele>
        <time>2020-11-11T12:17:47Z</time>
      </trkpt>
      <trkpt lat="39.8912270" lon="-0.3619350">
        <ele>736.7</ele>
        <time>2020-11-11T12:17:48Z</time>
      </trkpt>
      <trkpt lat="39.8912090" lon="-0.3619270">
        <ele>736.9</ele>
        <time>2020-11-11T12:17:49Z</time>
      </trkpt>
      <trkpt lat="39.8911790" lon="-0.3619080">
        <ele>737.4</ele>
        <time>2020-11-11T12:17:51Z</time>
      </trkpt>
      <trkpt lat="39.8911710" lon="-0.3618960">
        <ele>737.5</ele>
        <time>2020-11-11T12:17:52Z</time>
      </trkpt>
      <trkpt lat="39.8911660" lon="-0.3618880">
        <ele>737.6</ele>
        <time>2020-11-11T12:17:54Z</time>
      </trkpt>
      <trkpt lat="39.8911620" lon="-0.3618790">
        <ele>737.8</ele>
        <time>2020-11-11T12:17:55Z</time>
      </trkpt>
      <trkpt lat="39.8911560" lon="-0.3618690">
        <ele>737.9</ele>
        <time>2020-11-11T12:17:56Z</time>
      </trkpt>
      <trkpt lat="39.8911480" lon="-0.3618570">
        <ele>738.1</ele>
        <time>2020-11-11T12:17:57Z</time>
      </trkpt>
      <trkpt lat="39.8911400" lon="-0.3618420">
        <ele>738.3</ele>
        <time>2020-11-11T12:17:58Z</time>
      </trkpt>
      <trkpt lat="39.8911300" lon="-0.3618230">
        <ele>738.5</ele>
        <time>2020-11-11T12:17:59Z</time>
      </trkpt>
      <trkpt lat="39.8911210" lon="-0.3618060">
        <ele>738.7</ele>
        <time>2020-11-11T12:18:00Z</time>
      </trkpt>
      <trkpt lat="39.8911040" lon="-0.3617730">
        <ele>739.2</ele>
        <time>2020-11-11T12:18:01Z</time>
      </trkpt>
      <trkpt lat="39.8910980" lon="-0.3617620">
        <ele>739.3</ele>
        <time>2020-11-11T12:18:02Z</time>
      </trkpt>
      <trkpt lat="39.8910790" lon="-0.3617240">
        <ele>739.8</ele>
        <time>2020-11-11T12:18:03Z</time>
      </trkpt>
      <trkpt lat="39.8910720" lon="-0.3617120">
        <ele>740.0</ele>
        <time>2020-11-11T12:18:04Z</time>
      </trkpt>
      <trkpt lat="39.8910550" lon="-0.3616820">
        <ele>740.4</ele>
        <time>2020-11-11T12:18:06Z</time>
      </trkpt>
      <trkpt lat="39.8910490" lon="-0.3616720">
        <ele>740.5</ele>
        <time>2020-11-11T12:18:07Z</time>
      </trkpt>
      <trkpt lat="39.8910290" lon="-0.3616350">
        <ele>741.0</ele>
        <time>2020-11-11T12:18:08Z</time>
      </trkpt>
      <trkpt lat="39.8910210" lon="-0.3616210">
        <ele>741.2</ele>
        <time>2020-11-11T12:18:09Z</time>
      </trkpt>
      <trkpt lat="39.8910020" lon="-0.3615890">
        <ele>741.7</ele>
        <time>2020-11-11T12:18:11Z</time>
      </trkpt>
      <trkpt lat="39.8909950" lon="-0.3615800">
        <ele>741.8</ele>
        <time>2020-11-11T12:18:12Z</time>
      </trkpt>
      <trkpt lat="39.8909720" lon="-0.3615500">
        <ele>742.6</ele>
        <time>2020-11-11T12:18:13Z</time>
      </trkpt>
      <trkpt lat="39.8909640" lon="-0.3615420">
        <ele>742.6</ele>
        <time>2020-11-11T12:18:14Z</time>
      </trkpt>
      <trkpt lat="39.8909470" lon="-0.3615250">
        <ele>742.7</ele>
        <time>2020-11-11T12:18:15Z</time>
      </trkpt>
      <trkpt lat="39.8909240" lon="-0.3615000">
        <ele>742.9</ele>
        <time>2020-11-11T12:18:17Z</time>
      </trkpt>
      <trkpt lat="39.8909010" lon="-0.3614810">
        <ele>743.1</ele>
        <time>2020-11-11T12:18:18Z</time>
      </trkpt>
      <trkpt lat="39.8908930" lon="-0.3614750">
        <ele>743.1</ele>
        <time>2020-11-11T12:18:19Z</time>
      </trkpt>
      <trkpt lat="39.8908780" lon="-0.3614650">
        <ele>743.2</ele>
        <time>2020-11-11T12:18:20Z</time>
      </trkpt>
      <trkpt lat="39.8908650" lon="-0.3614520">
        <ele>743.3</ele>
        <time>2020-11-11T12:18:21Z</time>
      </trkpt>
      <trkpt lat="39.8908520" lon="-0.3614390">
        <ele>743.4</ele>
        <time>2020-11-11T12:18:22Z</time>
      </trkpt>
      <trkpt lat="39.8908420" lon="-0.3614280">
        <ele>743.5</ele>
        <time>2020-11-11T12:18:23Z</time>
      </trkpt>
      <trkpt lat="39.8908160" lon="-0.3614090">
        <ele>743.6</ele>
        <time>2020-11-11T12:18:24Z</time>
      </trkpt>
      <trkpt lat="39.8908030" lon="-0.3614000">
        <ele>743.7</ele>
        <time>2020-11-11T12:18:26Z</time>
      </trkpt>
      <trkpt lat="39.8907900" lon="-0.3613910">
        <ele>743.8</ele>
        <time>2020-11-11T12:18:27Z</time>
      </trkpt>
      <trkpt lat="39.8907770" lon="-0.3613820">
        <ele>743.9</ele>
        <time>2020-11-11T12:18:28Z</time>
      </trkpt>
      <trkpt lat="39.8907610" lon="-0.3613760">
        <ele>744.0</ele>
        <time>2020-11-11T12:18:29Z</time>
      </trkpt>
      <trkpt lat="39.8907450" lon="-0.3613680">
        <ele>744.1</ele>
        <time>2020-11-11T12:18:31Z</time>
      </trkpt>
      <trkpt lat="39.8907300" lon="-0.3613600">
        <ele>744.2</ele>
        <time>2020-11-11T12:18:32Z</time>
      </trkpt>
      <trkpt lat="39.8907170" lon="-0.3613500">
        <ele>744.3</ele>
        <time>2020-11-11T12:18:33Z</time>
      </trkpt>
      <trkpt lat="39.8907050" lon="-0.3613360">
        <ele>744.4</ele>
        <time>2020-11-11T12:18:34Z</time>
      </trkpt>
      <trkpt lat="39.8906950" lon="-0.3613250">
        <ele>744.5</ele>
        <time>2020-11-11T12:18:35Z</time>
      </trkpt>
      <trkpt lat="39.8906840" lon="-0.3613100">
        <ele>744.6</ele>
        <time>2020-11-11T12:18:36Z</time>
      </trkpt>
      <trkpt lat="39.8906740" lon="-0.3612940">
        <ele>744.7</ele>
        <time>2020-11-11T12:18:37Z</time>
      </trkpt>
      <trkpt lat="39.8906660" lon="-0.3612750">
        <ele>744.8</ele>
        <time>2020-11-11T12:18:39Z</time>
      </trkpt>
      <trkpt lat="39.8906620" lon="-0.3612580">
        <ele>744.9</ele>
        <time>2020-11-11T12:18:40Z</time>
      </trkpt>
      <trkpt lat="39.8906610" lon="-0.3612390">
        <ele>745.0</ele>
        <time>2020-11-11T12:18:41Z</time>
      </trkpt>
      <trkpt lat="39.8906640" lon="-0.3612190">
        <ele>745.1</ele>
        <time>2020-11-11T12:18:42Z</time>
      </trkpt>
      <trkpt lat="39.8906800" lon="-0.3611880">
        <ele>745.2</ele>
        <time>2020-11-11T12:18:43Z</time>
      </trkpt>
      <trkpt lat="39.8906870" lon="-0.3611760">
        <ele>745.3</ele>
        <time>2020-11-11T12:18:44Z</time>
      </trkpt>
      <trkpt lat="39.8907060" lon="-0.3611560">
        <ele>745.4</ele>
        <time>2020-11-11T12:18:46Z</time>
      </trkpt>
      <trkpt lat="39.8907390" lon="-0.3611450">
        <ele>745.7</ele>
        <time>2020-11-11T12:18:48Z</time>
      </trkpt>
      <trkpt lat="39.8907800" lon="-0.3611430">
        <ele>745.9</ele>
        <time>2020-11-11T12:18:49Z</time>
      </trkpt>
      <trkpt lat="39.8907960" lon="-0.3611430">
        <ele>746.0</ele>
        <time>2020-11-11T12:18:50Z</time>
      </trkpt>
      <trkpt lat="39.8908190" lon="-0.3611420">
        <ele>746.1</ele>
        <time>2020-11-11T12:18:51Z</time>
      </trkpt>
      <trkpt lat="39.8908400" lon="-0.3611400">
        <ele>746.3</ele>
        <time>2020-11-11T12:18:53Z</time>
      </trkpt>
      <trkpt lat="39.8908590" lon="-0.3611370">
        <ele>746.4</ele>
        <time>2020-11-11T12:18:54Z</time>
      </trkpt>
      <trkpt lat="39.8908870" lon="-0.3611370">
        <ele>746.6</ele>
        <time>2020-11-11T12:18:56Z</time>
      </trkpt>
      <trkpt lat="39.8909060" lon="-0.3611380">
        <ele>746.8</ele>
        <time>2020-11-11T12:18:57Z</time>
      </trkpt>
      <trkpt lat="39.8909220" lon="-0.3611380">
        <ele>746.8</ele>
        <time>2020-11-11T12:18:58Z</time>
      </trkpt>
      <trkpt lat="39.8909540" lon="-0.3611390">
        <ele>747.0</ele>
        <time>2020-11-11T12:18:59Z</time>
      </trkpt>
      <trkpt lat="39.8909620" lon="-0.3611390">
        <ele>747.1</ele>
        <time>2020-11-11T12:19:00Z</time>
      </trkpt>
      <trkpt lat="39.8909790" lon="-0.3611360">
        <ele>747.4</ele>
        <time>2020-11-11T12:19:02Z</time>
      </trkpt>
      <trkpt lat="39.8909930" lon="-0.3611290">
        <ele>748.4</ele>
        <time>2020-11-11T12:19:03Z</time>
      </trkpt>
      <trkpt lat="39.8910090" lon="-0.3611220">
        <ele>748.8</ele>
        <time>2020-11-11T12:19:04Z</time>
      </trkpt>
      <trkpt lat="39.8910220" lon="-0.3611170">
        <ele>748.8</ele>
        <time>2020-11-11T12:19:05Z</time>
      </trkpt>
      <trkpt lat="39.8910390" lon="-0.3611100">
        <ele>749.2</ele>
        <time>2020-11-11T12:19:07Z</time>
      </trkpt>
      <trkpt lat="39.8910510" lon="-0.3611070">
        <ele>749.3</ele>
        <time>2020-11-11T12:19:08Z</time>
      </trkpt>
      <trkpt lat="39.8910650" lon="-0.3611030">
        <ele>749.3</ele>
        <time>2020-11-11T12:19:10Z</time>
      </trkpt>
      <trkpt lat="39.8910300" lon="-0.3611400">
        <ele>747.9</ele>
        <time>2020-11-11T12:19:11Z</time>
      </trkpt>
      <trkpt lat="39.8910140" lon="-0.3611600">
        <ele>747.9</ele>
        <time>2020-11-11T12:19:13Z</time>
      </trkpt>
      <trkpt lat="39.8910120" lon="-0.3611640">
        <ele>748.0</ele>
        <time>2020-11-11T12:19:14Z</time>
      </trkpt>
      <trkpt lat="39.8910120" lon="-0.3611560">
        <ele>748.0</ele>
        <time>2020-11-11T12:19:16Z</time>
      </trkpt>
      <trkpt lat="39.8910100" lon="-0.3611490">
        <ele>748.1</ele>
        <time>2020-11-11T12:19:17Z</time>
      </trkpt>
      <trkpt lat="39.8910070" lon="-0.3611390">
        <ele>748.1</ele>
        <time>2020-11-11T12:19:18Z</time>
      </trkpt>
      <trkpt lat="39.8910030" lon="-0.3611280">
        <ele>748.9</ele>
        <time>2020-11-11T12:19:19Z</time>
      </trkpt>
      <trkpt lat="39.8910000" lon="-0.3611090">
        <ele>748.9</ele>
        <time>2020-11-11T12:19:20Z</time>
      </trkpt>
      <trkpt lat="39.8909970" lon="-0.3610920">
        <ele>749.0</ele>
        <time>2020-11-11T12:19:22Z</time>
      </trkpt>
      <trkpt lat="39.8909950" lon="-0.3610780">
        <ele>750.1</ele>
        <time>2020-11-11T12:19:23Z</time>
      </trkpt>
      <trkpt lat="39.8909950" lon="-0.3610640">
        <ele>750.1</ele>
        <time>2020-11-11T12:19:24Z</time>
      </trkpt>
      <trkpt lat="39.8909940" lon="-0.3610470">
        <ele>750.2</ele>
        <time>2020-11-11T12:19:25Z</time>
      </trkpt>
      <trkpt lat="39.8909920" lon="-0.3610340">
        <ele>751.3</ele>
        <time>2020-11-11T12:19:26Z</time>
      </trkpt>
      <trkpt lat="39.8909900" lon="-0.3610180">
        <ele>751.4</ele>
        <time>2020-11-11T12:19:28Z</time>
      </trkpt>
      <trkpt lat="39.8909880" lon="-0.3610020">
        <ele>752.7</ele>
        <time>2020-11-11T12:19:29Z</time>
      </trkpt>
      <trkpt lat="39.8909920" lon="-0.3609690">
        <ele>752.7</ele>
        <time>2020-11-11T12:19:30Z</time>
      </trkpt>
      <trkpt lat="39.8909980" lon="-0.3609530">
        <ele>754.1</ele>
        <time>2020-11-11T12:19:32Z</time>
      </trkpt>
      <trkpt lat="39.8910030" lon="-0.3609370">
        <ele>754.2</ele>
        <time>2020-11-11T12:19:33Z</time>
      </trkpt>
      <trkpt lat="39.8910090" lon="-0.3609210">
        <ele>754.7</ele>
        <time>2020-11-11T12:19:34Z</time>
      </trkpt>
      <trkpt lat="39.8910010" lon="-0.3609150">
        <ele>755.8</ele>
        <time>2020-11-11T12:19:35Z</time>
      </trkpt>
      <trkpt lat="39.8909890" lon="-0.3609160">
        <ele>755.8</ele>
        <time>2020-11-11T12:19:36Z</time>
      </trkpt>
      <trkpt lat="39.8909810" lon="-0.3609100">
        <ele>755.9</ele>
        <time>2020-11-11T12:19:37Z</time>
      </trkpt>
      <trkpt lat="39.8909760" lon="-0.3609020">
        <ele>755.9</ele>
        <time>2020-11-11T12:19:39Z</time>
      </trkpt>
      <trkpt lat="39.8909700" lon="-0.3608910">
        <ele>755.5</ele>
        <time>2020-11-11T12:19:40Z</time>
      </trkpt>
      <trkpt lat="39.8909630" lon="-0.3608780">
        <ele>755.5</ele>
        <time>2020-11-11T12:19:41Z</time>
      </trkpt>
      <trkpt lat="39.8909520" lon="-0.3608640">
        <ele>757.2</ele>
        <time>2020-11-11T12:19:42Z</time>
      </trkpt>
      <trkpt lat="39.8909420" lon="-0.3608520">
        <ele>757.2</ele>
        <time>2020-11-11T12:19:43Z</time>
      </trkpt>
      <trkpt lat="39.8909310" lon="-0.3608410">
        <ele>756.8</ele>
        <time>2020-11-11T12:19:44Z</time>
      </trkpt>
      <trkpt lat="39.8909150" lon="-0.3608290">
        <ele>758.5</ele>
        <time>2020-11-11T12:19:45Z</time>
      </trkpt>
      <trkpt lat="39.8908990" lon="-0.3608190">
        <ele>758.0</ele>
        <time>2020-11-11T12:19:47Z</time>
      </trkpt>
      <trkpt lat="39.8908840" lon="-0.3608100">
        <ele>758.1</ele>
        <time>2020-11-11T12:19:48Z</time>
      </trkpt>
      <trkpt lat="39.8908670" lon="-0.3608030">
        <ele>757.6</ele>
        <time>2020-11-11T12:19:49Z</time>
      </trkpt>
      <trkpt lat="39.8908500" lon="-0.3607970">
        <ele>757.6</ele>
        <time>2020-11-11T12:19:50Z</time>
      </trkpt>
      <trkpt lat="39.8908200" lon="-0.3607900">
        <ele>757.2</ele>
        <time>2020-11-11T12:19:51Z</time>
      </trkpt>
      <trkpt lat="39.8908100" lon="-0.3607880">
        <ele>758.8</ele>
        <time>2020-11-11T12:19:52Z</time>
      </trkpt>
      <trkpt lat="39.8907910" lon="-0.3607840">
        <ele>758.3</ele>
        <time>2020-11-11T12:19:53Z</time>
      </trkpt>
      <trkpt lat="39.8907650" lon="-0.3607760">
        <ele>757.9</ele>
        <time>2020-11-11T12:19:55Z</time>
      </trkpt>
      <trkpt lat="39.8907330" lon="-0.3607760">
        <ele>757.5</ele>
        <time>2020-11-11T12:19:56Z</time>
      </trkpt>
      <trkpt lat="39.8907220" lon="-0.3607760">
        <ele>757.6</ele>
        <time>2020-11-11T12:19:57Z</time>
      </trkpt>
      <trkpt lat="39.8906900" lon="-0.3607780">
        <ele>757.2</ele>
        <time>2020-11-11T12:19:58Z</time>
      </trkpt>
      <trkpt lat="39.8906790" lon="-0.3607780">
        <ele>757.3</ele>
        <time>2020-11-11T12:19:59Z</time>
      </trkpt>
      <trkpt lat="39.8906580" lon="-0.3607790">
        <ele>757.0</ele>
        <time>2020-11-11T12:20:00Z</time>
      </trkpt>
      <trkpt lat="39.8906390" lon="-0.3607790">
        <ele>756.7</ele>
        <time>2020-11-11T12:20:02Z</time>
      </trkpt>
      <trkpt lat="39.8906100" lon="-0.3607810">
        <ele>756.8</ele>
        <time>2020-11-11T12:20:03Z</time>
      </trkpt>
      <trkpt lat="39.8906020" lon="-0.3607810">
        <ele>756.6</ele>
        <time>2020-11-11T12:20:04Z</time>
      </trkpt>
      <trkpt lat="39.8905700" lon="-0.3607820">
        <ele>756.5</ele>
        <time>2020-11-11T12:20:05Z</time>
      </trkpt>
      <trkpt lat="39.8905610" lon="-0.3607820">
        <ele>756.5</ele>
        <time>2020-11-11T12:20:06Z</time>
      </trkpt>
      <trkpt lat="39.8905320" lon="-0.3607970">
        <ele>755.3</ele>
        <time>2020-11-11T12:20:08Z</time>
      </trkpt>
      <trkpt lat="39.8905190" lon="-0.3608100">
        <ele>755.3</ele>
        <time>2020-11-11T12:20:09Z</time>
      </trkpt>
      <trkpt lat="39.8904930" lon="-0.3608240">
        <ele>755.3</ele>
        <time>2020-11-11T12:20:10Z</time>
      </trkpt>
      <trkpt lat="39.8904840" lon="-0.3608270">
        <ele>755.4</ele>
        <time>2020-11-11T12:20:11Z</time>
      </trkpt>
      <trkpt lat="39.8904690" lon="-0.3608310">
        <ele>755.4</ele>
        <time>2020-11-11T12:20:12Z</time>
      </trkpt>
      <trkpt lat="39.8904530" lon="-0.3608330">
        <ele>754.4</ele>
        <time>2020-11-11T12:20:13Z</time>
      </trkpt>
      <trkpt lat="39.8904370" lon="-0.3608330">
        <ele>754.4</ele>
        <time>2020-11-11T12:20:14Z</time>
      </trkpt>
      <trkpt lat="39.8904200" lon="-0.3608310">
        <ele>755.5</ele>
        <time>2020-11-11T12:20:16Z</time>
      </trkpt>
      <trkpt lat="39.8904100" lon="-0.3608250">
        <ele>755.5</ele>
        <time>2020-11-11T12:20:17Z</time>
      </trkpt>
      <trkpt lat="39.8904030" lon="-0.3608180">
        <ele>755.6</ele>
        <time>2020-11-11T12:20:18Z</time>
      </trkpt>
      <trkpt lat="39.8903950" lon="-0.3608030">
        <ele>755.6</ele>
        <time>2020-11-11T12:20:20Z</time>
      </trkpt>
      <trkpt lat="39.8903920" lon="-0.3607890">
        <ele>756.8</ele>
        <time>2020-11-11T12:20:21Z</time>
      </trkpt>
      <trkpt lat="39.8903890" lon="-0.3607650">
        <ele>756.8</ele>
        <time>2020-11-11T12:20:23Z</time>
      </trkpt>
      <trkpt lat="39.8903910" lon="-0.3607450">
        <ele>758.0</ele>
        <time>2020-11-11T12:20:24Z</time>
      </trkpt>
      <trkpt lat="39.8903930" lon="-0.3607300">
        <ele>758.0</ele>
        <time>2020-11-11T12:20:25Z</time>
      </trkpt>
      <trkpt lat="39.8903950" lon="-0.3607080">
        <ele>758.0</ele>
        <time>2020-11-11T12:20:27Z</time>
      </trkpt>
      <trkpt lat="39.8904010" lon="-0.3606860">
        <ele>759.3</ele>
        <time>2020-11-11T12:20:28Z</time>
      </trkpt>
      <trkpt lat="39.8904260" lon="-0.3606350">
        <ele>760.5</ele>
        <time>2020-11-11T12:20:30Z</time>
      </trkpt>
      <trkpt lat="39.8904360" lon="-0.3606200">
        <ele>760.5</ele>
        <time>2020-11-11T12:20:31Z</time>
      </trkpt>
      <trkpt lat="39.8904470" lon="-0.3606040">
        <ele>761.8</ele>
        <time>2020-11-11T12:20:32Z</time>
      </trkpt>
      <trkpt lat="39.8904690" lon="-0.3605810">
        <ele>761.9</ele>
        <time>2020-11-11T12:20:33Z</time>
      </trkpt>
      <trkpt lat="39.8904910" lon="-0.3605630">
        <ele>763.4</ele>
        <time>2020-11-11T12:20:34Z</time>
      </trkpt>
      <trkpt lat="39.8905150" lon="-0.3605500">
        <ele>763.6</ele>
        <time>2020-11-11T12:20:36Z</time>
      </trkpt>
      <trkpt lat="39.8905440" lon="-0.3605430">
        <ele>763.8</ele>
        <time>2020-11-11T12:20:37Z</time>
      </trkpt>
      <trkpt lat="39.8905720" lon="-0.3605380">
        <ele>763.8</ele>
        <time>2020-11-11T12:20:38Z</time>
      </trkpt>
      <trkpt lat="39.8906240" lon="-0.3605450">
        <ele>764.5</ele>
        <time>2020-11-11T12:20:40Z</time>
      </trkpt>
      <trkpt lat="39.8906560" lon="-0.3605500">
        <ele>765.0</ele>
        <time>2020-11-11T12:20:41Z</time>
      </trkpt>
      <trkpt lat="39.8907050" lon="-0.3605590">
        <ele>765.5</ele>
        <time>2020-11-11T12:20:43Z</time>
      </trkpt>
      <trkpt lat="39.8907350" lon="-0.3605660">
        <ele>766.1</ele>
        <time>2020-11-11T12:20:44Z</time>
      </trkpt>
      <trkpt lat="39.8907760" lon="-0.3605770">
        <ele>765.9</ele>
        <time>2020-11-11T12:20:46Z</time>
      </trkpt>
      <trkpt lat="39.8908110" lon="-0.3605930">
        <ele>766.6</ele>
        <time>2020-11-11T12:20:48Z</time>
      </trkpt>
      <trkpt lat="39.8908320" lon="-0.3606050">
        <ele>766.6</ele>
        <time>2020-11-11T12:20:49Z</time>
      </trkpt>
      <trkpt lat="39.8908420" lon="-0.3606170">
        <ele>767.4</ele>
        <time>2020-11-11T12:20:51Z</time>
      </trkpt>
      <trkpt lat="39.8908480" lon="-0.3606210">
        <ele>765.8</ele>
        <time>2020-11-11T12:20:52Z</time>
      </trkpt>
      <trkpt lat="39.8908590" lon="-0.3606180">
        <ele>765.8</ele>
        <time>2020-11-11T12:20:53Z</time>
      </trkpt>
      <trkpt lat="39.8908700" lon="-0.3606150">
        <ele>767.5</ele>
        <time>2020-11-11T12:20:55Z</time>
      </trkpt>
      <trkpt lat="39.8908780" lon="-0.3606080">
        <ele>768.3</ele>
        <time>2020-11-11T12:20:56Z</time>
      </trkpt>
      <trkpt lat="39.8908810" lon="-0.3606000">
        <ele>768.3</ele>
        <time>2020-11-11T12:20:57Z</time>
      </trkpt>
      <trkpt lat="39.8908860" lon="-0.3605910">
        <ele>768.3</ele>
        <time>2020-11-11T12:20:58Z</time>
      </trkpt>
      <trkpt lat="39.8908900" lon="-0.3605850">
        <ele>768.4</ele>
        <time>2020-11-11T12:20:59Z</time>
      </trkpt>
      <trkpt lat="39.8908960" lon="-0.3605760">
        <ele>768.4</ele>
        <time>2020-11-11T12:21:01Z</time>
      </trkpt>
      <trkpt lat="39.8909020" lon="-0.3605670">
        <ele>770.1</ele>
        <time>2020-11-11T12:21:02Z</time>
      </trkpt>
      <trkpt lat="39.8909100" lon="-0.3605540">
        <ele>770.2</ele>
        <time>2020-11-11T12:21:03Z</time>
      </trkpt>
      <trkpt lat="39.8909160" lon="-0.3605430">
        <ele>770.3</ele>
        <time>2020-11-11T12:21:05Z</time>
      </trkpt>
      <trkpt lat="39.8909210" lon="-0.3605340">
        <ele>770.4</ele>
        <time>2020-11-11T12:21:06Z</time>
      </trkpt>
      <trkpt lat="39.8909280" lon="-0.3605230">
        <ele>770.5</ele>
        <time>2020-11-11T12:21:07Z</time>
      </trkpt>
      <trkpt lat="39.8909340" lon="-0.3605160">
        <ele>770.6</ele>
        <time>2020-11-11T12:21:09Z</time>
      </trkpt>
      <trkpt lat="39.8909400" lon="-0.3605130">
        <ele>770.7</ele>
        <time>2020-11-11T12:21:11Z</time>
      </trkpt>
      <trkpt lat="39.8909430" lon="-0.3605160">
        <ele>770.7</ele>
        <time>2020-11-11T12:21:12Z</time>
      </trkpt>
      <trkpt lat="39.8909480" lon="-0.3605180">
        <ele>770.8</ele>
        <time>2020-11-11T12:21:13Z</time>
      </trkpt>
      <trkpt lat="39.8909530" lon="-0.3605290">
        <ele>770.8</ele>
        <time>2020-11-11T12:21:14Z</time>
      </trkpt>
      <trkpt lat="39.8909630" lon="-0.3605510">
        <ele>771.0</ele>
        <time>2020-11-11T12:21:16Z</time>
      </trkpt>
      <trkpt lat="39.8909680" lon="-0.3605650">
        <ele>771.1</ele>
        <time>2020-11-11T12:21:17Z</time>
      </trkpt>
      <trkpt lat="39.8909760" lon="-0.3605810">
        <ele>771.2</ele>
        <time>2020-11-11T12:21:19Z</time>
      </trkpt>
      <trkpt lat="39.8909800" lon="-0.3605820">
        <ele>771.3</ele>
        <time>2020-11-11T12:21:20Z</time>
      </trkpt>
      <trkpt lat="39.8909490" lon="-0.3605880">
        <ele>771.5</ele>
        <time>2020-11-11T12:21:22Z</time>
      </trkpt>
      <trkpt lat="39.8909140" lon="-0.3606070">
        <ele>771.8</ele>
        <time>2020-11-11T12:21:23Z</time>
      </trkpt>
      <trkpt lat="39.8908990" lon="-0.3606160">
        <ele>772.0</ele>
        <time>2020-11-11T12:21:24Z</time>
      </trkpt>
      <trkpt lat="39.8908890" lon="-0.3606220">
        <ele>772.1</ele>
        <time>2020-11-11T12:21:25Z</time>
      </trkpt>
      <trkpt lat="39.8908740" lon="-0.3606260">
        <ele>772.2</ele>
        <time>2020-11-11T12:21:26Z</time>
      </trkpt>
      <trkpt lat="39.8908660" lon="-0.3606200">
        <ele>772.2</ele>
        <time>2020-11-11T12:21:28Z</time>
      </trkpt>
      <trkpt lat="39.8908580" lon="-0.3606140">
        <ele>772.3</ele>
        <time>2020-11-11T12:21:29Z</time>
      </trkpt>
      <trkpt lat="39.8908490" lon="-0.3606040">
        <ele>772.4</ele>
        <time>2020-11-11T12:21:31Z</time>
      </trkpt>
      <trkpt lat="39.8908450" lon="-0.3605930">
        <ele>772.5</ele>
        <time>2020-11-11T12:21:32Z</time>
      </trkpt>
      <trkpt lat="39.8908390" lon="-0.3605790">
        <ele>772.5</ele>
        <time>2020-11-11T12:21:33Z</time>
      </trkpt>
      <trkpt lat="39.8908320" lon="-0.3605630">
        <ele>772.7</ele>
        <time>2020-11-11T12:21:35Z</time>
      </trkpt>
      <trkpt lat="39.8908290" lon="-0.3605510">
        <ele>772.7</ele>
        <time>2020-11-11T12:21:36Z</time>
      </trkpt>
      <trkpt lat="39.8908250" lon="-0.3605390">
        <ele>772.8</ele>
        <time>2020-11-11T12:21:37Z</time>
      </trkpt>
      <trkpt lat="39.8908200" lon="-0.3605280">
        <ele>772.9</ele>
        <time>2020-11-11T12:21:39Z</time>
      </trkpt>
      <trkpt lat="39.8908120" lon="-0.3605190">
        <ele>772.9</ele>
        <time>2020-11-11T12:21:40Z</time>
      </trkpt>
      <trkpt lat="39.8908040" lon="-0.3605130">
        <ele>773.0</ele>
        <time>2020-11-11T12:21:41Z</time>
      </trkpt>
      <trkpt lat="39.8907870" lon="-0.3604980">
        <ele>773.2</ele>
        <time>2020-11-11T12:21:42Z</time>
      </trkpt>
      <trkpt lat="39.8907730" lon="-0.3604860">
        <ele>773.3</ele>
        <time>2020-11-11T12:21:44Z</time>
      </trkpt>
      <trkpt lat="39.8907610" lon="-0.3604730">
        <ele>773.4</ele>
        <time>2020-11-11T12:21:45Z</time>
      </trkpt>
      <trkpt lat="39.8907470" lon="-0.3604560">
        <ele>773.5</ele>
        <time>2020-11-11T12:21:46Z</time>
      </trkpt>
      <trkpt lat="39.8907340" lon="-0.3604400">
        <ele>773.7</ele>
        <time>2020-11-11T12:21:47Z</time>
      </trkpt>
      <trkpt lat="39.8907190" lon="-0.3604240">
        <ele>773.8</ele>
        <time>2020-11-11T12:21:49Z</time>
      </trkpt>
      <trkpt lat="39.8906960" lon="-0.3603980">
        <ele>774.0</ele>
        <time>2020-11-11T12:21:50Z</time>
      </trkpt>
      <trkpt lat="39.8906880" lon="-0.3603900">
        <ele>774.1</ele>
        <time>2020-11-11T12:21:51Z</time>
      </trkpt>
      <trkpt lat="39.8906670" lon="-0.3603670">
        <ele>774.3</ele>
        <time>2020-11-11T12:21:52Z</time>
      </trkpt>
      <trkpt lat="39.8906390" lon="-0.3603380">
        <ele>774.6</ele>
        <time>2020-11-11T12:21:53Z</time>
      </trkpt>
      <trkpt lat="39.8906290" lon="-0.3603290">
        <ele>774.7</ele>
        <time>2020-11-11T12:21:54Z</time>
      </trkpt>
      <trkpt lat="39.8906030" lon="-0.3603090">
        <ele>774.9</ele>
        <time>2020-11-11T12:21:56Z</time>
      </trkpt>
      <trkpt lat="39.8905680" lon="-0.3602930">
        <ele>775.2</ele>
        <time>2020-11-11T12:21:57Z</time>
      </trkpt>
      <trkpt lat="39.8905400" lon="-0.3602870">
        <ele>775.5</ele>
        <time>2020-11-11T12:21:58Z</time>
      </trkpt>
      <trkpt lat="39.8904880" lon="-0.3602830">
        <ele>775.9</ele>
        <time>2020-11-11T12:22:00Z</time>
      </trkpt>
      <trkpt lat="39.8904680" lon="-0.3602840">
        <ele>776.0</ele>
        <time>2020-11-11T12:22:01Z</time>
      </trkpt>
      <trkpt lat="39.8904490" lon="-0.3602840">
        <ele>776.2</ele>
        <time>2020-11-11T12:22:02Z</time>
      </trkpt>
      <trkpt lat="39.8904110" lon="-0.3602870">
        <ele>776.5</ele>
        <time>2020-11-11T12:22:03Z</time>
      </trkpt>
      <trkpt lat="39.8903160" lon="-0.3603130">
        <ele>777.3</ele>
        <time>2020-11-11T12:22:04Z</time>
      </trkpt>
      <trkpt lat="39.8902850" lon="-0.3603220">
        <ele>777.6</ele>
        <time>2020-11-11T12:22:06Z</time>
      </trkpt>
      <trkpt lat="39.8902650" lon="-0.3603260">
        <ele>777.8</ele>
        <time>2020-11-11T12:22:07Z</time>
      </trkpt>
      <trkpt lat="39.8902400" lon="-0.3603310">
        <ele>778.0</ele>
        <time>2020-11-11T12:22:09Z</time>
      </trkpt>
      <trkpt lat="39.8902240" lon="-0.3603350">
        <ele>778.1</ele>
        <time>2020-11-11T12:22:10Z</time>
      </trkpt>
      <trkpt lat="39.8901990" lon="-0.3603390">
        <ele>778.3</ele>
        <time>2020-11-11T12:22:12Z</time>
      </trkpt>
      <trkpt lat="39.8901820" lon="-0.3603440">
        <ele>778.5</ele>
        <time>2020-11-11T12:22:13Z</time>
      </trkpt>
      <trkpt lat="39.8901690" lon="-0.3603440">
        <ele>778.6</ele>
        <time>2020-11-11T12:22:14Z</time>
      </trkpt>
      <trkpt lat="39.8901490" lon="-0.3603390">
        <ele>778.8</ele>
        <time>2020-11-11T12:22:16Z</time>
      </trkpt>
      <trkpt lat="39.8901410" lon="-0.3603370">
        <ele>778.8</ele>
        <time>2020-11-11T12:22:17Z</time>
      </trkpt>
      <trkpt lat="39.8901340" lon="-0.3603340">
        <ele>778.9</ele>
        <time>2020-11-11T12:22:18Z</time>
      </trkpt>
      <trkpt lat="39.8901230" lon="-0.3603290">
        <ele>779.0</ele>
        <time>2020-11-11T12:22:19Z</time>
      </trkpt>
      <trkpt lat="39.8901120" lon="-0.3603240">
        <ele>779.1</ele>
        <time>2020-11-11T12:22:21Z</time>
      </trkpt>
      <trkpt lat="39.8901050" lon="-0.3603180">
        <ele>779.2</ele>
        <time>2020-11-11T12:22:22Z</time>
      </trkpt>
      <trkpt lat="39.8901010" lon="-0.3603000">
        <ele>779.3</ele>
        <time>2020-11-11T12:22:23Z</time>
      </trkpt>
      <trkpt lat="39.8901000" lon="-0.3602900">
        <ele>779.3</ele>
        <time>2020-11-11T12:22:25Z</time>
      </trkpt>
      <trkpt lat="39.8900980" lon="-0.3602810">
        <ele>779.4</ele>
        <time>2020-11-11T12:22:26Z</time>
      </trkpt>
      <trkpt lat="39.8900960" lon="-0.3602710">
        <ele>779.5</ele>
        <time>2020-11-11T12:22:27Z</time>
      </trkpt>
      <trkpt lat="39.8900980" lon="-0.3602540">
        <ele>779.6</ele>
        <time>2020-11-11T12:22:28Z</time>
      </trkpt>
      <trkpt lat="39.8901050" lon="-0.3602300">
        <ele>779.8</ele>
        <time>2020-11-11T12:22:30Z</time>
      </trkpt>
      <trkpt lat="39.8901130" lon="-0.3602110">
        <ele>779.9</ele>
        <time>2020-11-11T12:22:31Z</time>
      </trkpt>
      <trkpt lat="39.8901220" lon="-0.3601920">
        <ele>780.0</ele>
        <time>2020-11-11T12:22:32Z</time>
      </trkpt>
      <trkpt lat="39.8901340" lon="-0.3601780">
        <ele>780.2</ele>
        <time>2020-11-11T12:22:33Z</time>
      </trkpt>
      <trkpt lat="39.8901480" lon="-0.3601670">
        <ele>780.3</ele>
        <time>2020-11-11T12:22:34Z</time>
      </trkpt>
      <trkpt lat="39.8901790" lon="-0.3601520">
        <ele>780.6</ele>
        <time>2020-11-11T12:22:35Z</time>
      </trkpt>
      <trkpt lat="39.8901880" lon="-0.3601490">
        <ele>780.7</ele>
        <time>2020-11-11T12:22:36Z</time>
      </trkpt>
      <trkpt lat="39.8902210" lon="-0.3601440">
        <ele>780.9</ele>
        <time>2020-11-11T12:22:38Z</time>
      </trkpt>
      <trkpt lat="39.8902330" lon="-0.3601430">
        <ele>781.0</ele>
        <time>2020-11-11T12:22:39Z</time>
      </trkpt>
      <trkpt lat="39.8902620" lon="-0.3601400">
        <ele>781.3</ele>
        <time>2020-11-11T12:22:40Z</time>
      </trkpt>
      <trkpt lat="39.8902740" lon="-0.3601390">
        <ele>781.4</ele>
        <time>2020-11-11T12:22:41Z</time>
      </trkpt>
      <trkpt lat="39.8903040" lon="-0.3601370">
        <ele>781.6</ele>
        <time>2020-11-11T12:22:42Z</time>
      </trkpt>
      <trkpt lat="39.8903400" lon="-0.3601330">
        <ele>781.9</ele>
        <time>2020-11-11T12:22:44Z</time>
      </trkpt>
      <trkpt lat="39.8903510" lon="-0.3601310">
        <ele>782.0</ele>
        <time>2020-11-11T12:22:45Z</time>
      </trkpt>
      <trkpt lat="39.8903780" lon="-0.3601210">
        <ele>782.2</ele>
        <time>2020-11-11T12:22:46Z</time>
      </trkpt>
      <trkpt lat="39.8903870" lon="-0.3601170">
        <ele>782.3</ele>
        <time>2020-11-11T12:22:47Z</time>
      </trkpt>
      <trkpt lat="39.8904060" lon="-0.3601030">
        <ele>782.5</ele>
        <time>2020-11-11T12:22:48Z</time>
      </trkpt>
      <trkpt lat="39.8904200" lon="-0.3600910">
        <ele>782.6</ele>
        <time>2020-11-11T12:22:50Z</time>
      </trkpt>
      <trkpt lat="39.8904330" lon="-0.3600780">
        <ele>782.8</ele>
        <time>2020-11-11T12:22:51Z</time>
      </trkpt>
      <trkpt lat="39.8904440" lon="-0.3600660">
        <ele>782.9</ele>
        <time>2020-11-11T12:22:52Z</time>
      </trkpt>
      <trkpt lat="39.8904560" lon="-0.3600490">
        <ele>783.0</ele>
        <time>2020-11-11T12:22:53Z</time>
      </trkpt>
      <trkpt lat="39.8904630" lon="-0.3600320">
        <ele>783.2</ele>
        <time>2020-11-11T12:22:55Z</time>
      </trkpt>
      <trkpt lat="39.8904660" lon="-0.3600090">
        <ele>783.3</ele>
        <time>2020-11-11T12:22:56Z</time>
      </trkpt>
      <trkpt lat="39.8904660" lon="-0.3599900">
        <ele>786.7</ele>
        <time>2020-11-11T12:22:57Z</time>
      </trkpt>
      <trkpt lat="39.8904630" lon="-0.3599670">
        <ele>787.0</ele>
        <time>2020-11-11T12:22:58Z</time>
      </trkpt>
      <trkpt lat="39.8904570" lon="-0.3599460">
        <ele>787.3</ele>
        <time>2020-11-11T12:22:59Z</time>
      </trkpt>
      <trkpt lat="39.8904500" lon="-0.3599290">
        <ele>787.5</ele>
        <time>2020-11-11T12:23:00Z</time>
      </trkpt>
      <trkpt lat="39.8904410" lon="-0.3599090">
        <ele>787.8</ele>
        <time>2020-11-11T12:23:02Z</time>
      </trkpt>
      <trkpt lat="39.8904330" lon="-0.3598930">
        <ele>788.0</ele>
        <time>2020-11-11T12:23:03Z</time>
      </trkpt>
      <trkpt lat="39.8904200" lon="-0.3598630">
        <ele>788.4</ele>
        <time>2020-11-11T12:23:05Z</time>
      </trkpt>
      <trkpt lat="39.8904110" lon="-0.3598480">
        <ele>788.6</ele>
        <time>2020-11-11T12:23:06Z</time>
      </trkpt>
      <trkpt lat="39.8903930" lon="-0.3598180">
        <ele>789.1</ele>
        <time>2020-11-11T12:23:08Z</time>
      </trkpt>
      <trkpt lat="39.8903750" lon="-0.3597920">
        <ele>789.5</ele>
        <time>2020-11-11T12:23:09Z</time>
      </trkpt>
      <trkpt lat="39.8903530" lon="-0.3597650">
        <ele>790.0</ele>
        <time>2020-11-11T12:23:11Z</time>
      </trkpt>
      <trkpt lat="39.8903450" lon="-0.3597570">
        <ele>790.1</ele>
        <time>2020-11-11T12:23:12Z</time>
      </trkpt>
      <trkpt lat="39.8903350" lon="-0.3597460">
        <ele>790.3</ele>
        <time>2020-11-11T12:23:13Z</time>
      </trkpt>
      <trkpt lat="39.8903150" lon="-0.3597340">
        <ele>790.7</ele>
        <time>2020-11-11T12:23:14Z</time>
      </trkpt>
      <trkpt lat="39.8902870" lon="-0.3597240">
        <ele>791.1</ele>
        <time>2020-11-11T12:23:16Z</time>
      </trkpt>
      <trkpt lat="39.8902760" lon="-0.3597210">
        <ele>791.3</ele>
        <time>2020-11-11T12:23:17Z</time>
      </trkpt>
      <trkpt lat="39.8902580" lon="-0.3597180">
        <ele>791.6</ele>
        <time>2020-11-11T12:23:18Z</time>
      </trkpt>
      <trkpt lat="39.8902400" lon="-0.3597150">
        <ele>784.7</ele>
        <time>2020-11-11T12:23:19Z</time>
      </trkpt>
      <trkpt lat="39.8902070" lon="-0.3597040">
        <ele>784.6</ele>
        <time>2020-11-11T12:23:20Z</time>
      </trkpt>
      <trkpt lat="39.8901970" lon="-0.3597000">
        <ele>784.5</ele>
        <time>2020-11-11T12:23:21Z</time>
      </trkpt>
      <trkpt lat="39.8901790" lon="-0.3596910">
        <ele>784.4</ele>
        <time>2020-11-11T12:23:23Z</time>
      </trkpt>
      <trkpt lat="39.8901640" lon="-0.3596810">
        <ele>784.3</ele>
        <time>2020-11-11T12:23:24Z</time>
      </trkpt>
      <trkpt lat="39.8901420" lon="-0.3596640">
        <ele>784.2</ele>
        <time>2020-11-11T12:23:26Z</time>
      </trkpt>
      <trkpt lat="39.8901350" lon="-0.3596530">
        <ele>784.2</ele>
        <time>2020-11-11T12:23:27Z</time>
      </trkpt>
      <trkpt lat="39.8901290" lon="-0.3596350">
        <ele>783.9</ele>
        <time>2020-11-11T12:23:28Z</time>
      </trkpt>
      <trkpt lat="39.8901220" lon="-0.3596210">
        <ele>783.9</ele>
        <time>2020-11-11T12:23:29Z</time>
      </trkpt>
      <trkpt lat="39.8901160" lon="-0.3595960">
        <ele>784.0</ele>
        <time>2020-11-11T12:23:31Z</time>
      </trkpt>
      <trkpt lat="39.8901170" lon="-0.3595840">
        <ele>784.0</ele>
        <time>2020-11-11T12:23:32Z</time>
      </trkpt>
      <trkpt lat="39.8901170" lon="-0.3595730">
        <ele>784.0</ele>
        <time>2020-11-11T12:23:33Z</time>
      </trkpt>
      <trkpt lat="39.8901280" lon="-0.3595440">
        <ele>784.1</ele>
        <time>2020-11-11T12:23:34Z</time>
      </trkpt>
      <trkpt lat="39.8901410" lon="-0.3595050">
        <ele>784.2</ele>
        <time>2020-11-11T12:23:36Z</time>
      </trkpt>
      <trkpt lat="39.8901630" lon="-0.3594630">
        <ele>784.2</ele>
        <time>2020-11-11T12:23:37Z</time>
      </trkpt>
      <trkpt lat="39.8901830" lon="-0.3594340">
        <ele>784.3</ele>
        <time>2020-11-11T12:23:38Z</time>
      </trkpt>
      <trkpt lat="39.8902020" lon="-0.3594090">
        <ele>784.3</ele>
        <time>2020-11-11T12:23:39Z</time>
      </trkpt>
      <trkpt lat="39.8902200" lon="-0.3593850">
        <ele>784.3</ele>
        <time>2020-11-11T12:23:40Z</time>
      </trkpt>
      <trkpt lat="39.8902360" lon="-0.3593640">
        <ele>784.3</ele>
        <time>2020-11-11T12:23:42Z</time>
      </trkpt>
      <trkpt lat="39.8902490" lon="-0.3593410">
        <ele>784.3</ele>
        <time>2020-11-11T12:23:43Z</time>
      </trkpt>
      <trkpt lat="39.8902560" lon="-0.3593260">
        <ele>784.3</ele>
        <time>2020-11-11T12:23:44Z</time>
      </trkpt>
      <trkpt lat="39.8902630" lon="-0.3592870">
        <ele>784.3</ele>
        <time>2020-11-11T12:23:46Z</time>
      </trkpt>
      <trkpt lat="39.8902620" lon="-0.3592770">
        <ele>784.3</ele>
        <time>2020-11-11T12:23:47Z</time>
      </trkpt>
      <trkpt lat="39.8902510" lon="-0.3592420">
        <ele>784.2</ele>
        <time>2020-11-11T12:23:49Z</time>
      </trkpt>
      <trkpt lat="39.8902450" lon="-0.3592320">
        <ele>784.2</ele>
        <time>2020-11-11T12:23:50Z</time>
      </trkpt>
      <trkpt lat="39.8902370" lon="-0.3592170">
        <ele>784.2</ele>
        <time>2020-11-11T12:23:51Z</time>
      </trkpt>
      <trkpt lat="39.8902260" lon="-0.3592020">
        <ele>784.1</ele>
        <time>2020-11-11T12:23:52Z</time>
      </trkpt>
      <trkpt lat="39.8902130" lon="-0.3591890">
        <ele>784.1</ele>
        <time>2020-11-11T12:23:53Z</time>
      </trkpt>
      <trkpt lat="39.8902010" lon="-0.3591790">
        <ele>784.0</ele>
        <time>2020-11-11T12:23:54Z</time>
      </trkpt>
      <trkpt lat="39.8901900" lon="-0.3591680">
        <ele>784.0</ele>
        <time>2020-11-11T12:23:55Z</time>
      </trkpt>
      <trkpt lat="39.8901760" lon="-0.3591520">
        <ele>783.9</ele>
        <time>2020-11-11T12:23:57Z</time>
      </trkpt>
      <trkpt lat="39.8901640" lon="-0.3591340">
        <ele>783.8</ele>
        <time>2020-11-11T12:23:58Z</time>
      </trkpt>
      <trkpt lat="39.8901550" lon="-0.3591140">
        <ele>783.8</ele>
        <time>2020-11-11T12:24:00Z</time>
      </trkpt>
      <trkpt lat="39.8901470" lon="-0.3590910">
        <ele>783.7</ele>
        <time>2020-11-11T12:24:01Z</time>
      </trkpt>
      <trkpt lat="39.8901420" lon="-0.3590660">
        <ele>783.6</ele>
        <time>2020-11-11T12:24:03Z</time>
      </trkpt>
      <trkpt lat="39.8901390" lon="-0.3590370">
        <ele>783.5</ele>
        <time>2020-11-11T12:24:04Z</time>
      </trkpt>
      <trkpt lat="39.8901390" lon="-0.3590070">
        <ele>783.8</ele>
        <time>2020-11-11T12:24:06Z</time>
      </trkpt>
      <trkpt lat="39.8901410" lon="-0.3589670">
        <ele>785.0</ele>
        <time>2020-11-11T12:24:07Z</time>
      </trkpt>
      <trkpt lat="39.8901410" lon="-0.3589520">
        <ele>785.4</ele>
        <time>2020-11-11T12:24:08Z</time>
      </trkpt>
      <trkpt lat="39.8901420" lon="-0.3589200">
        <ele>786.4</ele>
        <time>2020-11-11T12:24:09Z</time>
      </trkpt>
      <trkpt lat="39.8901420" lon="-0.3588800">
        <ele>787.6</ele>
        <time>2020-11-11T12:24:11Z</time>
      </trkpt>
      <trkpt lat="39.8901440" lon="-0.3588390">
        <ele>788.8</ele>
        <time>2020-11-11T12:24:12Z</time>
      </trkpt>
      <trkpt lat="39.8901440" lon="-0.3588250">
        <ele>790.2</ele>
        <time>2020-11-11T12:24:13Z</time>
      </trkpt>
      <trkpt lat="39.8901360" lon="-0.3587840">
        <ele>790.0</ele>
        <time>2020-11-11T12:24:14Z</time>
      </trkpt>
      <trkpt lat="39.8901320" lon="-0.3587720">
        <ele>789.9</ele>
        <time>2020-11-11T12:24:15Z</time>
      </trkpt>
      <trkpt lat="39.8901180" lon="-0.3587340">
        <ele>789.8</ele>
        <time>2020-11-11T12:24:17Z</time>
      </trkpt>
      <trkpt lat="39.8901130" lon="-0.3587250">
        <ele>789.7</ele>
        <time>2020-11-11T12:24:18Z</time>
      </trkpt>
      <trkpt lat="39.8900980" lon="-0.3586990">
        <ele>789.6</ele>
        <time>2020-11-11T12:24:19Z</time>
      </trkpt>
      <trkpt lat="39.8900800" lon="-0.3586730">
        <ele>789.4</ele>
        <time>2020-11-11T12:24:21Z</time>
      </trkpt>
      <trkpt lat="39.8900600" lon="-0.3586510">
        <ele>789.2</ele>
        <time>2020-11-11T12:24:22Z</time>
      </trkpt>
      <trkpt lat="39.8900340" lon="-0.3586380">
        <ele>789.1</ele>
        <time>2020-11-11T12:24:24Z</time>
      </trkpt>
      <trkpt lat="39.8900090" lon="-0.3586200">
        <ele>788.9</ele>
        <time>2020-11-11T12:24:25Z</time>
      </trkpt>
      <trkpt lat="39.8900020" lon="-0.3586140">
        <ele>788.8</ele>
        <time>2020-11-11T12:24:26Z</time>
      </trkpt>
      <trkpt lat="39.8899650" lon="-0.3586030">
        <ele>788.6</ele>
        <time>2020-11-11T12:24:27Z</time>
      </trkpt>
      <trkpt lat="39.8899510" lon="-0.3585990">
        <ele>788.5</ele>
        <time>2020-11-11T12:24:28Z</time>
      </trkpt>
      <trkpt lat="39.8899290" lon="-0.3585860">
        <ele>788.3</ele>
        <time>2020-11-11T12:24:30Z</time>
      </trkpt>
      <trkpt lat="39.8899470" lon="-0.3585650">
        <ele>788.2</ele>
        <time>2020-11-11T12:24:32Z</time>
      </trkpt>
      <trkpt lat="39.8899620" lon="-0.3585750">
        <ele>788.1</ele>
        <time>2020-11-11T12:24:33Z</time>
      </trkpt>
      <trkpt lat="39.8899740" lon="-0.3585830">
        <ele>788.0</ele>
        <time>2020-11-11T12:24:34Z</time>
      </trkpt>
      <trkpt lat="39.8899970" lon="-0.3585740">
        <ele>787.8</ele>
        <time>2020-11-11T12:24:35Z</time>
      </trkpt>
      <trkpt lat="39.8900180" lon="-0.3585520">
        <ele>787.6</ele>
        <time>2020-11-11T12:24:37Z</time>
      </trkpt>
      <trkpt lat="39.8900400" lon="-0.3585150">
        <ele>787.3</ele>
        <time>2020-11-11T12:24:38Z</time>
      </trkpt>
      <trkpt lat="39.8900450" lon="-0.3585030">
        <ele>787.2</ele>
        <time>2020-11-11T12:24:39Z</time>
      </trkpt>
      <trkpt lat="39.8900710" lon="-0.3584760">
        <ele>786.9</ele>
        <time>2020-11-11T12:24:41Z</time>
      </trkpt>
      <trkpt lat="39.8900820" lon="-0.3584640">
        <ele>786.8</ele>
        <time>2020-11-11T12:24:43Z</time>
      </trkpt>
      <trkpt lat="39.8900940" lon="-0.3584530">
        <ele>786.6</ele>
        <time>2020-11-11T12:24:44Z</time>
      </trkpt>
      <trkpt lat="39.8901060" lon="-0.3584410">
        <ele>786.5</ele>
        <time>2020-11-11T12:24:46Z</time>
      </trkpt>
      <trkpt lat="39.8901170" lon="-0.3584300">
        <ele>786.4</ele>
        <time>2020-11-11T12:24:47Z</time>
      </trkpt>
      <trkpt lat="39.8901290" lon="-0.3584180">
        <ele>786.2</ele>
        <time>2020-11-11T12:24:48Z</time>
      </trkpt>
      <trkpt lat="39.8901610" lon="-0.3584070">
        <ele>785.9</ele>
        <time>2020-11-11T12:24:49Z</time>
      </trkpt>
      <trkpt lat="39.8902060" lon="-0.3583830">
        <ele>785.4</ele>
        <time>2020-11-11T12:24:51Z</time>
      </trkpt>
      <trkpt lat="39.8902290" lon="-0.3583720">
        <ele>785.2</ele>
        <time>2020-11-11T12:24:52Z</time>
      </trkpt>
      <trkpt lat="39.8902620" lon="-0.3583530">
        <ele>784.8</ele>
        <time>2020-11-11T12:24:54Z</time>
      </trkpt>
      <trkpt lat="39.8902770" lon="-0.3583340">
        <ele>784.6</ele>
        <time>2020-11-11T12:24:55Z</time>
      </trkpt>
      <trkpt lat="39.8902990" lon="-0.3583070">
        <ele>784.4</ele>
        <time>2020-11-11T12:24:57Z</time>
      </trkpt>
      <trkpt lat="39.8903050" lon="-0.3582830">
        <ele>784.2</ele>
        <time>2020-11-11T12:24:58Z</time>
      </trkpt>
      <trkpt lat="39.8903020" lon="-0.3582690">
        <ele>784.1</ele>
        <time>2020-11-11T12:24:59Z</time>
      </trkpt>
      <trkpt lat="39.8903000" lon="-0.3582560">
        <ele>784.0</ele>
        <time>2020-11-11T12:25:00Z</time>
      </trkpt>
      <trkpt lat="39.8902850" lon="-0.3582070">
        <ele>783.6</ele>
        <time>2020-11-11T12:25:02Z</time>
      </trkpt>
      <trkpt lat="39.8902650" lon="-0.3581800">
        <ele>783.4</ele>
        <time>2020-11-11T12:25:03Z</time>
      </trkpt>
      <trkpt lat="39.8902580" lon="-0.3581720">
        <ele>783.3</ele>
        <time>2020-11-11T12:25:04Z</time>
      </trkpt>
      <trkpt lat="39.8902290" lon="-0.3581720">
        <ele>783.1</ele>
        <time>2020-11-11T12:25:05Z</time>
      </trkpt>
      <trkpt lat="39.8902160" lon="-0.3581700">
        <ele>783.0</ele>
        <time>2020-11-11T12:25:06Z</time>
      </trkpt>
      <trkpt lat="39.8902040" lon="-0.3581560">
        <ele>782.9</ele>
        <time>2020-11-11T12:25:07Z</time>
      </trkpt>
      <trkpt lat="39.8901980" lon="-0.3581370">
        <ele>782.8</ele>
        <time>2020-11-11T12:25:08Z</time>
      </trkpt>
      <trkpt lat="39.8901930" lon="-0.3581170">
        <ele>781.2</ele>
        <time>2020-11-11T12:25:09Z</time>
      </trkpt>
      <trkpt lat="39.8901740" lon="-0.3580710">
        <ele>779.7</ele>
        <time>2020-11-11T12:25:12Z</time>
      </trkpt>
      <trkpt lat="39.8901610" lon="-0.3580580">
        <ele>779.7</ele>
        <time>2020-11-11T12:25:13Z</time>
      </trkpt>
      <trkpt lat="39.8901590" lon="-0.3580450">
        <ele>779.6</ele>
        <time>2020-11-11T12:25:14Z</time>
      </trkpt>
      <trkpt lat="39.8901590" lon="-0.3580450">
        <ele>779.5</ele>
        <time>2020-11-11T12:25:15Z</time>
      </trkpt>
      <trkpt lat="39.8901630" lon="-0.3580520">
        <ele>779.5</ele>
        <time>2020-11-11T12:25:16Z</time>
      </trkpt>
      <trkpt lat="39.8901630" lon="-0.3580540">
        <ele>779.4</ele>
        <time>2020-11-11T12:25:17Z</time>
      </trkpt>
      <trkpt lat="39.8901630" lon="-0.3580480">
        <ele>779.3</ele>
        <time>2020-11-11T12:25:19Z</time>
      </trkpt>
      <trkpt lat="39.8901610" lon="-0.3580380">
        <ele>777.9</ele>
        <time>2020-11-11T12:25:20Z</time>
      </trkpt>
      <trkpt lat="39.8901540" lon="-0.3580280">
        <ele>777.8</ele>
        <time>2020-11-11T12:25:22Z</time>
      </trkpt>
      <trkpt lat="39.8901460" lon="-0.3580240">
        <ele>778.0</ele>
        <time>2020-11-11T12:25:23Z</time>
      </trkpt>
      <trkpt lat="39.8901390" lon="-0.3580160">
        <ele>777.9</ele>
        <time>2020-11-11T12:25:25Z</time>
      </trkpt>
      <trkpt lat="39.8901370" lon="-0.3580150">
        <ele>777.8</ele>
        <time>2020-11-11T12:25:26Z</time>
      </trkpt>
      <trkpt lat="39.8901330" lon="-0.3580190">
        <ele>777.8</ele>
        <time>2020-11-11T12:25:27Z</time>
      </trkpt>
      <trkpt lat="39.8901270" lon="-0.3580230">
        <ele>777.7</ele>
        <time>2020-11-11T12:25:29Z</time>
      </trkpt>
      <trkpt lat="39.8901210" lon="-0.3580320">
        <ele>777.6</ele>
        <time>2020-11-11T12:25:30Z</time>
      </trkpt>
      <trkpt lat="39.8901130" lon="-0.3580340">
        <ele>777.9</ele>
        <time>2020-11-11T12:25:31Z</time>
      </trkpt>
      <trkpt lat="39.8901140" lon="-0.3580250">
        <ele>777.8</ele>
        <time>2020-11-11T12:25:32Z</time>
      </trkpt>
      <trkpt lat="39.8901180" lon="-0.3580210">
        <ele>777.4</ele>
        <time>2020-11-11T12:25:34Z</time>
      </trkpt>
      <trkpt lat="39.8901230" lon="-0.3580170">
        <ele>777.4</ele>
        <time>2020-11-11T12:25:35Z</time>
      </trkpt>
      <trkpt lat="39.8901280" lon="-0.3580130">
        <ele>777.3</ele>
        <time>2020-11-11T12:25:36Z</time>
      </trkpt>
      <trkpt lat="39.8901320" lon="-0.3580090">
        <ele>777.2</ele>
        <time>2020-11-11T12:25:38Z</time>
      </trkpt>
      <trkpt lat="39.8901370" lon="-0.3580050">
        <ele>777.2</ele>
        <time>2020-11-11T12:25:39Z</time>
      </trkpt>
      <trkpt lat="39.8901410" lon="-0.3580010">
        <ele>777.1</ele>
        <time>2020-11-11T12:25:40Z</time>
      </trkpt>
      <trkpt lat="39.8901460" lon="-0.3579970">
        <ele>775.8</ele>
        <time>2020-11-11T12:25:41Z</time>
      </trkpt>
      <trkpt lat="39.8901680" lon="-0.3579990">
        <ele>775.5</ele>
        <time>2020-11-11T12:25:42Z</time>
      </trkpt>
      <trkpt lat="39.8902100" lon="-0.3580220">
        <ele>776.6</ele>
        <time>2020-11-11T12:25:44Z</time>
      </trkpt>
      <trkpt lat="39.8902540" lon="-0.3580500">
        <ele>777.9</ele>
        <time>2020-11-11T12:25:46Z</time>
      </trkpt>
      <trkpt lat="39.8902870" lon="-0.3580870">
        <ele>779.5</ele>
        <time>2020-11-11T12:25:47Z</time>
      </trkpt>
      <trkpt lat="39.8903200" lon="-0.3581570">
        <ele>781.2</ele>
        <time>2020-11-11T12:25:48Z</time>
      </trkpt>
      <trkpt lat="39.8903370" lon="-0.3581930">
        <ele>782.7</ele>
        <time>2020-11-11T12:25:50Z</time>
      </trkpt>
      <trkpt lat="39.8903410" lon="-0.3582050">
        <ele>782.6</ele>
        <time>2020-11-11T12:25:51Z</time>
      </trkpt>
      <trkpt lat="39.8903480" lon="-0.3582230">
        <ele>784.4</ele>
        <time>2020-11-11T12:25:53Z</time>
      </trkpt>
      <trkpt lat="39.8903490" lon="-0.3582260">
        <ele>784.3</ele>
        <time>2020-11-11T12:25:55Z</time>
      </trkpt>
      <trkpt lat="39.8903500" lon="-0.3582290">
        <ele>784.3</ele>
        <time>2020-11-11T12:25:56Z</time>
      </trkpt>
      <trkpt lat="39.8903520" lon="-0.3582370">
        <ele>784.2</ele>
        <time>2020-11-11T12:25:58Z</time>
      </trkpt>
      <trkpt lat="39.8903520" lon="-0.3582430">
        <ele>784.1</ele>
        <time>2020-11-11T12:26:00Z</time>
      </trkpt>
      <trkpt lat="39.8903500" lon="-0.3582490">
        <ele>784.1</ele>
        <time>2020-11-11T12:26:01Z</time>
      </trkpt>
      <trkpt lat="39.8903460" lon="-0.3582570">
        <ele>784.0</ele>
        <time>2020-11-11T12:26:02Z</time>
      </trkpt>
      <trkpt lat="39.8903400" lon="-0.3582710">
        <ele>785.1</ele>
        <time>2020-11-11T12:26:04Z</time>
      </trkpt>
      <trkpt lat="39.8903370" lon="-0.3582820">
        <ele>785.0</ele>
        <time>2020-11-11T12:26:06Z</time>
      </trkpt>
      <trkpt lat="39.8903360" lon="-0.3582860">
        <ele>784.9</ele>
        <time>2020-11-11T12:26:07Z</time>
      </trkpt>
      <trkpt lat="39.8903390" lon="-0.3582880">
        <ele>784.9</ele>
        <time>2020-11-11T12:26:08Z</time>
      </trkpt>
      <trkpt lat="39.8903480" lon="-0.3583000">
        <ele>785.2</ele>
        <time>2020-11-11T12:26:10Z</time>
      </trkpt>
      <trkpt lat="39.8903500" lon="-0.3583080">
        <ele>786.5</ele>
        <time>2020-11-11T12:26:11Z</time>
      </trkpt>
      <trkpt lat="39.8903550" lon="-0.3583160">
        <ele>786.4</ele>
        <time>2020-11-11T12:26:12Z</time>
      </trkpt>
      <trkpt lat="39.8903620" lon="-0.3583240">
        <ele>786.4</ele>
        <time>2020-11-11T12:26:14Z</time>
      </trkpt>
      <trkpt lat="39.8903680" lon="-0.3583280">
        <ele>786.3</ele>
        <time>2020-11-11T12:26:15Z</time>
      </trkpt>
      <trkpt lat="39.8903740" lon="-0.3583370">
        <ele>786.2</ele>
        <time>2020-11-11T12:26:16Z</time>
      </trkpt>
      <trkpt lat="39.8903790" lon="-0.3583430">
        <ele>786.6</ele>
        <time>2020-11-11T12:26:18Z</time>
      </trkpt>
      <trkpt lat="39.8903870" lon="-0.3583420">
        <ele>786.5</ele>
        <time>2020-11-11T12:26:19Z</time>
      </trkpt>
      <trkpt lat="39.8904070" lon="-0.3583300">
        <ele>786.5</ele>
        <time>2020-11-11T12:26:21Z</time>
      </trkpt>
      <trkpt lat="39.8904180" lon="-0.3583110">
        <ele>786.9</ele>
        <time>2020-11-11T12:26:22Z</time>
      </trkpt>
      <trkpt lat="39.8904330" lon="-0.3582840">
        <ele>785.4</ele>
        <time>2020-11-11T12:26:24Z</time>
      </trkpt>
      <trkpt lat="39.8904400" lon="-0.3582580">
        <ele>785.3</ele>
        <time>2020-11-11T12:26:25Z</time>
      </trkpt>
      <trkpt lat="39.8904520" lon="-0.3582120">
        <ele>782.7</ele>
        <time>2020-11-11T12:26:27Z</time>
      </trkpt>
      <trkpt lat="39.8904600" lon="-0.3581810">
        <ele>782.6</ele>
        <time>2020-11-11T12:26:29Z</time>
      </trkpt>
      <trkpt lat="39.8904640" lon="-0.3581580">
        <ele>780.9</ele>
        <time>2020-11-11T12:26:31Z</time>
      </trkpt>
      <trkpt lat="39.8904640" lon="-0.3581480">
        <ele>780.8</ele>
        <time>2020-11-11T12:26:32Z</time>
      </trkpt>
      <trkpt lat="39.8904610" lon="-0.3581310">
        <ele>780.8</ele>
        <time>2020-11-11T12:26:34Z</time>
      </trkpt>
      <trkpt lat="39.8904590" lon="-0.3581230">
        <ele>779.0</ele>
        <time>2020-11-11T12:26:35Z</time>
      </trkpt>
      <trkpt lat="39.8904550" lon="-0.3581090">
        <ele>779.0</ele>
        <time>2020-11-11T12:26:37Z</time>
      </trkpt>
      <trkpt lat="39.8904390" lon="-0.3580850">
        <ele>776.8</ele>
        <time>2020-11-11T12:26:39Z</time>
      </trkpt>
      <trkpt lat="39.8904290" lon="-0.3580710">
        <ele>776.7</ele>
        <time>2020-11-11T12:26:40Z</time>
      </trkpt>
      <trkpt lat="39.8904150" lon="-0.3580520">
        <ele>776.7</ele>
        <time>2020-11-11T12:26:42Z</time>
      </trkpt>
      <trkpt lat="39.8904030" lon="-0.3580420">
        <ele>774.6</ele>
        <time>2020-11-11T12:26:43Z</time>
      </trkpt>
      <trkpt lat="39.8903980" lon="-0.3580350">
        <ele>774.5</ele>
        <time>2020-11-11T12:26:44Z</time>
      </trkpt>
      <trkpt lat="39.8903980" lon="-0.3580280">
        <ele>774.5</ele>
        <time>2020-11-11T12:26:46Z</time>
      </trkpt>
      <trkpt lat="39.8903990" lon="-0.3580280">
        <ele>774.4</ele>
        <time>2020-11-11T12:26:47Z</time>
      </trkpt>
      <trkpt lat="39.8904030" lon="-0.3580290">
        <ele>774.4</ele>
        <time>2020-11-11T12:26:49Z</time>
      </trkpt>
      <trkpt lat="39.8904100" lon="-0.3580280">
        <ele>774.3</ele>
        <time>2020-11-11T12:26:50Z</time>
      </trkpt>
      <trkpt lat="39.8904250" lon="-0.3580270">
        <ele>774.6</ele>
        <time>2020-11-11T12:26:52Z</time>
      </trkpt>
      <trkpt lat="39.8904410" lon="-0.3580230">
        <ele>774.5</ele>
        <time>2020-11-11T12:26:53Z</time>
      </trkpt>
      <trkpt lat="39.8904480" lon="-0.3580120">
        <ele>774.8</ele>
        <time>2020-11-11T12:26:55Z</time>
      </trkpt>
      <trkpt lat="39.8904530" lon="-0.3579950">
        <ele>773.1</ele>
        <time>2020-11-11T12:26:56Z</time>
      </trkpt>
      <trkpt lat="39.8904520" lon="-0.3579790">
        <ele>773.1</ele>
        <time>2020-11-11T12:26:57Z</time>
      </trkpt>
      <trkpt lat="39.8904470" lon="-0.3579630">
        <ele>773.0</ele>
        <time>2020-11-11T12:26:58Z</time>
      </trkpt>
      <trkpt lat="39.8904360" lon="-0.3579390">
        <ele>771.1</ele>
        <time>2020-11-11T12:27:00Z</time>
      </trkpt>
      <trkpt lat="39.8904250" lon="-0.3579180">
        <ele>771.0</ele>
        <time>2020-11-11T12:27:01Z</time>
      </trkpt>
      <trkpt lat="39.8904170" lon="-0.3578990">
        <ele>769.4</ele>
        <time>2020-11-11T12:27:03Z</time>
      </trkpt>
      <trkpt lat="39.8904130" lon="-0.3578860">
        <ele>769.3</ele>
        <time>2020-11-11T12:27:04Z</time>
      </trkpt>
      <trkpt lat="39.8904080" lon="-0.3578640">
        <ele>767.6</ele>
        <time>2020-11-11T12:27:06Z</time>
      </trkpt>
      <trkpt lat="39.8904060" lon="-0.3578450">
        <ele>767.5</ele>
        <time>2020-11-11T12:27:07Z</time>
      </trkpt>
      <trkpt lat="39.8904080" lon="-0.3578350">
        <ele>767.5</ele>
        <time>2020-11-11T12:27:08Z</time>
      </trkpt>
      <trkpt lat="39.8904140" lon="-0.3578290">
        <ele>767.6</ele>
        <time>2020-11-11T12:27:10Z</time>
      </trkpt>
      <trkpt lat="39.8904170" lon="-0.3578330">
        <ele>767.5</ele>
        <time>2020-11-11T12:27:11Z</time>
      </trkpt>
      <trkpt lat="39.8904230" lon="-0.3578540">
        <ele>767.5</ele>
        <time>2020-11-11T12:27:12Z</time>
      </trkpt>
      <trkpt lat="39.8904270" lon="-0.3578690">
        <ele>767.4</ele>
        <time>2020-11-11T12:27:14Z</time>
      </trkpt>
      <trkpt lat="39.8904320" lon="-0.3578800">
        <ele>768.8</ele>
        <time>2020-11-11T12:27:15Z</time>
      </trkpt>
      <trkpt lat="39.8904370" lon="-0.3578840">
        <ele>768.8</ele>
        <time>2020-11-11T12:27:16Z</time>
      </trkpt>
      <trkpt lat="39.8904400" lon="-0.3578810">
        <ele>768.7</ele>
        <time>2020-11-11T12:27:18Z</time>
      </trkpt>
      <trkpt lat="39.8904410" lon="-0.3578760">
        <ele>768.6</ele>
        <time>2020-11-11T12:27:19Z</time>
      </trkpt>
      <trkpt lat="39.8904420" lon="-0.3578650">
        <ele>767.1</ele>
        <time>2020-11-11T12:27:20Z</time>
      </trkpt>
      <trkpt lat="39.8904450" lon="-0.3578510">
        <ele>767.2</ele>
        <time>2020-11-11T12:27:22Z</time>
      </trkpt>
      <trkpt lat="39.8904480" lon="-0.3578450">
        <ele>767.2</ele>
        <time>2020-11-11T12:27:23Z</time>
      </trkpt>
      <trkpt lat="39.8904560" lon="-0.3578420">
        <ele>767.1</ele>
        <time>2020-11-11T12:27:24Z</time>
      </trkpt>
      <trkpt lat="39.8904620" lon="-0.3578400">
        <ele>767.0</ele>
        <time>2020-11-11T12:27:26Z</time>
      </trkpt>
      <trkpt lat="39.8904670" lon="-0.3578370">
        <ele>767.0</ele>
        <time>2020-11-11T12:27:27Z</time>
      </trkpt>
      <trkpt lat="39.8904720" lon="-0.3578350">
        <ele>766.9</ele>
        <time>2020-11-11T12:27:29Z</time>
      </trkpt>
      <trkpt lat="39.8904770" lon="-0.3578320">
        <ele>767.2</ele>
        <time>2020-11-11T12:27:30Z</time>
      </trkpt>
      <trkpt lat="39.8904830" lon="-0.3578290">
        <ele>767.1</ele>
        <time>2020-11-11T12:27:31Z</time>
      </trkpt>
      <trkpt lat="39.8904880" lon="-0.3578270">
        <ele>765.5</ele>
        <time>2020-11-11T12:27:32Z</time>
      </trkpt>
      <trkpt lat="39.8904930" lon="-0.3578240">
        <ele>765.4</ele>
        <time>2020-11-11T12:27:33Z</time>
      </trkpt>
      <trkpt lat="39.8905000" lon="-0.3577990">
        <ele>765.3</ele>
        <time>2020-11-11T12:27:35Z</time>
      </trkpt>
      <trkpt lat="39.8905040" lon="-0.3577880">
        <ele>765.3</ele>
        <time>2020-11-11T12:27:36Z</time>
      </trkpt>
      <trkpt lat="39.8905070" lon="-0.3577770">
        <ele>763.6</ele>
        <time>2020-11-11T12:27:37Z</time>
      </trkpt>
      <trkpt lat="39.8905190" lon="-0.3577530">
        <ele>763.9</ele>
        <time>2020-11-11T12:27:39Z</time>
      </trkpt>
      <trkpt lat="39.8905040" lon="-0.3577310">
        <ele>761.9</ele>
        <time>2020-11-11T12:27:40Z</time>
      </trkpt>
      <trkpt lat="39.8904910" lon="-0.3577150">
        <ele>761.9</ele>
        <time>2020-11-11T12:27:42Z</time>
      </trkpt>
      <trkpt lat="39.8904950" lon="-0.3577060">
        <ele>761.8</ele>
        <time>2020-11-11T12:27:43Z</time>
      </trkpt>
      <trkpt lat="39.8905000" lon="-0.3576960">
        <ele>760.2</ele>
        <time>2020-11-11T12:27:44Z</time>
      </trkpt>
      <trkpt lat="39.8905040" lon="-0.3576870">
        <ele>760.1</ele>
        <time>2020-11-11T12:27:46Z</time>
      </trkpt>
      <trkpt lat="39.8905080" lon="-0.3576780">
        <ele>760.1</ele>
        <time>2020-11-11T12:27:47Z</time>
      </trkpt>
      <trkpt lat="39.8905110" lon="-0.3576610">
        <ele>760.4</ele>
        <time>2020-11-11T12:27:48Z</time>
      </trkpt>
      <trkpt lat="39.8905140" lon="-0.3576380">
        <ele>758.8</ele>
        <time>2020-11-11T12:27:50Z</time>
      </trkpt>
      <trkpt lat="39.8905180" lon="-0.3576190">
        <ele>758.8</ele>
        <time>2020-11-11T12:27:51Z</time>
      </trkpt>
      <trkpt lat="39.8905280" lon="-0.3575990">
        <ele>757.3</ele>
        <time>2020-11-11T12:27:52Z</time>
      </trkpt>
      <trkpt lat="39.8905380" lon="-0.3575860">
        <ele>757.3</ele>
        <time>2020-11-11T12:27:53Z</time>
      </trkpt>
      <trkpt lat="39.8905480" lon="-0.3575730">
        <ele>757.7</ele>
        <time>2020-11-11T12:27:54Z</time>
      </trkpt>
      <trkpt lat="39.8905610" lon="-0.3575580">
        <ele>756.3</ele>
        <time>2020-11-11T12:27:56Z</time>
      </trkpt>
      <trkpt lat="39.8905660" lon="-0.3575310">
        <ele>756.3</ele>
        <time>2020-11-11T12:27:58Z</time>
      </trkpt>
      <trkpt lat="39.8905630" lon="-0.3575180">
        <ele>755.0</ele>
        <time>2020-11-11T12:27:59Z</time>
      </trkpt>
      <trkpt lat="39.8905540" lon="-0.3575030">
        <ele>755.0</ele>
        <time>2020-11-11T12:28:01Z</time>
      </trkpt>
      <trkpt lat="39.8905360" lon="-0.3574890">
        <ele>754.4</ele>
        <time>2020-11-11T12:28:03Z</time>
      </trkpt>
      <trkpt lat="39.8905120" lon="-0.3574830">
        <ele>753.3</ele>
        <time>2020-11-11T12:28:04Z</time>
      </trkpt>
      <trkpt lat="39.8904910" lon="-0.3574840">
        <ele>752.9</ele>
        <time>2020-11-11T12:28:06Z</time>
      </trkpt>
      <trkpt lat="39.8904750" lon="-0.3574860">
        <ele>753.7</ele>
        <time>2020-11-11T12:28:07Z</time>
      </trkpt>
      <trkpt lat="39.8904600" lon="-0.3574820">
        <ele>752.6</ele>
        <time>2020-11-11T12:28:09Z</time>
      </trkpt>
      <trkpt lat="39.8904510" lon="-0.3574790">
        <ele>752.6</ele>
        <time>2020-11-11T12:28:10Z</time>
      </trkpt>
      <trkpt lat="39.8904460" lon="-0.3574770">
        <ele>752.5</ele>
        <time>2020-11-11T12:28:11Z</time>
      </trkpt>
      <trkpt lat="39.8904390" lon="-0.3574700">
        <ele>752.4</ele>
        <time>2020-11-11T12:28:13Z</time>
      </trkpt>
      <trkpt lat="39.8904300" lon="-0.3574630">
        <ele>752.4</ele>
        <time>2020-11-11T12:28:14Z</time>
      </trkpt>
      <trkpt lat="39.8904050" lon="-0.3574460">
        <ele>752.5</ele>
        <time>2020-11-11T12:28:15Z</time>
      </trkpt>
      <trkpt lat="39.8903950" lon="-0.3574380">
        <ele>751.6</ele>
        <time>2020-11-11T12:28:17Z</time>
      </trkpt>
      <trkpt lat="39.8903860" lon="-0.3574310">
        <ele>751.5</ele>
        <time>2020-11-11T12:28:18Z</time>
      </trkpt>
      <trkpt lat="39.8903760" lon="-0.3574230">
        <ele>751.8</ele>
        <time>2020-11-11T12:28:19Z</time>
      </trkpt>
      <trkpt lat="39.8903660" lon="-0.3574150">
        <ele>751.7</ele>
        <time>2020-11-11T12:28:20Z</time>
      </trkpt>
      <trkpt lat="39.8903520" lon="-0.3573970">
        <ele>750.9</ele>
        <time>2020-11-11T12:28:22Z</time>
      </trkpt>
      <trkpt lat="39.8903450" lon="-0.3573870">
        <ele>750.9</ele>
        <time>2020-11-11T12:28:23Z</time>
      </trkpt>
      <trkpt lat="39.8903460" lon="-0.3573760">
        <ele>750.8</ele>
        <time>2020-11-11T12:28:24Z</time>
      </trkpt>
      <trkpt lat="39.8903460" lon="-0.3573690">
        <ele>750.7</ele>
        <time>2020-11-11T12:28:25Z</time>
      </trkpt>
      <trkpt lat="39.8903490" lon="-0.3573630">
        <ele>750.7</ele>
        <time>2020-11-11T12:28:26Z</time>
      </trkpt>
      <trkpt lat="39.8903570" lon="-0.3573570">
        <ele>750.6</ele>
        <time>2020-11-11T12:28:27Z</time>
      </trkpt>
      <trkpt lat="39.8903610" lon="-0.3573470">
        <ele>749.9</ele>
        <time>2020-11-11T12:28:29Z</time>
      </trkpt>
      <trkpt lat="39.8903640" lon="-0.3573310">
        <ele>749.8</ele>
        <time>2020-11-11T12:28:30Z</time>
      </trkpt>
      <trkpt lat="39.8903650" lon="-0.3573210">
        <ele>749.7</ele>
        <time>2020-11-11T12:28:31Z</time>
      </trkpt>
      <trkpt lat="39.8903650" lon="-0.3573100">
        <ele>749.0</ele>
        <time>2020-11-11T12:28:32Z</time>
      </trkpt>
      <trkpt lat="39.8903450" lon="-0.3572790">
        <ele>749.0</ele>
        <time>2020-11-11T12:28:33Z</time>
      </trkpt>
      <trkpt lat="39.8903370" lon="-0.3572680">
        <ele>748.9</ele>
        <time>2020-11-11T12:28:34Z</time>
      </trkpt>
      <trkpt lat="39.8903160" lon="-0.3572330">
        <ele>748.8</ele>
        <time>2020-11-11T12:28:36Z</time>
      </trkpt>
      <trkpt lat="39.8903090" lon="-0.3572210">
        <ele>748.8</ele>
        <time>2020-11-11T12:28:37Z</time>
      </trkpt>
      <trkpt lat="39.8902990" lon="-0.3571910">
        <ele>748.7</ele>
        <time>2020-11-11T12:28:38Z</time>
      </trkpt>
      <trkpt lat="39.8902890" lon="-0.3571700">
        <ele>748.1</ele>
        <time>2020-11-11T12:28:40Z</time>
      </trkpt>
      <trkpt lat="39.8902740" lon="-0.3571540">
        <ele>748.8</ele>
        <time>2020-11-11T12:28:41Z</time>
      </trkpt>
      <trkpt lat="39.8902590" lon="-0.3571460">
        <ele>748.7</ele>
        <time>2020-11-11T12:28:42Z</time>
      </trkpt>
      <trkpt lat="39.8902320" lon="-0.3571370">
        <ele>748.8</ele>
        <time>2020-11-11T12:28:43Z</time>
      </trkpt>
      <trkpt lat="39.8902200" lon="-0.3571350">
        <ele>748.7</ele>
        <time>2020-11-11T12:28:44Z</time>
      </trkpt>
      <trkpt lat="39.8902020" lon="-0.3571240">
        <ele>749.3</ele>
        <time>2020-11-11T12:28:45Z</time>
      </trkpt>
      <trkpt lat="39.8901880" lon="-0.3571100">
        <ele>749.3</ele>
        <time>2020-11-11T12:28:47Z</time>
      </trkpt>
      <trkpt lat="39.8901740" lon="-0.3570920">
        <ele>749.2</ele>
        <time>2020-11-11T12:28:48Z</time>
      </trkpt>
      <trkpt lat="39.8901620" lon="-0.3570770">
        <ele>749.2</ele>
        <time>2020-11-11T12:28:49Z</time>
      </trkpt>
      <trkpt lat="39.8901370" lon="-0.3570600">
        <ele>749.7</ele>
        <time>2020-11-11T12:28:50Z</time>
      </trkpt>
      <trkpt lat="39.8901210" lon="-0.3570490">
        <ele>749.0</ele>
        <time>2020-11-11T12:28:52Z</time>
      </trkpt>
      <trkpt lat="39.8901100" lon="-0.3570350">
        <ele>749.5</ele>
        <time>2020-11-11T12:28:53Z</time>
      </trkpt>
      <trkpt lat="39.8901000" lon="-0.3570220">
        <ele>749.4</ele>
        <time>2020-11-11T12:28:54Z</time>
      </trkpt>
      <trkpt lat="39.8900910" lon="-0.3570020">
        <ele>748.7</ele>
        <time>2020-11-11T12:28:56Z</time>
      </trkpt>
      <trkpt lat="39.8900870" lon="-0.3569920">
        <ele>748.6</ele>
        <time>2020-11-11T12:28:57Z</time>
      </trkpt>
      <trkpt lat="39.8900730" lon="-0.3569770">
        <ele>749.2</ele>
        <time>2020-11-11T12:28:59Z</time>
      </trkpt>
      <trkpt lat="39.8900670" lon="-0.3569700">
        <ele>749.1</ele>
        <time>2020-11-11T12:29:00Z</time>
      </trkpt>
      <trkpt lat="39.8900620" lon="-0.3569510">
        <ele>748.3</ele>
        <time>2020-11-11T12:29:01Z</time>
      </trkpt>
      <trkpt lat="39.8900540" lon="-0.3569280">
        <ele>748.2</ele>
        <time>2020-11-11T12:29:03Z</time>
      </trkpt>
      <trkpt lat="39.8900460" lon="-0.3569150">
        <ele>748.0</ele>
        <time>2020-11-11T12:29:04Z</time>
      </trkpt>
      <trkpt lat="39.8900380" lon="-0.3569040">
        <ele>747.9</ele>
        <time>2020-11-11T12:29:05Z</time>
      </trkpt>
      <trkpt lat="39.8900340" lon="-0.3568920">
        <ele>747.9</ele>
        <time>2020-11-11T12:29:06Z</time>
      </trkpt>
      <trkpt lat="39.8900360" lon="-0.3568720">
        <ele>746.9</ele>
        <time>2020-11-11T12:29:07Z</time>
      </trkpt>
      <trkpt lat="39.8900440" lon="-0.3568390">
        <ele>746.0</ele>
        <time>2020-11-11T12:29:09Z</time>
      </trkpt>
      <trkpt lat="39.8900550" lon="-0.3568070">
        <ele>745.3</ele>
        <time>2020-11-11T12:29:10Z</time>
      </trkpt>
      <trkpt lat="39.8900610" lon="-0.3567780">
        <ele>744.3</ele>
        <time>2020-11-11T12:29:11Z</time>
      </trkpt>
      <trkpt lat="39.8900650" lon="-0.3567440">
        <ele>743.3</ele>
        <time>2020-11-11T12:29:13Z</time>
      </trkpt>
      <trkpt lat="39.8900810" lon="-0.3567150">
        <ele>743.2</ele>
        <time>2020-11-11T12:29:14Z</time>
      </trkpt>
      <trkpt lat="39.8901170" lon="-0.3566910">
        <ele>741.1</ele>
        <time>2020-11-11T12:29:16Z</time>
      </trkpt>
      <trkpt lat="39.8901530" lon="-0.3566850">
        <ele>740.6</ele>
        <time>2020-11-11T12:29:17Z</time>
      </trkpt>
      <trkpt lat="39.8901940" lon="-0.3566660">
        <ele>739.1</ele>
        <time>2020-11-11T12:29:19Z</time>
      </trkpt>
      <trkpt lat="39.8902100" lon="-0.3566580">
        <ele>739.0</ele>
        <time>2020-11-11T12:29:20Z</time>
      </trkpt>
      <trkpt lat="39.8902220" lon="-0.3566410">
        <ele>738.5</ele>
        <time>2020-11-11T12:29:21Z</time>
      </trkpt>
      <trkpt lat="39.8902290" lon="-0.3566290">
        <ele>738.4</ele>
        <time>2020-11-11T12:29:23Z</time>
      </trkpt>
      <trkpt lat="39.8902360" lon="-0.3566220">
        <ele>737.4</ele>
        <time>2020-11-11T12:29:24Z</time>
      </trkpt>
      <trkpt lat="39.8902460" lon="-0.3566150">
        <ele>736.9</ele>
        <time>2020-11-11T12:29:25Z</time>
      </trkpt>
      <trkpt lat="39.8902480" lon="-0.3566030">
        <ele>736.8</ele>
        <time>2020-11-11T12:29:27Z</time>
      </trkpt>
      <trkpt lat="39.8902500" lon="-0.3565860">
        <ele>736.7</ele>
        <time>2020-11-11T12:29:28Z</time>
      </trkpt>
      <trkpt lat="39.8902520" lon="-0.3565650">
        <ele>735.8</ele>
        <time>2020-11-11T12:29:29Z</time>
      </trkpt>
      <trkpt lat="39.8902600" lon="-0.3565460">
        <ele>735.8</ele>
        <time>2020-11-11T12:29:31Z</time>
      </trkpt>
      <trkpt lat="39.8902690" lon="-0.3565470">
        <ele>735.7</ele>
        <time>2020-11-11T12:29:33Z</time>
      </trkpt>
      <trkpt lat="39.8902790" lon="-0.3565470">
        <ele>735.1</ele>
        <time>2020-11-11T12:29:34Z</time>
      </trkpt>
      <trkpt lat="39.8902880" lon="-0.3565480">
        <ele>735.1</ele>
        <time>2020-11-11T12:29:35Z</time>
      </trkpt>
      <trkpt lat="39.8902970" lon="-0.3565480">
        <ele>735.0</ele>
        <time>2020-11-11T12:29:36Z</time>
      </trkpt>
      <trkpt lat="39.8903270" lon="-0.3565790">
        <ele>734.5</ele>
        <time>2020-11-11T12:29:37Z</time>
      </trkpt>
      <trkpt lat="39.8903600" lon="-0.3565970">
        <ele>734.8</ele>
        <time>2020-11-11T12:29:39Z</time>
      </trkpt>
      <trkpt lat="39.8903690" lon="-0.3566020">
        <ele>734.8</ele>
        <time>2020-11-11T12:29:40Z</time>
      </trkpt>
      <trkpt lat="39.8903950" lon="-0.3566020">
        <ele>734.3</ele>
        <time>2020-11-11T12:29:41Z</time>
      </trkpt>
      <trkpt lat="39.8904060" lon="-0.3565970">
        <ele>734.2</ele>
        <time>2020-11-11T12:29:43Z</time>
      </trkpt>
      <trkpt lat="39.8904180" lon="-0.3565930">
        <ele>733.8</ele>
        <time>2020-11-11T12:29:44Z</time>
      </trkpt>
      <trkpt lat="39.8904290" lon="-0.3565880">
        <ele>733.7</ele>
        <time>2020-11-11T12:29:45Z</time>
      </trkpt>
      <trkpt lat="39.8904400" lon="-0.3565830">
        <ele>732.8</ele>
        <time>2020-11-11T12:29:46Z</time>
      </trkpt>
      <trkpt lat="39.8904550" lon="-0.3565810">
        <ele>732.3</ele>
        <time>2020-11-11T12:29:47Z</time>
      </trkpt>
      <trkpt lat="39.8904740" lon="-0.3565780">
        <ele>732.3</ele>
        <time>2020-11-11T12:29:49Z</time>
      </trkpt>
      <trkpt lat="39.8904950" lon="-0.3565800">
        <ele>731.8</ele>
        <time>2020-11-11T12:29:51Z</time>
      </trkpt>
      <trkpt lat="39.8905090" lon="-0.3565820">
        <ele>731.7</ele>
        <time>2020-11-11T12:29:52Z</time>
      </trkpt>
      <trkpt lat="39.8905180" lon="-0.3565830">
        <ele>731.3</ele>
        <time>2020-11-11T12:29:53Z</time>
      </trkpt>
      <trkpt lat="39.8905310" lon="-0.3565930">
        <ele>732.1</ele>
        <time>2020-11-11T12:29:54Z</time>
      </trkpt>
      <trkpt lat="39.8905380" lon="-0.3566120">
        <ele>732.1</ele>
        <time>2020-11-11T12:29:56Z</time>
      </trkpt>
      <trkpt lat="39.8905420" lon="-0.3566230">
        <ele>732.0</ele>
        <time>2020-11-11T12:29:57Z</time>
      </trkpt>
      <trkpt lat="39.8905480" lon="-0.3566400">
        <ele>732.6</ele>
        <time>2020-11-11T12:29:58Z</time>
      </trkpt>
      <trkpt lat="39.8905560" lon="-0.3566510">
        <ele>732.5</ele>
        <time>2020-11-11T12:29:59Z</time>
      </trkpt>
      <trkpt lat="39.8905630" lon="-0.3566830">
        <ele>733.4</ele>
        <time>2020-11-11T12:30:00Z</time>
      </trkpt>
      <trkpt lat="39.8905650" lon="-0.3567080">
        <ele>733.3</ele>
        <time>2020-11-11T12:30:02Z</time>
      </trkpt>
      <trkpt lat="39.8905620" lon="-0.3567310">
        <ele>734.2</ele>
        <time>2020-11-11T12:30:03Z</time>
      </trkpt>
      <trkpt lat="39.8905500" lon="-0.3567640">
        <ele>735.1</ele>
        <time>2020-11-11T12:30:05Z</time>
      </trkpt>
      <trkpt lat="39.8905320" lon="-0.3568010">
        <ele>736.1</ele>
        <time>2020-11-11T12:30:06Z</time>
      </trkpt>
      <trkpt lat="39.8905180" lon="-0.3568390">
        <ele>736.1</ele>
        <time>2020-11-11T12:30:08Z</time>
      </trkpt>
      <trkpt lat="39.8905120" lon="-0.3568780">
        <ele>736.9</ele>
        <time>2020-11-11T12:30:09Z</time>
      </trkpt>
      <trkpt lat="39.8905120" lon="-0.3569070">
        <ele>737.6</ele>
        <time>2020-11-11T12:30:11Z</time>
      </trkpt>
      <trkpt lat="39.8905180" lon="-0.3569390">
        <ele>738.3</ele>
        <time>2020-11-11T12:30:13Z</time>
      </trkpt>
      <trkpt lat="39.8905260" lon="-0.3569470">
        <ele>738.2</ele>
        <time>2020-11-11T12:30:14Z</time>
      </trkpt>
      <trkpt lat="39.8905370" lon="-0.3569460">
        <ele>738.1</ele>
        <time>2020-11-11T12:30:15Z</time>
      </trkpt>
      <trkpt lat="39.8905500" lon="-0.3569320">
        <ele>737.9</ele>
        <time>2020-11-11T12:30:17Z</time>
      </trkpt>
      <trkpt lat="39.8905580" lon="-0.3569100">
        <ele>737.1</ele>
        <time>2020-11-11T12:30:18Z</time>
      </trkpt>
      <trkpt lat="39.8905600" lon="-0.3568920">
        <ele>737.0</ele>
        <time>2020-11-11T12:30:19Z</time>
      </trkpt>
      <trkpt lat="39.8905720" lon="-0.3568290">
        <ele>735.3</ele>
        <time>2020-11-11T12:30:21Z</time>
      </trkpt>
      <trkpt lat="39.8905810" lon="-0.3568100">
        <ele>735.0</ele>
        <time>2020-11-11T12:30:22Z</time>
      </trkpt>
      <trkpt lat="39.8905890" lon="-0.3567920">
        <ele>734.0</ele>
        <time>2020-11-11T12:30:23Z</time>
      </trkpt>
      <trkpt lat="39.8906180" lon="-0.3567480">
        <ele>732.8</ele>
        <time>2020-11-11T12:30:25Z</time>
      </trkpt>
      <trkpt lat="39.8906270" lon="-0.3567290">
        <ele>732.8</ele>
        <time>2020-11-11T12:30:26Z</time>
      </trkpt>
      <trkpt lat="39.8906370" lon="-0.3567110">
        <ele>731.7</ele>
        <time>2020-11-11T12:30:27Z</time>
      </trkpt>
      <trkpt lat="39.8906500" lon="-0.3566850">
        <ele>731.5</ele>
        <time>2020-11-11T12:30:28Z</time>
      </trkpt>
      <trkpt lat="39.8906670" lon="-0.3566580">
        <ele>730.4</ele>
        <time>2020-11-11T12:30:30Z</time>
      </trkpt>
      <trkpt lat="39.8906760" lon="-0.3566480">
        <ele>730.3</ele>
        <time>2020-11-11T12:30:31Z</time>
      </trkpt>
      <trkpt lat="39.8906820" lon="-0.3566240">
        <ele>729.2</ele>
        <time>2020-11-11T12:30:32Z</time>
      </trkpt>
      <trkpt lat="39.8906910" lon="-0.3566070">
        <ele>729.1</ele>
        <time>2020-11-11T12:30:33Z</time>
      </trkpt>
      <trkpt lat="39.8906940" lon="-0.3565840">
        <ele>729.1</ele>
        <time>2020-11-11T12:30:35Z</time>
      </trkpt>
      <trkpt lat="39.8906910" lon="-0.3565460">
        <ele>728.0</ele>
        <time>2020-11-11T12:30:36Z</time>
      </trkpt>
      <trkpt lat="39.8906900" lon="-0.3564970">
        <ele>726.0</ele>
        <time>2020-11-11T12:30:38Z</time>
      </trkpt>
      <trkpt lat="39.8906920" lon="-0.3564730">
        <ele>725.9</ele>
        <time>2020-11-11T12:30:39Z</time>
      </trkpt>
      <trkpt lat="39.8906950" lon="-0.3564550">
        <ele>725.8</ele>
        <time>2020-11-11T12:30:40Z</time>
      </trkpt>
      <trkpt lat="39.8906940" lon="-0.3564250">
        <ele>724.7</ele>
        <time>2020-11-11T12:30:41Z</time>
      </trkpt>
      <trkpt lat="39.8906980" lon="-0.3564110">
        <ele>723.6</ele>
        <time>2020-11-11T12:30:42Z</time>
      </trkpt>
      <trkpt lat="39.8907020" lon="-0.3564040">
        <ele>723.5</ele>
        <time>2020-11-11T12:30:44Z</time>
      </trkpt>
      <trkpt lat="39.8907070" lon="-0.3564060">
        <ele>723.3</ele>
        <time>2020-11-11T12:30:45Z</time>
      </trkpt>
      <trkpt lat="39.8907190" lon="-0.3564150">
        <ele>724.4</ele>
        <time>2020-11-11T12:30:46Z</time>
      </trkpt>
      <trkpt lat="39.8907330" lon="-0.3564160">
        <ele>724.3</ele>
        <time>2020-11-11T12:30:48Z</time>
      </trkpt>
      <trkpt lat="39.8907470" lon="-0.3564080">
        <ele>723.1</ele>
        <time>2020-11-11T12:30:49Z</time>
      </trkpt>
      <trkpt lat="39.8907510" lon="-0.3563990">
        <ele>723.0</ele>
        <time>2020-11-11T12:30:51Z</time>
      </trkpt>
      <trkpt lat="39.8907510" lon="-0.3563930">
        <ele>722.9</ele>
        <time>2020-11-11T12:30:52Z</time>
      </trkpt>
      <trkpt lat="39.8907530" lon="-0.3563810">
        <ele>722.9</ele>
        <time>2020-11-11T12:30:53Z</time>
      </trkpt>
      <trkpt lat="39.8907530" lon="-0.3563560">
        <ele>721.7</ele>
        <time>2020-11-11T12:30:55Z</time>
      </trkpt>
      <trkpt lat="39.8907520" lon="-0.3563450">
        <ele>721.6</ele>
        <time>2020-11-11T12:30:56Z</time>
      </trkpt>
      <trkpt lat="39.8907500" lon="-0.3563330">
        <ele>721.5</ele>
        <time>2020-11-11T12:30:57Z</time>
      </trkpt>
      <trkpt lat="39.8907440" lon="-0.3563140">
        <ele>720.3</ele>
        <time>2020-11-11T12:30:59Z</time>
      </trkpt>
      <trkpt lat="39.8907390" lon="-0.3562940">
        <ele>720.3</ele>
        <time>2020-11-11T12:31:00Z</time>
      </trkpt>
      <trkpt lat="39.8907350" lon="-0.3562710">
        <ele>719.2</ele>
        <time>2020-11-11T12:31:02Z</time>
      </trkpt>
      <trkpt lat="39.8907320" lon="-0.3562510">
        <ele>719.1</ele>
        <time>2020-11-11T12:31:03Z</time>
      </trkpt>
      <trkpt lat="39.8907300" lon="-0.3562280">
        <ele>718.0</ele>
        <time>2020-11-11T12:31:04Z</time>
      </trkpt>
      <trkpt lat="39.8907220" lon="-0.3561980">
        <ele>717.9</ele>
        <time>2020-11-11T12:31:06Z</time>
      </trkpt>
      <trkpt lat="39.8907090" lon="-0.3561640">
        <ele>716.8</ele>
        <time>2020-11-11T12:31:08Z</time>
      </trkpt>
      <trkpt lat="39.8906490" lon="-0.3561490">
        <ele>716.1</ele>
        <time>2020-11-11T12:31:10Z</time>
      </trkpt>
      <trkpt lat="39.8905830" lon="-0.3561560">
        <ele>717.7</ele>
        <time>2020-11-11T12:31:11Z</time>
      </trkpt>
      <trkpt lat="39.8905290" lon="-0.3561500">
        <ele>717.5</ele>
        <time>2020-11-11T12:31:13Z</time>
      </trkpt>
      <trkpt lat="39.8904980" lon="-0.3561340">
        <ele>718.0</ele>
        <time>2020-11-11T12:31:14Z</time>
      </trkpt>
      <trkpt lat="39.8904890" lon="-0.3561280">
        <ele>717.9</ele>
        <time>2020-11-11T12:31:15Z</time>
      </trkpt>
      <trkpt lat="39.8904620" lon="-0.3561010">
        <ele>717.4</ele>
        <time>2020-11-11T12:31:16Z</time>
      </trkpt>
      <trkpt lat="39.8904550" lon="-0.3560930">
        <ele>717.3</ele>
        <time>2020-11-11T12:31:17Z</time>
      </trkpt>
      <trkpt lat="39.8904360" lon="-0.3560660">
        <ele>716.9</ele>
        <time>2020-11-11T12:31:19Z</time>
      </trkpt>
      <trkpt lat="39.8904300" lon="-0.3560570">
        <ele>716.7</ele>
        <time>2020-11-11T12:31:20Z</time>
      </trkpt>
      <trkpt lat="39.8904200" lon="-0.3560410">
        <ele>716.5</ele>
        <time>2020-11-11T12:31:21Z</time>
      </trkpt>
      <trkpt lat="39.8904110" lon="-0.3560270">
        <ele>716.3</ele>
        <time>2020-11-11T12:31:22Z</time>
      </trkpt>
      <trkpt lat="39.8904030" lon="-0.3560150">
        <ele>716.1</ele>
        <time>2020-11-11T12:31:23Z</time>
      </trkpt>
      <trkpt lat="39.8903900" lon="-0.3560120">
        <ele>715.9</ele>
        <time>2020-11-11T12:31:25Z</time>
      </trkpt>
      <trkpt lat="39.8903860" lon="-0.3560180">
        <ele>715.8</ele>
        <time>2020-11-11T12:31:26Z</time>
      </trkpt>
      <trkpt lat="39.8903810" lon="-0.3560250">
        <ele>715.7</ele>
        <time>2020-11-11T12:31:28Z</time>
      </trkpt>
      <trkpt lat="39.8903810" lon="-0.3560290">
        <ele>715.7</ele>
        <time>2020-11-11T12:31:29Z</time>
      </trkpt>
      <trkpt lat="39.8903950" lon="-0.3560640">
        <ele>715.3</ele>
        <time>2020-11-11T12:31:31Z</time>
      </trkpt>
      <trkpt lat="39.8904060" lon="-0.3560860">
        <ele>715.0</ele>
        <time>2020-11-11T12:31:32Z</time>
      </trkpt>
      <trkpt lat="39.8904180" lon="-0.3561050">
        <ele>714.8</ele>
        <time>2020-11-11T12:31:34Z</time>
      </trkpt>
      <trkpt lat="39.8904230" lon="-0.3561130">
        <ele>714.6</ele>
        <time>2020-11-11T12:31:36Z</time>
      </trkpt>
      <trkpt lat="39.8904240" lon="-0.3561180">
        <ele>714.6</ele>
        <time>2020-11-11T12:31:38Z</time>
      </trkpt>
      <trkpt lat="39.8904240" lon="-0.3561190">
        <ele>714.6</ele>
        <time>2020-11-11T12:31:39Z</time>
      </trkpt>
      <trkpt lat="39.8904230" lon="-0.3561200">
        <ele>714.6</ele>
        <time>2020-11-11T12:31:40Z</time>
      </trkpt>
      <trkpt lat="39.8904230" lon="-0.3561190">
        <ele>714.6</ele>
        <time>2020-11-11T12:31:41Z</time>
      </trkpt>
      <trkpt lat="39.8904220" lon="-0.3561190">
        <ele>714.5</ele>
        <time>2020-11-11T12:31:42Z</time>
      </trkpt>
      <trkpt lat="39.8904230" lon="-0.3561180">
        <ele>714.5</ele>
        <time>2020-11-11T12:31:44Z</time>
      </trkpt>
      <trkpt lat="39.8904230" lon="-0.3561160">
        <ele>714.5</ele>
        <time>2020-11-11T12:31:45Z</time>
      </trkpt>
      <trkpt lat="39.8904190" lon="-0.3561060">
        <ele>714.4</ele>
        <time>2020-11-11T12:31:47Z</time>
      </trkpt>
      <trkpt lat="39.8904140" lon="-0.3561020">
        <ele>714.3</ele>
        <time>2020-11-11T12:31:48Z</time>
      </trkpt>
      <trkpt lat="39.8903990" lon="-0.3560900">
        <ele>714.1</ele>
        <time>2020-11-11T12:31:50Z</time>
      </trkpt>
      <trkpt lat="39.8903990" lon="-0.3560680">
        <ele>713.9</ele>
        <time>2020-11-11T12:31:52Z</time>
      </trkpt>
      <trkpt lat="39.8904020" lon="-0.3560530">
        <ele>713.7</ele>
        <time>2020-11-11T12:31:53Z</time>
      </trkpt>
      <trkpt lat="39.8904060" lon="-0.3560320">
        <ele>713.5</ele>
        <time>2020-11-11T12:31:55Z</time>
      </trkpt>
      <trkpt lat="39.8904120" lon="-0.3560120">
        <ele>713.3</ele>
        <time>2020-11-11T12:31:57Z</time>
      </trkpt>
      <trkpt lat="39.8904230" lon="-0.3560030">
        <ele>713.1</ele>
        <time>2020-11-11T12:31:58Z</time>
      </trkpt>
      <trkpt lat="39.8904360" lon="-0.3559890">
        <ele>712.9</ele>
        <time>2020-11-11T12:31:59Z</time>
      </trkpt>
      <trkpt lat="39.8904460" lon="-0.3559780">
        <ele>712.8</ele>
        <time>2020-11-11T12:32:00Z</time>
      </trkpt>
      <trkpt lat="39.8904620" lon="-0.3559600">
        <ele>712.5</ele>
        <time>2020-11-11T12:32:02Z</time>
      </trkpt>
      <trkpt lat="39.8905460" lon="-0.3559800">
        <ele>711.4</ele>
        <time>2020-11-11T12:32:04Z</time>
      </trkpt>
      <trkpt lat="39.8906090" lon="-0.3559980">
        <ele>710.7</ele>
        <time>2020-11-11T12:32:05Z</time>
      </trkpt>
      <trkpt lat="39.8906370" lon="-0.3560140">
        <ele>710.3</ele>
        <time>2020-11-11T12:32:07Z</time>
      </trkpt>
      <trkpt lat="39.8906440" lon="-0.3560150">
        <ele>710.3</ele>
        <time>2020-11-11T12:32:08Z</time>
      </trkpt>
      <trkpt lat="39.8906610" lon="-0.3560070">
        <ele>710.1</ele>
        <time>2020-11-11T12:32:10Z</time>
      </trkpt>
      <trkpt lat="39.8906790" lon="-0.3559940">
        <ele>709.9</ele>
        <time>2020-11-11T12:32:12Z</time>
      </trkpt>
      <trkpt lat="39.8906950" lon="-0.3559840">
        <ele>709.7</ele>
        <time>2020-11-11T12:32:13Z</time>
      </trkpt>
      <trkpt lat="39.8907090" lon="-0.3559730">
        <ele>709.5</ele>
        <time>2020-11-11T12:32:14Z</time>
      </trkpt>
      <trkpt lat="39.8907200" lon="-0.3559590">
        <ele>709.4</ele>
        <time>2020-11-11T12:32:15Z</time>
      </trkpt>
      <trkpt lat="39.8907270" lon="-0.3559380">
        <ele>709.2</ele>
        <time>2020-11-11T12:32:16Z</time>
      </trkpt>
      <trkpt lat="39.8907360" lon="-0.3559010">
        <ele>709.0</ele>
        <time>2020-11-11T12:32:18Z</time>
      </trkpt>
      <trkpt lat="39.8907370" lon="-0.3558920">
        <ele>708.9</ele>
        <time>2020-11-11T12:32:19Z</time>
      </trkpt>
      <trkpt lat="39.8907390" lon="-0.3558610">
        <ele>708.7</ele>
        <time>2020-11-11T12:32:21Z</time>
      </trkpt>
      <trkpt lat="39.8907390" lon="-0.3558500">
        <ele>708.6</ele>
        <time>2020-11-11T12:32:22Z</time>
      </trkpt>
      <trkpt lat="39.8907380" lon="-0.3558400">
        <ele>708.6</ele>
        <time>2020-11-11T12:32:23Z</time>
      </trkpt>
      <trkpt lat="39.8907330" lon="-0.3558130">
        <ele>708.4</ele>
        <time>2020-11-11T12:32:24Z</time>
      </trkpt>
      <trkpt lat="39.8907320" lon="-0.3557860">
        <ele>708.2</ele>
        <time>2020-11-11T12:32:26Z</time>
      </trkpt>
      <trkpt lat="39.8907320" lon="-0.3557660">
        <ele>708.1</ele>
        <time>2020-11-11T12:32:27Z</time>
      </trkpt>
      <trkpt lat="39.8907260" lon="-0.3557400">
        <ele>707.9</ele>
        <time>2020-11-11T12:32:28Z</time>
      </trkpt>
      <trkpt lat="39.8907190" lon="-0.3557010">
        <ele>707.7</ele>
        <time>2020-11-11T12:32:29Z</time>
      </trkpt>
      <trkpt lat="39.8907180" lon="-0.3556900">
        <ele>707.6</ele>
        <time>2020-11-11T12:32:30Z</time>
      </trkpt>
      <trkpt lat="39.8907160" lon="-0.3556650">
        <ele>707.5</ele>
        <time>2020-11-11T12:32:31Z</time>
      </trkpt>
      <trkpt lat="39.8907130" lon="-0.3556400">
        <ele>707.3</ele>
        <time>2020-11-11T12:32:33Z</time>
      </trkpt>
      <trkpt lat="39.8907000" lon="-0.3556030">
        <ele>707.0</ele>
        <time>2020-11-11T12:32:34Z</time>
      </trkpt>
      <trkpt lat="39.8906930" lon="-0.3555900">
        <ele>706.9</ele>
        <time>2020-11-11T12:32:35Z</time>
      </trkpt>
      <trkpt lat="39.8906710" lon="-0.3555490">
        <ele>706.6</ele>
        <time>2020-11-11T12:32:37Z</time>
      </trkpt>
      <trkpt lat="39.8906620" lon="-0.3555340">
        <ele>706.4</ele>
        <time>2020-11-11T12:32:38Z</time>
      </trkpt>
      <trkpt lat="39.8906440" lon="-0.3555000">
        <ele>706.1</ele>
        <time>2020-11-11T12:32:39Z</time>
      </trkpt>
      <trkpt lat="39.8906290" lon="-0.3554730">
        <ele>705.9</ele>
        <time>2020-11-11T12:32:40Z</time>
      </trkpt>
      <trkpt lat="39.8906140" lon="-0.3554400">
        <ele>705.7</ele>
        <time>2020-11-11T12:32:42Z</time>
      </trkpt>
      <trkpt lat="39.8905910" lon="-0.3553940">
        <ele>705.3</ele>
        <time>2020-11-11T12:32:44Z</time>
      </trkpt>
      <trkpt lat="39.8905730" lon="-0.3553640">
        <ele>705.2</ele>
        <time>2020-11-11T12:32:45Z</time>
      </trkpt>
      <trkpt lat="39.8905660" lon="-0.3553540">
        <ele>705.1</ele>
        <time>2020-11-11T12:32:46Z</time>
      </trkpt>
      <trkpt lat="39.8905390" lon="-0.3553080">
        <ele>704.9</ele>
        <time>2020-11-11T12:32:48Z</time>
      </trkpt>
      <trkpt lat="39.8905290" lon="-0.3552960">
        <ele>704.9</ele>
        <time>2020-11-11T12:32:49Z</time>
      </trkpt>
      <trkpt lat="39.8905190" lon="-0.3552830">
        <ele>704.8</ele>
        <time>2020-11-11T12:32:50Z</time>
      </trkpt>
      <trkpt lat="39.8905110" lon="-0.3552710">
        <ele>704.8</ele>
        <time>2020-11-11T12:32:51Z</time>
      </trkpt>
      <trkpt lat="39.8905030" lon="-0.3552640">
        <ele>704.7</ele>
        <time>2020-11-11T12:32:52Z</time>
      </trkpt>
      <trkpt lat="39.8904910" lon="-0.3552570">
        <ele>704.7</ele>
        <time>2020-11-11T12:32:54Z</time>
      </trkpt>
      <trkpt lat="39.8904910" lon="-0.3552530">
        <ele>704.7</ele>
        <time>2020-11-11T12:32:55Z</time>
      </trkpt>
      <trkpt lat="39.8905050" lon="-0.3552520">
        <ele>704.7</ele>
        <time>2020-11-11T12:32:57Z</time>
      </trkpt>
      <trkpt lat="39.8905180" lon="-0.3552530">
        <ele>704.7</ele>
        <time>2020-11-11T12:32:58Z</time>
      </trkpt>
      <trkpt lat="39.8905330" lon="-0.3552510">
        <ele>704.7</ele>
        <time>2020-11-11T12:32:59Z</time>
      </trkpt>
      <trkpt lat="39.8905460" lon="-0.3552430">
        <ele>704.7</ele>
        <time>2020-11-11T12:33:00Z</time>
      </trkpt>
      <trkpt lat="39.8905520" lon="-0.3552300">
        <ele>704.7</ele>
        <time>2020-11-11T12:33:02Z</time>
      </trkpt>
      <trkpt lat="39.8905550" lon="-0.3552200">
        <ele>704.7</ele>
        <time>2020-11-11T12:33:03Z</time>
      </trkpt>
      <trkpt lat="39.8905510" lon="-0.3552090">
        <ele>704.7</ele>
        <time>2020-11-11T12:33:05Z</time>
      </trkpt>
      <trkpt lat="39.8905460" lon="-0.3552040">
        <ele>704.7</ele>
        <time>2020-11-11T12:33:06Z</time>
      </trkpt>
      <trkpt lat="39.8905410" lon="-0.3552030">
        <ele>704.6</ele>
        <time>2020-11-11T12:33:07Z</time>
      </trkpt>
      <trkpt lat="39.8905350" lon="-0.3552010">
        <ele>704.6</ele>
        <time>2020-11-11T12:33:08Z</time>
      </trkpt>
      <trkpt lat="39.8905200" lon="-0.3551920">
        <ele>704.5</ele>
        <time>2020-11-11T12:33:10Z</time>
      </trkpt>
      <trkpt lat="39.8905180" lon="-0.3551840">
        <ele>704.4</ele>
        <time>2020-11-11T12:33:11Z</time>
      </trkpt>
      <trkpt lat="39.8905200" lon="-0.3551740">
        <ele>704.3</ele>
        <time>2020-11-11T12:33:13Z</time>
      </trkpt>
      <trkpt lat="39.8905240" lon="-0.3551640">
        <ele>704.3</ele>
        <time>2020-11-11T12:33:14Z</time>
      </trkpt>
      <trkpt lat="39.8905340" lon="-0.3551540">
        <ele>704.2</ele>
        <time>2020-11-11T12:33:15Z</time>
      </trkpt>
      <trkpt lat="39.8905540" lon="-0.3551440">
        <ele>704.0</ele>
        <time>2020-11-11T12:33:17Z</time>
      </trkpt>
      <trkpt lat="39.8905630" lon="-0.3551440">
        <ele>703.9</ele>
        <time>2020-11-11T12:33:18Z</time>
      </trkpt>
      <trkpt lat="39.8905720" lon="-0.3551440">
        <ele>703.8</ele>
        <time>2020-11-11T12:33:19Z</time>
      </trkpt>
      <trkpt lat="39.8905870" lon="-0.3551440">
        <ele>703.7</ele>
        <time>2020-11-11T12:33:20Z</time>
      </trkpt>
      <trkpt lat="39.8906020" lon="-0.3551450">
        <ele>703.6</ele>
        <time>2020-11-11T12:33:21Z</time>
      </trkpt>
      <trkpt lat="39.8906210" lon="-0.3551450">
        <ele>703.4</ele>
        <time>2020-11-11T12:33:23Z</time>
      </trkpt>
      <trkpt lat="39.8906340" lon="-0.3551440">
        <ele>703.3</ele>
        <time>2020-11-11T12:33:24Z</time>
      </trkpt>
      <trkpt lat="39.8906540" lon="-0.3551410">
        <ele>703.2</ele>
        <time>2020-11-11T12:33:25Z</time>
      </trkpt>
      <trkpt lat="39.8906700" lon="-0.3551380">
        <ele>703.0</ele>
        <time>2020-11-11T12:33:27Z</time>
      </trkpt>
      <trkpt lat="39.8906800" lon="-0.3551360">
        <ele>703.0</ele>
        <time>2020-11-11T12:33:28Z</time>
      </trkpt>
      <trkpt lat="39.8906920" lon="-0.3551340">
        <ele>702.9</ele>
        <time>2020-11-11T12:33:29Z</time>
      </trkpt>
      <trkpt lat="39.8907040" lon="-0.3551340">
        <ele>702.8</ele>
        <time>2020-11-11T12:33:30Z</time>
      </trkpt>
      <trkpt lat="39.8907180" lon="-0.3551340">
        <ele>702.7</ele>
        <time>2020-11-11T12:33:31Z</time>
      </trkpt>
      <trkpt lat="39.8907320" lon="-0.3551310">
        <ele>702.6</ele>
        <time>2020-11-11T12:33:32Z</time>
      </trkpt>
      <trkpt lat="39.8907530" lon="-0.3551270">
        <ele>702.4</ele>
        <time>2020-11-11T12:33:34Z</time>
      </trkpt>
      <trkpt lat="39.8907800" lon="-0.3551210">
        <ele>702.2</ele>
        <time>2020-11-11T12:33:36Z</time>
      </trkpt>
      <trkpt lat="39.8911110" lon="-0.3550910">
        <ele>698.8</ele>
        <time>2020-11-11T12:33:38Z</time>
      </trkpt>
      <trkpt lat="39.8914130" lon="-0.3550690">
        <ele>694.1</ele>
        <time>2020-11-11T12:34:29Z</time>
      </trkpt>
      <trkpt lat="39.8917140" lon="-0.3550460">
        <ele>690.5</ele>
        <time>2020-11-11T12:34:31Z</time>
      </trkpt>
      <trkpt lat="39.8917170" lon="-0.3550350">
        <ele>690.4</ele>
        <time>2020-11-11T12:34:37Z</time>
      </trkpt>
      <trkpt lat="39.8915890" lon="-0.3549660">
        <ele>689.0</ele>
        <time>2020-11-11T12:34:41Z</time>
      </trkpt>
      <trkpt lat="39.8915130" lon="-0.3549730">
        <ele>688.3</ele>
        <time>2020-11-11T12:34:42Z</time>
      </trkpt>
      <trkpt lat="39.8913950" lon="-0.3550190">
        <ele>687.3</ele>
        <time>2020-11-11T12:34:43Z</time>
      </trkpt>
      <trkpt lat="39.8913440" lon="-0.3550430">
        <ele>687.0</ele>
        <time>2020-11-11T12:34:44Z</time>
      </trkpt>
      <trkpt lat="39.8913020" lon="-0.3550580">
        <ele>686.7</ele>
        <time>2020-11-11T12:34:46Z</time>
      </trkpt>
      <trkpt lat="39.8912500" lon="-0.3550590">
        <ele>686.3</ele>
        <time>2020-11-11T12:34:47Z</time>
      </trkpt>
      <trkpt lat="39.8912590" lon="-0.3550550">
        <ele>686.3</ele>
        <time>2020-11-11T12:34:49Z</time>
      </trkpt>
      <trkpt lat="39.8913800" lon="-0.3550510">
        <ele>685.4</ele>
        <time>2020-11-11T12:34:52Z</time>
      </trkpt>
      <trkpt lat="39.8913480" lon="-0.3550290">
        <ele>685.2</ele>
        <time>2020-11-11T12:34:53Z</time>
      </trkpt>
      <trkpt lat="39.8913420" lon="-0.3550110">
        <ele>685.0</ele>
        <time>2020-11-11T12:34:55Z</time>
      </trkpt>
      <trkpt lat="39.8913440" lon="-0.3550060">
        <ele>685.0</ele>
        <time>2020-11-11T12:34:57Z</time>
      </trkpt>
      <trkpt lat="39.8913550" lon="-0.3549860">
        <ele>684.9</ele>
        <time>2020-11-11T12:34:58Z</time>
      </trkpt>
      <trkpt lat="39.8913630" lon="-0.3549720">
        <ele>684.8</ele>
        <time>2020-11-11T12:35:00Z</time>
      </trkpt>
      <trkpt lat="39.8913640" lon="-0.3549610">
        <ele>684.7</ele>
        <time>2020-11-11T12:35:01Z</time>
      </trkpt>
      <trkpt lat="39.8913610" lon="-0.3549470">
        <ele>684.6</ele>
        <time>2020-11-11T12:35:02Z</time>
      </trkpt>
      <trkpt lat="39.8913530" lon="-0.3549140">
        <ele>684.4</ele>
        <time>2020-11-11T12:35:03Z</time>
      </trkpt>
      <trkpt lat="39.8913460" lon="-0.3549040">
        <ele>684.3</ele>
        <time>2020-11-11T12:35:04Z</time>
      </trkpt>
      <trkpt lat="39.8916330" lon="-0.3550720">
        <ele>681.8</ele>
        <time>2020-11-11T12:35:17Z</time>
      </trkpt>
      <trkpt lat="39.8914990" lon="-0.3550700">
        <ele>680.7</ele>
        <time>2020-11-11T12:35:18Z</time>
      </trkpt>
      <trkpt lat="39.8914790" lon="-0.3550580">
        <ele>680.5</ele>
        <time>2020-11-11T12:35:19Z</time>
      </trkpt>
      <trkpt lat="39.8915250" lon="-0.3550670">
        <ele>680.1</ele>
        <time>2020-11-11T12:35:21Z</time>
      </trkpt>
      <trkpt lat="39.8915320" lon="-0.3550570">
        <ele>680.0</ele>
        <time>2020-11-11T12:35:22Z</time>
      </trkpt>
      <trkpt lat="39.8915330" lon="-0.3550540">
        <ele>679.9</ele>
        <time>2020-11-11T12:35:23Z</time>
      </trkpt>
      <trkpt lat="39.8915310" lon="-0.3550460">
        <ele>679.9</ele>
        <time>2020-11-11T12:35:24Z</time>
      </trkpt>
      <trkpt lat="39.8915250" lon="-0.3550230">
        <ele>679.7</ele>
        <time>2020-11-11T12:35:26Z</time>
      </trkpt>
      <trkpt lat="39.8915190" lon="-0.3549670">
        <ele>679.2</ele>
        <time>2020-11-11T12:35:27Z</time>
      </trkpt>
      <trkpt lat="39.8915190" lon="-0.3549180">
        <ele>678.8</ele>
        <time>2020-11-11T12:35:28Z</time>
      </trkpt>
      <trkpt lat="39.8915200" lon="-0.3549020">
        <ele>678.6</ele>
        <time>2020-11-11T12:35:29Z</time>
      </trkpt>
      <trkpt lat="39.8915290" lon="-0.3548560">
        <ele>678.2</ele>
        <time>2020-11-11T12:35:31Z</time>
      </trkpt>
      <trkpt lat="39.8915340" lon="-0.3548410">
        <ele>678.1</ele>
        <time>2020-11-11T12:35:32Z</time>
      </trkpt>
      <trkpt lat="39.8915600" lon="-0.3547970">
        <ele>677.6</ele>
        <time>2020-11-11T12:35:33Z</time>
      </trkpt>
      <trkpt lat="39.8915720" lon="-0.3547820">
        <ele>677.4</ele>
        <time>2020-11-11T12:35:34Z</time>
      </trkpt>
      <trkpt lat="39.8916060" lon="-0.3547390">
        <ele>676.8</ele>
        <time>2020-11-11T12:35:36Z</time>
      </trkpt>
      <trkpt lat="39.8916260" lon="-0.3547080">
        <ele>676.4</ele>
        <time>2020-11-11T12:35:37Z</time>
      </trkpt>
      <trkpt lat="39.8916530" lon="-0.3546630">
        <ele>675.9</ele>
        <time>2020-11-11T12:35:38Z</time>
      </trkpt>
      <trkpt lat="39.8916760" lon="-0.3546250">
        <ele>675.4</ele>
        <time>2020-11-11T12:35:39Z</time>
      </trkpt>
      <trkpt lat="39.8917060" lon="-0.3545710">
        <ele>674.7</ele>
        <time>2020-11-11T12:35:40Z</time>
      </trkpt>
      <trkpt lat="39.8917260" lon="-0.3545340">
        <ele>674.2</ele>
        <time>2020-11-11T12:35:41Z</time>
      </trkpt>
      <trkpt lat="39.8917460" lon="-0.3544980">
        <ele>673.6</ele>
        <time>2020-11-11T12:35:43Z</time>
      </trkpt>
      <trkpt lat="39.8917610" lon="-0.3544570">
        <ele>673.1</ele>
        <time>2020-11-11T12:35:44Z</time>
      </trkpt>
      <trkpt lat="39.8917710" lon="-0.3544030">
        <ele>672.5</ele>
        <time>2020-11-11T12:35:46Z</time>
      </trkpt>
      <trkpt lat="39.8917720" lon="-0.3543800">
        <ele>672.3</ele>
        <time>2020-11-11T12:35:47Z</time>
      </trkpt>
      <trkpt lat="39.8917690" lon="-0.3543240">
        <ele>671.7</ele>
        <time>2020-11-11T12:35:49Z</time>
      </trkpt>
      <trkpt lat="39.8917670" lon="-0.3543040">
        <ele>671.5</ele>
        <time>2020-11-11T12:35:50Z</time>
      </trkpt>
      <trkpt lat="39.8917640" lon="-0.3542840">
        <ele>671.2</ele>
        <time>2020-11-11T12:35:51Z</time>
      </trkpt>
      <trkpt lat="39.8917630" lon="-0.3542470">
        <ele>670.9</ele>
        <time>2020-11-11T12:35:53Z</time>
      </trkpt>
      <trkpt lat="39.8917630" lon="-0.3542250">
        <ele>670.6</ele>
        <time>2020-11-11T12:35:54Z</time>
      </trkpt>
      <trkpt lat="39.8917630" lon="-0.3542040">
        <ele>670.4</ele>
        <time>2020-11-11T12:35:55Z</time>
      </trkpt>
      <trkpt lat="39.8917680" lon="-0.3541560">
        <ele>669.9</ele>
        <time>2020-11-11T12:35:57Z</time>
      </trkpt>
      <trkpt lat="39.8917820" lon="-0.3541170">
        <ele>669.5</ele>
        <time>2020-11-11T12:35:58Z</time>
      </trkpt>
      <trkpt lat="39.8918000" lon="-0.3540600">
        <ele>668.9</ele>
        <time>2020-11-11T12:36:00Z</time>
      </trkpt>
      <trkpt lat="39.8918060" lon="-0.3540410">
        <ele>668.7</ele>
        <time>2020-11-11T12:36:01Z</time>
      </trkpt>
      <trkpt lat="39.8918110" lon="-0.3540210">
        <ele>668.5</ele>
        <time>2020-11-11T12:36:02Z</time>
      </trkpt>
      <trkpt lat="39.8918190" lon="-0.3539880">
        <ele>668.1</ele>
        <time>2020-11-11T12:36:03Z</time>
      </trkpt>
      <trkpt lat="39.8918230" lon="-0.3539640">
        <ele>667.8</ele>
        <time>2020-11-11T12:36:05Z</time>
      </trkpt>
      <trkpt lat="39.8918340" lon="-0.3539190">
        <ele>667.3</ele>
        <time>2020-11-11T12:36:06Z</time>
      </trkpt>
      <trkpt lat="39.8918390" lon="-0.3539010">
        <ele>667.1</ele>
        <time>2020-11-11T12:36:07Z</time>
      </trkpt>
      <trkpt lat="39.8918460" lon="-0.3538670">
        <ele>666.7</ele>
        <time>2020-11-11T12:36:09Z</time>
      </trkpt>
      <trkpt lat="39.8918490" lon="-0.3538360">
        <ele>666.4</ele>
        <time>2020-11-11T12:36:10Z</time>
      </trkpt>
      <trkpt lat="39.8918510" lon="-0.3538070">
        <ele>666.1</ele>
        <time>2020-11-11T12:36:12Z</time>
      </trkpt>
      <trkpt lat="39.8918590" lon="-0.3537670">
        <ele>665.6</ele>
        <time>2020-11-11T12:36:14Z</time>
      </trkpt>
      <trkpt lat="39.8918600" lon="-0.3537540">
        <ele>665.5</ele>
        <time>2020-11-11T12:36:15Z</time>
      </trkpt>
      <trkpt lat="39.8918510" lon="-0.3537300">
        <ele>665.2</ele>
        <time>2020-11-11T12:36:17Z</time>
      </trkpt>
      <trkpt lat="39.8918370" lon="-0.3536950">
        <ele>664.7</ele>
        <time>2020-11-11T12:36:19Z</time>
      </trkpt>
      <trkpt lat="39.8918230" lon="-0.3536680">
        <ele>664.4</ele>
        <time>2020-11-11T12:36:20Z</time>
      </trkpt>
      <trkpt lat="39.8918070" lon="-0.3536360">
        <ele>663.9</ele>
        <time>2020-11-11T12:36:22Z</time>
      </trkpt>
      <trkpt lat="39.8917930" lon="-0.3536040">
        <ele>663.5</ele>
        <time>2020-11-11T12:36:23Z</time>
      </trkpt>
      <trkpt lat="39.8917790" lon="-0.3535640">
        <ele>663.0</ele>
        <time>2020-11-11T12:36:25Z</time>
      </trkpt>
      <trkpt lat="39.8917860" lon="-0.3535370">
        <ele>662.7</ele>
        <time>2020-11-11T12:36:27Z</time>
      </trkpt>
      <trkpt lat="39.8917910" lon="-0.3535390">
        <ele>662.6</ele>
        <time>2020-11-11T12:36:29Z</time>
      </trkpt>
      <trkpt lat="39.8917970" lon="-0.3535570">
        <ele>662.4</ele>
        <time>2020-11-11T12:36:31Z</time>
      </trkpt>
      <trkpt lat="39.8917990" lon="-0.3535670">
        <ele>662.3</ele>
        <time>2020-11-11T12:36:32Z</time>
      </trkpt>
      <trkpt lat="39.8918050" lon="-0.3535820">
        <ele>662.2</ele>
        <time>2020-11-11T12:36:34Z</time>
      </trkpt>
      <trkpt lat="39.8918080" lon="-0.3535870">
        <ele>662.1</ele>
        <time>2020-11-11T12:36:35Z</time>
      </trkpt>
      <trkpt lat="39.8918060" lon="-0.3535940">
        <ele>662.0</ele>
        <time>2020-11-11T12:36:36Z</time>
      </trkpt>
      <trkpt lat="39.8918020" lon="-0.3536110">
        <ele>661.8</ele>
        <time>2020-11-11T12:36:37Z</time>
      </trkpt>
      <trkpt lat="39.8917940" lon="-0.3536340">
        <ele>661.6</ele>
        <time>2020-11-11T12:36:39Z</time>
      </trkpt>
      <trkpt lat="39.8917860" lon="-0.3536450">
        <ele>661.4</ele>
        <time>2020-11-11T12:36:40Z</time>
      </trkpt>
      <trkpt lat="39.8917770" lon="-0.3536550">
        <ele>661.3</ele>
        <time>2020-11-11T12:36:41Z</time>
      </trkpt>
      <trkpt lat="39.8917640" lon="-0.3536650">
        <ele>661.1</ele>
        <time>2020-11-11T12:36:43Z</time>
      </trkpt>
      <trkpt lat="39.8917460" lon="-0.3536610">
        <ele>660.9</ele>
        <time>2020-11-11T12:36:44Z</time>
      </trkpt>
      <trkpt lat="39.8917370" lon="-0.3536540">
        <ele>660.7</ele>
        <time>2020-11-11T12:36:46Z</time>
      </trkpt>
      <trkpt lat="39.8917270" lon="-0.3536480">
        <ele>660.6</ele>
        <time>2020-11-11T12:36:47Z</time>
      </trkpt>
      <trkpt lat="39.8917130" lon="-0.3536380">
        <ele>660.4</ele>
        <time>2020-11-11T12:36:48Z</time>
      </trkpt>
      <trkpt lat="39.8917000" lon="-0.3536270">
        <ele>660.2</ele>
        <time>2020-11-11T12:36:50Z</time>
      </trkpt>
      <trkpt lat="39.8916870" lon="-0.3536190">
        <ele>660.0</ele>
        <time>2020-11-11T12:36:51Z</time>
      </trkpt>
      <trkpt lat="39.8916720" lon="-0.3536110">
        <ele>659.8</ele>
        <time>2020-11-11T12:36:52Z</time>
      </trkpt>
      <trkpt lat="39.8916570" lon="-0.3535980">
        <ele>659.6</ele>
        <time>2020-11-11T12:36:54Z</time>
      </trkpt>
      <trkpt lat="39.8916500" lon="-0.3535890">
        <ele>659.5</ele>
        <time>2020-11-11T12:36:55Z</time>
      </trkpt>
      <trkpt lat="39.8916290" lon="-0.3535600">
        <ele>659.1</ele>
        <time>2020-11-11T12:36:57Z</time>
      </trkpt>
      <trkpt lat="39.8916230" lon="-0.3535540">
        <ele>659.0</ele>
        <time>2020-11-11T12:36:58Z</time>
      </trkpt>
      <trkpt lat="39.8916100" lon="-0.3535420">
        <ele>658.8</ele>
        <time>2020-11-11T12:36:59Z</time>
      </trkpt>
      <trkpt lat="39.8915970" lon="-0.3535260">
        <ele>658.6</ele>
        <time>2020-11-11T12:37:00Z</time>
      </trkpt>
      <trkpt lat="39.8915770" lon="-0.3535030">
        <ele>658.2</ele>
        <time>2020-11-11T12:37:01Z</time>
      </trkpt>
      <trkpt lat="39.8915610" lon="-0.3534840">
        <ele>657.9</ele>
        <time>2020-11-11T12:37:03Z</time>
      </trkpt>
      <trkpt lat="39.8915360" lon="-0.3534570">
        <ele>657.5</ele>
        <time>2020-11-11T12:37:04Z</time>
      </trkpt>
      <trkpt lat="39.8915120" lon="-0.3534210">
        <ele>657.0</ele>
        <time>2020-11-11T12:37:06Z</time>
      </trkpt>
      <trkpt lat="39.8915050" lon="-0.3534110">
        <ele>656.9</ele>
        <time>2020-11-11T12:37:07Z</time>
      </trkpt>
      <trkpt lat="39.8914880" lon="-0.3533880">
        <ele>656.6</ele>
        <time>2020-11-11T12:37:08Z</time>
      </trkpt>
      <trkpt lat="39.8914700" lon="-0.3533630">
        <ele>656.2</ele>
        <time>2020-11-11T12:37:10Z</time>
      </trkpt>
      <trkpt lat="39.8914490" lon="-0.3533370">
        <ele>655.8</ele>
        <time>2020-11-11T12:37:11Z</time>
      </trkpt>
      <trkpt lat="39.8914430" lon="-0.3533290">
        <ele>655.7</ele>
        <time>2020-11-11T12:37:12Z</time>
      </trkpt>
      <trkpt lat="39.8914330" lon="-0.3533160">
        <ele>655.5</ele>
        <time>2020-11-11T12:37:13Z</time>
      </trkpt>
      <trkpt lat="39.8914200" lon="-0.3532990">
        <ele>655.3</ele>
        <time>2020-11-11T12:37:15Z</time>
      </trkpt>
      <trkpt lat="39.8914100" lon="-0.3532870">
        <ele>655.1</ele>
        <time>2020-11-11T12:37:16Z</time>
      </trkpt>
      <trkpt lat="39.8913960" lon="-0.3532710">
        <ele>654.8</ele>
        <time>2020-11-11T12:37:17Z</time>
      </trkpt>
      <trkpt lat="39.8913890" lon="-0.3532600">
        <ele>654.7</ele>
        <time>2020-11-11T12:37:18Z</time>
      </trkpt>
      <trkpt lat="39.8913820" lon="-0.3532480">
        <ele>654.5</ele>
        <time>2020-11-11T12:37:19Z</time>
      </trkpt>
      <trkpt lat="39.8913710" lon="-0.3532310">
        <ele>654.3</ele>
        <time>2020-11-11T12:37:21Z</time>
      </trkpt>
      <trkpt lat="39.8913600" lon="-0.3532100">
        <ele>654.0</ele>
        <time>2020-11-11T12:37:22Z</time>
      </trkpt>
      <trkpt lat="39.8913490" lon="-0.3531810">
        <ele>653.7</ele>
        <time>2020-11-11T12:37:24Z</time>
      </trkpt>
      <trkpt lat="39.8913480" lon="-0.3531460">
        <ele>653.3</ele>
        <time>2020-11-11T12:37:25Z</time>
      </trkpt>
      <trkpt lat="39.8913480" lon="-0.3531300">
        <ele>653.2</ele>
        <time>2020-11-11T12:37:26Z</time>
      </trkpt>
      <trkpt lat="39.8913620" lon="-0.3530730">
        <ele>652.5</ele>
        <time>2020-11-11T12:37:28Z</time>
      </trkpt>
      <trkpt lat="39.8913680" lon="-0.3530550">
        <ele>652.3</ele>
        <time>2020-11-11T12:37:29Z</time>
      </trkpt>
      <trkpt lat="39.8913750" lon="-0.3530380">
        <ele>652.1</ele>
        <time>2020-11-11T12:37:30Z</time>
      </trkpt>
      <trkpt lat="39.8913860" lon="-0.3530130">
        <ele>651.9</ele>
        <time>2020-11-11T12:37:31Z</time>
      </trkpt>
      <trkpt lat="39.8913980" lon="-0.3529850">
        <ele>651.5</ele>
        <time>2020-11-11T12:37:33Z</time>
      </trkpt>
      <trkpt lat="39.8914140" lon="-0.3529550">
        <ele>651.2</ele>
        <time>2020-11-11T12:37:34Z</time>
      </trkpt>
      <trkpt lat="39.8914220" lon="-0.3529410">
        <ele>651.0</ele>
        <time>2020-11-11T12:37:35Z</time>
      </trkpt>
      <trkpt lat="39.8914320" lon="-0.3529190">
        <ele>650.7</ele>
        <time>2020-11-11T12:37:36Z</time>
      </trkpt>
      <trkpt lat="39.8914910" lon="-0.3528900">
        <ele>649.9</ele>
        <time>2020-11-11T12:37:38Z</time>
      </trkpt>
      <trkpt lat="39.8915620" lon="-0.3528720">
        <ele>648.9</ele>
        <time>2020-11-11T12:37:39Z</time>
      </trkpt>
      <trkpt lat="39.8915900" lon="-0.3528330">
        <ele>648.4</ele>
        <time>2020-11-11T12:37:41Z</time>
      </trkpt>
      <trkpt lat="39.8915950" lon="-0.3528180">
        <ele>648.2</ele>
        <time>2020-11-11T12:37:42Z</time>
      </trkpt>
      <trkpt lat="39.8916010" lon="-0.3528020">
        <ele>648.0</ele>
        <time>2020-11-11T12:37:43Z</time>
      </trkpt>
      <trkpt lat="39.8916090" lon="-0.3527600">
        <ele>647.6</ele>
        <time>2020-11-11T12:37:45Z</time>
      </trkpt>
      <trkpt lat="39.8916100" lon="-0.3527480">
        <ele>647.4</ele>
        <time>2020-11-11T12:37:46Z</time>
      </trkpt>
      <trkpt lat="39.8916130" lon="-0.3527110">
        <ele>647.1</ele>
        <time>2020-11-11T12:37:47Z</time>
      </trkpt>
      <trkpt lat="39.8916180" lon="-0.3526790">
        <ele>646.7</ele>
        <time>2020-11-11T12:37:48Z</time>
      </trkpt>
      <trkpt lat="39.8916150" lon="-0.3526360">
        <ele>646.3</ele>
        <time>2020-11-11T12:37:50Z</time>
      </trkpt>
      <trkpt lat="39.8916070" lon="-0.3525950">
        <ele>645.8</ele>
        <time>2020-11-11T12:37:51Z</time>
      </trkpt>
      <trkpt lat="39.8915870" lon="-0.3525430">
        <ele>645.1</ele>
        <time>2020-11-11T12:37:53Z</time>
      </trkpt>
      <trkpt lat="39.8915770" lon="-0.3525280">
        <ele>644.9</ele>
        <time>2020-11-11T12:37:54Z</time>
      </trkpt>
      <trkpt lat="39.8915680" lon="-0.3525120">
        <ele>644.7</ele>
        <time>2020-11-11T12:37:55Z</time>
      </trkpt>
      <trkpt lat="39.8915510" lon="-0.3524860">
        <ele>644.3</ele>
        <time>2020-11-11T12:37:56Z</time>
      </trkpt>
      <trkpt lat="39.8915300" lon="-0.3524530">
        <ele>643.8</ele>
        <time>2020-11-11T12:37:58Z</time>
      </trkpt>
      <trkpt lat="39.8915140" lon="-0.3524300">
        <ele>643.4</ele>
        <time>2020-11-11T12:37:59Z</time>
      </trkpt>
      <trkpt lat="39.8915010" lon="-0.3524030">
        <ele>643.1</ele>
        <time>2020-11-11T12:38:01Z</time>
      </trkpt>
      <trkpt lat="39.8914870" lon="-0.3523810">
        <ele>642.7</ele>
        <time>2020-11-11T12:38:02Z</time>
      </trkpt>
      <trkpt lat="39.8914680" lon="-0.3523510">
        <ele>642.2</ele>
        <time>2020-11-11T12:38:04Z</time>
      </trkpt>
      <trkpt lat="39.8914540" lon="-0.3523360">
        <ele>641.9</ele>
        <time>2020-11-11T12:38:05Z</time>
      </trkpt>
      <trkpt lat="39.8914430" lon="-0.3523220">
        <ele>641.6</ele>
        <time>2020-11-11T12:38:06Z</time>
      </trkpt>
      <trkpt lat="39.8914330" lon="-0.3523090">
        <ele>641.4</ele>
        <time>2020-11-11T12:38:07Z</time>
      </trkpt>
      <trkpt lat="39.8914180" lon="-0.3522890">
        <ele>641.0</ele>
        <time>2020-11-11T12:38:08Z</time>
      </trkpt>
      <trkpt lat="39.8914000" lon="-0.3522530">
        <ele>640.5</ele>
        <time>2020-11-11T12:38:09Z</time>
      </trkpt>
      <trkpt lat="39.8913940" lon="-0.3522400">
        <ele>640.3</ele>
        <time>2020-11-11T12:38:10Z</time>
      </trkpt>
      <trkpt lat="39.8913810" lon="-0.3521990">
        <ele>639.7</ele>
        <time>2020-11-11T12:38:12Z</time>
      </trkpt>
      <trkpt lat="39.8913760" lon="-0.3521840">
        <ele>639.5</ele>
        <time>2020-11-11T12:38:13Z</time>
      </trkpt>
      <trkpt lat="39.8913620" lon="-0.3521430">
        <ele>638.9</ele>
        <time>2020-11-11T12:38:14Z</time>
      </trkpt>
      <trkpt lat="39.8913540" lon="-0.3521140">
        <ele>638.5</ele>
        <time>2020-11-11T12:38:15Z</time>
      </trkpt>
      <trkpt lat="39.8913440" lon="-0.3520840">
        <ele>638.1</ele>
        <time>2020-11-11T12:38:17Z</time>
      </trkpt>
      <trkpt lat="39.8913310" lon="-0.3520500">
        <ele>637.7</ele>
        <time>2020-11-11T12:38:18Z</time>
      </trkpt>
      <trkpt lat="39.8913140" lon="-0.3520000">
        <ele>637.0</ele>
        <time>2020-11-11T12:38:20Z</time>
      </trkpt>
      <trkpt lat="39.8913030" lon="-0.3519530">
        <ele>636.4</ele>
        <time>2020-11-11T12:38:22Z</time>
      </trkpt>
      <trkpt lat="39.8912960" lon="-0.3519150">
        <ele>636.0</ele>
        <time>2020-11-11T12:38:23Z</time>
      </trkpt>
      <trkpt lat="39.8912910" lon="-0.3518720">
        <ele>635.5</ele>
        <time>2020-11-11T12:38:25Z</time>
      </trkpt>
      <trkpt lat="39.8912890" lon="-0.3518600">
        <ele>635.3</ele>
        <time>2020-11-11T12:38:26Z</time>
      </trkpt>
      <trkpt lat="39.8912860" lon="-0.3518390">
        <ele>635.1</ele>
        <time>2020-11-11T12:38:27Z</time>
      </trkpt>
      <trkpt lat="39.8912890" lon="-0.3518040">
        <ele>634.7</ele>
        <time>2020-11-11T12:38:29Z</time>
      </trkpt>
      <trkpt lat="39.8912820" lon="-0.3517740">
        <ele>634.4</ele>
        <time>2020-11-11T12:38:30Z</time>
      </trkpt>
      <trkpt lat="39.8912760" lon="-0.3517600">
        <ele>634.3</ele>
        <time>2020-11-11T12:38:32Z</time>
      </trkpt>
      <trkpt lat="39.8912660" lon="-0.3517430">
        <ele>634.1</ele>
        <time>2020-11-11T12:38:33Z</time>
      </trkpt>
      <trkpt lat="39.8912540" lon="-0.3517260">
        <ele>633.8</ele>
        <time>2020-11-11T12:38:34Z</time>
      </trkpt>
      <trkpt lat="39.8912420" lon="-0.3517070">
        <ele>633.6</ele>
        <time>2020-11-11T12:38:36Z</time>
      </trkpt>
      <trkpt lat="39.8912340" lon="-0.3516920">
        <ele>633.5</ele>
        <time>2020-11-11T12:38:37Z</time>
      </trkpt>
      <trkpt lat="39.8912220" lon="-0.3516760">
        <ele>633.3</ele>
        <time>2020-11-11T12:38:39Z</time>
      </trkpt>
      <trkpt lat="39.8912130" lon="-0.3516670">
        <ele>633.1</ele>
        <time>2020-11-11T12:38:40Z</time>
      </trkpt>
      <trkpt lat="39.8912070" lon="-0.3516610">
        <ele>633.0</ele>
        <time>2020-11-11T12:38:42Z</time>
      </trkpt>
      <trkpt lat="39.8911980" lon="-0.3516510">
        <ele>632.9</ele>
        <time>2020-11-11T12:38:43Z</time>
      </trkpt>
      <trkpt lat="39.8911870" lon="-0.3516400">
        <ele>632.8</ele>
        <time>2020-11-11T12:38:44Z</time>
      </trkpt>
      <trkpt lat="39.8911770" lon="-0.3516310">
        <ele>632.7</ele>
        <time>2020-11-11T12:38:46Z</time>
      </trkpt>
      <trkpt lat="39.8911710" lon="-0.3516260">
        <ele>632.6</ele>
        <time>2020-11-11T12:38:47Z</time>
      </trkpt>
      <trkpt lat="39.8911660" lon="-0.3516210">
        <ele>632.5</ele>
        <time>2020-11-11T12:38:48Z</time>
      </trkpt>
      <trkpt lat="39.8911630" lon="-0.3516180">
        <ele>632.5</ele>
        <time>2020-11-11T12:38:49Z</time>
      </trkpt>
      <trkpt lat="39.8911590" lon="-0.3516140">
        <ele>632.4</ele>
        <time>2020-11-11T12:38:50Z</time>
      </trkpt>
      <trkpt lat="39.8911560" lon="-0.3516100">
        <ele>632.4</ele>
        <time>2020-11-11T12:38:52Z</time>
      </trkpt>
      <trkpt lat="39.8911530" lon="-0.3516060">
        <ele>632.3</ele>
        <time>2020-11-11T12:38:53Z</time>
      </trkpt>
      <trkpt lat="39.8911510" lon="-0.3516000">
        <ele>632.3</ele>
        <time>2020-11-11T12:38:54Z</time>
      </trkpt>
      <trkpt lat="39.8911470" lon="-0.3515940">
        <ele>632.2</ele>
        <time>2020-11-11T12:38:55Z</time>
      </trkpt>
      <trkpt lat="39.8911390" lon="-0.3515890">
        <ele>632.1</ele>
        <time>2020-11-11T12:38:56Z</time>
      </trkpt>
      <trkpt lat="39.8911290" lon="-0.3515830">
        <ele>632.0</ele>
        <time>2020-11-11T12:38:58Z</time>
      </trkpt>
      <trkpt lat="39.8911240" lon="-0.3515790">
        <ele>632.0</ele>
        <time>2020-11-11T12:38:59Z</time>
      </trkpt>
      <trkpt lat="39.8911190" lon="-0.3515740">
        <ele>631.9</ele>
        <time>2020-11-11T12:39:00Z</time>
      </trkpt>
      <trkpt lat="39.8911140" lon="-0.3515690">
        <ele>631.8</ele>
        <time>2020-11-11T12:39:01Z</time>
      </trkpt>
      <trkpt lat="39.8911090" lon="-0.3515640">
        <ele>631.8</ele>
        <time>2020-11-11T12:39:03Z</time>
      </trkpt>
      <trkpt lat="39.8911030" lon="-0.3515600">
        <ele>631.7</ele>
        <time>2020-11-11T12:39:04Z</time>
      </trkpt>
      <trkpt lat="39.8910980" lon="-0.3515550">
        <ele>631.6</ele>
        <time>2020-11-11T12:39:05Z</time>
      </trkpt>
      <trkpt lat="39.8910930" lon="-0.3515500">
        <ele>631.6</ele>
        <time>2020-11-11T12:39:07Z</time>
      </trkpt>
      <trkpt lat="39.8910880" lon="-0.3515460">
        <ele>631.5</ele>
        <time>2020-11-11T12:39:09Z</time>
      </trkpt>
      <trkpt lat="39.8910830" lon="-0.3515410">
        <ele>631.4</ele>
        <time>2020-11-11T12:39:10Z</time>
      </trkpt>
      <trkpt lat="39.8910730" lon="-0.3515320">
        <ele>631.3</ele>
        <time>2020-11-11T12:39:11Z</time>
      </trkpt>
      <trkpt lat="39.8910640" lon="-0.3515180">
        <ele>631.2</ele>
        <time>2020-11-11T12:39:12Z</time>
      </trkpt>
      <trkpt lat="39.8910570" lon="-0.3515070">
        <ele>631.1</ele>
        <time>2020-11-11T12:39:14Z</time>
      </trkpt>
      <trkpt lat="39.8910520" lon="-0.3515040">
        <ele>631.0</ele>
        <time>2020-11-11T12:39:15Z</time>
      </trkpt>
      <trkpt lat="39.8910460" lon="-0.3514970">
        <ele>630.9</ele>
        <time>2020-11-11T12:39:16Z</time>
      </trkpt>
      <trkpt lat="39.8910400" lon="-0.3514910">
        <ele>630.8</ele>
        <time>2020-11-11T12:39:17Z</time>
      </trkpt>
      <trkpt lat="39.8910280" lon="-0.3514770">
        <ele>630.7</ele>
        <time>2020-11-11T12:39:19Z</time>
      </trkpt>
      <trkpt lat="39.8910210" lon="-0.3514700">
        <ele>630.6</ele>
        <time>2020-11-11T12:39:20Z</time>
      </trkpt>
      <trkpt lat="39.8910090" lon="-0.3514570">
        <ele>630.4</ele>
        <time>2020-11-11T12:39:22Z</time>
      </trkpt>
      <trkpt lat="39.8910070" lon="-0.3514550">
        <ele>630.4</ele>
        <time>2020-11-11T12:39:24Z</time>
      </trkpt>
      <trkpt lat="39.8910070" lon="-0.3514560">
        <ele>630.4</ele>
        <time>2020-11-11T12:39:25Z</time>
      </trkpt>
      <trkpt lat="39.8910130" lon="-0.3514680">
        <ele>630.3</ele>
        <time>2020-11-11T12:39:27Z</time>
      </trkpt>
      <trkpt lat="39.8910170" lon="-0.3514740">
        <ele>630.2</ele>
        <time>2020-11-11T12:39:28Z</time>
      </trkpt>
      <trkpt lat="39.8910060" lon="-0.3514810">
        <ele>630.1</ele>
        <time>2020-11-11T12:39:30Z</time>
      </trkpt>
      <trkpt lat="39.8910220" lon="-0.3514770">
        <ele>629.9</ele>
        <time>2020-11-11T12:39:31Z</time>
      </trkpt>
      <trkpt lat="39.8910310" lon="-0.3514730">
        <ele>629.8</ele>
        <time>2020-11-11T12:39:32Z</time>
      </trkpt>
      <trkpt lat="39.8910470" lon="-0.3514630">
        <ele>629.6</ele>
        <time>2020-11-11T12:39:33Z</time>
      </trkpt>
      <trkpt lat="39.8910500" lon="-0.3514530">
        <ele>629.5</ele>
        <time>2020-11-11T12:39:35Z</time>
      </trkpt>
      <trkpt lat="39.8910420" lon="-0.3514400">
        <ele>629.4</ele>
        <time>2020-11-11T12:39:36Z</time>
      </trkpt>
      <trkpt lat="39.8910430" lon="-0.3514170">
        <ele>629.2</ele>
        <time>2020-11-11T12:39:37Z</time>
      </trkpt>
      <trkpt lat="39.8910360" lon="-0.3513960">
        <ele>629.0</ele>
        <time>2020-11-11T12:39:39Z</time>
      </trkpt>
      <trkpt lat="39.8910280" lon="-0.3513630">
        <ele>628.7</ele>
        <time>2020-11-11T12:39:41Z</time>
      </trkpt>
      <trkpt lat="39.8910270" lon="-0.3513470">
        <ele>628.6</ele>
        <time>2020-11-11T12:39:42Z</time>
      </trkpt>
      <trkpt lat="39.8910250" lon="-0.3513300">
        <ele>628.4</ele>
        <time>2020-11-11T12:39:43Z</time>
      </trkpt>
      <trkpt lat="39.8910210" lon="-0.3513170">
        <ele>628.3</ele>
        <time>2020-11-11T12:39:44Z</time>
      </trkpt>
      <trkpt lat="39.8910090" lon="-0.3512630">
        <ele>627.7</ele>
        <time>2020-11-11T12:39:46Z</time>
      </trkpt>
      <trkpt lat="39.8910040" lon="-0.3512400">
        <ele>627.5</ele>
        <time>2020-11-11T12:39:47Z</time>
      </trkpt>
      <trkpt lat="39.8910040" lon="-0.3511940">
        <ele>627.0</ele>
        <time>2020-11-11T12:39:48Z</time>
      </trkpt>
      <trkpt lat="39.8910000" lon="-0.3511780">
        <ele>626.8</ele>
        <time>2020-11-11T12:39:49Z</time>
      </trkpt>
      <trkpt lat="39.8909970" lon="-0.3511640">
        <ele>626.6</ele>
        <time>2020-11-11T12:39:50Z</time>
      </trkpt>
      <trkpt lat="39.8909940" lon="-0.3511550">
        <ele>626.4</ele>
        <time>2020-11-11T12:39:52Z</time>
      </trkpt>
      <trkpt lat="39.8909930" lon="-0.3511440">
        <ele>626.3</ele>
        <time>2020-11-11T12:39:53Z</time>
      </trkpt>
      <trkpt lat="39.8909910" lon="-0.3511310">
        <ele>626.1</ele>
        <time>2020-11-11T12:39:54Z</time>
      </trkpt>
      <trkpt lat="39.8909890" lon="-0.3511180">
        <ele>626.0</ele>
        <time>2020-11-11T12:39:55Z</time>
      </trkpt>
      <trkpt lat="39.8909840" lon="-0.3510970">
        <ele>625.7</ele>
        <time>2020-11-11T12:39:56Z</time>
      </trkpt>
      <trkpt lat="39.8909820" lon="-0.3510810">
        <ele>625.4</ele>
        <time>2020-11-11T12:39:57Z</time>
      </trkpt>
      <trkpt lat="39.8909790" lon="-0.3510640">
        <ele>625.2</ele>
        <time>2020-11-11T12:39:58Z</time>
      </trkpt>
      <trkpt lat="39.8909770" lon="-0.3510440">
        <ele>624.9</ele>
        <time>2020-11-11T12:39:59Z</time>
      </trkpt>
      <trkpt lat="39.8909810" lon="-0.3510040">
        <ele>624.3</ele>
        <time>2020-11-11T12:40:01Z</time>
      </trkpt>
      <trkpt lat="39.8909800" lon="-0.3509910">
        <ele>624.1</ele>
        <time>2020-11-11T12:40:02Z</time>
      </trkpt>
      <trkpt lat="39.8909820" lon="-0.3509620">
        <ele>623.6</ele>
        <time>2020-11-11T12:40:03Z</time>
      </trkpt>
      <trkpt lat="39.8909700" lon="-0.3509460">
        <ele>623.2</ele>
        <time>2020-11-11T12:40:04Z</time>
      </trkpt>
      <trkpt lat="39.8909600" lon="-0.3509230">
        <ele>622.8</ele>
        <time>2020-11-11T12:40:05Z</time>
      </trkpt>
      <trkpt lat="39.8909490" lon="-0.3508950">
        <ele>622.3</ele>
        <time>2020-11-11T12:40:07Z</time>
      </trkpt>
      <trkpt lat="39.8909470" lon="-0.3508960">
        <ele>622.3</ele>
        <time>2020-11-11T12:40:08Z</time>
      </trkpt>
      <trkpt lat="39.8909440" lon="-0.3509100">
        <ele>622.0</ele>
        <time>2020-11-11T12:40:10Z</time>
      </trkpt>
      <trkpt lat="39.8909450" lon="-0.3509150">
        <ele>621.9</ele>
        <time>2020-11-11T12:40:11Z</time>
      </trkpt>
      <trkpt lat="39.8909460" lon="-0.3509100">
        <ele>621.8</ele>
        <time>2020-11-11T12:40:13Z</time>
      </trkpt>
      <trkpt lat="39.8909460" lon="-0.3509020">
        <ele>621.7</ele>
        <time>2020-11-11T12:40:14Z</time>
      </trkpt>
      <trkpt lat="39.8909440" lon="-0.3508920">
        <ele>621.5</ele>
        <time>2020-11-11T12:40:15Z</time>
      </trkpt>
      <trkpt lat="39.8909420" lon="-0.3508780">
        <ele>621.3</ele>
        <time>2020-11-11T12:40:16Z</time>
      </trkpt>
      <trkpt lat="39.8909290" lon="-0.3508530">
        <ele>620.8</ele>
        <time>2020-11-11T12:40:18Z</time>
      </trkpt>
      <trkpt lat="39.8909150" lon="-0.3508360">
        <ele>620.3</ele>
        <time>2020-11-11T12:40:19Z</time>
      </trkpt>
      <trkpt lat="39.8909040" lon="-0.3508190">
        <ele>620.0</ele>
        <time>2020-11-11T12:40:21Z</time>
      </trkpt>
      <trkpt lat="39.8908880" lon="-0.3507940">
        <ele>619.4</ele>
        <time>2020-11-11T12:40:22Z</time>
      </trkpt>
      <trkpt lat="39.8908780" lon="-0.3507760">
        <ele>619.0</ele>
        <time>2020-11-11T12:40:24Z</time>
      </trkpt>
      <trkpt lat="39.8908720" lon="-0.3507630">
        <ele>618.7</ele>
        <time>2020-11-11T12:40:25Z</time>
      </trkpt>
      <trkpt lat="39.8908590" lon="-0.3507400">
        <ele>618.3</ele>
        <time>2020-11-11T12:40:27Z</time>
      </trkpt>
      <trkpt lat="39.8908500" lon="-0.3507280">
        <ele>618.0</ele>
        <time>2020-11-11T12:40:28Z</time>
      </trkpt>
      <trkpt lat="39.8908430" lon="-0.3507150">
        <ele>617.7</ele>
        <time>2020-11-11T12:40:29Z</time>
      </trkpt>
      <trkpt lat="39.8908380" lon="-0.3507040">
        <ele>617.5</ele>
        <time>2020-11-11T12:40:31Z</time>
      </trkpt>
      <trkpt lat="39.8908410" lon="-0.3507090">
        <ele>617.4</ele>
        <time>2020-11-11T12:40:32Z</time>
      </trkpt>
      <trkpt lat="39.8908490" lon="-0.3507330">
        <ele>617.0</ele>
        <time>2020-11-11T12:40:33Z</time>
      </trkpt>
      <trkpt lat="39.8908460" lon="-0.3507290">
        <ele>616.9</ele>
        <time>2020-11-11T12:40:35Z</time>
      </trkpt>
      <trkpt lat="39.8908440" lon="-0.3507210">
        <ele>616.8</ele>
        <time>2020-11-11T12:40:36Z</time>
      </trkpt>
      <trkpt lat="39.8908420" lon="-0.3506960">
        <ele>616.4</ele>
        <time>2020-11-11T12:40:38Z</time>
      </trkpt>
      <trkpt lat="39.8908450" lon="-0.3506700">
        <ele>616.0</ele>
        <time>2020-11-11T12:40:40Z</time>
      </trkpt>
      <trkpt lat="39.8908580" lon="-0.3506570">
        <ele>615.7</ele>
        <time>2020-11-11T12:40:41Z</time>
      </trkpt>
      <trkpt lat="39.8908860" lon="-0.3506440">
        <ele>615.2</ele>
        <time>2020-11-11T12:40:43Z</time>
      </trkpt>
      <trkpt lat="39.8908970" lon="-0.3506320">
        <ele>615.0</ele>
        <time>2020-11-11T12:40:44Z</time>
      </trkpt>
      <trkpt lat="39.8909080" lon="-0.3506210">
        <ele>614.8</ele>
        <time>2020-11-11T12:40:45Z</time>
      </trkpt>
      <trkpt lat="39.8909310" lon="-0.3505980">
        <ele>614.3</ele>
        <time>2020-11-11T12:40:47Z</time>
      </trkpt>
      <trkpt lat="39.8909400" lon="-0.3505910">
        <ele>614.2</ele>
        <time>2020-11-11T12:40:48Z</time>
      </trkpt>
      <trkpt lat="39.8909510" lon="-0.3505720">
        <ele>613.9</ele>
        <time>2020-11-11T12:40:50Z</time>
      </trkpt>
      <trkpt lat="39.8909590" lon="-0.3505570">
        <ele>613.7</ele>
        <time>2020-11-11T12:40:51Z</time>
      </trkpt>
      <trkpt lat="39.8909740" lon="-0.3505180">
        <ele>613.3</ele>
        <time>2020-11-11T12:40:53Z</time>
      </trkpt>
      <trkpt lat="39.8909820" lon="-0.3505030">
        <ele>613.1</ele>
        <time>2020-11-11T12:40:54Z</time>
      </trkpt>
      <trkpt lat="39.8909950" lon="-0.3504910">
        <ele>612.9</ele>
        <time>2020-11-11T12:40:55Z</time>
      </trkpt>
      <trkpt lat="39.8910050" lon="-0.3504820">
        <ele>612.8</ele>
        <time>2020-11-11T12:40:56Z</time>
      </trkpt>
      <trkpt lat="39.8910160" lon="-0.3504750">
        <ele>612.7</ele>
        <time>2020-11-11T12:40:57Z</time>
      </trkpt>
      <trkpt lat="39.8910350" lon="-0.3504610">
        <ele>612.4</ele>
        <time>2020-11-11T12:40:59Z</time>
      </trkpt>
      <trkpt lat="39.8910390" lon="-0.3504540">
        <ele>612.3</ele>
        <time>2020-11-11T12:41:00Z</time>
      </trkpt>
      <trkpt lat="39.8910390" lon="-0.3504440">
        <ele>612.3</ele>
        <time>2020-11-11T12:41:01Z</time>
      </trkpt>
      <trkpt lat="39.8910340" lon="-0.3504270">
        <ele>612.1</ele>
        <time>2020-11-11T12:41:02Z</time>
      </trkpt>
      <trkpt lat="39.8910250" lon="-0.3504010">
        <ele>611.9</ele>
        <time>2020-11-11T12:41:04Z</time>
      </trkpt>
      <trkpt lat="39.8910080" lon="-0.3503970">
        <ele>611.7</ele>
        <time>2020-11-11T12:41:05Z</time>
      </trkpt>
      <trkpt lat="39.8909950" lon="-0.3503830">
        <ele>611.5</ele>
        <time>2020-11-11T12:41:07Z</time>
      </trkpt>
      <trkpt lat="39.8909900" lon="-0.3503720">
        <ele>611.4</ele>
        <time>2020-11-11T12:41:09Z</time>
      </trkpt>
      <trkpt lat="39.8909900" lon="-0.3503700">
        <ele>611.3</ele>
        <time>2020-11-11T12:41:10Z</time>
      </trkpt>
      <trkpt lat="39.8909940" lon="-0.3503730">
        <ele>611.3</ele>
        <time>2020-11-11T12:41:12Z</time>
      </trkpt>
      <trkpt lat="39.8909960" lon="-0.3503760">
        <ele>611.3</ele>
        <time>2020-11-11T12:41:13Z</time>
      </trkpt>
      <trkpt lat="39.8909970" lon="-0.3503780">
        <ele>611.2</ele>
        <time>2020-11-11T12:41:14Z</time>
      </trkpt>
      <trkpt lat="39.8909990" lon="-0.3503790">
        <ele>611.2</ele>
        <time>2020-11-11T12:41:16Z</time>
      </trkpt>
      <trkpt lat="39.8909690" lon="-0.3503470">
        <ele>610.8</ele>
        <time>2020-11-11T12:41:18Z</time>
      </trkpt>
      <trkpt lat="39.8909660" lon="-0.3503420">
        <ele>610.7</ele>
        <time>2020-11-11T12:41:19Z</time>
      </trkpt>
      <trkpt lat="39.8909490" lon="-0.3503060">
        <ele>610.3</ele>
        <time>2020-11-11T12:41:21Z</time>
      </trkpt>
      <trkpt lat="39.8909410" lon="-0.3502990">
        <ele>610.2</ele>
        <time>2020-11-11T12:41:22Z</time>
      </trkpt>
      <trkpt lat="39.8909330" lon="-0.3502930">
        <ele>610.1</ele>
        <time>2020-11-11T12:41:24Z</time>
      </trkpt>
      <trkpt lat="39.8909220" lon="-0.3503170">
        <ele>609.9</ele>
        <time>2020-11-11T12:41:25Z</time>
      </trkpt>
      <trkpt lat="39.8909120" lon="-0.3503490">
        <ele>609.6</ele>
        <time>2020-11-11T12:41:27Z</time>
      </trkpt>
      <trkpt lat="39.8909080" lon="-0.3503610">
        <ele>609.4</ele>
        <time>2020-11-11T12:41:28Z</time>
      </trkpt>
      <trkpt lat="39.8909050" lon="-0.3503700">
        <ele>609.3</ele>
        <time>2020-11-11T12:41:29Z</time>
      </trkpt>
      <trkpt lat="39.8909050" lon="-0.3503710">
        <ele>609.3</ele>
        <time>2020-11-11T12:41:30Z</time>
      </trkpt>
      <trkpt lat="39.8908930" lon="-0.3503950">
        <ele>609.1</ele>
        <time>2020-11-11T12:41:32Z</time>
      </trkpt>
      <trkpt lat="39.8908920" lon="-0.3504040">
        <ele>609.0</ele>
        <time>2020-11-11T12:41:33Z</time>
      </trkpt>
      <trkpt lat="39.8908920" lon="-0.3504100">
        <ele>608.9</ele>
        <time>2020-11-11T12:41:34Z</time>
      </trkpt>
      <trkpt lat="39.8908910" lon="-0.3504140">
        <ele>608.9</ele>
        <time>2020-11-11T12:41:36Z</time>
      </trkpt>
      <trkpt lat="39.8908910" lon="-0.3504150">
        <ele>608.9</ele>
        <time>2020-11-11T12:41:38Z</time>
      </trkpt>
      <trkpt lat="39.8908910" lon="-0.3504150">
        <ele>608.9</ele>
        <time>2020-11-11T12:41:39Z</time>
      </trkpt>
      <trkpt lat="39.8908910" lon="-0.3504160">
        <ele>608.9</ele>
        <time>2020-11-11T12:41:41Z</time>
      </trkpt>
      <trkpt lat="39.8908910" lon="-0.3504160">
        <ele>608.9</ele>
        <time>2020-11-11T12:41:43Z</time>
      </trkpt>
      <trkpt lat="39.8908910" lon="-0.3504160">
        <ele>608.9</ele>
        <time>2020-11-11T12:41:44Z</time>
      </trkpt>
      <trkpt lat="39.8908910" lon="-0.3504160">
        <ele>608.9</ele>
        <time>2020-11-11T12:41:46Z</time>
      </trkpt>
      <trkpt lat="39.8908910" lon="-0.3504160">
        <ele>608.9</ele>
        <time>2020-11-11T12:41:47Z</time>
      </trkpt>
      <trkpt lat="39.8908860" lon="-0.3504110">
        <ele>608.8</ele>
        <time>2020-11-11T12:41:49Z</time>
      </trkpt>
      <trkpt lat="39.8908790" lon="-0.3503980">
        <ele>608.7</ele>
        <time>2020-11-11T12:41:51Z</time>
      </trkpt>
      <trkpt lat="39.8908960" lon="-0.3503850">
        <ele>608.4</ele>
        <time>2020-11-11T12:41:53Z</time>
      </trkpt>
      <trkpt lat="39.8908870" lon="-0.3503540">
        <ele>608.1</ele>
        <time>2020-11-11T12:41:55Z</time>
      </trkpt>
      <trkpt lat="39.8908960" lon="-0.3503110">
        <ele>607.7</ele>
        <time>2020-11-11T12:41:57Z</time>
      </trkpt>
      <trkpt lat="39.8909210" lon="-0.3502660">
        <ele>607.2</ele>
        <time>2020-11-11T12:41:58Z</time>
      </trkpt>
      <trkpt lat="39.8909360" lon="-0.3502450">
        <ele>607.0</ele>
        <time>2020-11-11T12:41:59Z</time>
      </trkpt>
      <trkpt lat="39.8909500" lon="-0.3502110">
        <ele>606.6</ele>
        <time>2020-11-11T12:42:01Z</time>
      </trkpt>
      <trkpt lat="39.8909620" lon="-0.3501770">
        <ele>606.3</ele>
        <time>2020-11-11T12:42:02Z</time>
      </trkpt>
      <trkpt lat="39.8909640" lon="-0.3501640">
        <ele>606.1</ele>
        <time>2020-11-11T12:42:03Z</time>
      </trkpt>
      <trkpt lat="39.8909720" lon="-0.3501480">
        <ele>606.0</ele>
        <time>2020-11-11T12:42:04Z</time>
      </trkpt>
      <trkpt lat="39.8909770" lon="-0.3501400">
        <ele>605.9</ele>
        <time>2020-11-11T12:42:06Z</time>
      </trkpt>
      <trkpt lat="39.8909820" lon="-0.3501320">
        <ele>605.8</ele>
        <time>2020-11-11T12:42:07Z</time>
      </trkpt>
      <trkpt lat="39.8909870" lon="-0.3501240">
        <ele>605.7</ele>
        <time>2020-11-11T12:42:08Z</time>
      </trkpt>
      <trkpt lat="39.8910090" lon="-0.3501010">
        <ele>605.3</ele>
        <time>2020-11-11T12:42:09Z</time>
      </trkpt>
      <trkpt lat="39.8910200" lon="-0.3500870">
        <ele>605.1</ele>
        <time>2020-11-11T12:42:11Z</time>
      </trkpt>
      <trkpt lat="39.8910310" lon="-0.3500740">
        <ele>604.9</ele>
        <time>2020-11-11T12:42:12Z</time>
      </trkpt>
      <trkpt lat="39.8910420" lon="-0.3500600">
        <ele>604.7</ele>
        <time>2020-11-11T12:42:13Z</time>
      </trkpt>
      <trkpt lat="39.8910530" lon="-0.3500400">
        <ele>604.4</ele>
        <time>2020-11-11T12:42:14Z</time>
      </trkpt>
      <trkpt lat="39.8910620" lon="-0.3500230">
        <ele>604.2</ele>
        <time>2020-11-11T12:42:15Z</time>
      </trkpt>
      <trkpt lat="39.8910710" lon="-0.3500050">
        <ele>603.9</ele>
        <time>2020-11-11T12:42:16Z</time>
      </trkpt>
      <trkpt lat="39.8910830" lon="-0.3499630">
        <ele>603.4</ele>
        <time>2020-11-11T12:42:18Z</time>
      </trkpt>
      <trkpt lat="39.8910960" lon="-0.3499240">
        <ele>602.9</ele>
        <time>2020-11-11T12:42:19Z</time>
      </trkpt>
      <trkpt lat="39.8911030" lon="-0.3499060">
        <ele>603.2</ele>
        <time>2020-11-11T12:42:21Z</time>
      </trkpt>
      <trkpt lat="39.8911090" lon="-0.3498870">
        <ele>601.8</ele>
        <time>2020-11-11T12:42:22Z</time>
      </trkpt>
      <trkpt lat="39.8911150" lon="-0.3498690">
        <ele>601.8</ele>
        <time>2020-11-11T12:42:23Z</time>
      </trkpt>
      <trkpt lat="39.8911200" lon="-0.3498530">
        <ele>601.8</ele>
        <time>2020-11-11T12:42:25Z</time>
      </trkpt>
      <trkpt lat="39.8911260" lon="-0.3498430">
        <ele>600.5</ele>
        <time>2020-11-11T12:42:26Z</time>
      </trkpt>
      <trkpt lat="39.8911360" lon="-0.3498340">
        <ele>600.7</ele>
        <time>2020-11-11T12:42:27Z</time>
      </trkpt>
      <trkpt lat="39.8911530" lon="-0.3498200">
        <ele>600.7</ele>
        <time>2020-11-11T12:42:29Z</time>
      </trkpt>
      <trkpt lat="39.8911700" lon="-0.3498110">
        <ele>601.0</ele>
        <time>2020-11-11T12:42:31Z</time>
      </trkpt>
      <trkpt lat="39.8912060" lon="-0.3498010">
        <ele>600.1</ele>
        <time>2020-11-11T12:42:32Z</time>
      </trkpt>
      <trkpt lat="39.8912170" lon="-0.3497960">
        <ele>600.0</ele>
        <time>2020-11-11T12:42:33Z</time>
      </trkpt>
      <trkpt lat="39.8912500" lon="-0.3498030">
        <ele>601.6</ele>
        <time>2020-11-11T12:42:35Z</time>
      </trkpt>
      <trkpt lat="39.8912790" lon="-0.3498090">
        <ele>601.9</ele>
        <time>2020-11-11T12:42:36Z</time>
      </trkpt>
      <trkpt lat="39.8913340" lon="-0.3498140">
        <ele>602.7</ele>
        <time>2020-11-11T12:42:38Z</time>
      </trkpt>
      <trkpt lat="39.8913530" lon="-0.3498130">
        <ele>602.6</ele>
        <time>2020-11-11T12:42:40Z</time>
      </trkpt>
      <trkpt lat="39.8913670" lon="-0.3498150">
        <ele>603.0</ele>
        <time>2020-11-11T12:42:41Z</time>
      </trkpt>
      <trkpt lat="39.8914000" lon="-0.3498050">
        <ele>603.4</ele>
        <time>2020-11-11T12:42:43Z</time>
      </trkpt>
      <trkpt lat="39.8914080" lon="-0.3497960">
        <ele>602.1</ele>
        <time>2020-11-11T12:42:44Z</time>
      </trkpt>
      <trkpt lat="39.8914160" lon="-0.3497720">
        <ele>602.0</ele>
        <time>2020-11-11T12:42:45Z</time>
      </trkpt>
      <trkpt lat="39.8914150" lon="-0.3497340">
        <ele>600.6</ele>
        <time>2020-11-11T12:42:47Z</time>
      </trkpt>
      <trkpt lat="39.8914020" lon="-0.3496960">
        <ele>599.2</ele>
        <time>2020-11-11T12:42:48Z</time>
      </trkpt>
      <trkpt lat="39.8913870" lon="-0.3496610">
        <ele>597.3</ele>
        <time>2020-11-11T12:42:49Z</time>
      </trkpt>
      <trkpt lat="39.8913630" lon="-0.3496160">
        <ele>595.5</ele>
        <time>2020-11-11T12:42:50Z</time>
      </trkpt>
      <trkpt lat="39.8913420" lon="-0.3495790">
        <ele>594.1</ele>
        <time>2020-11-11T12:42:52Z</time>
      </trkpt>
      <trkpt lat="39.8913110" lon="-0.3495370">
        <ele>592.5</ele>
        <time>2020-11-11T12:42:53Z</time>
      </trkpt>
      <trkpt lat="39.8912880" lon="-0.3495070">
        <ele>592.3</ele>
        <time>2020-11-11T12:42:54Z</time>
      </trkpt>
      <trkpt lat="39.8912440" lon="-0.3494600">
        <ele>590.8</ele>
        <time>2020-11-11T12:42:56Z</time>
      </trkpt>
      <trkpt lat="39.8912260" lon="-0.3494310">
        <ele>589.5</ele>
        <time>2020-11-11T12:42:57Z</time>
      </trkpt>
      <trkpt lat="39.8911800" lon="-0.3493670">
        <ele>587.5</ele>
        <time>2020-11-11T12:42:58Z</time>
      </trkpt>
      <trkpt lat="39.8911470" lon="-0.3493310">
        <ele>587.3</ele>
        <time>2020-11-11T12:43:00Z</time>
      </trkpt>
      <trkpt lat="39.8911250" lon="-0.3493030">
        <ele>586.4</ele>
        <time>2020-11-11T12:43:01Z</time>
      </trkpt>
      <trkpt lat="39.8911040" lon="-0.3492750">
        <ele>585.8</ele>
        <time>2020-11-11T12:43:02Z</time>
      </trkpt>
      <trkpt lat="39.8910800" lon="-0.3492070">
        <ele>585.1</ele>
        <time>2020-11-11T12:43:04Z</time>
      </trkpt>
      <trkpt lat="39.8910610" lon="-0.3491810">
        <ele>584.6</ele>
        <time>2020-11-11T12:43:05Z</time>
      </trkpt>
      <trkpt lat="39.8910380" lon="-0.3491430">
        <ele>584.2</ele>
        <time>2020-11-11T12:43:07Z</time>
      </trkpt>
      <trkpt lat="39.8910150" lon="-0.3491220">
        <ele>584.2</ele>
        <time>2020-11-11T12:43:08Z</time>
      </trkpt>
      <trkpt lat="39.8909940" lon="-0.3490930">
        <ele>584.0</ele>
        <time>2020-11-11T12:43:09Z</time>
      </trkpt>
      <trkpt lat="39.8909840" lon="-0.3490820">
        <ele>584.0</ele>
        <time>2020-11-11T12:43:10Z</time>
      </trkpt>
      <trkpt lat="39.8909650" lon="-0.3490510">
        <ele>583.9</ele>
        <time>2020-11-11T12:43:12Z</time>
      </trkpt>
      <trkpt lat="39.8909620" lon="-0.3490150">
        <ele>583.7</ele>
        <time>2020-11-11T12:43:13Z</time>
      </trkpt>
      <trkpt lat="39.8909610" lon="-0.3489930">
        <ele>583.7</ele>
        <time>2020-11-11T12:43:14Z</time>
      </trkpt>
      <trkpt lat="39.8909570" lon="-0.3489660">
        <ele>583.6</ele>
        <time>2020-11-11T12:43:16Z</time>
      </trkpt>
      <trkpt lat="39.8909470" lon="-0.3489170">
        <ele>583.5</ele>
        <time>2020-11-11T12:43:17Z</time>
      </trkpt>
      <trkpt lat="39.8909430" lon="-0.3488920">
        <ele>583.4</ele>
        <time>2020-11-11T12:43:18Z</time>
      </trkpt>
      <trkpt lat="39.8909450" lon="-0.3488690">
        <ele>583.4</ele>
        <time>2020-11-11T12:43:19Z</time>
      </trkpt>
      <trkpt lat="39.8909490" lon="-0.3488470">
        <ele>583.3</ele>
        <time>2020-11-11T12:43:21Z</time>
      </trkpt>
      <trkpt lat="39.8909500" lon="-0.3488260">
        <ele>583.2</ele>
        <time>2020-11-11T12:43:22Z</time>
      </trkpt>
      <trkpt lat="39.8909500" lon="-0.3488080">
        <ele>583.1</ele>
        <time>2020-11-11T12:43:23Z</time>
      </trkpt>
      <trkpt lat="39.8909520" lon="-0.3487660">
        <ele>583.0</ele>
        <time>2020-11-11T12:43:24Z</time>
      </trkpt>
      <trkpt lat="39.8909520" lon="-0.3487560">
        <ele>583.0</ele>
        <time>2020-11-11T12:43:25Z</time>
      </trkpt>
      <trkpt lat="39.8909480" lon="-0.3487410">
        <ele>583.0</ele>
        <time>2020-11-11T12:43:26Z</time>
      </trkpt>
      <trkpt lat="39.8909480" lon="-0.3487230">
        <ele>582.9</ele>
        <time>2020-11-11T12:43:27Z</time>
      </trkpt>
      <trkpt lat="39.8909590" lon="-0.3486890">
        <ele>582.9</ele>
        <time>2020-11-11T12:43:30Z</time>
      </trkpt>
      <trkpt lat="39.8909620" lon="-0.3486690">
        <ele>582.8</ele>
        <time>2020-11-11T12:43:31Z</time>
      </trkpt>
      <trkpt lat="39.8909640" lon="-0.3486520">
        <ele>582.8</ele>
        <time>2020-11-11T12:43:32Z</time>
      </trkpt>
      <trkpt lat="39.8909720" lon="-0.3486360">
        <ele>582.3</ele>
        <time>2020-11-11T12:43:33Z</time>
      </trkpt>
      <trkpt lat="39.8909840" lon="-0.3486200">
        <ele>582.3</ele>
        <time>2020-11-11T12:43:34Z</time>
      </trkpt>
      <trkpt lat="39.8909930" lon="-0.3486040">
        <ele>582.3</ele>
        <time>2020-11-11T12:43:35Z</time>
      </trkpt>
      <trkpt lat="39.8910120" lon="-0.3485940">
        <ele>581.9</ele>
        <time>2020-11-11T12:43:37Z</time>
      </trkpt>
      <trkpt lat="39.8910220" lon="-0.3486070">
        <ele>581.8</ele>
        <time>2020-11-11T12:43:38Z</time>
      </trkpt>
      <trkpt lat="39.8910290" lon="-0.3486500">
        <ele>581.8</ele>
        <time>2020-11-11T12:43:40Z</time>
      </trkpt>
      <trkpt lat="39.8910300" lon="-0.3486610">
        <ele>581.8</ele>
        <time>2020-11-11T12:43:41Z</time>
      </trkpt>
      <trkpt lat="39.8910260" lon="-0.3486720">
        <ele>581.7</ele>
        <time>2020-11-11T12:43:43Z</time>
      </trkpt>
      <trkpt lat="39.8910200" lon="-0.3486670">
        <ele>581.7</ele>
        <time>2020-11-11T12:43:44Z</time>
      </trkpt>
      <trkpt lat="39.8910210" lon="-0.3486500">
        <ele>581.7</ele>
        <time>2020-11-11T12:43:45Z</time>
      </trkpt>
      <trkpt lat="39.8910240" lon="-0.3486410">
        <ele>581.6</ele>
        <time>2020-11-11T12:43:46Z</time>
      </trkpt>
      <trkpt lat="39.8910260" lon="-0.3486380">
        <ele>581.6</ele>
        <time>2020-11-11T12:43:47Z</time>
      </trkpt>
      <trkpt lat="39.8910280" lon="-0.3486360">
        <ele>581.5</ele>
        <time>2020-11-11T12:43:48Z</time>
      </trkpt>
      <trkpt lat="39.8910330" lon="-0.3486370">
        <ele>581.5</ele>
        <time>2020-11-11T12:43:50Z</time>
      </trkpt>
      <trkpt lat="39.8910410" lon="-0.3486290">
        <ele>581.2</ele>
        <time>2020-11-11T12:43:51Z</time>
      </trkpt>
      <trkpt lat="39.8910460" lon="-0.3486110">
        <ele>581.1</ele>
        <time>2020-11-11T12:43:52Z</time>
      </trkpt>
      <trkpt lat="39.8910550" lon="-0.3485770">
        <ele>581.1</ele>
        <time>2020-11-11T12:43:53Z</time>
      </trkpt>
      <trkpt lat="39.8910570" lon="-0.3485630">
        <ele>581.1</ele>
        <time>2020-11-11T12:43:54Z</time>
      </trkpt>
      <trkpt lat="39.8910520" lon="-0.3484980">
        <ele>581.4</ele>
        <time>2020-11-11T12:43:56Z</time>
      </trkpt>
      <trkpt lat="39.8910500" lon="-0.3484780">
        <ele>581.4</ele>
        <time>2020-11-11T12:43:57Z</time>
      </trkpt>
      <trkpt lat="39.8910480" lon="-0.3484570">
        <ele>581.7</ele>
        <time>2020-11-11T12:43:58Z</time>
      </trkpt>
      <trkpt lat="39.8910490" lon="-0.3484320">
        <ele>581.6</ele>
        <time>2020-11-11T12:43:59Z</time>
      </trkpt>
      <trkpt lat="39.8910530" lon="-0.3484020">
        <ele>582.0</ele>
        <time>2020-11-11T12:44:01Z</time>
      </trkpt>
      <trkpt lat="39.8910410" lon="-0.3483570">
        <ele>582.5</ele>
        <time>2020-11-11T12:44:02Z</time>
      </trkpt>
      <trkpt lat="39.8910070" lon="-0.3482930">
        <ele>583.9</ele>
        <time>2020-11-11T12:44:04Z</time>
      </trkpt>
      <trkpt lat="39.8909900" lon="-0.3482650">
        <ele>584.1</ele>
        <time>2020-11-11T12:44:05Z</time>
      </trkpt>
      <trkpt lat="39.8909640" lon="-0.3482140">
        <ele>585.2</ele>
        <time>2020-11-11T12:44:06Z</time>
      </trkpt>
      <trkpt lat="39.8909390" lon="-0.3481640">
        <ele>585.5</ele>
        <time>2020-11-11T12:44:07Z</time>
      </trkpt>
      <trkpt lat="39.8909050" lon="-0.3481120">
        <ele>585.6</ele>
        <time>2020-11-11T12:44:09Z</time>
      </trkpt>
      <trkpt lat="39.8908700" lon="-0.3480620">
        <ele>585.3</ele>
        <time>2020-11-11T12:44:10Z</time>
      </trkpt>
      <trkpt lat="39.8908320" lon="-0.3480220">
        <ele>584.9</ele>
        <time>2020-11-11T12:44:12Z</time>
      </trkpt>
      <trkpt lat="39.8908030" lon="-0.3480030">
        <ele>584.5</ele>
        <time>2020-11-11T12:44:13Z</time>
      </trkpt>
      <trkpt lat="39.8907830" lon="-0.3479900">
        <ele>584.3</ele>
        <time>2020-11-11T12:44:14Z</time>
      </trkpt>
      <trkpt lat="39.8907610" lon="-0.3479640">
        <ele>583.8</ele>
        <time>2020-11-11T12:44:16Z</time>
      </trkpt>
      <trkpt lat="39.8907510" lon="-0.3479450">
        <ele>583.6</ele>
        <time>2020-11-11T12:44:17Z</time>
      </trkpt>
      <trkpt lat="39.8907390" lon="-0.3479290">
        <ele>583.1</ele>
        <time>2020-11-11T12:44:18Z</time>
      </trkpt>
      <trkpt lat="39.8907190" lon="-0.3478960">
        <ele>582.8</ele>
        <time>2020-11-11T12:44:20Z</time>
      </trkpt>
      <trkpt lat="39.8907170" lon="-0.3478870">
        <ele>582.8</ele>
        <time>2020-11-11T12:44:21Z</time>
      </trkpt>
      <trkpt lat="39.8907270" lon="-0.3478600">
        <ele>582.6</ele>
        <time>2020-11-11T12:44:22Z</time>
      </trkpt>
      <trkpt lat="39.8907400" lon="-0.3478310">
        <ele>583.1</ele>
        <time>2020-11-11T12:44:24Z</time>
      </trkpt>
      <trkpt lat="39.8907660" lon="-0.3478050">
        <ele>582.8</ele>
        <time>2020-11-11T12:44:25Z</time>
      </trkpt>
      <trkpt lat="39.8907750" lon="-0.3477970">
        <ele>583.3</ele>
        <time>2020-11-11T12:44:26Z</time>
      </trkpt>
      <trkpt lat="39.8908120" lon="-0.3477760">
        <ele>583.6</ele>
        <time>2020-11-11T12:44:27Z</time>
      </trkpt>
      <trkpt lat="39.8908300" lon="-0.3477690">
        <ele>583.6</ele>
        <time>2020-11-11T12:44:28Z</time>
      </trkpt>
      <trkpt lat="39.8908570" lon="-0.3477570">
        <ele>584.1</ele>
        <time>2020-11-11T12:44:30Z</time>
      </trkpt>
      <trkpt lat="39.8908870" lon="-0.3477450">
        <ele>584.5</ele>
        <time>2020-11-11T12:44:31Z</time>
      </trkpt>
      <trkpt lat="39.8909150" lon="-0.3477340">
        <ele>584.8</ele>
        <time>2020-11-11T12:44:32Z</time>
      </trkpt>
      <trkpt lat="39.8909600" lon="-0.3477130">
        <ele>585.2</ele>
        <time>2020-11-11T12:44:34Z</time>
      </trkpt>
      <trkpt lat="39.8909790" lon="-0.3477060">
        <ele>585.6</ele>
        <time>2020-11-11T12:44:35Z</time>
      </trkpt>
      <trkpt lat="39.8909970" lon="-0.3476990">
        <ele>585.4</ele>
        <time>2020-11-11T12:44:36Z</time>
      </trkpt>
      <trkpt lat="39.8910310" lon="-0.3476930">
        <ele>585.7</ele>
        <time>2020-11-11T12:44:37Z</time>
      </trkpt>
      <trkpt lat="39.8910720" lon="-0.3476930">
        <ele>586.3</ele>
        <time>2020-11-11T12:44:39Z</time>
      </trkpt>
      <trkpt lat="39.8911110" lon="-0.3477000">
        <ele>586.5</ele>
        <time>2020-11-11T12:44:40Z</time>
      </trkpt>
      <trkpt lat="39.8911540" lon="-0.3477080">
        <ele>586.6</ele>
        <time>2020-11-11T12:44:42Z</time>
      </trkpt>
      <trkpt lat="39.8911900" lon="-0.3477200">
        <ele>586.6</ele>
        <time>2020-11-11T12:44:43Z</time>
      </trkpt>
      <trkpt lat="39.8912550" lon="-0.3477500">
        <ele>586.1</ele>
        <time>2020-11-11T12:44:44Z</time>
      </trkpt>
      <trkpt lat="39.8913150" lon="-0.3477690">
        <ele>585.7</ele>
        <time>2020-11-11T12:44:46Z</time>
      </trkpt>
      <trkpt lat="39.8913780" lon="-0.3477820">
        <ele>585.0</ele>
        <time>2020-11-11T12:44:48Z</time>
      </trkpt>
      <trkpt lat="39.8914100" lon="-0.3477940">
        <ele>584.2</ele>
        <time>2020-11-11T12:44:49Z</time>
      </trkpt>
      <trkpt lat="39.8914370" lon="-0.3478050">
        <ele>583.7</ele>
        <time>2020-11-11T12:44:50Z</time>
      </trkpt>
      <trkpt lat="39.8914710" lon="-0.3478360">
        <ele>582.8</ele>
        <time>2020-11-11T12:44:52Z</time>
      </trkpt>
      <trkpt lat="39.8915100" lon="-0.3478560">
        <ele>582.3</ele>
        <time>2020-11-11T12:44:53Z</time>
      </trkpt>
      <trkpt lat="39.8915390" lon="-0.3478720">
        <ele>581.4</ele>
        <time>2020-11-11T12:44:54Z</time>
      </trkpt>
      <trkpt lat="39.8915760" lon="-0.3479000">
        <ele>580.9</ele>
        <time>2020-11-11T12:44:56Z</time>
      </trkpt>
      <trkpt lat="39.8916030" lon="-0.3479250">
        <ele>579.9</ele>
        <time>2020-11-11T12:44:57Z</time>
      </trkpt>
      <trkpt lat="39.8916250" lon="-0.3479440">
        <ele>579.9</ele>
        <time>2020-11-11T12:44:58Z</time>
      </trkpt>
      <trkpt lat="39.8916470" lon="-0.3479710">
        <ele>578.8</ele>
        <time>2020-11-11T12:45:00Z</time>
      </trkpt>
      <trkpt lat="39.8916680" lon="-0.3480010">
        <ele>577.8</ele>
        <time>2020-11-11T12:45:01Z</time>
      </trkpt>
      <trkpt lat="39.8916830" lon="-0.3480330">
        <ele>577.7</ele>
        <time>2020-11-11T12:45:02Z</time>
      </trkpt>
      <trkpt lat="39.8916960" lon="-0.3480700">
        <ele>576.7</ele>
        <time>2020-11-11T12:45:03Z</time>
      </trkpt>
      <trkpt lat="39.8917080" lon="-0.3481220">
        <ele>576.2</ele>
        <time>2020-11-11T12:45:04Z</time>
      </trkpt>
      <trkpt lat="39.8917230" lon="-0.3481810">
        <ele>575.5</ele>
        <time>2020-11-11T12:45:06Z</time>
      </trkpt>
      <trkpt lat="39.8917310" lon="-0.3481940">
        <ele>574.9</ele>
        <time>2020-11-11T12:45:07Z</time>
      </trkpt>
      <trkpt lat="39.8917390" lon="-0.3482080">
        <ele>574.9</ele>
        <time>2020-11-11T12:45:08Z</time>
      </trkpt>
      <trkpt lat="39.8917550" lon="-0.3482340">
        <ele>574.6</ele>
        <time>2020-11-11T12:45:10Z</time>
      </trkpt>
      <trkpt lat="39.8917610" lon="-0.3482440">
        <ele>574.0</ele>
        <time>2020-11-11T12:45:11Z</time>
      </trkpt>
      <trkpt lat="39.8917670" lon="-0.3482500">
        <ele>574.0</ele>
        <time>2020-11-11T12:45:12Z</time>
      </trkpt>
      <trkpt lat="39.8917970" lon="-0.3482760">
        <ele>573.3</ele>
        <time>2020-11-11T12:45:14Z</time>
      </trkpt>
      <trkpt lat="39.8918890" lon="-0.3483480">
        <ele>572.3</ele>
        <time>2020-11-11T12:45:15Z</time>
      </trkpt>
      <trkpt lat="39.8919850" lon="-0.3484220">
        <ele>571.3</ele>
        <time>2020-11-11T12:45:17Z</time>
      </trkpt>
      <trkpt lat="39.8919980" lon="-0.3484310">
        <ele>571.2</ele>
        <time>2020-11-11T12:45:18Z</time>
      </trkpt>
      <trkpt lat="39.8920080" lon="-0.3484350">
        <ele>571.2</ele>
        <time>2020-11-11T12:45:20Z</time>
      </trkpt>
      <trkpt lat="39.8920110" lon="-0.3484360">
        <ele>571.1</ele>
        <time>2020-11-11T12:45:21Z</time>
      </trkpt>
      <trkpt lat="39.8920140" lon="-0.3484370">
        <ele>571.1</ele>
        <time>2020-11-11T12:45:23Z</time>
      </trkpt>
      <trkpt lat="39.8920140" lon="-0.3484360">
        <ele>571.1</ele>
        <time>2020-11-11T12:45:24Z</time>
      </trkpt>
      <trkpt lat="39.8920140" lon="-0.3484360">
        <ele>571.0</ele>
        <time>2020-11-11T12:45:25Z</time>
      </trkpt>
      <trkpt lat="39.8920150" lon="-0.3484400">
        <ele>571.0</ele>
        <time>2020-11-11T12:45:27Z</time>
      </trkpt>
      <trkpt lat="39.8920200" lon="-0.3484410">
        <ele>571.0</ele>
        <time>2020-11-11T12:45:29Z</time>
      </trkpt>
      <trkpt lat="39.8920260" lon="-0.3484430">
        <ele>570.7</ele>
        <time>2020-11-11T12:45:30Z</time>
      </trkpt>
      <trkpt lat="39.8920330" lon="-0.3484450">
        <ele>570.6</ele>
        <time>2020-11-11T12:45:31Z</time>
      </trkpt>
      <trkpt lat="39.8919780" lon="-0.3485190">
        <ele>571.8</ele>
        <time>2020-11-11T12:45:33Z</time>
      </trkpt>
      <trkpt lat="39.8919740" lon="-0.3485240">
        <ele>571.7</ele>
        <time>2020-11-11T12:45:34Z</time>
      </trkpt>
      <trkpt lat="39.8919710" lon="-0.3485270">
        <ele>571.7</ele>
        <time>2020-11-11T12:45:35Z</time>
      </trkpt>
      <trkpt lat="39.8919700" lon="-0.3485300">
        <ele>571.7</ele>
        <time>2020-11-11T12:45:37Z</time>
      </trkpt>
      <trkpt lat="39.8919690" lon="-0.3485300">
        <ele>571.6</ele>
        <time>2020-11-11T12:45:38Z</time>
      </trkpt>
      <trkpt lat="39.8919690" lon="-0.3485310">
        <ele>571.6</ele>
        <time>2020-11-11T12:45:39Z</time>
      </trkpt>
      <trkpt lat="39.8919690" lon="-0.3485310">
        <ele>571.6</ele>
        <time>2020-11-11T12:45:41Z</time>
      </trkpt>
      <trkpt lat="39.8920900" lon="-0.3487730">
        <ele>574.6</ele>
        <time>2020-11-11T12:45:58Z</time>
      </trkpt>
      <trkpt lat="39.8921240" lon="-0.3488260">
        <ele>574.2</ele>
        <time>2020-11-11T12:46:00Z</time>
      </trkpt>
      <trkpt lat="39.8921820" lon="-0.3489100">
        <ele>573.4</ele>
        <time>2020-11-11T12:46:02Z</time>
      </trkpt>
      <trkpt lat="39.8922180" lon="-0.3489540">
        <ele>573.0</ele>
        <time>2020-11-11T12:46:03Z</time>
      </trkpt>
      <trkpt lat="39.8922350" lon="-0.3489740">
        <ele>572.8</ele>
        <time>2020-11-11T12:46:04Z</time>
      </trkpt>
      <trkpt lat="39.8922730" lon="-0.3490010">
        <ele>572.4</ele>
        <time>2020-11-11T12:46:05Z</time>
      </trkpt>
      <trkpt lat="39.8923020" lon="-0.3490110">
        <ele>572.2</ele>
        <time>2020-11-11T12:46:06Z</time>
      </trkpt>
      <trkpt lat="39.8923290" lon="-0.3490270">
        <ele>571.9</ele>
        <time>2020-11-11T12:46:08Z</time>
      </trkpt>
      <trkpt lat="39.8923620" lon="-0.3490380">
        <ele>571.6</ele>
        <time>2020-11-11T12:46:09Z</time>
      </trkpt>
      <trkpt lat="39.8923930" lon="-0.3490410">
        <ele>571.4</ele>
        <time>2020-11-11T12:46:11Z</time>
      </trkpt>
      <trkpt lat="39.8924010" lon="-0.3490400">
        <ele>571.3</ele>
        <time>2020-11-11T12:46:12Z</time>
      </trkpt>
      <trkpt lat="39.8924170" lon="-0.3490330">
        <ele>571.1</ele>
        <time>2020-11-11T12:46:13Z</time>
      </trkpt>
      <trkpt lat="39.8924240" lon="-0.3490220">
        <ele>571.0</ele>
        <time>2020-11-11T12:46:14Z</time>
      </trkpt>
      <trkpt lat="39.8924310" lon="-0.3490080">
        <ele>570.9</ele>
        <time>2020-11-11T12:46:16Z</time>
      </trkpt>
      <trkpt lat="39.8924380" lon="-0.3489860">
        <ele>570.8</ele>
        <time>2020-11-11T12:46:17Z</time>
      </trkpt>
      <trkpt lat="39.8924400" lon="-0.3489630">
        <ele>570.6</ele>
        <time>2020-11-11T12:46:18Z</time>
      </trkpt>
      <trkpt lat="39.8924380" lon="-0.3489270">
        <ele>570.4</ele>
        <time>2020-11-11T12:46:19Z</time>
      </trkpt>
      <trkpt lat="39.8924380" lon="-0.3489120">
        <ele>570.3</ele>
        <time>2020-11-11T12:46:20Z</time>
      </trkpt>
      <trkpt lat="39.8924430" lon="-0.3488760">
        <ele>570.1</ele>
        <time>2020-11-11T12:46:21Z</time>
      </trkpt>
      <trkpt lat="39.8924510" lon="-0.3488270">
        <ele>569.8</ele>
        <time>2020-11-11T12:46:23Z</time>
      </trkpt>
      <trkpt lat="39.8924490" lon="-0.3488060">
        <ele>569.6</ele>
        <time>2020-11-11T12:46:24Z</time>
      </trkpt>
      <trkpt lat="39.8924530" lon="-0.3487690">
        <ele>569.4</ele>
        <time>2020-11-11T12:46:25Z</time>
      </trkpt>
      <trkpt lat="39.8924570" lon="-0.3487510">
        <ele>569.3</ele>
        <time>2020-11-11T12:46:26Z</time>
      </trkpt>
      <trkpt lat="39.8924630" lon="-0.3487330">
        <ele>569.1</ele>
        <time>2020-11-11T12:46:28Z</time>
      </trkpt>
      <trkpt lat="39.8924660" lon="-0.3487200">
        <ele>569.0</ele>
        <time>2020-11-11T12:46:29Z</time>
      </trkpt>
      <trkpt lat="39.8924770" lon="-0.3487140">
        <ele>568.9</ele>
        <time>2020-11-11T12:46:31Z</time>
      </trkpt>
      <trkpt lat="39.8924900" lon="-0.3487140">
        <ele>568.8</ele>
        <time>2020-11-11T12:46:33Z</time>
      </trkpt>
      <trkpt lat="39.8925070" lon="-0.3487130">
        <ele>568.7</ele>
        <time>2020-11-11T12:46:35Z</time>
      </trkpt>
      <trkpt lat="39.8925220" lon="-0.3487110">
        <ele>568.6</ele>
        <time>2020-11-11T12:46:36Z</time>
      </trkpt>
      <trkpt lat="39.8925370" lon="-0.3487090">
        <ele>568.4</ele>
        <time>2020-11-11T12:46:37Z</time>
      </trkpt>
      <trkpt lat="39.8925560" lon="-0.3487080">
        <ele>568.3</ele>
        <time>2020-11-11T12:46:38Z</time>
      </trkpt>
      <trkpt lat="39.8925830" lon="-0.3487020">
        <ele>568.1</ele>
        <time>2020-11-11T12:46:40Z</time>
      </trkpt>
      <trkpt lat="39.8926130" lon="-0.3486930">
        <ele>567.9</ele>
        <time>2020-11-11T12:46:42Z</time>
      </trkpt>
      <trkpt lat="39.8926340" lon="-0.3486830">
        <ele>567.7</ele>
        <time>2020-11-11T12:46:44Z</time>
      </trkpt>
      <trkpt lat="39.8926320" lon="-0.3485860">
        <ele>567.2</ele>
        <time>2020-11-11T12:46:46Z</time>
      </trkpt>
      <trkpt lat="39.8926150" lon="-0.3485180">
        <ele>566.8</ele>
        <time>2020-11-11T12:46:47Z</time>
      </trkpt>
      <trkpt lat="39.8926050" lon="-0.3484620">
        <ele>566.4</ele>
        <time>2020-11-11T12:46:48Z</time>
      </trkpt>
      <trkpt lat="39.8926090" lon="-0.3484120">
        <ele>566.1</ele>
        <time>2020-11-11T12:46:49Z</time>
      </trkpt>
      <trkpt lat="39.8926360" lon="-0.3483840">
        <ele>565.8</ele>
        <time>2020-11-11T12:46:50Z</time>
      </trkpt>
      <trkpt lat="39.8926480" lon="-0.3482910">
        <ele>565.2</ele>
        <time>2020-11-11T12:46:52Z</time>
      </trkpt>
      <trkpt lat="39.8926580" lon="-0.3482320">
        <ele>564.7</ele>
        <time>2020-11-11T12:46:53Z</time>
      </trkpt>
      <trkpt lat="39.8926590" lon="-0.3482110">
        <ele>564.5</ele>
        <time>2020-11-11T12:46:55Z</time>
      </trkpt>
      <trkpt lat="39.8926580" lon="-0.3481950">
        <ele>564.4</ele>
        <time>2020-11-11T12:46:56Z</time>
      </trkpt>
      <trkpt lat="39.8926680" lon="-0.3481690">
        <ele>564.1</ele>
        <time>2020-11-11T12:46:57Z</time>
      </trkpt>
      <trkpt lat="39.8926800" lon="-0.3481460">
        <ele>563.9</ele>
        <time>2020-11-11T12:46:59Z</time>
      </trkpt>
      <trkpt lat="39.8927010" lon="-0.3481210">
        <ele>563.5</ele>
        <time>2020-11-11T12:47:01Z</time>
      </trkpt>
      <trkpt lat="39.8927170" lon="-0.3481320">
        <ele>563.3</ele>
        <time>2020-11-11T12:47:02Z</time>
      </trkpt>
      <trkpt lat="39.8927340" lon="-0.3481320">
        <ele>563.1</ele>
        <time>2020-11-11T12:47:03Z</time>
      </trkpt>
      <trkpt lat="39.8927700" lon="-0.3481160">
        <ele>562.6</ele>
        <time>2020-11-11T12:47:05Z</time>
      </trkpt>
      <trkpt lat="39.8927830" lon="-0.3481080">
        <ele>562.5</ele>
        <time>2020-11-11T12:47:06Z</time>
      </trkpt>
      <trkpt lat="39.8927990" lon="-0.3480990">
        <ele>562.3</ele>
        <time>2020-11-11T12:47:07Z</time>
      </trkpt>
      <trkpt lat="39.8928160" lon="-0.3480940">
        <ele>562.1</ele>
        <time>2020-11-11T12:47:09Z</time>
      </trkpt>
      <trkpt lat="39.8928680" lon="-0.3481000">
        <ele>561.5</ele>
        <time>2020-11-11T12:47:11Z</time>
      </trkpt>
      <trkpt lat="39.8928840" lon="-0.3481660">
        <ele>560.9</ele>
        <time>2020-11-11T12:47:12Z</time>
      </trkpt>
      <trkpt lat="39.8928990" lon="-0.3482520">
        <ele>560.2</ele>
        <time>2020-11-11T12:47:13Z</time>
      </trkpt>
      <trkpt lat="39.8929130" lon="-0.3483090">
        <ele>559.7</ele>
        <time>2020-11-11T12:47:14Z</time>
      </trkpt>
      <trkpt lat="39.8929380" lon="-0.3483910">
        <ele>559.0</ele>
        <time>2020-11-11T12:47:15Z</time>
      </trkpt>
      <trkpt lat="39.8929400" lon="-0.3484650">
        <ele>558.3</ele>
        <time>2020-11-11T12:47:17Z</time>
      </trkpt>
      <trkpt lat="39.8929400" lon="-0.3485270">
        <ele>557.8</ele>
        <time>2020-11-11T12:47:18Z</time>
      </trkpt>
      <trkpt lat="39.8929420" lon="-0.3485760">
        <ele>557.3</ele>
        <time>2020-11-11T12:47:19Z</time>
      </trkpt>
      <trkpt lat="39.8929590" lon="-0.3486300">
        <ele>556.8</ele>
        <time>2020-11-11T12:47:20Z</time>
      </trkpt>
      <trkpt lat="39.8929720" lon="-0.3486440">
        <ele>556.5</ele>
        <time>2020-11-11T12:47:21Z</time>
      </trkpt>
      <trkpt lat="39.8929890" lon="-0.3486430">
        <ele>556.3</ele>
        <time>2020-11-11T12:47:23Z</time>
      </trkpt>
      <trkpt lat="39.8930100" lon="-0.3486090">
        <ele>555.9</ele>
        <time>2020-11-11T12:47:24Z</time>
      </trkpt>
      <trkpt lat="39.8930460" lon="-0.3485660">
        <ele>555.3</ele>
        <time>2020-11-11T12:47:26Z</time>
      </trkpt>
      <trkpt lat="39.8930550" lon="-0.3485460">
        <ele>555.1</ele>
        <time>2020-11-11T12:47:27Z</time>
      </trkpt>
      <trkpt lat="39.8930650" lon="-0.3485270">
        <ele>554.9</ele>
        <time>2020-11-11T12:47:28Z</time>
      </trkpt>
      <trkpt lat="39.8930790" lon="-0.3484760">
        <ele>554.4</ele>
        <time>2020-11-11T12:47:29Z</time>
      </trkpt>
      <trkpt lat="39.8931040" lon="-0.3484090">
        <ele>553.7</ele>
        <time>2020-11-11T12:47:31Z</time>
      </trkpt>
      <trkpt lat="39.8931130" lon="-0.3483700">
        <ele>553.3</ele>
        <time>2020-11-11T12:47:32Z</time>
      </trkpt>
      <trkpt lat="39.8931170" lon="-0.3483130">
        <ele>552.8</ele>
        <time>2020-11-11T12:47:34Z</time>
      </trkpt>
      <trkpt lat="39.8931180" lon="-0.3482700">
        <ele>552.5</ele>
        <time>2020-11-11T12:47:35Z</time>
      </trkpt>
      <trkpt lat="39.8931190" lon="-0.3482300">
        <ele>552.2</ele>
        <time>2020-11-11T12:47:36Z</time>
      </trkpt>
      <trkpt lat="39.8931210" lon="-0.3482000">
        <ele>551.9</ele>
        <time>2020-11-11T12:47:37Z</time>
      </trkpt>
      <trkpt lat="39.8931160" lon="-0.3481570">
        <ele>551.6</ele>
        <time>2020-11-11T12:47:39Z</time>
      </trkpt>
      <trkpt lat="39.8931060" lon="-0.3481140">
        <ele>551.2</ele>
        <time>2020-11-11T12:47:40Z</time>
      </trkpt>
      <trkpt lat="39.8930970" lon="-0.3480810">
        <ele>551.0</ele>
        <time>2020-11-11T12:47:42Z</time>
      </trkpt>
      <trkpt lat="39.8930890" lon="-0.3480400">
        <ele>550.6</ele>
        <time>2020-11-11T12:47:43Z</time>
      </trkpt>
      <trkpt lat="39.8930820" lon="-0.3479910">
        <ele>550.3</ele>
        <time>2020-11-11T12:47:45Z</time>
      </trkpt>
      <trkpt lat="39.8930800" lon="-0.3479730">
        <ele>550.2</ele>
        <time>2020-11-11T12:47:46Z</time>
      </trkpt>
      <trkpt lat="39.8930710" lon="-0.3479500">
        <ele>550.0</ele>
        <time>2020-11-11T12:47:48Z</time>
      </trkpt>
      <trkpt lat="39.8930630" lon="-0.3479320">
        <ele>549.8</ele>
        <time>2020-11-11T12:47:49Z</time>
      </trkpt>
      <trkpt lat="39.8930450" lon="-0.3479050">
        <ele>549.6</ele>
        <time>2020-11-11T12:47:50Z</time>
      </trkpt>
      <trkpt lat="39.8930250" lon="-0.3478750">
        <ele>549.4</ele>
        <time>2020-11-11T12:47:51Z</time>
      </trkpt>
      <trkpt lat="39.8930130" lon="-0.3478570">
        <ele>549.2</ele>
        <time>2020-11-11T12:47:52Z</time>
      </trkpt>
      <trkpt lat="39.8929950" lon="-0.3478350">
        <ele>549.0</ele>
        <time>2020-11-11T12:47:54Z</time>
      </trkpt>
      <trkpt lat="39.8929690" lon="-0.3478080">
        <ele>548.8</ele>
        <time>2020-11-11T12:47:55Z</time>
      </trkpt>
      <trkpt lat="39.8929480" lon="-0.3477800">
        <ele>548.6</ele>
        <time>2020-11-11T12:47:56Z</time>
      </trkpt>
      <trkpt lat="39.8929410" lon="-0.3477710">
        <ele>548.5</ele>
        <time>2020-11-11T12:47:57Z</time>
      </trkpt>
      <trkpt lat="39.8929220" lon="-0.3477390">
        <ele>548.4</ele>
        <time>2020-11-11T12:47:59Z</time>
      </trkpt>
      <trkpt lat="39.8929100" lon="-0.3477150">
        <ele>548.2</ele>
        <time>2020-11-11T12:48:00Z</time>
      </trkpt>
      <trkpt lat="39.8928990" lon="-0.3476840">
        <ele>548.1</ele>
        <time>2020-11-11T12:48:02Z</time>
      </trkpt>
      <trkpt lat="39.8928910" lon="-0.3476610">
        <ele>547.9</ele>
        <time>2020-11-11T12:48:03Z</time>
      </trkpt>
      <trkpt lat="39.8928780" lon="-0.3476270">
        <ele>547.8</ele>
        <time>2020-11-11T12:48:05Z</time>
      </trkpt>
      <trkpt lat="39.8928690" lon="-0.3475890">
        <ele>547.6</ele>
        <time>2020-11-11T12:48:06Z</time>
      </trkpt>
      <trkpt lat="39.8928670" lon="-0.3475780">
        <ele>547.6</ele>
        <time>2020-11-11T12:48:07Z</time>
      </trkpt>
      <trkpt lat="39.8928720" lon="-0.3475250">
        <ele>547.3</ele>
        <time>2020-11-11T12:48:09Z</time>
      </trkpt>
      <trkpt lat="39.8928750" lon="-0.3475080">
        <ele>547.3</ele>
        <time>2020-11-11T12:48:10Z</time>
      </trkpt>
      <trkpt lat="39.8928790" lon="-0.3474920">
        <ele>547.2</ele>
        <time>2020-11-11T12:48:11Z</time>
      </trkpt>
      <trkpt lat="39.8928950" lon="-0.3474680">
        <ele>547.0</ele>
        <time>2020-11-11T12:48:12Z</time>
      </trkpt>
      <trkpt lat="39.8929140" lon="-0.3474390">
        <ele>546.9</ele>
        <time>2020-11-11T12:48:14Z</time>
      </trkpt>
      <trkpt lat="39.8929450" lon="-0.3474200">
        <ele>546.7</ele>
        <time>2020-11-11T12:48:15Z</time>
      </trkpt>
      <trkpt lat="39.8929590" lon="-0.3474140">
        <ele>546.6</ele>
        <time>2020-11-11T12:48:16Z</time>
      </trkpt>
      <trkpt lat="39.8929790" lon="-0.3474080">
        <ele>546.5</ele>
        <time>2020-11-11T12:48:17Z</time>
      </trkpt>
      <trkpt lat="39.8930070" lon="-0.3474010">
        <ele>546.3</ele>
        <time>2020-11-11T12:48:19Z</time>
      </trkpt>
      <trkpt lat="39.8930430" lon="-0.3474040">
        <ele>546.1</ele>
        <time>2020-11-11T12:48:20Z</time>
      </trkpt>
      <trkpt lat="39.8930590" lon="-0.3474090">
        <ele>546.0</ele>
        <time>2020-11-11T12:48:21Z</time>
      </trkpt>
      <trkpt lat="39.8930810" lon="-0.3474200">
        <ele>545.8</ele>
        <time>2020-11-11T12:48:22Z</time>
      </trkpt>
      <trkpt lat="39.8931070" lon="-0.3474340">
        <ele>545.6</ele>
        <time>2020-11-11T12:48:24Z</time>
      </trkpt>
      <trkpt lat="39.8931480" lon="-0.3474680">
        <ele>545.3</ele>
        <time>2020-11-11T12:48:25Z</time>
      </trkpt>
      <trkpt lat="39.8931770" lon="-0.3474900">
        <ele>545.2</ele>
        <time>2020-11-11T12:48:26Z</time>
      </trkpt>
      <trkpt lat="39.8932080" lon="-0.3475150">
        <ele>545.0</ele>
        <time>2020-11-11T12:48:27Z</time>
      </trkpt>
      <trkpt lat="39.8932420" lon="-0.3475380">
        <ele>544.8</ele>
        <time>2020-11-11T12:48:29Z</time>
      </trkpt>
      <trkpt lat="39.8932760" lon="-0.3475540">
        <ele>544.6</ele>
        <time>2020-11-11T12:48:30Z</time>
      </trkpt>
      <trkpt lat="39.8932930" lon="-0.3475560">
        <ele>544.5</ele>
        <time>2020-11-11T12:48:31Z</time>
      </trkpt>
      <trkpt lat="39.8933140" lon="-0.3475570">
        <ele>544.4</ele>
        <time>2020-11-11T12:48:33Z</time>
      </trkpt>
      <trkpt lat="39.8933290" lon="-0.3475530">
        <ele>544.3</ele>
        <time>2020-11-11T12:48:34Z</time>
      </trkpt>
      <trkpt lat="39.8933470" lon="-0.3475420">
        <ele>544.3</ele>
        <time>2020-11-11T12:48:35Z</time>
      </trkpt>
      <trkpt lat="39.8933630" lon="-0.3475270">
        <ele>544.2</ele>
        <time>2020-11-11T12:48:37Z</time>
      </trkpt>
      <trkpt lat="39.8933800" lon="-0.3474970">
        <ele>544.1</ele>
        <time>2020-11-11T12:48:39Z</time>
      </trkpt>
      <trkpt lat="39.8933890" lon="-0.3474630">
        <ele>544.0</ele>
        <time>2020-11-11T12:48:40Z</time>
      </trkpt>
      <trkpt lat="39.8933910" lon="-0.3474470">
        <ele>543.9</ele>
        <time>2020-11-11T12:48:41Z</time>
      </trkpt>
      <trkpt lat="39.8933930" lon="-0.3474100">
        <ele>543.8</ele>
        <time>2020-11-11T12:48:43Z</time>
      </trkpt>
      <trkpt lat="39.8933910" lon="-0.3473970">
        <ele>543.8</ele>
        <time>2020-11-11T12:48:44Z</time>
      </trkpt>
      <trkpt lat="39.8933760" lon="-0.3473600">
        <ele>543.7</ele>
        <time>2020-11-11T12:48:45Z</time>
      </trkpt>
      <trkpt lat="39.8933720" lon="-0.3473500">
        <ele>543.6</ele>
        <time>2020-11-11T12:48:46Z</time>
      </trkpt>
      <trkpt lat="39.8933390" lon="-0.3473130">
        <ele>543.4</ele>
        <time>2020-11-11T12:48:47Z</time>
      </trkpt>
      <trkpt lat="39.8933080" lon="-0.3472790">
        <ele>543.3</ele>
        <time>2020-11-11T12:48:49Z</time>
      </trkpt>
      <trkpt lat="39.8932810" lon="-0.3472560">
        <ele>543.1</ele>
        <time>2020-11-11T12:48:50Z</time>
      </trkpt>
      <trkpt lat="39.8932550" lon="-0.3472360">
        <ele>542.9</ele>
        <time>2020-11-11T12:48:51Z</time>
      </trkpt>
      <trkpt lat="39.8932220" lon="-0.3472080">
        <ele>542.7</ele>
        <time>2020-11-11T12:48:52Z</time>
      </trkpt>
      <trkpt lat="39.8931980" lon="-0.3471810">
        <ele>542.5</ele>
        <time>2020-11-11T12:48:53Z</time>
      </trkpt>
      <trkpt lat="39.8931890" lon="-0.3471720">
        <ele>542.4</ele>
        <time>2020-11-11T12:48:54Z</time>
      </trkpt>
      <trkpt lat="39.8931670" lon="-0.3471350">
        <ele>542.2</ele>
        <time>2020-11-11T12:48:56Z</time>
      </trkpt>
      <trkpt lat="39.8931600" lon="-0.3471220">
        <ele>542.1</ele>
        <time>2020-11-11T12:48:57Z</time>
      </trkpt>
      <trkpt lat="39.8931500" lon="-0.3470890">
        <ele>541.9</ele>
        <time>2020-11-11T12:48:59Z</time>
      </trkpt>
      <trkpt lat="39.8931460" lon="-0.3470760">
        <ele>541.8</ele>
        <time>2020-11-11T12:49:00Z</time>
      </trkpt>
      <trkpt lat="39.8931390" lon="-0.3470230">
        <ele>541.4</ele>
        <time>2020-11-11T12:49:02Z</time>
      </trkpt>
      <trkpt lat="39.8931360" lon="-0.3470060">
        <ele>541.3</ele>
        <time>2020-11-11T12:49:03Z</time>
      </trkpt>
      <trkpt lat="39.8931340" lon="-0.3469880">
        <ele>541.1</ele>
        <time>2020-11-11T12:49:04Z</time>
      </trkpt>
      <trkpt lat="39.8931330" lon="-0.3469660">
        <ele>540.9</ele>
        <time>2020-11-11T12:49:05Z</time>
      </trkpt>
      <trkpt lat="39.8931330" lon="-0.3469450">
        <ele>540.8</ele>
        <time>2020-11-11T12:49:06Z</time>
      </trkpt>
      <trkpt lat="39.8931350" lon="-0.3469000">
        <ele>540.4</ele>
        <time>2020-11-11T12:49:07Z</time>
      </trkpt>
      <trkpt lat="39.8931360" lon="-0.3468880">
        <ele>540.3</ele>
        <time>2020-11-11T12:49:08Z</time>
      </trkpt>
      <trkpt lat="39.8931420" lon="-0.3468470">
        <ele>540.0</ele>
        <time>2020-11-11T12:49:10Z</time>
      </trkpt>
      <trkpt lat="39.8931440" lon="-0.3468320">
        <ele>539.9</ele>
        <time>2020-11-11T12:49:11Z</time>
      </trkpt>
      <trkpt lat="39.8931580" lon="-0.3467950">
        <ele>539.5</ele>
        <time>2020-11-11T12:49:12Z</time>
      </trkpt>
      <trkpt lat="39.8931630" lon="-0.3467830">
        <ele>539.4</ele>
        <time>2020-11-11T12:49:13Z</time>
      </trkpt>
      <trkpt lat="39.8931800" lon="-0.3467480">
        <ele>539.1</ele>
        <time>2020-11-11T12:49:14Z</time>
      </trkpt>
      <trkpt lat="39.8931860" lon="-0.3467350">
        <ele>539.0</ele>
        <time>2020-11-11T12:49:15Z</time>
      </trkpt>
      <trkpt lat="39.8932070" lon="-0.3466930">
        <ele>538.6</ele>
        <time>2020-11-11T12:49:17Z</time>
      </trkpt>
      <trkpt lat="39.8932140" lon="-0.3466530">
        <ele>538.2</ele>
        <time>2020-11-11T12:49:18Z</time>
      </trkpt>
      <trkpt lat="39.8932230" lon="-0.3466280">
        <ele>538.0</ele>
        <time>2020-11-11T12:49:19Z</time>
      </trkpt>
      <trkpt lat="39.8932360" lon="-0.3466060">
        <ele>537.8</ele>
        <time>2020-11-11T12:49:21Z</time>
      </trkpt>
      <trkpt lat="39.8932460" lon="-0.3465860">
        <ele>537.6</ele>
        <time>2020-11-11T12:49:22Z</time>
      </trkpt>
      <trkpt lat="39.8932530" lon="-0.3465650">
        <ele>537.4</ele>
        <time>2020-11-11T12:49:23Z</time>
      </trkpt>
      <trkpt lat="39.8932570" lon="-0.3465170">
        <ele>537.1</ele>
        <time>2020-11-11T12:49:24Z</time>
      </trkpt>
      <trkpt lat="39.8932600" lon="-0.3464960">
        <ele>536.9</ele>
        <time>2020-11-11T12:49:25Z</time>
      </trkpt>
      <trkpt lat="39.8932610" lon="-0.3464730">
        <ele>536.7</ele>
        <time>2020-11-11T12:49:26Z</time>
      </trkpt>
      <trkpt lat="39.8932650" lon="-0.3464420">
        <ele>536.5</ele>
        <time>2020-11-11T12:49:28Z</time>
      </trkpt>
      <trkpt lat="39.8932710" lon="-0.3464180">
        <ele>536.3</ele>
        <time>2020-11-11T12:49:29Z</time>
      </trkpt>
      <trkpt lat="39.8932800" lon="-0.3464010">
        <ele>536.2</ele>
        <time>2020-11-11T12:49:30Z</time>
      </trkpt>
      <trkpt lat="39.8933060" lon="-0.3463680">
        <ele>535.8</ele>
        <time>2020-11-11T12:49:32Z</time>
      </trkpt>
      <trkpt lat="39.8933160" lon="-0.3463530">
        <ele>535.7</ele>
        <time>2020-11-11T12:49:33Z</time>
      </trkpt>
      <trkpt lat="39.8933270" lon="-0.3463400">
        <ele>535.5</ele>
        <time>2020-11-11T12:49:35Z</time>
      </trkpt>
      <trkpt lat="39.8933380" lon="-0.3463260">
        <ele>535.4</ele>
        <time>2020-11-11T12:49:36Z</time>
      </trkpt>
      <trkpt lat="39.8933450" lon="-0.3463140">
        <ele>535.3</ele>
        <time>2020-11-11T12:49:37Z</time>
      </trkpt>
      <trkpt lat="39.8933580" lon="-0.3463000">
        <ele>535.1</ele>
        <time>2020-11-11T12:49:39Z</time>
      </trkpt>
      <trkpt lat="39.8933650" lon="-0.3462930">
        <ele>535.0</ele>
        <time>2020-11-11T12:49:40Z</time>
      </trkpt>
      <trkpt lat="39.8933730" lon="-0.3462850">
        <ele>534.9</ele>
        <time>2020-11-11T12:49:41Z</time>
      </trkpt>
      <trkpt lat="39.8933790" lon="-0.3462740">
        <ele>534.8</ele>
        <time>2020-11-11T12:49:42Z</time>
      </trkpt>
      <trkpt lat="39.8933860" lon="-0.3462550">
        <ele>534.7</ele>
        <time>2020-11-11T12:49:44Z</time>
      </trkpt>
      <trkpt lat="39.8933890" lon="-0.3462440">
        <ele>534.6</ele>
        <time>2020-11-11T12:49:45Z</time>
      </trkpt>
      <trkpt lat="39.8933900" lon="-0.3462290">
        <ele>534.5</ele>
        <time>2020-11-11T12:49:47Z</time>
      </trkpt>
      <trkpt lat="39.8933860" lon="-0.3462140">
        <ele>534.3</ele>
        <time>2020-11-11T12:49:48Z</time>
      </trkpt>
      <trkpt lat="39.8933780" lon="-0.3461950">
        <ele>534.2</ele>
        <time>2020-11-11T12:49:49Z</time>
      </trkpt>
      <trkpt lat="39.8933640" lon="-0.3461590">
        <ele>533.9</ele>
        <time>2020-11-11T12:49:51Z</time>
      </trkpt>
      <trkpt lat="39.8933580" lon="-0.3461470">
        <ele>533.7</ele>
        <time>2020-11-11T12:49:52Z</time>
      </trkpt>
      <trkpt lat="39.8933430" lon="-0.3461150">
        <ele>533.4</ele>
        <time>2020-11-11T12:49:53Z</time>
      </trkpt>
      <trkpt lat="39.8933260" lon="-0.3460680">
        <ele>533.0</ele>
        <time>2020-11-11T12:49:55Z</time>
      </trkpt>
      <trkpt lat="39.8933210" lon="-0.3460510">
        <ele>532.8</ele>
        <time>2020-11-11T12:49:56Z</time>
      </trkpt>
      <trkpt lat="39.8933170" lon="-0.3460350">
        <ele>532.7</ele>
        <time>2020-11-11T12:49:57Z</time>
      </trkpt>
      <trkpt lat="39.8933120" lon="-0.3460120">
        <ele>532.4</ele>
        <time>2020-11-11T12:49:58Z</time>
      </trkpt>
      <trkpt lat="39.8933040" lon="-0.3459700">
        <ele>532.0</ele>
        <time>2020-11-11T12:50:00Z</time>
      </trkpt>
      <trkpt lat="39.8933160" lon="-0.3459350">
        <ele>531.7</ele>
        <time>2020-11-11T12:50:01Z</time>
      </trkpt>
      <trkpt lat="39.8933360" lon="-0.3459010">
        <ele>531.2</ele>
        <time>2020-11-11T12:50:02Z</time>
      </trkpt>
      <trkpt lat="39.8933420" lon="-0.3458880">
        <ele>531.1</ele>
        <time>2020-11-11T12:50:03Z</time>
      </trkpt>
      <trkpt lat="39.8933600" lon="-0.3458460">
        <ele>530.5</ele>
        <time>2020-11-11T12:50:05Z</time>
      </trkpt>
      <trkpt lat="39.8933740" lon="-0.3458160">
        <ele>530.1</ele>
        <time>2020-11-11T12:50:06Z</time>
      </trkpt>
      <trkpt lat="39.8933870" lon="-0.3457700">
        <ele>529.6</ele>
        <time>2020-11-11T12:50:08Z</time>
      </trkpt>
      <trkpt lat="39.8933980" lon="-0.3457360">
        <ele>529.2</ele>
        <time>2020-11-11T12:50:09Z</time>
      </trkpt>
      <trkpt lat="39.8934280" lon="-0.3456990">
        <ele>528.6</ele>
        <time>2020-11-11T12:50:10Z</time>
      </trkpt>
      <trkpt lat="39.8934390" lon="-0.3456870">
        <ele>528.4</ele>
        <time>2020-11-11T12:50:11Z</time>
      </trkpt>
      <trkpt lat="39.8934700" lon="-0.3456710">
        <ele>527.9</ele>
        <time>2020-11-11T12:50:13Z</time>
      </trkpt>
      <trkpt lat="39.8934760" lon="-0.3456670">
        <ele>527.8</ele>
        <time>2020-11-11T12:50:14Z</time>
      </trkpt>
      <trkpt lat="39.8935070" lon="-0.3456600">
        <ele>527.4</ele>
        <time>2020-11-11T12:50:16Z</time>
      </trkpt>
      <trkpt lat="39.8935170" lon="-0.3456600">
        <ele>527.3</ele>
        <time>2020-11-11T12:50:17Z</time>
      </trkpt>
      <trkpt lat="39.8935380" lon="-0.3456690">
        <ele>527.0</ele>
        <time>2020-11-11T12:50:19Z</time>
      </trkpt>
      <trkpt lat="39.8935450" lon="-0.3456750">
        <ele>526.9</ele>
        <time>2020-11-11T12:50:20Z</time>
      </trkpt>
      <trkpt lat="39.8935520" lon="-0.3456800">
        <ele>526.9</ele>
        <time>2020-11-11T12:50:21Z</time>
      </trkpt>
      <trkpt lat="39.8935660" lon="-0.3456840">
        <ele>526.7</ele>
        <time>2020-11-11T12:50:22Z</time>
      </trkpt>
      <trkpt lat="39.8935840" lon="-0.3456800">
        <ele>526.5</ele>
        <time>2020-11-11T12:50:23Z</time>
      </trkpt>
      <trkpt lat="39.8936060" lon="-0.3456610">
        <ele>526.3</ele>
        <time>2020-11-11T12:50:24Z</time>
      </trkpt>
      <trkpt lat="39.8936150" lon="-0.3456490">
        <ele>526.2</ele>
        <time>2020-11-11T12:50:25Z</time>
      </trkpt>
      <trkpt lat="39.8936480" lon="-0.3456150">
        <ele>525.9</ele>
        <time>2020-11-11T12:50:27Z</time>
      </trkpt>
      <trkpt lat="39.8936590" lon="-0.3456090">
        <ele>525.8</ele>
        <time>2020-11-11T12:50:28Z</time>
      </trkpt>
      <trkpt lat="39.8936700" lon="-0.3456020">
        <ele>525.7</ele>
        <time>2020-11-11T12:50:29Z</time>
      </trkpt>
      <trkpt lat="39.8936960" lon="-0.3455890">
        <ele>525.6</ele>
        <time>2020-11-11T12:50:30Z</time>
      </trkpt>
      <trkpt lat="39.8937060" lon="-0.3455820">
        <ele>525.5</ele>
        <time>2020-11-11T12:50:31Z</time>
      </trkpt>
      <trkpt lat="39.8937200" lon="-0.3455730">
        <ele>525.4</ele>
        <time>2020-11-11T12:50:32Z</time>
      </trkpt>
      <trkpt lat="39.8937390" lon="-0.3455530">
        <ele>525.3</ele>
        <time>2020-11-11T12:50:34Z</time>
      </trkpt>
      <trkpt lat="39.8937610" lon="-0.3455270">
        <ele>525.2</ele>
        <time>2020-11-11T12:50:36Z</time>
      </trkpt>
      <trkpt lat="39.8937650" lon="-0.3455190">
        <ele>525.2</ele>
        <time>2020-11-11T12:50:37Z</time>
      </trkpt>
      <trkpt lat="39.8937730" lon="-0.3455050">
        <ele>525.2</ele>
        <time>2020-11-11T12:50:38Z</time>
      </trkpt>
      <trkpt lat="39.8937820" lon="-0.3454870">
        <ele>525.1</ele>
        <time>2020-11-11T12:50:39Z</time>
      </trkpt>
      <trkpt lat="39.8937930" lon="-0.3454510">
        <ele>525.0</ele>
        <time>2020-11-11T12:50:40Z</time>
      </trkpt>
      <trkpt lat="39.8937960" lon="-0.3454410">
        <ele>525.0</ele>
        <time>2020-11-11T12:50:41Z</time>
      </trkpt>
      <trkpt lat="39.8938030" lon="-0.3454210">
        <ele>524.9</ele>
        <time>2020-11-11T12:50:43Z</time>
      </trkpt>
      <trkpt lat="39.8938080" lon="-0.3454010">
        <ele>524.9</ele>
        <time>2020-11-11T12:50:44Z</time>
      </trkpt>
      <trkpt lat="39.8938050" lon="-0.3453600">
        <ele>524.8</ele>
        <time>2020-11-11T12:50:45Z</time>
      </trkpt>
      <trkpt lat="39.8938020" lon="-0.3453430">
        <ele>525.4</ele>
        <time>2020-11-11T12:50:46Z</time>
      </trkpt>
      <trkpt lat="39.8937940" lon="-0.3452740">
        <ele>524.8</ele>
        <time>2020-11-11T12:50:48Z</time>
      </trkpt>
      <trkpt lat="39.8937900" lon="-0.3452490">
        <ele>525.0</ele>
        <time>2020-11-11T12:50:49Z</time>
      </trkpt>
      <trkpt lat="39.8937850" lon="-0.3452230">
        <ele>525.6</ele>
        <time>2020-11-11T12:50:50Z</time>
      </trkpt>
      <trkpt lat="39.8937760" lon="-0.3451790">
        <ele>525.9</ele>
        <time>2020-11-11T12:50:51Z</time>
      </trkpt>
      <trkpt lat="39.8937710" lon="-0.3451200">
        <ele>525.8</ele>
        <time>2020-11-11T12:50:53Z</time>
      </trkpt>
      <trkpt lat="39.8937700" lon="-0.3450790">
        <ele>526.1</ele>
        <time>2020-11-11T12:50:54Z</time>
      </trkpt>
      <trkpt lat="39.8937700" lon="-0.3450410">
        <ele>526.8</ele>
        <time>2020-11-11T12:50:55Z</time>
      </trkpt>
      <trkpt lat="39.8937680" lon="-0.3450000">
        <ele>526.9</ele>
        <time>2020-11-11T12:50:56Z</time>
      </trkpt>
      <trkpt lat="39.8937670" lon="-0.3449470">
        <ele>527.2</ele>
        <time>2020-11-11T12:50:57Z</time>
      </trkpt>
      <trkpt lat="39.8937560" lon="-0.3448900">
        <ele>526.7</ele>
        <time>2020-11-11T12:50:59Z</time>
      </trkpt>
      <trkpt lat="39.8937450" lon="-0.3448370">
        <ele>526.3</ele>
        <time>2020-11-11T12:51:00Z</time>
      </trkpt>
      <trkpt lat="39.8937440" lon="-0.3447960">
        <ele>526.0</ele>
        <time>2020-11-11T12:51:01Z</time>
      </trkpt>
      <trkpt lat="39.8937490" lon="-0.3447540">
        <ele>525.6</ele>
        <time>2020-11-11T12:51:02Z</time>
      </trkpt>
      <trkpt lat="39.8937610" lon="-0.3446760">
        <ele>525.0</ele>
        <time>2020-11-11T12:51:04Z</time>
      </trkpt>
      <trkpt lat="39.8937830" lon="-0.3446350">
        <ele>524.6</ele>
        <time>2020-11-11T12:51:05Z</time>
      </trkpt>
      <trkpt lat="39.8937830" lon="-0.3446080">
        <ele>524.4</ele>
        <time>2020-11-11T12:51:06Z</time>
      </trkpt>
      <trkpt lat="39.8937790" lon="-0.3445680">
        <ele>524.1</ele>
        <time>2020-11-11T12:51:08Z</time>
      </trkpt>
      <trkpt lat="39.8938120" lon="-0.3445350">
        <ele>523.7</ele>
        <time>2020-11-11T12:51:10Z</time>
      </trkpt>
      <trkpt lat="39.8938270" lon="-0.3445330">
        <ele>523.6</ele>
        <time>2020-11-11T12:51:12Z</time>
      </trkpt>
      <trkpt lat="39.8938430" lon="-0.3445310">
        <ele>523.4</ele>
        <time>2020-11-11T12:51:13Z</time>
      </trkpt>
      <trkpt lat="39.8938580" lon="-0.3445260">
        <ele>523.3</ele>
        <time>2020-11-11T12:51:15Z</time>
      </trkpt>
      <trkpt lat="39.8938780" lon="-0.3445300">
        <ele>523.1</ele>
        <time>2020-11-11T12:51:16Z</time>
      </trkpt>
      <trkpt lat="39.8939050" lon="-0.3445420">
        <ele>522.8</ele>
        <time>2020-11-11T12:51:17Z</time>
      </trkpt>
      <trkpt lat="39.8939430" lon="-0.3445560">
        <ele>522.4</ele>
        <time>2020-11-11T12:51:18Z</time>
      </trkpt>
      <trkpt lat="39.8939720" lon="-0.3445680">
        <ele>522.1</ele>
        <time>2020-11-11T12:51:19Z</time>
      </trkpt>
      <trkpt lat="39.8940190" lon="-0.3445920">
        <ele>521.6</ele>
        <time>2020-11-11T12:51:21Z</time>
      </trkpt>
      <trkpt lat="39.8940550" lon="-0.3446130">
        <ele>521.2</ele>
        <time>2020-11-11T12:51:22Z</time>
      </trkpt>
      <trkpt lat="39.8940990" lon="-0.3446390">
        <ele>520.7</ele>
        <time>2020-11-11T12:51:24Z</time>
      </trkpt>
      <trkpt lat="39.8941420" lon="-0.3446650">
        <ele>520.1</ele>
        <time>2020-11-11T12:51:25Z</time>
      </trkpt>
      <trkpt lat="39.8941850" lon="-0.3446990">
        <ele>519.6</ele>
        <time>2020-11-11T12:51:26Z</time>
      </trkpt>
      <trkpt lat="39.8942180" lon="-0.3447210">
        <ele>519.2</ele>
        <time>2020-11-11T12:51:27Z</time>
      </trkpt>
      <trkpt lat="39.8942660" lon="-0.3447500">
        <ele>518.6</ele>
        <time>2020-11-11T12:51:29Z</time>
      </trkpt>
      <trkpt lat="39.8943000" lon="-0.3447510">
        <ele>518.2</ele>
        <time>2020-11-11T12:51:30Z</time>
      </trkpt>
      <trkpt lat="39.8943630" lon="-0.3447010">
        <ele>517.5</ele>
        <time>2020-11-11T12:51:32Z</time>
      </trkpt>
      <trkpt lat="39.8943970" lon="-0.3446530">
        <ele>517.1</ele>
        <time>2020-11-11T12:51:33Z</time>
      </trkpt>
      <trkpt lat="39.8944130" lon="-0.3446230">
        <ele>516.9</ele>
        <time>2020-11-11T12:51:34Z</time>
      </trkpt>
      <trkpt lat="39.8944340" lon="-0.3445880">
        <ele>516.6</ele>
        <time>2020-11-11T12:51:36Z</time>
      </trkpt>
      <trkpt lat="39.8944420" lon="-0.3445790">
        <ele>516.6</ele>
        <time>2020-11-11T12:51:37Z</time>
      </trkpt>
      <trkpt lat="39.8944630" lon="-0.3445670">
        <ele>516.4</ele>
        <time>2020-11-11T12:51:38Z</time>
      </trkpt>
      <trkpt lat="39.8945480" lon="-0.3446040">
        <ele>515.9</ele>
        <time>2020-11-11T12:51:42Z</time>
      </trkpt>
      <trkpt lat="39.8945860" lon="-0.3446020">
        <ele>515.7</ele>
        <time>2020-11-11T12:51:43Z</time>
      </trkpt>
      <trkpt lat="39.8946120" lon="-0.3446330">
        <ele>515.5</ele>
        <time>2020-11-11T12:51:45Z</time>
      </trkpt>
      <trkpt lat="39.8946350" lon="-0.3446560">
        <ele>515.4</ele>
        <time>2020-11-11T12:51:46Z</time>
      </trkpt>
      <trkpt lat="39.8946630" lon="-0.3446860">
        <ele>515.2</ele>
        <time>2020-11-11T12:51:47Z</time>
      </trkpt>
      <trkpt lat="39.8946900" lon="-0.3447150">
        <ele>515.1</ele>
        <time>2020-11-11T12:51:49Z</time>
      </trkpt>
      <trkpt lat="39.8947080" lon="-0.3447480">
        <ele>514.9</ele>
        <time>2020-11-11T12:51:50Z</time>
      </trkpt>
      <trkpt lat="39.8947340" lon="-0.3447950">
        <ele>514.8</ele>
        <time>2020-11-11T12:51:52Z</time>
      </trkpt>
      <trkpt lat="39.8947460" lon="-0.3448150">
        <ele>514.7</ele>
        <time>2020-11-11T12:51:53Z</time>
      </trkpt>
      <trkpt lat="39.8947460" lon="-0.3448470">
        <ele>514.6</ele>
        <time>2020-11-11T12:51:55Z</time>
      </trkpt>
      <trkpt lat="39.8947550" lon="-0.3448650">
        <ele>514.5</ele>
        <time>2020-11-11T12:51:56Z</time>
      </trkpt>
      <trkpt lat="39.8947640" lon="-0.3448770">
        <ele>514.5</ele>
        <time>2020-11-11T12:51:57Z</time>
      </trkpt>
      <trkpt lat="39.8947810" lon="-0.3449150">
        <ele>514.4</ele>
        <time>2020-11-11T12:51:59Z</time>
      </trkpt>
      <trkpt lat="39.8947820" lon="-0.3449270">
        <ele>514.4</ele>
        <time>2020-11-11T12:52:00Z</time>
      </trkpt>
      <trkpt lat="39.8947970" lon="-0.3449560">
        <ele>514.3</ele>
        <time>2020-11-11T12:52:02Z</time>
      </trkpt>
      <trkpt lat="39.8948070" lon="-0.3449800">
        <ele>514.2</ele>
        <time>2020-11-11T12:52:03Z</time>
      </trkpt>
      <trkpt lat="39.8948220" lon="-0.3450280">
        <ele>514.1</ele>
        <time>2020-11-11T12:52:05Z</time>
      </trkpt>
      <trkpt lat="39.8948320" lon="-0.3450520">
        <ele>514.1</ele>
        <time>2020-11-11T12:52:06Z</time>
      </trkpt>
      <trkpt lat="39.8948460" lon="-0.3451060">
        <ele>514.0</ele>
        <time>2020-11-11T12:52:08Z</time>
      </trkpt>
      <trkpt lat="39.8948600" lon="-0.3451320">
        <ele>513.9</ele>
        <time>2020-11-11T12:52:09Z</time>
      </trkpt>
      <trkpt lat="39.8949000" lon="-0.3451600">
        <ele>513.7</ele>
        <time>2020-11-11T12:52:11Z</time>
      </trkpt>
      <trkpt lat="39.8949220" lon="-0.3451690">
        <ele>513.7</ele>
        <time>2020-11-11T12:52:12Z</time>
      </trkpt>
      <trkpt lat="39.8949620" lon="-0.3451700">
        <ele>513.6</ele>
        <time>2020-11-11T12:52:14Z</time>
      </trkpt>
      <trkpt lat="39.8949980" lon="-0.3451580">
        <ele>513.4</ele>
        <time>2020-11-11T12:52:15Z</time>
      </trkpt>
      <trkpt lat="39.8950100" lon="-0.3451530">
        <ele>513.4</ele>
        <time>2020-11-11T12:52:16Z</time>
      </trkpt>
      <trkpt lat="39.8950360" lon="-0.3451450">
        <ele>513.3</ele>
        <time>2020-11-11T12:52:17Z</time>
      </trkpt>
      <trkpt lat="39.8950810" lon="-0.3451320">
        <ele>513.1</ele>
        <time>2020-11-11T12:52:19Z</time>
      </trkpt>
      <trkpt lat="39.8951060" lon="-0.3451260">
        <ele>513.0</ele>
        <time>2020-11-11T12:52:20Z</time>
      </trkpt>
      <trkpt lat="39.8951520" lon="-0.3451190">
        <ele>512.8</ele>
        <time>2020-11-11T12:52:22Z</time>
      </trkpt>
      <trkpt lat="39.8951790" lon="-0.3451230">
        <ele>512.6</ele>
        <time>2020-11-11T12:52:23Z</time>
      </trkpt>
      <trkpt lat="39.8952090" lon="-0.3451210">
        <ele>512.5</ele>
        <time>2020-11-11T12:52:24Z</time>
      </trkpt>
      <trkpt lat="39.8952470" lon="-0.3450970">
        <ele>512.3</ele>
        <time>2020-11-11T12:52:26Z</time>
      </trkpt>
      <trkpt lat="39.8952550" lon="-0.3450770">
        <ele>512.2</ele>
        <time>2020-11-11T12:52:27Z</time>
      </trkpt>
      <trkpt lat="39.8952620" lon="-0.3450560">
        <ele>512.1</ele>
        <time>2020-11-11T12:52:28Z</time>
      </trkpt>
      <trkpt lat="39.8952770" lon="-0.3450260">
        <ele>512.0</ele>
        <time>2020-11-11T12:52:30Z</time>
      </trkpt>
      <trkpt lat="39.8952810" lon="-0.3449880">
        <ele>511.9</ele>
        <time>2020-11-11T12:52:31Z</time>
      </trkpt>
      <trkpt lat="39.8952850" lon="-0.3449480">
        <ele>511.8</ele>
        <time>2020-11-11T12:52:32Z</time>
      </trkpt>
      <trkpt lat="39.8952920" lon="-0.3449230">
        <ele>511.7</ele>
        <time>2020-11-11T12:52:33Z</time>
      </trkpt>
      <trkpt lat="39.8953110" lon="-0.3448790">
        <ele>511.6</ele>
        <time>2020-11-11T12:52:36Z</time>
      </trkpt>
      <trkpt lat="39.8953310" lon="-0.3448520">
        <ele>511.5</ele>
        <time>2020-11-11T12:52:38Z</time>
      </trkpt>
      <trkpt lat="39.8953530" lon="-0.3448260">
        <ele>511.4</ele>
        <time>2020-11-11T12:52:40Z</time>
      </trkpt>
      <trkpt lat="39.8953650" lon="-0.3448140">
        <ele>511.4</ele>
        <time>2020-11-11T12:52:41Z</time>
      </trkpt>
      <trkpt lat="39.8953780" lon="-0.3448040">
        <ele>511.4</ele>
        <time>2020-11-11T12:52:42Z</time>
      </trkpt>
      <trkpt lat="39.8954200" lon="-0.3447830">
        <ele>511.3</ele>
        <time>2020-11-11T12:52:44Z</time>
      </trkpt>
      <trkpt lat="39.8954320" lon="-0.3447790">
        <ele>511.3</ele>
        <time>2020-11-11T12:52:45Z</time>
      </trkpt>
      <trkpt lat="39.8954440" lon="-0.3447750">
        <ele>511.3</ele>
        <time>2020-11-11T12:52:46Z</time>
      </trkpt>
      <trkpt lat="39.8954650" lon="-0.3447710">
        <ele>511.3</ele>
        <time>2020-11-11T12:52:47Z</time>
      </trkpt>
      <trkpt lat="39.8954980" lon="-0.3447620">
        <ele>511.3</ele>
        <time>2020-11-11T12:52:49Z</time>
      </trkpt>
      <trkpt lat="39.8955320" lon="-0.3447650">
        <ele>511.3</ele>
        <time>2020-11-11T12:52:50Z</time>
      </trkpt>
      <trkpt lat="39.8955440" lon="-0.3447670">
        <ele>511.4</ele>
        <time>2020-11-11T12:52:51Z</time>
      </trkpt>
      <trkpt lat="39.8955730" lon="-0.3447840">
        <ele>511.4</ele>
        <time>2020-11-11T12:52:52Z</time>
      </trkpt>
      <trkpt lat="39.8955810" lon="-0.3447880">
        <ele>511.4</ele>
        <time>2020-11-11T12:52:53Z</time>
      </trkpt>
      <trkpt lat="39.8956000" lon="-0.3447920">
        <ele>511.5</ele>
        <time>2020-11-11T12:52:54Z</time>
      </trkpt>
      <trkpt lat="39.8956130" lon="-0.3447880">
        <ele>511.5</ele>
        <time>2020-11-11T12:52:56Z</time>
      </trkpt>
      <trkpt lat="39.8956250" lon="-0.3447790">
        <ele>511.5</ele>
        <time>2020-11-11T12:52:57Z</time>
      </trkpt>
      <trkpt lat="39.8956340" lon="-0.3447630">
        <ele>511.5</ele>
        <time>2020-11-11T12:52:58Z</time>
      </trkpt>
      <trkpt lat="39.8956450" lon="-0.3447310">
        <ele>511.6</ele>
        <time>2020-11-11T12:52:59Z</time>
      </trkpt>
      <trkpt lat="39.8956480" lon="-0.3447190">
        <ele>511.6</ele>
        <time>2020-11-11T12:53:00Z</time>
      </trkpt>
      <trkpt lat="39.8956530" lon="-0.3446790">
        <ele>511.7</ele>
        <time>2020-11-11T12:53:01Z</time>
      </trkpt>
      <trkpt lat="39.8956530" lon="-0.3446620">
        <ele>511.7</ele>
        <time>2020-11-11T12:53:02Z</time>
      </trkpt>
      <trkpt lat="39.8956510" lon="-0.3446040">
        <ele>511.8</ele>
        <time>2020-11-11T12:53:03Z</time>
      </trkpt>
      <trkpt lat="39.8956450" lon="-0.3445510">
        <ele>511.8</ele>
        <time>2020-11-11T12:53:04Z</time>
      </trkpt>
      <trkpt lat="39.8956400" lon="-0.3445120">
        <ele>511.8</ele>
        <time>2020-11-11T12:53:05Z</time>
      </trkpt>
      <trkpt lat="39.8956360" lon="-0.3444730">
        <ele>511.7</ele>
        <time>2020-11-11T12:53:07Z</time>
      </trkpt>
      <trkpt lat="39.8956300" lon="-0.3444250">
        <ele>511.6</ele>
        <time>2020-11-11T12:53:08Z</time>
      </trkpt>
      <trkpt lat="39.8956250" lon="-0.3443780">
        <ele>511.5</ele>
        <time>2020-11-11T12:53:09Z</time>
      </trkpt>
      <trkpt lat="39.8956230" lon="-0.3443190">
        <ele>511.2</ele>
        <time>2020-11-11T12:53:10Z</time>
      </trkpt>
      <trkpt lat="39.8956270" lon="-0.3442800">
        <ele>511.0</ele>
        <time>2020-11-11T12:53:12Z</time>
      </trkpt>
      <trkpt lat="39.8956330" lon="-0.3442430">
        <ele>510.8</ele>
        <time>2020-11-11T12:53:13Z</time>
      </trkpt>
      <trkpt lat="39.8956410" lon="-0.3442150">
        <ele>510.7</ele>
        <time>2020-11-11T12:53:14Z</time>
      </trkpt>
      <trkpt lat="39.8956530" lon="-0.3441860">
        <ele>510.5</ele>
        <time>2020-11-11T12:53:16Z</time>
      </trkpt>
      <trkpt lat="39.8956620" lon="-0.3441580">
        <ele>510.3</ele>
        <time>2020-11-11T12:53:18Z</time>
      </trkpt>
      <trkpt lat="39.8956640" lon="-0.3441430">
        <ele>510.2</ele>
        <time>2020-11-11T12:53:19Z</time>
      </trkpt>
      <trkpt lat="39.8956690" lon="-0.3441320">
        <ele>510.1</ele>
        <time>2020-11-11T12:53:20Z</time>
      </trkpt>
      <trkpt lat="39.8956790" lon="-0.3441140">
        <ele>510.0</ele>
        <time>2020-11-11T12:53:22Z</time>
      </trkpt>
      <trkpt lat="39.8956920" lon="-0.3440560">
        <ele>509.6</ele>
        <time>2020-11-11T12:53:28Z</time>
      </trkpt>
      <trkpt lat="39.8957110" lon="-0.3440860">
        <ele>509.4</ele>
        <time>2020-11-11T12:53:30Z</time>
      </trkpt>
      <trkpt lat="39.8957240" lon="-0.3441190">
        <ele>509.2</ele>
        <time>2020-11-11T12:53:32Z</time>
      </trkpt>
      <trkpt lat="39.8957390" lon="-0.3441410">
        <ele>509.1</ele>
        <time>2020-11-11T12:53:33Z</time>
      </trkpt>
      <trkpt lat="39.8957590" lon="-0.3441560">
        <ele>508.9</ele>
        <time>2020-11-11T12:53:35Z</time>
      </trkpt>
      <trkpt lat="39.8957790" lon="-0.3441450">
        <ele>508.8</ele>
        <time>2020-11-11T12:53:36Z</time>
      </trkpt>
      <trkpt lat="39.8957890" lon="-0.3441140">
        <ele>508.6</ele>
        <time>2020-11-11T12:53:38Z</time>
      </trkpt>
      <trkpt lat="39.8957930" lon="-0.3440750">
        <ele>508.2</ele>
        <time>2020-11-11T12:53:39Z</time>
      </trkpt>
      <trkpt lat="39.8957910" lon="-0.3440380">
        <ele>508.1</ele>
        <time>2020-11-11T12:53:40Z</time>
      </trkpt>
      <trkpt lat="39.8957860" lon="-0.3439950">
        <ele>508.0</ele>
        <time>2020-11-11T12:53:41Z</time>
      </trkpt>
      <trkpt lat="39.8957810" lon="-0.3439620">
        <ele>507.9</ele>
        <time>2020-11-11T12:53:42Z</time>
      </trkpt>
      <trkpt lat="39.8957760" lon="-0.3439210">
        <ele>507.8</ele>
        <time>2020-11-11T12:53:44Z</time>
      </trkpt>
      <trkpt lat="39.8957710" lon="-0.3438520">
        <ele>507.6</ele>
        <time>2020-11-11T12:53:46Z</time>
      </trkpt>
      <trkpt lat="39.8957700" lon="-0.3437980">
        <ele>507.5</ele>
        <time>2020-11-11T12:53:47Z</time>
      </trkpt>
      <trkpt lat="39.8957690" lon="-0.3437790">
        <ele>507.4</ele>
        <time>2020-11-11T12:53:48Z</time>
      </trkpt>
      <trkpt lat="39.8957700" lon="-0.3437420">
        <ele>507.4</ele>
        <time>2020-11-11T12:53:49Z</time>
      </trkpt>
      <trkpt lat="39.8957690" lon="-0.3436930">
        <ele>507.2</ele>
        <time>2020-11-11T12:53:51Z</time>
      </trkpt>
      <trkpt lat="39.8957730" lon="-0.3436560">
        <ele>507.1</ele>
        <time>2020-11-11T12:53:53Z</time>
      </trkpt>
      <trkpt lat="39.8957760" lon="-0.3436380">
        <ele>507.1</ele>
        <time>2020-11-11T12:53:54Z</time>
      </trkpt>
      <trkpt lat="39.8957810" lon="-0.3436210">
        <ele>507.0</ele>
        <time>2020-11-11T12:53:55Z</time>
      </trkpt>
      <trkpt lat="39.8957860" lon="-0.3436140">
        <ele>507.0</ele>
        <time>2020-11-11T12:53:56Z</time>
      </trkpt>
      <trkpt lat="39.8957900" lon="-0.3436090">
        <ele>507.0</ele>
        <time>2020-11-11T12:53:57Z</time>
      </trkpt>
      <trkpt lat="39.8957960" lon="-0.3436050">
        <ele>507.0</ele>
        <time>2020-11-11T12:53:58Z</time>
      </trkpt>
      <trkpt lat="39.8958020" lon="-0.3436020">
        <ele>506.9</ele>
        <time>2020-11-11T12:53:59Z</time>
      </trkpt>
      <trkpt lat="39.8958090" lon="-0.3436010">
        <ele>506.9</ele>
        <time>2020-11-11T12:54:00Z</time>
      </trkpt>
      <trkpt lat="39.8958230" lon="-0.3436630">
        <ele>506.7</ele>
        <time>2020-11-11T12:54:02Z</time>
      </trkpt>
      <trkpt lat="39.8958300" lon="-0.3436800">
        <ele>506.7</ele>
        <time>2020-11-11T12:54:03Z</time>
      </trkpt>
      <trkpt lat="39.8958360" lon="-0.3436920">
        <ele>506.6</ele>
        <time>2020-11-11T12:54:04Z</time>
      </trkpt>
      <trkpt lat="39.8958450" lon="-0.3437100">
        <ele>506.6</ele>
        <time>2020-11-11T12:54:06Z</time>
      </trkpt>
      <trkpt lat="39.8958400" lon="-0.3437610">
        <ele>506.4</ele>
        <time>2020-11-11T12:54:08Z</time>
      </trkpt>
      <trkpt lat="39.8958060" lon="-0.3437870">
        <ele>506.3</ele>
        <time>2020-11-11T12:54:09Z</time>
      </trkpt>
      <trkpt lat="39.8957720" lon="-0.3438010">
        <ele>506.1</ele>
        <time>2020-11-11T12:54:11Z</time>
      </trkpt>
      <trkpt lat="39.8957390" lon="-0.3438160">
        <ele>506.0</ele>
        <time>2020-11-11T12:54:12Z</time>
      </trkpt>
      <trkpt lat="39.8957050" lon="-0.3438300">
        <ele>505.9</ele>
        <time>2020-11-11T12:54:14Z</time>
      </trkpt>
      <trkpt lat="39.8956710" lon="-0.3438440">
        <ele>505.7</ele>
        <time>2020-11-11T12:54:15Z</time>
      </trkpt>
      <trkpt lat="39.8956370" lon="-0.3438580">
        <ele>505.6</ele>
        <time>2020-11-11T12:54:17Z</time>
      </trkpt>
      <trkpt lat="39.8956120" lon="-0.3438670">
        <ele>505.5</ele>
        <time>2020-11-11T12:54:19Z</time>
      </trkpt>
      <trkpt lat="39.8956160" lon="-0.3438650">
        <ele>505.5</ele>
        <time>2020-11-11T12:54:21Z</time>
      </trkpt>
      <trkpt lat="39.8956200" lon="-0.3438620">
        <ele>505.4</ele>
        <time>2020-11-11T12:54:22Z</time>
      </trkpt>
      <trkpt lat="39.8956250" lon="-0.3438600">
        <ele>505.4</ele>
        <time>2020-11-11T12:54:24Z</time>
      </trkpt>
      <trkpt lat="39.8956290" lon="-0.3438580">
        <ele>505.4</ele>
        <time>2020-11-11T12:54:25Z</time>
      </trkpt>
      <trkpt lat="39.8956330" lon="-0.3438560">
        <ele>505.4</ele>
        <time>2020-11-11T12:54:27Z</time>
      </trkpt>
      <trkpt lat="39.8956370" lon="-0.3438540">
        <ele>505.4</ele>
        <time>2020-11-11T12:54:32Z</time>
      </trkpt>
      <trkpt lat="39.8956410" lon="-0.3438510">
        <ele>505.4</ele>
        <time>2020-11-11T12:54:33Z</time>
      </trkpt>
      <trkpt lat="39.8956450" lon="-0.3438490">
        <ele>505.3</ele>
        <time>2020-11-11T12:54:34Z</time>
      </trkpt>
      <trkpt lat="39.8956490" lon="-0.3438470">
        <ele>505.3</ele>
        <time>2020-11-11T12:54:35Z</time>
      </trkpt>
      <trkpt lat="39.8956540" lon="-0.3438450">
        <ele>505.3</ele>
        <time>2020-11-11T12:54:36Z</time>
      </trkpt>
      <trkpt lat="39.8956580" lon="-0.3438420">
        <ele>505.3</ele>
        <time>2020-11-11T12:54:38Z</time>
      </trkpt>
      <trkpt lat="39.8956620" lon="-0.3438400">
        <ele>505.3</ele>
        <time>2020-11-11T12:54:39Z</time>
      </trkpt>
      <trkpt lat="39.8956660" lon="-0.3438380">
        <ele>505.3</ele>
        <time>2020-11-11T12:54:40Z</time>
      </trkpt>
      <trkpt lat="39.8956970" lon="-0.3438180">
        <ele>505.1</ele>
        <time>2020-11-11T12:54:41Z</time>
      </trkpt>
      <trkpt lat="39.8957280" lon="-0.3437960">
        <ele>505.0</ele>
        <time>2020-11-11T12:54:43Z</time>
      </trkpt>
      <trkpt lat="39.8957470" lon="-0.3437830">
        <ele>504.9</ele>
        <time>2020-11-11T12:54:44Z</time>
      </trkpt>
      <trkpt lat="39.8957640" lon="-0.3437720">
        <ele>504.9</ele>
        <time>2020-11-11T12:54:46Z</time>
      </trkpt>
      <trkpt lat="39.8957740" lon="-0.3437670">
        <ele>504.8</ele>
        <time>2020-11-11T12:54:47Z</time>
      </trkpt>
      <trkpt lat="39.8957860" lon="-0.3437650">
        <ele>504.8</ele>
        <time>2020-11-11T12:54:48Z</time>
      </trkpt>
      <trkpt lat="39.8958100" lon="-0.3437600">
        <ele>504.7</ele>
        <time>2020-11-11T12:54:50Z</time>
      </trkpt>
      <trkpt lat="39.8958290" lon="-0.3437570">
        <ele>504.7</ele>
        <time>2020-11-11T12:54:51Z</time>
      </trkpt>
      <trkpt lat="39.8958410" lon="-0.3437580">
        <ele>504.6</ele>
        <time>2020-11-11T12:54:53Z</time>
      </trkpt>
      <trkpt lat="39.8958460" lon="-0.3437580">
        <ele>504.6</ele>
        <time>2020-11-11T12:54:54Z</time>
      </trkpt>
      <trkpt lat="39.8958460" lon="-0.3437570">
        <ele>504.6</ele>
        <time>2020-11-11T12:54:55Z</time>
      </trkpt>
      <trkpt lat="39.8958450" lon="-0.3437560">
        <ele>504.6</ele>
        <time>2020-11-11T12:54:57Z</time>
      </trkpt>
      <trkpt lat="39.8958430" lon="-0.3437540">
        <ele>504.6</ele>
        <time>2020-11-11T12:54:58Z</time>
      </trkpt>
      <trkpt lat="39.8958460" lon="-0.3437550">
        <ele>504.6</ele>
        <time>2020-11-11T12:55:05Z</time>
      </trkpt>
      <trkpt lat="39.8958470" lon="-0.3437410">
        <ele>504.6</ele>
        <time>2020-11-11T12:55:06Z</time>
      </trkpt>
      <trkpt lat="39.8958470" lon="-0.3437330">
        <ele>504.5</ele>
        <time>2020-11-11T12:55:07Z</time>
      </trkpt>
      <trkpt lat="39.8958480" lon="-0.3437290">
        <ele>504.5</ele>
        <time>2020-11-11T12:55:08Z</time>
      </trkpt>
      <trkpt lat="39.8958500" lon="-0.3437180">
        <ele>504.5</ele>
        <time>2020-11-11T12:55:10Z</time>
      </trkpt>
      <trkpt lat="39.8958510" lon="-0.3437120">
        <ele>504.5</ele>
        <time>2020-11-11T12:55:11Z</time>
      </trkpt>
      <trkpt lat="39.8958530" lon="-0.3437050">
        <ele>504.5</ele>
        <time>2020-11-11T12:55:12Z</time>
      </trkpt>
      <trkpt lat="39.8958570" lon="-0.3436960">
        <ele>504.5</ele>
        <time>2020-11-11T12:55:14Z</time>
      </trkpt>
      <trkpt lat="39.8958600" lon="-0.3436890">
        <ele>504.4</ele>
        <time>2020-11-11T12:55:15Z</time>
      </trkpt>
      <trkpt lat="39.8958630" lon="-0.3436820">
        <ele>504.4</ele>
        <time>2020-11-11T12:55:16Z</time>
      </trkpt>
      <trkpt lat="39.8958220" lon="-0.3433850">
        <ele>503.8</ele>
        <time>2020-11-11T12:55:41Z</time>
      </trkpt>
      <trkpt lat="39.8958100" lon="-0.3427800">
        <ele>502.6</ele>
        <time>2020-11-11T12:55:43Z</time>
      </trkpt>
      <trkpt lat="39.8957490" lon="-0.3426200">
        <ele>504.2</ele>
        <time>2020-11-11T12:55:50Z</time>
      </trkpt>
      <trkpt lat="39.8957510" lon="-0.3426430">
        <ele>503.8</ele>
        <time>2020-11-11T12:55:51Z</time>
      </trkpt>
      <trkpt lat="39.8961280" lon="-0.3421490">
        <ele>504.2</ele>
        <time>2020-11-11T12:57:04Z</time>
      </trkpt>
      <trkpt lat="39.8961300" lon="-0.3421580">
        <ele>504.2</ele>
        <time>2020-11-11T12:57:05Z</time>
      </trkpt>
      <trkpt lat="39.8961140" lon="-0.3421600">
        <ele>504.2</ele>
        <time>2020-11-11T12:57:06Z</time>
      </trkpt>
      <trkpt lat="39.8960520" lon="-0.3420970">
        <ele>506.6</ele>
        <time>2020-11-11T12:57:08Z</time>
      </trkpt>
      <trkpt lat="39.8960190" lon="-0.3420440">
        <ele>508.2</ele>
        <time>2020-11-11T12:57:09Z</time>
      </trkpt>
      <trkpt lat="39.8965180" lon="-0.3412680">
        <ele>513.1</ele>
        <time>2020-11-11T12:57:28Z</time>
      </trkpt>
      <trkpt lat="39.8968200" lon="-0.3415140">
        <ele>496.1</ele>
        <time>2020-11-11T12:57:29Z</time>
      </trkpt>
      <trkpt lat="39.8968780" lon="-0.3415530">
        <ele>493.5</ele>
        <time>2020-11-11T12:57:30Z</time>
      </trkpt>
      <trkpt lat="39.8970110" lon="-0.3416510">
        <ele>488.7</ele>
        <time>2020-11-11T12:57:31Z</time>
      </trkpt>
      <trkpt lat="39.8971160" lon="-0.3417190">
        <ele>486.8</ele>
        <time>2020-11-11T12:57:33Z</time>
      </trkpt>
      <trkpt lat="39.8971870" lon="-0.3417610">
        <ele>485.9</ele>
        <time>2020-11-11T12:57:34Z</time>
      </trkpt>
      <trkpt lat="39.8972290" lon="-0.3417920">
        <ele>485.1</ele>
        <time>2020-11-11T12:57:35Z</time>
      </trkpt>
      <trkpt lat="39.8972860" lon="-0.3418690">
        <ele>485.2</ele>
        <time>2020-11-11T12:57:37Z</time>
      </trkpt>
      <trkpt lat="39.8973160" lon="-0.3419040">
        <ele>484.9</ele>
        <time>2020-11-11T12:57:38Z</time>
      </trkpt>
      <trkpt lat="39.8973580" lon="-0.3419900">
        <ele>485.4</ele>
        <time>2020-11-11T12:57:40Z</time>
      </trkpt>
      <trkpt lat="39.8973750" lon="-0.3420320">
        <ele>485.9</ele>
        <time>2020-11-11T12:57:41Z</time>
      </trkpt>
      <trkpt lat="39.8973880" lon="-0.3420810">
        <ele>487.0</ele>
        <time>2020-11-11T12:57:42Z</time>
      </trkpt>
      <trkpt lat="39.8973950" lon="-0.3421360">
        <ele>487.4</ele>
        <time>2020-11-11T12:57:43Z</time>
      </trkpt>
      <trkpt lat="39.8973990" lon="-0.3421950">
        <ele>488.0</ele>
        <time>2020-11-11T12:57:44Z</time>
      </trkpt>
      <trkpt lat="39.8974020" lon="-0.3422600">
        <ele>489.3</ele>
        <time>2020-11-11T12:57:45Z</time>
      </trkpt>
      <trkpt lat="39.8974030" lon="-0.3423290">
        <ele>490.0</ele>
        <time>2020-11-11T12:57:46Z</time>
      </trkpt>
      <trkpt lat="39.8974040" lon="-0.3423970">
        <ele>491.6</ele>
        <time>2020-11-11T12:57:47Z</time>
      </trkpt>
      <trkpt lat="39.8974040" lon="-0.3424660">
        <ele>493.2</ele>
        <time>2020-11-11T12:57:48Z</time>
      </trkpt>
      <trkpt lat="39.8974040" lon="-0.3425930">
        <ele>494.9</ele>
        <time>2020-11-11T12:57:49Z</time>
      </trkpt>
      <trkpt lat="39.8974080" lon="-0.3426540">
        <ele>496.6</ele>
        <time>2020-11-11T12:57:50Z</time>
      </trkpt>
      <trkpt lat="39.8974130" lon="-0.3427040">
        <ele>497.6</ele>
        <time>2020-11-11T12:57:51Z</time>
      </trkpt>
      <trkpt lat="39.8974170" lon="-0.3427410">
        <ele>498.7</ele>
        <time>2020-11-11T12:57:53Z</time>
      </trkpt>
      <trkpt lat="39.8974180" lon="-0.3427670">
        <ele>499.8</ele>
        <time>2020-11-11T12:57:54Z</time>
      </trkpt>
      <trkpt lat="39.8974200" lon="-0.3427880">
        <ele>499.8</ele>
        <time>2020-11-11T12:57:55Z</time>
      </trkpt>
      <trkpt lat="39.8974290" lon="-0.3427960">
        <ele>499.5</ele>
        <time>2020-11-11T12:57:56Z</time>
      </trkpt>
      <trkpt lat="39.8974370" lon="-0.3427910">
        <ele>499.5</ele>
        <time>2020-11-11T12:57:57Z</time>
      </trkpt>
      <trkpt lat="39.8974440" lon="-0.3427850">
        <ele>499.5</ele>
        <time>2020-11-11T12:57:59Z</time>
      </trkpt>
      <trkpt lat="39.8974520" lon="-0.3427800">
        <ele>499.5</ele>
        <time>2020-11-11T12:58:00Z</time>
      </trkpt>
      <trkpt lat="39.8974590" lon="-0.3427750">
        <ele>499.3</ele>
        <time>2020-11-11T12:58:01Z</time>
      </trkpt>
      <trkpt lat="39.8974840" lon="-0.3427500">
        <ele>498.2</ele>
        <time>2020-11-11T12:58:02Z</time>
      </trkpt>
      <trkpt lat="39.8974950" lon="-0.3427360">
        <ele>497.9</ele>
        <time>2020-11-11T12:58:03Z</time>
      </trkpt>
      <trkpt lat="39.8975290" lon="-0.3427210">
        <ele>496.7</ele>
        <time>2020-11-11T12:58:04Z</time>
      </trkpt>
      <trkpt lat="39.8975400" lon="-0.3427170">
        <ele>496.7</ele>
        <time>2020-11-11T12:58:05Z</time>
      </trkpt>
      <trkpt lat="39.8975840" lon="-0.3427200">
        <ele>496.5</ele>
        <time>2020-11-11T12:58:07Z</time>
      </trkpt>
      <trkpt lat="39.8976010" lon="-0.3427190">
        <ele>496.3</ele>
        <time>2020-11-11T12:58:08Z</time>
      </trkpt>
      <trkpt lat="39.8976170" lon="-0.3427180">
        <ele>496.3</ele>
        <time>2020-11-11T12:58:09Z</time>
      </trkpt>
      <trkpt lat="39.8976490" lon="-0.3427330">
        <ele>497.0</ele>
        <time>2020-11-11T12:58:10Z</time>
      </trkpt>
      <trkpt lat="39.8976570" lon="-0.3427380">
        <ele>496.7</ele>
        <time>2020-11-11T12:58:11Z</time>
      </trkpt>
      <trkpt lat="39.8976890" lon="-0.3427570">
        <ele>496.5</ele>
        <time>2020-11-11T12:58:13Z</time>
      </trkpt>
      <trkpt lat="39.8976960" lon="-0.3427610">
        <ele>496.5</ele>
        <time>2020-11-11T12:58:14Z</time>
      </trkpt>
      <trkpt lat="39.8977090" lon="-0.3427740">
        <ele>497.4</ele>
        <time>2020-11-11T12:58:15Z</time>
      </trkpt>
      <trkpt lat="39.8977210" lon="-0.3427830">
        <ele>497.1</ele>
        <time>2020-11-11T12:58:16Z</time>
      </trkpt>
      <trkpt lat="39.8977440" lon="-0.3427860">
        <ele>497.1</ele>
        <time>2020-11-11T12:58:17Z</time>
      </trkpt>
      <trkpt lat="39.8977560" lon="-0.3427910">
        <ele>496.8</ele>
        <time>2020-11-11T12:58:18Z</time>
      </trkpt>
      <trkpt lat="39.8977700" lon="-0.3427920">
        <ele>496.8</ele>
        <time>2020-11-11T12:58:19Z</time>
      </trkpt>
      <trkpt lat="39.8977850" lon="-0.3427930">
        <ele>496.8</ele>
        <time>2020-11-11T12:58:20Z</time>
      </trkpt>
      <trkpt lat="39.8978030" lon="-0.3426660">
        <ele>494.2</ele>
        <time>2020-11-11T12:58:22Z</time>
      </trkpt>
      <trkpt lat="39.8978210" lon="-0.3425970">
        <ele>493.3</ele>
        <time>2020-11-11T12:58:23Z</time>
      </trkpt>
      <trkpt lat="39.8978430" lon="-0.3425600">
        <ele>492.6</ele>
        <time>2020-11-11T12:58:25Z</time>
      </trkpt>
      <trkpt lat="39.8978550" lon="-0.3425530">
        <ele>492.4</ele>
        <time>2020-11-11T12:58:26Z</time>
      </trkpt>
      <trkpt lat="39.8978700" lon="-0.3425500">
        <ele>491.7</ele>
        <time>2020-11-11T12:58:28Z</time>
      </trkpt>
      <trkpt lat="39.8978860" lon="-0.3425480">
        <ele>491.5</ele>
        <time>2020-11-11T12:58:29Z</time>
      </trkpt>
      <trkpt lat="39.8978990" lon="-0.3425480">
        <ele>491.5</ele>
        <time>2020-11-11T12:58:30Z</time>
      </trkpt>
      <trkpt lat="39.8979290" lon="-0.3425430">
        <ele>491.4</ele>
        <time>2020-11-11T12:58:31Z</time>
      </trkpt>
      <trkpt lat="39.8979370" lon="-0.3425400">
        <ele>491.4</ele>
        <time>2020-11-11T12:58:32Z</time>
      </trkpt>
      <trkpt lat="39.8979680" lon="-0.3425270">
        <ele>491.4</ele>
        <time>2020-11-11T12:58:34Z</time>
      </trkpt>
      <trkpt lat="39.8979770" lon="-0.3425200">
        <ele>491.4</ele>
        <time>2020-11-11T12:58:35Z</time>
      </trkpt>
      <trkpt lat="39.8980070" lon="-0.3424870">
        <ele>490.6</ele>
        <time>2020-11-11T12:58:37Z</time>
      </trkpt>
      <trkpt lat="39.8980140" lon="-0.3424740">
        <ele>490.6</ele>
        <time>2020-11-11T12:58:38Z</time>
      </trkpt>
      <trkpt lat="39.8980300" lon="-0.3424350">
        <ele>490.0</ele>
        <time>2020-11-11T12:58:39Z</time>
      </trkpt>
      <trkpt lat="39.8980340" lon="-0.3424210">
        <ele>489.3</ele>
        <time>2020-11-11T12:58:40Z</time>
      </trkpt>
      <trkpt lat="39.8980530" lon="-0.3423660">
        <ele>488.7</ele>
        <time>2020-11-11T12:58:42Z</time>
      </trkpt>
      <trkpt lat="39.8980580" lon="-0.3423500">
        <ele>488.7</ele>
        <time>2020-11-11T12:58:43Z</time>
      </trkpt>
      <trkpt lat="39.8980630" lon="-0.3423350">
        <ele>488.0</ele>
        <time>2020-11-11T12:58:44Z</time>
      </trkpt>
      <trkpt lat="39.8980760" lon="-0.3422920">
        <ele>487.4</ele>
        <time>2020-11-11T12:58:45Z</time>
      </trkpt>
      <trkpt lat="39.8980830" lon="-0.3422750">
        <ele>487.5</ele>
        <time>2020-11-11T12:58:46Z</time>
      </trkpt>
      <trkpt lat="39.8981030" lon="-0.3422420">
        <ele>486.9</ele>
        <time>2020-11-11T12:58:48Z</time>
      </trkpt>
      <trkpt lat="39.8981080" lon="-0.3422310">
        <ele>486.9</ele>
        <time>2020-11-11T12:58:49Z</time>
      </trkpt>
      <trkpt lat="39.8981190" lon="-0.3422170">
        <ele>486.9</ele>
        <time>2020-11-11T12:58:50Z</time>
      </trkpt>
      <trkpt lat="39.8981340" lon="-0.3422020">
        <ele>486.4</ele>
        <time>2020-11-11T12:58:51Z</time>
      </trkpt>
      <trkpt lat="39.8981520" lon="-0.3421930">
        <ele>486.4</ele>
        <time>2020-11-11T12:58:53Z</time>
      </trkpt>
      <trkpt lat="39.8981660" lon="-0.3421870">
        <ele>486.4</ele>
        <time>2020-11-11T12:58:54Z</time>
      </trkpt>
      <trkpt lat="39.8981810" lon="-0.3421820">
        <ele>486.4</ele>
        <time>2020-11-11T12:58:55Z</time>
      </trkpt>
      <trkpt lat="39.8981960" lon="-0.3421760">
        <ele>486.4</ele>
        <time>2020-11-11T12:58:56Z</time>
      </trkpt>
      <trkpt lat="39.8982120" lon="-0.3421710">
        <ele>486.4</ele>
        <time>2020-11-11T12:58:57Z</time>
      </trkpt>
      <trkpt lat="39.8982290" lon="-0.3421680">
        <ele>486.5</ele>
        <time>2020-11-11T12:58:58Z</time>
      </trkpt>
      <trkpt lat="39.8982570" lon="-0.3421650">
        <ele>486.5</ele>
        <time>2020-11-11T12:58:59Z</time>
      </trkpt>
      <trkpt lat="39.8982670" lon="-0.3421640">
        <ele>485.9</ele>
        <time>2020-11-11T12:59:00Z</time>
      </trkpt>
      <trkpt lat="39.8982970" lon="-0.3421630">
        <ele>485.9</ele>
        <time>2020-11-11T12:59:01Z</time>
      </trkpt>
      <trkpt lat="39.8983070" lon="-0.3421630">
        <ele>485.9</ele>
        <time>2020-11-11T12:59:02Z</time>
      </trkpt>
      <trkpt lat="39.8983460" lon="-0.3421600">
        <ele>485.9</ele>
        <time>2020-11-11T12:59:04Z</time>
      </trkpt>
      <trkpt lat="39.8983640" lon="-0.3421560">
        <ele>485.9</ele>
        <time>2020-11-11T12:59:05Z</time>
      </trkpt>
      <trkpt lat="39.8983800" lon="-0.3421510">
        <ele>485.9</ele>
        <time>2020-11-11T12:59:06Z</time>
      </trkpt>
      <trkpt lat="39.8983950" lon="-0.3421440">
        <ele>485.9</ele>
        <time>2020-11-11T12:59:07Z</time>
      </trkpt>
      <trkpt lat="39.8984080" lon="-0.3421320">
        <ele>485.9</ele>
        <time>2020-11-11T12:59:08Z</time>
      </trkpt>
      <trkpt lat="39.8984410" lon="-0.3420850">
        <ele>485.5</ele>
        <time>2020-11-11T12:59:10Z</time>
      </trkpt>
      <trkpt lat="39.8984510" lon="-0.3420700">
        <ele>485.0</ele>
        <time>2020-11-11T12:59:11Z</time>
      </trkpt>
      <trkpt lat="39.8984600" lon="-0.3420540">
        <ele>485.0</ele>
        <time>2020-11-11T12:59:12Z</time>
      </trkpt>
      <trkpt lat="39.8984870" lon="-0.3420030">
        <ele>484.5</ele>
        <time>2020-11-11T12:59:14Z</time>
      </trkpt>
      <trkpt lat="39.8984960" lon="-0.3419820">
        <ele>483.8</ele>
        <time>2020-11-11T12:59:15Z</time>
      </trkpt>
      <trkpt lat="39.8985050" lon="-0.3419610">
        <ele>483.8</ele>
        <time>2020-11-11T12:59:16Z</time>
      </trkpt>
      <trkpt lat="39.8985230" lon="-0.3419250">
        <ele>483.3</ele>
        <time>2020-11-11T12:59:17Z</time>
      </trkpt>
      <trkpt lat="39.8985280" lon="-0.3419130">
        <ele>483.3</ele>
        <time>2020-11-11T12:59:18Z</time>
      </trkpt>
      <trkpt lat="39.8985480" lon="-0.3418780">
        <ele>482.7</ele>
        <time>2020-11-11T12:59:20Z</time>
      </trkpt>
      <trkpt lat="39.8985520" lon="-0.3418680">
        <ele>482.7</ele>
        <time>2020-11-11T12:59:21Z</time>
      </trkpt>
      <trkpt lat="39.8985620" lon="-0.3418500">
        <ele>482.2</ele>
        <time>2020-11-11T12:59:22Z</time>
      </trkpt>
      <trkpt lat="39.8985810" lon="-0.3418180">
        <ele>481.8</ele>
        <time>2020-11-11T12:59:24Z</time>
      </trkpt>
      <trkpt lat="39.8985980" lon="-0.3417880">
        <ele>481.8</ele>
        <time>2020-11-11T12:59:25Z</time>
      </trkpt>
      <trkpt lat="39.8986090" lon="-0.3417700">
        <ele>481.5</ele>
        <time>2020-11-11T12:59:26Z</time>
      </trkpt>
      <trkpt lat="39.8986240" lon="-0.3417470">
        <ele>481.5</ele>
        <time>2020-11-11T12:59:28Z</time>
      </trkpt>
      <trkpt lat="39.8986450" lon="-0.3417240">
        <ele>481.3</ele>
        <time>2020-11-11T12:59:29Z</time>
      </trkpt>
      <trkpt lat="39.8986730" lon="-0.3417010">
        <ele>481.3</ele>
        <time>2020-11-11T12:59:31Z</time>
      </trkpt>
      <trkpt lat="39.8986810" lon="-0.3416950">
        <ele>481.5</ele>
        <time>2020-11-11T12:59:32Z</time>
      </trkpt>
      <trkpt lat="39.8987070" lon="-0.3416850">
        <ele>481.1</ele>
        <time>2020-11-11T12:59:33Z</time>
      </trkpt>
      <trkpt lat="39.8987370" lon="-0.3416810">
        <ele>481.4</ele>
        <time>2020-11-11T12:59:35Z</time>
      </trkpt>
      <trkpt lat="39.8987470" lon="-0.3416790">
        <ele>481.6</ele>
        <time>2020-11-11T12:59:36Z</time>
      </trkpt>
      <trkpt lat="39.8987630" lon="-0.3416780">
        <ele>481.6</ele>
        <time>2020-11-11T12:59:37Z</time>
      </trkpt>
      <trkpt lat="39.8987940" lon="-0.3416780">
        <ele>482.0</ele>
        <time>2020-11-11T12:59:39Z</time>
      </trkpt>
      <trkpt lat="39.8988220" lon="-0.3416820">
        <ele>482.3</ele>
        <time>2020-11-11T12:59:41Z</time>
      </trkpt>
      <trkpt lat="39.8988360" lon="-0.3416850">
        <ele>482.3</ele>
        <time>2020-11-11T12:59:42Z</time>
      </trkpt>
      <trkpt lat="39.8988630" lon="-0.3416880">
        <ele>482.6</ele>
        <time>2020-11-11T12:59:44Z</time>
      </trkpt>
      <trkpt lat="39.8988830" lon="-0.3416880">
        <ele>483.0</ele>
        <time>2020-11-11T12:59:45Z</time>
      </trkpt>
      <trkpt lat="39.8988960" lon="-0.3416850">
        <ele>483.0</ele>
        <time>2020-11-11T12:59:46Z</time>
      </trkpt>
      <trkpt lat="39.8989090" lon="-0.3416800">
        <ele>483.5</ele>
        <time>2020-11-11T12:59:47Z</time>
      </trkpt>
      <trkpt lat="39.8989200" lon="-0.3416710">
        <ele>483.5</ele>
        <time>2020-11-11T12:59:48Z</time>
      </trkpt>
      <trkpt lat="39.8989330" lon="-0.3416630">
        <ele>483.5</ele>
        <time>2020-11-11T12:59:50Z</time>
      </trkpt>
      <trkpt lat="39.8989460" lon="-0.3416560">
        <ele>483.9</ele>
        <time>2020-11-11T12:59:51Z</time>
      </trkpt>
      <trkpt lat="39.8989590" lon="-0.3416550">
        <ele>483.9</ele>
        <time>2020-11-11T12:59:52Z</time>
      </trkpt>
      <trkpt lat="39.8989700" lon="-0.3416600">
        <ele>483.9</ele>
        <time>2020-11-11T12:59:53Z</time>
      </trkpt>
      <trkpt lat="39.8989910" lon="-0.3416970">
        <ele>484.8</ele>
        <time>2020-11-11T12:59:54Z</time>
      </trkpt>
      <trkpt lat="39.8990000" lon="-0.3417220">
        <ele>484.8</ele>
        <time>2020-11-11T12:59:55Z</time>
      </trkpt>
      <trkpt lat="39.8990090" lon="-0.3417440">
        <ele>485.7</ele>
        <time>2020-11-11T12:59:57Z</time>
      </trkpt>
      <trkpt lat="39.8990150" lon="-0.3417800">
        <ele>486.0</ele>
        <time>2020-11-11T12:59:58Z</time>
      </trkpt>
      <trkpt lat="39.8990190" lon="-0.3418160">
        <ele>486.0</ele>
        <time>2020-11-11T12:59:59Z</time>
      </trkpt>
      <trkpt lat="39.8990190" lon="-0.3418620">
        <ele>486.4</ele>
        <time>2020-11-11T13:00:00Z</time>
      </trkpt>
      <trkpt lat="39.8990210" lon="-0.3418960">
        <ele>486.9</ele>
        <time>2020-11-11T13:00:01Z</time>
      </trkpt>
      <trkpt lat="39.8990220" lon="-0.3419750">
        <ele>487.8</ele>
        <time>2020-11-11T13:00:03Z</time>
      </trkpt>
      <trkpt lat="39.8990190" lon="-0.3420540">
        <ele>488.7</ele>
        <time>2020-11-11T13:00:04Z</time>
      </trkpt>
      <trkpt lat="39.8990130" lon="-0.3421200">
        <ele>489.2</ele>
        <time>2020-11-11T13:00:05Z</time>
      </trkpt>
      <trkpt lat="39.8990110" lon="-0.3421690">
        <ele>490.2</ele>
        <time>2020-11-11T13:00:07Z</time>
      </trkpt>
      <trkpt lat="39.8990050" lon="-0.3422480">
        <ele>490.8</ele>
        <time>2020-11-11T13:00:08Z</time>
      </trkpt>
      <trkpt lat="39.8990040" lon="-0.3422670">
        <ele>491.3</ele>
        <time>2020-11-11T13:00:09Z</time>
      </trkpt>
      <trkpt lat="39.8990040" lon="-0.3422850">
        <ele>491.3</ele>
        <time>2020-11-11T13:00:10Z</time>
      </trkpt>
      <trkpt lat="39.8990030" lon="-0.3423160">
        <ele>491.5</ele>
        <time>2020-11-11T13:00:11Z</time>
      </trkpt>
      <trkpt lat="39.8990040" lon="-0.3423300">
        <ele>491.9</ele>
        <time>2020-11-11T13:00:12Z</time>
      </trkpt>
      <trkpt lat="39.8990040" lon="-0.3423430">
        <ele>492.4</ele>
        <time>2020-11-11T13:00:13Z</time>
      </trkpt>
      <trkpt lat="39.8990060" lon="-0.3423620">
        <ele>492.4</ele>
        <time>2020-11-11T13:00:14Z</time>
      </trkpt>
      <trkpt lat="39.8990080" lon="-0.3423830">
        <ele>493.0</ele>
        <time>2020-11-11T13:00:15Z</time>
      </trkpt>
      <trkpt lat="39.8990100" lon="-0.3424030">
        <ele>493.0</ele>
        <time>2020-11-11T13:00:16Z</time>
      </trkpt>
      <trkpt lat="39.8990120" lon="-0.3424220">
        <ele>493.5</ele>
        <time>2020-11-11T13:00:17Z</time>
      </trkpt>
      <trkpt lat="39.8990140" lon="-0.3424600">
        <ele>493.5</ele>
        <time>2020-11-11T13:00:19Z</time>
      </trkpt>
      <trkpt lat="39.8990140" lon="-0.3424720">
        <ele>494.0</ele>
        <time>2020-11-11T13:00:20Z</time>
      </trkpt>
      <trkpt lat="39.8990110" lon="-0.3425080">
        <ele>494.5</ele>
        <time>2020-11-11T13:00:21Z</time>
      </trkpt>
      <trkpt lat="39.8990100" lon="-0.3425200">
        <ele>494.5</ele>
        <time>2020-11-11T13:00:22Z</time>
      </trkpt>
      <trkpt lat="39.8990060" lon="-0.3425420">
        <ele>494.5</ele>
        <time>2020-11-11T13:00:23Z</time>
      </trkpt>
      <trkpt lat="39.8990030" lon="-0.3425760">
        <ele>494.7</ele>
        <time>2020-11-11T13:00:25Z</time>
      </trkpt>
      <trkpt lat="39.8989950" lon="-0.3426100">
        <ele>495.2</ele>
        <time>2020-11-11T13:00:27Z</time>
      </trkpt>
      <trkpt lat="39.8989890" lon="-0.3426280">
        <ele>495.2</ele>
        <time>2020-11-11T13:00:28Z</time>
      </trkpt>
      <trkpt lat="39.8989820" lon="-0.3426470">
        <ele>495.7</ele>
        <time>2020-11-11T13:00:29Z</time>
      </trkpt>
      <trkpt lat="39.8989610" lon="-0.3426800">
        <ele>495.9</ele>
        <time>2020-11-11T13:00:30Z</time>
      </trkpt>
      <trkpt lat="39.8989540" lon="-0.3426900">
        <ele>495.9</ele>
        <time>2020-11-11T13:00:31Z</time>
      </trkpt>
      <trkpt lat="39.8989290" lon="-0.3427340">
        <ele>496.2</ele>
        <time>2020-11-11T13:00:33Z</time>
      </trkpt>
      <trkpt lat="39.8989220" lon="-0.3427480">
        <ele>496.2</ele>
        <time>2020-11-11T13:00:34Z</time>
      </trkpt>
      <trkpt lat="39.8989150" lon="-0.3427630">
        <ele>496.2</ele>
        <time>2020-11-11T13:00:35Z</time>
      </trkpt>
      <trkpt lat="39.8989080" lon="-0.3427850">
        <ele>496.9</ele>
        <time>2020-11-11T13:00:36Z</time>
      </trkpt>
      <trkpt lat="39.8989040" lon="-0.3428080">
        <ele>497.3</ele>
        <time>2020-11-11T13:00:37Z</time>
      </trkpt>
      <trkpt lat="39.8989190" lon="-0.3428350">
        <ele>497.6</ele>
        <time>2020-11-11T13:00:38Z</time>
      </trkpt>
      <trkpt lat="39.8989410" lon="-0.3428680">
        <ele>498.5</ele>
        <time>2020-11-11T13:00:40Z</time>
      </trkpt>
      <trkpt lat="39.8989510" lon="-0.3428860">
        <ele>498.5</ele>
        <time>2020-11-11T13:00:41Z</time>
      </trkpt>
      <trkpt lat="39.8989630" lon="-0.3428980">
        <ele>499.0</ele>
        <time>2020-11-11T13:00:42Z</time>
      </trkpt>
      <trkpt lat="39.8989900" lon="-0.3428910">
        <ele>498.7</ele>
        <time>2020-11-11T13:00:43Z</time>
      </trkpt>
      <trkpt lat="39.8990230" lon="-0.3428790">
        <ele>499.0</ele>
        <time>2020-11-11T13:00:44Z</time>
      </trkpt>
      <trkpt lat="39.8990620" lon="-0.3428640">
        <ele>499.3</ele>
        <time>2020-11-11T13:00:46Z</time>
      </trkpt>
      <trkpt lat="39.8990740" lon="-0.3428580">
        <ele>499.5</ele>
        <time>2020-11-11T13:00:47Z</time>
      </trkpt>
      <trkpt lat="39.8990860" lon="-0.3428510">
        <ele>499.5</ele>
        <time>2020-11-11T13:00:48Z</time>
      </trkpt>
      <trkpt lat="39.8990950" lon="-0.3428410">
        <ele>498.9</ele>
        <time>2020-11-11T13:00:49Z</time>
      </trkpt>
      <trkpt lat="39.8991070" lon="-0.3428280">
        <ele>499.2</ele>
        <time>2020-11-11T13:00:50Z</time>
      </trkpt>
      <trkpt lat="39.8991330" lon="-0.3427930">
        <ele>498.6</ele>
        <time>2020-11-11T13:00:52Z</time>
      </trkpt>
      <trkpt lat="39.8991430" lon="-0.3427780">
        <ele>499.0</ele>
        <time>2020-11-11T13:00:53Z</time>
      </trkpt>
      <trkpt lat="39.8991550" lon="-0.3427550">
        <ele>498.4</ele>
        <time>2020-11-11T13:00:55Z</time>
      </trkpt>
      <trkpt lat="39.8991700" lon="-0.3427200">
        <ele>498.3</ele>
        <time>2020-11-11T13:00:57Z</time>
      </trkpt>
      <trkpt lat="39.8991800" lon="-0.3426880">
        <ele>498.3</ele>
        <time>2020-11-11T13:00:58Z</time>
      </trkpt>
      <trkpt lat="39.8991880" lon="-0.3426490">
        <ele>497.8</ele>
        <time>2020-11-11T13:01:00Z</time>
      </trkpt>
      <trkpt lat="39.8991880" lon="-0.3426160">
        <ele>497.4</ele>
        <time>2020-11-11T13:01:01Z</time>
      </trkpt>
      <trkpt lat="39.8991870" lon="-0.3426010">
        <ele>497.4</ele>
        <time>2020-11-11T13:01:03Z</time>
      </trkpt>
      <trkpt lat="39.8991850" lon="-0.3425860">
        <ele>496.9</ele>
        <time>2020-11-11T13:01:04Z</time>
      </trkpt>
      <trkpt lat="39.8991840" lon="-0.3425710">
        <ele>496.9</ele>
        <time>2020-11-11T13:01:05Z</time>
      </trkpt>
      <trkpt lat="39.8991830" lon="-0.3425560">
        <ele>496.9</ele>
        <time>2020-11-11T13:01:06Z</time>
      </trkpt>
      <trkpt lat="39.8991810" lon="-0.3425390">
        <ele>496.5</ele>
        <time>2020-11-11T13:01:08Z</time>
      </trkpt>
      <trkpt lat="39.8991780" lon="-0.3425210">
        <ele>496.5</ele>
        <time>2020-11-11T13:01:09Z</time>
      </trkpt>
      <trkpt lat="39.8991710" lon="-0.3424910">
        <ele>496.0</ele>
        <time>2020-11-11T13:01:11Z</time>
      </trkpt>
      <trkpt lat="39.8991670" lon="-0.3424620">
        <ele>495.1</ele>
        <time>2020-11-11T13:01:13Z</time>
      </trkpt>
      <trkpt lat="39.8991670" lon="-0.3424220">
        <ele>495.1</ele>
        <time>2020-11-11T13:01:15Z</time>
      </trkpt>
      <trkpt lat="39.8991670" lon="-0.3424110">
        <ele>494.6</ele>
        <time>2020-11-11T13:01:16Z</time>
      </trkpt>
      <trkpt lat="39.8991670" lon="-0.3423850">
        <ele>494.6</ele>
        <time>2020-11-11T13:01:18Z</time>
      </trkpt>
      <trkpt lat="39.8991700" lon="-0.3423540">
        <ele>494.5</ele>
        <time>2020-11-11T13:01:20Z</time>
      </trkpt>
      <trkpt lat="39.8991760" lon="-0.3423320">
        <ele>494.0</ele>
        <time>2020-11-11T13:01:21Z</time>
      </trkpt>
      <trkpt lat="39.8991860" lon="-0.3423070">
        <ele>494.0</ele>
        <time>2020-11-11T13:01:23Z</time>
      </trkpt>
      <trkpt lat="39.8991970" lon="-0.3422920">
        <ele>493.5</ele>
        <time>2020-11-11T13:01:24Z</time>
      </trkpt>
      <trkpt lat="39.8992100" lon="-0.3422780">
        <ele>493.9</ele>
        <time>2020-11-11T13:01:25Z</time>
      </trkpt>
      <trkpt lat="39.8992440" lon="-0.3422620">
        <ele>494.4</ele>
        <time>2020-11-11T13:01:26Z</time>
      </trkpt>
      <trkpt lat="39.8992590" lon="-0.3422570">
        <ele>494.4</ele>
        <time>2020-11-11T13:01:27Z</time>
      </trkpt>
      <trkpt lat="39.8992920" lon="-0.3422450">
        <ele>494.4</ele>
        <time>2020-11-11T13:01:29Z</time>
      </trkpt>
      <trkpt lat="39.8993240" lon="-0.3422400">
        <ele>494.9</ele>
        <time>2020-11-11T13:01:30Z</time>
      </trkpt>
      <trkpt lat="39.8993350" lon="-0.3422310">
        <ele>495.3</ele>
        <time>2020-11-11T13:01:31Z</time>
      </trkpt>
      <trkpt lat="39.8993550" lon="-0.3422230">
        <ele>495.3</ele>
        <time>2020-11-11T13:01:32Z</time>
      </trkpt>
      <trkpt lat="39.8993930" lon="-0.3421970">
        <ele>495.4</ele>
        <time>2020-11-11T13:01:34Z</time>
      </trkpt>
      <trkpt lat="39.8994030" lon="-0.3421890">
        <ele>495.8</ele>
        <time>2020-11-11T13:01:35Z</time>
      </trkpt>
      <trkpt lat="39.8994140" lon="-0.3421820">
        <ele>495.8</ele>
        <time>2020-11-11T13:01:36Z</time>
      </trkpt>
      <trkpt lat="39.8994380" lon="-0.3421630">
        <ele>495.8</ele>
        <time>2020-11-11T13:01:37Z</time>
      </trkpt>
      <trkpt lat="39.8994480" lon="-0.3421560">
        <ele>495.8</ele>
        <time>2020-11-11T13:01:38Z</time>
      </trkpt>
      <trkpt lat="39.8994810" lon="-0.3421350">
        <ele>496.2</ele>
        <time>2020-11-11T13:01:39Z</time>
      </trkpt>
      <trkpt lat="39.8994890" lon="-0.3421290">
        <ele>496.2</ele>
        <time>2020-11-11T13:01:40Z</time>
      </trkpt>
      <trkpt lat="39.8995200" lon="-0.3421080">
        <ele>496.3</ele>
        <time>2020-11-11T13:01:42Z</time>
      </trkpt>
      <trkpt lat="39.8995300" lon="-0.3421030">
        <ele>496.3</ele>
        <time>2020-11-11T13:01:43Z</time>
      </trkpt>
      <trkpt lat="39.8995440" lon="-0.3420960">
        <ele>496.7</ele>
        <time>2020-11-11T13:01:44Z</time>
      </trkpt>
      <trkpt lat="39.8996420" lon="-0.3421080">
        <ele>497.8</ele>
        <time>2020-11-11T13:01:45Z</time>
      </trkpt>
      <trkpt lat="39.8996640" lon="-0.3421200">
        <ele>498.2</ele>
        <time>2020-11-11T13:01:47Z</time>
      </trkpt>
      <trkpt lat="39.8996770" lon="-0.3421300">
        <ele>498.5</ele>
        <time>2020-11-11T13:01:48Z</time>
      </trkpt>
      <trkpt lat="39.8996910" lon="-0.3421390">
        <ele>498.5</ele>
        <time>2020-11-11T13:01:49Z</time>
      </trkpt>
      <trkpt lat="39.8997330" lon="-0.3421680">
        <ele>499.4</ele>
        <time>2020-11-11T13:01:51Z</time>
      </trkpt>
      <trkpt lat="39.8997500" lon="-0.3421820">
        <ele>499.4</ele>
        <time>2020-11-11T13:01:53Z</time>
      </trkpt>
      <trkpt lat="39.8997680" lon="-0.3421950">
        <ele>499.7</ele>
        <time>2020-11-11T13:01:55Z</time>
      </trkpt>
      <trkpt lat="39.8997850" lon="-0.3422090">
        <ele>499.9</ele>
        <time>2020-11-11T13:01:56Z</time>
      </trkpt>
      <trkpt lat="39.8998020" lon="-0.3422230">
        <ele>500.1</ele>
        <time>2020-11-11T13:01:57Z</time>
      </trkpt>
      <trkpt lat="39.8998170" lon="-0.3422350">
        <ele>500.1</ele>
        <time>2020-11-11T13:01:58Z</time>
      </trkpt>
      <trkpt lat="39.8998490" lon="-0.3422540">
        <ele>500.5</ele>
        <time>2020-11-11T13:02:00Z</time>
      </trkpt>
      <trkpt lat="39.8998780" lon="-0.3422590">
        <ele>500.6</ele>
        <time>2020-11-11T13:02:01Z</time>
      </trkpt>
      <trkpt lat="39.8998900" lon="-0.3422600">
        <ele>500.6</ele>
        <time>2020-11-11T13:02:02Z</time>
      </trkpt>
      <trkpt lat="39.8999300" lon="-0.3422510">
        <ele>500.5</ele>
        <time>2020-11-11T13:02:04Z</time>
      </trkpt>
      <trkpt lat="39.8999430" lon="-0.3422420">
        <ele>500.3</ele>
        <time>2020-11-11T13:02:05Z</time>
      </trkpt>
      <trkpt lat="39.8999550" lon="-0.3422340">
        <ele>500.3</ele>
        <time>2020-11-11T13:02:06Z</time>
      </trkpt>
      <trkpt lat="39.8999830" lon="-0.3421890">
        <ele>499.9</ele>
        <time>2020-11-11T13:02:07Z</time>
      </trkpt>
      <trkpt lat="39.8999940" lon="-0.3421640">
        <ele>499.5</ele>
        <time>2020-11-11T13:02:08Z</time>
      </trkpt>
      <trkpt lat="39.9000100" lon="-0.3421350">
        <ele>499.5</ele>
        <time>2020-11-11T13:02:09Z</time>
      </trkpt>
      <trkpt lat="39.9000240" lon="-0.3420880">
        <ele>499.2</ele>
        <time>2020-11-11T13:02:10Z</time>
      </trkpt>
      <trkpt lat="39.9000340" lon="-0.3420350">
        <ele>498.6</ele>
        <time>2020-11-11T13:02:11Z</time>
      </trkpt>
      <trkpt lat="39.9000430" lon="-0.3419760">
        <ele>498.3</ele>
        <time>2020-11-11T13:02:13Z</time>
      </trkpt>
      <trkpt lat="39.9000500" lon="-0.3419170">
        <ele>498.1</ele>
        <time>2020-11-11T13:02:14Z</time>
      </trkpt>
      <trkpt lat="39.9000500" lon="-0.3418910">
        <ele>497.9</ele>
        <time>2020-11-11T13:02:15Z</time>
      </trkpt>
      <trkpt lat="39.9000460" lon="-0.3418460">
        <ele>497.7</ele>
        <time>2020-11-11T13:02:16Z</time>
      </trkpt>
      <trkpt lat="39.9000450" lon="-0.3418320">
        <ele>497.7</ele>
        <time>2020-11-11T13:02:17Z</time>
      </trkpt>
      <trkpt lat="39.9000370" lon="-0.3417950">
        <ele>497.5</ele>
        <time>2020-11-11T13:02:18Z</time>
      </trkpt>
      <trkpt lat="39.9000330" lon="-0.3417490">
        <ele>497.2</ele>
        <time>2020-11-11T13:02:20Z</time>
      </trkpt>
      <trkpt lat="39.9000310" lon="-0.3417340">
        <ele>497.0</ele>
        <time>2020-11-11T13:02:21Z</time>
      </trkpt>
      <trkpt lat="39.9000250" lon="-0.3416850">
        <ele>496.7</ele>
        <time>2020-11-11T13:02:22Z</time>
      </trkpt>
      <trkpt lat="39.9000230" lon="-0.3416690">
        <ele>496.7</ele>
        <time>2020-11-11T13:02:23Z</time>
      </trkpt>
      <trkpt lat="39.9000190" lon="-0.3416260">
        <ele>496.3</ele>
        <time>2020-11-11T13:02:24Z</time>
      </trkpt>
      <trkpt lat="39.9000180" lon="-0.3416130">
        <ele>496.3</ele>
        <time>2020-11-11T13:02:25Z</time>
      </trkpt>
      <trkpt lat="39.9000160" lon="-0.3415760">
        <ele>496.0</ele>
        <time>2020-11-11T13:02:26Z</time>
      </trkpt>
      <trkpt lat="39.9000160" lon="-0.3415640">
        <ele>496.0</ele>
        <time>2020-11-11T13:02:27Z</time>
      </trkpt>
      <trkpt lat="39.9000180" lon="-0.3415190">
        <ele>495.5</ele>
        <time>2020-11-11T13:02:29Z</time>
      </trkpt>
      <trkpt lat="39.9000200" lon="-0.3414970">
        <ele>495.5</ele>
        <time>2020-11-11T13:02:30Z</time>
      </trkpt>
      <trkpt lat="39.9000250" lon="-0.3414770">
        <ele>495.4</ele>
        <time>2020-11-11T13:02:31Z</time>
      </trkpt>
      <trkpt lat="39.9000340" lon="-0.3414520">
        <ele>495.4</ele>
        <time>2020-11-11T13:02:32Z</time>
      </trkpt>
      <trkpt lat="39.9000480" lon="-0.3414130">
        <ele>495.2</ele>
        <time>2020-11-11T13:02:34Z</time>
      </trkpt>
      <trkpt lat="39.9000750" lon="-0.3413750">
        <ele>495.1</ele>
        <time>2020-11-11T13:02:35Z</time>
      </trkpt>
      <trkpt lat="39.9000850" lon="-0.3413600">
        <ele>495.1</ele>
        <time>2020-11-11T13:02:36Z</time>
      </trkpt>
      <trkpt lat="39.9000990" lon="-0.3413370">
        <ele>495.1</ele>
        <time>2020-11-11T13:02:37Z</time>
      </trkpt>
      <trkpt lat="39.9001230" lon="-0.3413050">
        <ele>495.0</ele>
        <time>2020-11-11T13:02:39Z</time>
      </trkpt>
      <trkpt lat="39.9001540" lon="-0.3412800">
        <ele>495.0</ele>
        <time>2020-11-11T13:02:40Z</time>
      </trkpt>
      <trkpt lat="39.9001650" lon="-0.3412720">
        <ele>495.0</ele>
        <time>2020-11-11T13:02:41Z</time>
      </trkpt>
      <trkpt lat="39.9001960" lon="-0.3412520">
        <ele>494.9</ele>
        <time>2020-11-11T13:02:42Z</time>
      </trkpt>
      <trkpt lat="39.9002060" lon="-0.3412460">
        <ele>494.9</ele>
        <time>2020-11-11T13:02:43Z</time>
      </trkpt>
      <trkpt lat="39.9002200" lon="-0.3412390">
        <ele>494.9</ele>
        <time>2020-11-11T13:02:44Z</time>
      </trkpt>
      <trkpt lat="39.9002320" lon="-0.3412310">
        <ele>494.9</ele>
        <time>2020-11-11T13:02:45Z</time>
      </trkpt>
      <trkpt lat="39.9002450" lon="-0.3412230">
        <ele>494.9</ele>
        <time>2020-11-11T13:02:46Z</time>
      </trkpt>
      <trkpt lat="39.9002570" lon="-0.3412150">
        <ele>494.6</ele>
        <time>2020-11-11T13:02:47Z</time>
      </trkpt>
      <trkpt lat="39.9002740" lon="-0.3412040">
        <ele>494.6</ele>
        <time>2020-11-11T13:02:49Z</time>
      </trkpt>
      <trkpt lat="39.9002820" lon="-0.3411960">
        <ele>494.6</ele>
        <time>2020-11-11T13:02:50Z</time>
      </trkpt>
      <trkpt lat="39.9002910" lon="-0.3411830">
        <ele>494.5</ele>
        <time>2020-11-11T13:02:52Z</time>
      </trkpt>
      <trkpt lat="39.9002960" lon="-0.3411780">
        <ele>494.5</ele>
        <time>2020-11-11T13:02:53Z</time>
      </trkpt>
      <trkpt lat="39.9003020" lon="-0.3411740">
        <ele>494.4</ele>
        <time>2020-11-11T13:02:54Z</time>
      </trkpt>
      <trkpt lat="39.9003090" lon="-0.3411680">
        <ele>494.4</ele>
        <time>2020-11-11T13:02:55Z</time>
      </trkpt>
      <trkpt lat="39.9003150" lon="-0.3411670">
        <ele>494.4</ele>
        <time>2020-11-11T13:02:56Z</time>
      </trkpt>
      <trkpt lat="39.9003230" lon="-0.3411680">
        <ele>494.2</ele>
        <time>2020-11-11T13:02:57Z</time>
      </trkpt>
      <trkpt lat="39.9003310" lon="-0.3411680">
        <ele>494.2</ele>
        <time>2020-11-11T13:02:58Z</time>
      </trkpt>
      <trkpt lat="39.9003440" lon="-0.3411650">
        <ele>494.2</ele>
        <time>2020-11-11T13:03:00Z</time>
      </trkpt>
      <trkpt lat="39.9003760" lon="-0.3411990">
        <ele>494.1</ele>
        <time>2020-11-11T13:03:02Z</time>
      </trkpt>
      <trkpt lat="39.9004000" lon="-0.3412250">
        <ele>493.9</ele>
        <time>2020-11-11T13:03:03Z</time>
      </trkpt>
      <trkpt lat="39.9004090" lon="-0.3412380">
        <ele>493.9</ele>
        <time>2020-11-11T13:03:04Z</time>
      </trkpt>
      <trkpt lat="39.9004420" lon="-0.3412720">
        <ele>493.7</ele>
        <time>2020-11-11T13:03:06Z</time>
      </trkpt>
      <trkpt lat="39.9004530" lon="-0.3412830">
        <ele>493.4</ele>
        <time>2020-11-11T13:03:07Z</time>
      </trkpt>
      <trkpt lat="39.9004630" lon="-0.3412940">
        <ele>493.4</ele>
        <time>2020-11-11T13:03:08Z</time>
      </trkpt>
      <trkpt lat="39.9004950" lon="-0.3413230">
        <ele>493.1</ele>
        <time>2020-11-11T13:03:09Z</time>
      </trkpt>
      <trkpt lat="39.9005080" lon="-0.3413370">
        <ele>493.1</ele>
        <time>2020-11-11T13:03:10Z</time>
      </trkpt>
      <trkpt lat="39.9005360" lon="-0.3413620">
        <ele>492.7</ele>
        <time>2020-11-11T13:03:12Z</time>
      </trkpt>
      <trkpt lat="39.9005540" lon="-0.3413770">
        <ele>492.2</ele>
        <time>2020-11-11T13:03:13Z</time>
      </trkpt>
      <trkpt lat="39.9005890" lon="-0.3414010">
        <ele>491.7</ele>
        <time>2020-11-11T13:03:15Z</time>
      </trkpt>
      <trkpt lat="39.9006170" lon="-0.3414180">
        <ele>491.7</ele>
        <time>2020-11-11T13:03:16Z</time>
      </trkpt>
      <trkpt lat="39.9006360" lon="-0.3414300">
        <ele>491.2</ele>
        <time>2020-11-11T13:03:17Z</time>
      </trkpt>
      <trkpt lat="39.9006630" lon="-0.3414480">
        <ele>490.7</ele>
        <time>2020-11-11T13:03:19Z</time>
      </trkpt>
      <trkpt lat="39.9006920" lon="-0.3414690">
        <ele>490.2</ele>
        <time>2020-11-11T13:03:20Z</time>
      </trkpt>
      <trkpt lat="39.9007010" lon="-0.3414760">
        <ele>490.2</ele>
        <time>2020-11-11T13:03:21Z</time>
      </trkpt>
      <trkpt lat="39.9007330" lon="-0.3414990">
        <ele>489.7</ele>
        <time>2020-11-11T13:03:22Z</time>
      </trkpt>
      <trkpt lat="39.9007460" lon="-0.3415100">
        <ele>489.7</ele>
        <time>2020-11-11T13:03:23Z</time>
      </trkpt>
      <trkpt lat="39.9007830" lon="-0.3415360">
        <ele>488.7</ele>
        <time>2020-11-11T13:03:25Z</time>
      </trkpt>
      <trkpt lat="39.9007950" lon="-0.3415440">
        <ele>488.7</ele>
        <time>2020-11-11T13:03:26Z</time>
      </trkpt>
      <trkpt lat="39.9008080" lon="-0.3415530">
        <ele>488.7</ele>
        <time>2020-11-11T13:03:27Z</time>
      </trkpt>
      <trkpt lat="39.9008200" lon="-0.3415630">
        <ele>488.3</ele>
        <time>2020-11-11T13:03:28Z</time>
      </trkpt>
      <trkpt lat="39.9008380" lon="-0.3415810">
        <ele>488.3</ele>
        <time>2020-11-11T13:03:30Z</time>
      </trkpt>
      <trkpt lat="39.9008500" lon="-0.3415930">
        <ele>487.9</ele>
        <time>2020-11-11T13:03:31Z</time>
      </trkpt>
      <trkpt lat="39.9008630" lon="-0.3416070">
        <ele>488.0</ele>
        <time>2020-11-11T13:03:32Z</time>
      </trkpt>
      <trkpt lat="39.9008740" lon="-0.3416190">
        <ele>488.0</ele>
        <time>2020-11-11T13:03:33Z</time>
      </trkpt>
      <trkpt lat="39.9008900" lon="-0.3416370">
        <ele>487.5</ele>
        <time>2020-11-11T13:03:35Z</time>
      </trkpt>
      <trkpt lat="39.9008980" lon="-0.3416500">
        <ele>487.6</ele>
        <time>2020-11-11T13:03:36Z</time>
      </trkpt>
      <trkpt lat="39.9010900" lon="-0.3413240">
        <ele>483.3</ele>
        <time>2020-11-11T13:04:12Z</time>
      </trkpt>
      <trkpt lat="39.9010480" lon="-0.3411990">
        <ele>483.4</ele>
        <time>2020-11-11T13:04:20Z</time>
      </trkpt>
      <trkpt lat="39.9010860" lon="-0.3412430">
        <ele>483.0</ele>
        <time>2020-11-11T13:06:31Z</time>
      </trkpt>
      <trkpt lat="39.9010880" lon="-0.3413510">
        <ele>483.5</ele>
        <time>2020-11-11T13:06:37Z</time>
      </trkpt>
    </trkseg>
  </trk>
</gpx>
